<?xml version="1.0" encoding="UTF-8" standalone="no" ?>
<gpx xmlns="http://www.topografix.com/GPX/1/1" xmlns:xsi="http://www.w3.org/2001/XMLSchema-instance" xsi:schemaLocation="http://www.topografix.com/GPX/1/1 http://www.topografix.com/GPX/1/1/gpx.xsd" version="1.1" creator="VisuGPX - https://www.visugpx.com">
  <metadata>
    <name>VTT champtoceaux</name>
    <desc><![CDATA[
]]></desc>
  </metadata>
  <trk>
    <name><![CDATA[runtastic_20150111_1007]]></name>
    <trkseg>
      <trkpt lat="47.36437" lon="-1.19887">
        <ele>67</ele>
        <time>2015-01-11T09:07:22.000Z</time>
      </trkpt>
      <trkpt lat="47.36433" lon="-1.19913">
        <ele>71</ele>
        <time>2015-01-11T09:07:29.000Z</time>
      </trkpt>
      <trkpt lat="47.36432" lon="-1.19925">
        <ele>73</ele>
        <time>2015-01-11T09:07:31.000Z</time>
      </trkpt>
      <trkpt lat="47.36438" lon="-1.19938">
        <ele>75</ele>
        <time>2015-01-11T09:07:35.000Z</time>
      </trkpt>
      <trkpt lat="47.36444" lon="-1.19941">
        <ele>76</ele>
        <time>2015-01-11T09:07:37.000Z</time>
      </trkpt>
      <trkpt lat="47.3645" lon="-1.1994">
        <ele>77</ele>
        <time>2015-01-11T09:07:39.000Z</time>
      </trkpt>
      <trkpt lat="47.36457" lon="-1.19937">
        <ele>77</ele>
        <time>2015-01-11T09:07:41.000Z</time>
      </trkpt>
      <trkpt lat="47.36464" lon="-1.19934">
        <ele>77</ele>
        <time>2015-01-11T09:07:43.000Z</time>
      </trkpt>
      <trkpt lat="47.36471" lon="-1.19933">
        <ele>78</ele>
        <time>2015-01-11T09:07:45.000Z</time>
      </trkpt>
      <trkpt lat="47.36478" lon="-1.19933">
        <ele>79</ele>
        <time>2015-01-11T09:07:47.000Z</time>
      </trkpt>
      <trkpt lat="47.36485" lon="-1.19935">
        <ele>80</ele>
        <time>2015-01-11T09:07:49.000Z</time>
      </trkpt>
      <trkpt lat="47.3649" lon="-1.19939">
        <ele>81</ele>
        <time>2015-01-11T09:07:51.000Z</time>
      </trkpt>
      <trkpt lat="47.36494" lon="-1.19945">
        <ele>81</ele>
        <time>2015-01-11T09:07:53.000Z</time>
      </trkpt>
      <trkpt lat="47.36494" lon="-1.19945">
        <ele>81</ele>
        <time>2015-01-11T09:07:55.000Z</time>
      </trkpt>
      <trkpt lat="47.36503" lon="-1.1994">
        <ele>80</ele>
        <time>2015-01-11T09:07:57.000Z</time>
      </trkpt>
      <trkpt lat="47.36506" lon="-1.19929">
        <ele>80</ele>
        <time>2015-01-11T09:07:59.000Z</time>
      </trkpt>
      <trkpt lat="47.36506" lon="-1.19918">
        <ele>80</ele>
        <time>2015-01-11T09:08:01.000Z</time>
      </trkpt>
      <trkpt lat="47.36504" lon="-1.19905">
        <ele>80</ele>
        <time>2015-01-11T09:08:03.000Z</time>
      </trkpt>
      <trkpt lat="47.36503" lon="-1.19891">
        <ele>80</ele>
        <time>2015-01-11T09:08:05.000Z</time>
      </trkpt>
      <trkpt lat="47.36502" lon="-1.19875">
        <ele>80</ele>
        <time>2015-01-11T09:08:07.000Z</time>
      </trkpt>
      <trkpt lat="47.36503" lon="-1.19862">
        <ele>79</ele>
        <time>2015-01-11T09:08:09.000Z</time>
      </trkpt>
      <trkpt lat="47.36503" lon="-1.19848">
        <ele>79</ele>
        <time>2015-01-11T09:08:11.000Z</time>
      </trkpt>
      <trkpt lat="47.36504" lon="-1.19835">
        <ele>79</ele>
        <time>2015-01-11T09:08:13.000Z</time>
      </trkpt>
      <trkpt lat="47.36505" lon="-1.19822">
        <ele>80</ele>
        <time>2015-01-11T09:08:15.000Z</time>
      </trkpt>
      <trkpt lat="47.36507" lon="-1.19809">
        <ele>78</ele>
        <time>2015-01-11T09:08:17.000Z</time>
      </trkpt>
      <trkpt lat="47.36509" lon="-1.19796">
        <ele>77</ele>
        <time>2015-01-11T09:08:19.000Z</time>
      </trkpt>
      <trkpt lat="47.3651" lon="-1.19784">
        <ele>77</ele>
        <time>2015-01-11T09:08:21.000Z</time>
      </trkpt>
      <trkpt lat="47.36513" lon="-1.19771">
        <ele>76</ele>
        <time>2015-01-11T09:08:23.000Z</time>
      </trkpt>
      <trkpt lat="47.36516" lon="-1.1976">
        <ele>75</ele>
        <time>2015-01-11T09:08:25.000Z</time>
      </trkpt>
      <trkpt lat="47.36521" lon="-1.19747">
        <ele>75</ele>
        <time>2015-01-11T09:08:27.000Z</time>
      </trkpt>
      <trkpt lat="47.36513" lon="-1.19739">
        <ele>75</ele>
        <time>2015-01-11T09:08:30.000Z</time>
      </trkpt>
      <trkpt lat="47.36495" lon="-1.19744">
        <ele>73</ele>
        <time>2015-01-11T09:08:33.000Z</time>
      </trkpt>
      <trkpt lat="47.36483" lon="-1.19748">
        <ele>73</ele>
        <time>2015-01-11T09:08:35.000Z</time>
      </trkpt>
      <trkpt lat="47.36469" lon="-1.19751">
        <ele>74</ele>
        <time>2015-01-11T09:08:37.000Z</time>
      </trkpt>
      <trkpt lat="47.36454" lon="-1.19751">
        <ele>73</ele>
        <time>2015-01-11T09:08:39.000Z</time>
      </trkpt>
      <trkpt lat="47.3644" lon="-1.19751">
        <ele>70</ele>
        <time>2015-01-11T09:08:41.000Z</time>
      </trkpt>
      <trkpt lat="47.36422" lon="-1.19751">
        <ele>69</ele>
        <time>2015-01-11T09:08:43.000Z</time>
      </trkpt>
      <trkpt lat="47.36404" lon="-1.1975">
        <ele>68</ele>
        <time>2015-01-11T09:08:45.000Z</time>
      </trkpt>
      <trkpt lat="47.36384" lon="-1.19747">
        <ele>66</ele>
        <time>2015-01-11T09:08:47.000Z</time>
      </trkpt>
      <trkpt lat="47.36364" lon="-1.19745">
        <ele>64</ele>
        <time>2015-01-11T09:08:49.000Z</time>
      </trkpt>
      <trkpt lat="47.36343" lon="-1.19743">
        <ele>62</ele>
        <time>2015-01-11T09:08:51.000Z</time>
      </trkpt>
      <trkpt lat="47.36326" lon="-1.19741">
        <ele>64</ele>
        <time>2015-01-11T09:08:53.000Z</time>
      </trkpt>
      <trkpt lat="47.36313" lon="-1.19742">
        <ele>65</ele>
        <time>2015-01-11T09:08:55.000Z</time>
      </trkpt>
      <trkpt lat="47.36308" lon="-1.19754">
        <ele>62</ele>
        <time>2015-01-11T09:08:59.000Z</time>
      </trkpt>
      <trkpt lat="47.36308" lon="-1.19754">
        <ele>62</ele>
        <time>2015-01-11T09:09:01.000Z</time>
      </trkpt>
      <trkpt lat="47.363" lon="-1.19755">
        <ele>58</ele>
        <time>2015-01-11T09:09:03.000Z</time>
      </trkpt>
      <trkpt lat="47.363" lon="-1.19755">
        <ele>58</ele>
        <time>2015-01-11T09:09:05.000Z</time>
      </trkpt>
      <trkpt lat="47.36296" lon="-1.19748">
        <ele>60</ele>
        <time>2015-01-11T09:09:07.000Z</time>
      </trkpt>
      <trkpt lat="47.36306" lon="-1.19724">
        <ele>59</ele>
        <time>2015-01-11T09:09:11.000Z</time>
      </trkpt>
      <trkpt lat="47.36306" lon="-1.19724">
        <ele>59</ele>
        <time>2015-01-11T09:09:15.000Z</time>
      </trkpt>
      <trkpt lat="47.36296" lon="-1.19752">
        <ele>55</ele>
        <time>2015-01-11T09:09:19.000Z</time>
      </trkpt>
      <trkpt lat="47.36296" lon="-1.19752">
        <ele>55</ele>
        <time>2015-01-11T09:09:23.000Z</time>
      </trkpt>
      <trkpt lat="47.36295" lon="-1.19735">
        <ele>57</ele>
        <time>2015-01-11T09:09:27.000Z</time>
      </trkpt>
      <trkpt lat="47.36292" lon="-1.1972">
        <ele>58</ele>
        <time>2015-01-11T09:09:31.000Z</time>
      </trkpt>
      <trkpt lat="47.36285" lon="-1.19713">
        <ele>58</ele>
        <time>2015-01-11T09:09:33.000Z</time>
      </trkpt>
      <trkpt lat="47.36278" lon="-1.19705">
        <ele>58</ele>
        <time>2015-01-11T09:09:35.000Z</time>
      </trkpt>
      <trkpt lat="47.36267" lon="-1.19694">
        <ele>57</ele>
        <time>2015-01-11T09:09:37.000Z</time>
      </trkpt>
      <trkpt lat="47.36258" lon="-1.19683">
        <ele>57</ele>
        <time>2015-01-11T09:09:39.000Z</time>
      </trkpt>
      <trkpt lat="47.36251" lon="-1.19672">
        <ele>56</ele>
        <time>2015-01-11T09:09:41.000Z</time>
      </trkpt>
      <trkpt lat="47.36245" lon="-1.19662">
        <ele>56</ele>
        <time>2015-01-11T09:09:43.000Z</time>
      </trkpt>
      <trkpt lat="47.36238" lon="-1.19652">
        <ele>56</ele>
        <time>2015-01-11T09:09:45.000Z</time>
      </trkpt>
      <trkpt lat="47.36231" lon="-1.19642">
        <ele>57</ele>
        <time>2015-01-11T09:09:47.000Z</time>
      </trkpt>
      <trkpt lat="47.36225" lon="-1.19631">
        <ele>59</ele>
        <time>2015-01-11T09:09:49.000Z</time>
      </trkpt>
      <trkpt lat="47.36217" lon="-1.19622">
        <ele>58</ele>
        <time>2015-01-11T09:09:51.000Z</time>
      </trkpt>
      <trkpt lat="47.36207" lon="-1.19615">
        <ele>57</ele>
        <time>2015-01-11T09:09:53.000Z</time>
      </trkpt>
      <trkpt lat="47.36197" lon="-1.19609">
        <ele>56</ele>
        <time>2015-01-11T09:09:55.000Z</time>
      </trkpt>
      <trkpt lat="47.36187" lon="-1.19603">
        <ele>56</ele>
        <time>2015-01-11T09:09:57.000Z</time>
      </trkpt>
      <trkpt lat="47.36177" lon="-1.19598">
        <ele>56</ele>
        <time>2015-01-11T09:09:59.000Z</time>
      </trkpt>
      <trkpt lat="47.36168" lon="-1.19594">
        <ele>56</ele>
        <time>2015-01-11T09:10:01.000Z</time>
      </trkpt>
      <trkpt lat="47.36159" lon="-1.19598">
        <ele>57</ele>
        <time>2015-01-11T09:10:03.000Z</time>
      </trkpt>
      <trkpt lat="47.36155" lon="-1.19611">
        <ele>58</ele>
        <time>2015-01-11T09:10:05.000Z</time>
      </trkpt>
      <trkpt lat="47.3615" lon="-1.19624">
        <ele>58</ele>
        <time>2015-01-11T09:10:07.000Z</time>
      </trkpt>
      <trkpt lat="47.36145" lon="-1.19637">
        <ele>58</ele>
        <time>2015-01-11T09:10:09.000Z</time>
      </trkpt>
      <trkpt lat="47.3614" lon="-1.1965">
        <ele>58</ele>
        <time>2015-01-11T09:10:11.000Z</time>
      </trkpt>
      <trkpt lat="47.36136" lon="-1.19662">
        <ele>58</ele>
        <time>2015-01-11T09:10:13.000Z</time>
      </trkpt>
      <trkpt lat="47.3613" lon="-1.19676">
        <ele>58</ele>
        <time>2015-01-11T09:10:15.000Z</time>
      </trkpt>
      <trkpt lat="47.36125" lon="-1.19689">
        <ele>58</ele>
        <time>2015-01-11T09:10:17.000Z</time>
      </trkpt>
      <trkpt lat="47.36121" lon="-1.19703">
        <ele>58</ele>
        <time>2015-01-11T09:10:19.000Z</time>
      </trkpt>
      <trkpt lat="47.36118" lon="-1.19717">
        <ele>58</ele>
        <time>2015-01-11T09:10:21.000Z</time>
      </trkpt>
      <trkpt lat="47.36112" lon="-1.19731">
        <ele>58</ele>
        <time>2015-01-11T09:10:23.000Z</time>
      </trkpt>
      <trkpt lat="47.36106" lon="-1.19744">
        <ele>58</ele>
        <time>2015-01-11T09:10:25.000Z</time>
      </trkpt>
      <trkpt lat="47.361" lon="-1.19756">
        <ele>57</ele>
        <time>2015-01-11T09:10:27.000Z</time>
      </trkpt>
      <trkpt lat="47.36093" lon="-1.19768">
        <ele>57</ele>
        <time>2015-01-11T09:10:29.000Z</time>
      </trkpt>
      <trkpt lat="47.36087" lon="-1.19781">
        <ele>58</ele>
        <time>2015-01-11T09:10:31.000Z</time>
      </trkpt>
      <trkpt lat="47.36081" lon="-1.19794">
        <ele>58</ele>
        <time>2015-01-11T09:10:33.000Z</time>
      </trkpt>
      <trkpt lat="47.36075" lon="-1.19805">
        <ele>58</ele>
        <time>2015-01-11T09:10:35.000Z</time>
      </trkpt>
      <trkpt lat="47.36069" lon="-1.19817">
        <ele>58</ele>
        <time>2015-01-11T09:10:37.000Z</time>
      </trkpt>
      <trkpt lat="47.36063" lon="-1.19829">
        <ele>57</ele>
        <time>2015-01-11T09:10:39.000Z</time>
      </trkpt>
      <trkpt lat="47.36058" lon="-1.19842">
        <ele>57</ele>
        <time>2015-01-11T09:10:41.000Z</time>
      </trkpt>
      <trkpt lat="47.36052" lon="-1.19852">
        <ele>57</ele>
        <time>2015-01-11T09:10:43.000Z</time>
      </trkpt>
      <trkpt lat="47.36047" lon="-1.19865">
        <ele>58</ele>
        <time>2015-01-11T09:10:45.000Z</time>
      </trkpt>
      <trkpt lat="47.36042" lon="-1.19877">
        <ele>58</ele>
        <time>2015-01-11T09:10:47.000Z</time>
      </trkpt>
      <trkpt lat="47.36037" lon="-1.19889">
        <ele>59</ele>
        <time>2015-01-11T09:10:49.000Z</time>
      </trkpt>
      <trkpt lat="47.36031" lon="-1.199">
        <ele>58</ele>
        <time>2015-01-11T09:10:51.000Z</time>
      </trkpt>
      <trkpt lat="47.36026" lon="-1.19913">
        <ele>58</ele>
        <time>2015-01-11T09:10:53.000Z</time>
      </trkpt>
      <trkpt lat="47.3602" lon="-1.19926">
        <ele>57</ele>
        <time>2015-01-11T09:10:55.000Z</time>
      </trkpt>
      <trkpt lat="47.36016" lon="-1.19938">
        <ele>57</ele>
        <time>2015-01-11T09:10:57.000Z</time>
      </trkpt>
      <trkpt lat="47.36011" lon="-1.19949">
        <ele>56</ele>
        <time>2015-01-11T09:10:59.000Z</time>
      </trkpt>
      <trkpt lat="47.36007" lon="-1.19963">
        <ele>56</ele>
        <time>2015-01-11T09:11:01.000Z</time>
      </trkpt>
      <trkpt lat="47.36004" lon="-1.19975">
        <ele>56</ele>
        <time>2015-01-11T09:11:03.000Z</time>
      </trkpt>
      <trkpt lat="47.36004" lon="-1.19987">
        <ele>55</ele>
        <time>2015-01-11T09:11:05.000Z</time>
      </trkpt>
      <trkpt lat="47.36011" lon="-1.1999">
        <ele>56</ele>
        <time>2015-01-11T09:11:07.000Z</time>
      </trkpt>
      <trkpt lat="47.36016" lon="-1.19992">
        <ele>56</ele>
        <time>2015-01-11T09:11:09.000Z</time>
      </trkpt>
      <trkpt lat="47.36023" lon="-1.19991">
        <ele>58</ele>
        <time>2015-01-11T09:11:11.000Z</time>
      </trkpt>
      <trkpt lat="47.36031" lon="-1.1999">
        <ele>61</ele>
        <time>2015-01-11T09:11:13.000Z</time>
      </trkpt>
      <trkpt lat="47.36038" lon="-1.19989">
        <ele>64</ele>
        <time>2015-01-11T09:11:15.000Z</time>
      </trkpt>
      <trkpt lat="47.36053" lon="-1.19985">
        <ele>60</ele>
        <time>2015-01-11T09:11:18.000Z</time>
      </trkpt>
      <trkpt lat="47.36063" lon="-1.19982">
        <ele>62</ele>
        <time>2015-01-11T09:11:21.000Z</time>
      </trkpt>
      <trkpt lat="47.36072" lon="-1.19979">
        <ele>62</ele>
        <time>2015-01-11T09:11:23.000Z</time>
      </trkpt>
      <trkpt lat="47.36083" lon="-1.19975">
        <ele>61</ele>
        <time>2015-01-11T09:11:25.000Z</time>
      </trkpt>
      <trkpt lat="47.36089" lon="-1.19974">
        <ele>61</ele>
        <time>2015-01-11T09:11:27.000Z</time>
      </trkpt>
      <trkpt lat="47.36095" lon="-1.19972">
        <ele>61</ele>
        <time>2015-01-11T09:11:29.000Z</time>
      </trkpt>
      <trkpt lat="47.36095" lon="-1.19972">
        <ele>61</ele>
        <time>2015-01-11T09:11:31.000Z</time>
      </trkpt>
      <trkpt lat="47.36105" lon="-1.19973">
        <ele>66</ele>
        <time>2015-01-11T09:11:33.000Z</time>
      </trkpt>
      <trkpt lat="47.36111" lon="-1.1997">
        <ele>65</ele>
        <time>2015-01-11T09:11:35.000Z</time>
      </trkpt>
      <trkpt lat="47.36118" lon="-1.19968">
        <ele>68</ele>
        <time>2015-01-11T09:11:37.000Z</time>
      </trkpt>
      <trkpt lat="47.36126" lon="-1.19966">
        <ele>70</ele>
        <time>2015-01-11T09:11:39.000Z</time>
      </trkpt>
      <trkpt lat="47.36134" lon="-1.19965">
        <ele>72</ele>
        <time>2015-01-11T09:11:41.000Z</time>
      </trkpt>
      <trkpt lat="47.36142" lon="-1.19966">
        <ele>74</ele>
        <time>2015-01-11T09:11:43.000Z</time>
      </trkpt>
      <trkpt lat="47.3615" lon="-1.1997">
        <ele>73</ele>
        <time>2015-01-11T09:11:45.000Z</time>
      </trkpt>
      <trkpt lat="47.36163" lon="-1.19978">
        <ele>72</ele>
        <time>2015-01-11T09:11:48.000Z</time>
      </trkpt>
      <trkpt lat="47.36171" lon="-1.19986">
        <ele>72</ele>
        <time>2015-01-11T09:11:50.000Z</time>
      </trkpt>
      <trkpt lat="47.36177" lon="-1.19993">
        <ele>71</ele>
        <time>2015-01-11T09:11:52.000Z</time>
      </trkpt>
      <trkpt lat="47.3618" lon="-1.20001">
        <ele>66</ele>
        <time>2015-01-11T09:11:54.000Z</time>
      </trkpt>
      <trkpt lat="47.36181" lon="-1.20012">
        <ele>63</ele>
        <time>2015-01-11T09:11:56.000Z</time>
      </trkpt>
      <trkpt lat="47.36185" lon="-1.20027">
        <ele>60</ele>
        <time>2015-01-11T09:11:58.000Z</time>
      </trkpt>
      <trkpt lat="47.36183" lon="-1.20039">
        <ele>62</ele>
        <time>2015-01-11T09:12:00.000Z</time>
      </trkpt>
      <trkpt lat="47.36181" lon="-1.20052">
        <ele>61</ele>
        <time>2015-01-11T09:12:02.000Z</time>
      </trkpt>
      <trkpt lat="47.36179" lon="-1.20065">
        <ele>62</ele>
        <time>2015-01-11T09:12:04.000Z</time>
      </trkpt>
      <trkpt lat="47.36179" lon="-1.20076">
        <ele>62</ele>
        <time>2015-01-11T09:12:06.000Z</time>
      </trkpt>
      <trkpt lat="47.36177" lon="-1.20085">
        <ele>62</ele>
        <time>2015-01-11T09:12:08.000Z</time>
      </trkpt>
      <trkpt lat="47.36175" lon="-1.20098">
        <ele>66</ele>
        <time>2015-01-11T09:12:10.000Z</time>
      </trkpt>
      <trkpt lat="47.36175" lon="-1.20113">
        <ele>66</ele>
        <time>2015-01-11T09:12:12.000Z</time>
      </trkpt>
      <trkpt lat="47.36182" lon="-1.20126">
        <ele>63</ele>
        <time>2015-01-11T09:12:14.000Z</time>
      </trkpt>
      <trkpt lat="47.36188" lon="-1.20138">
        <ele>63</ele>
        <time>2015-01-11T09:12:16.000Z</time>
      </trkpt>
      <trkpt lat="47.36197" lon="-1.20148">
        <ele>65</ele>
        <time>2015-01-11T09:12:18.000Z</time>
      </trkpt>
      <trkpt lat="47.36205" lon="-1.20154">
        <ele>67</ele>
        <time>2015-01-11T09:12:20.000Z</time>
      </trkpt>
      <trkpt lat="47.36212" lon="-1.20165">
        <ele>64</ele>
        <time>2015-01-11T09:12:22.000Z</time>
      </trkpt>
      <trkpt lat="47.36219" lon="-1.20171">
        <ele>64</ele>
        <time>2015-01-11T09:12:24.000Z</time>
      </trkpt>
      <trkpt lat="47.36227" lon="-1.20177">
        <ele>63</ele>
        <time>2015-01-11T09:12:26.000Z</time>
      </trkpt>
      <trkpt lat="47.36226" lon="-1.20194">
        <ele>61</ele>
        <time>2015-01-11T09:12:28.000Z</time>
      </trkpt>
      <trkpt lat="47.36226" lon="-1.20208">
        <ele>61</ele>
        <time>2015-01-11T09:12:30.000Z</time>
      </trkpt>
      <trkpt lat="47.36227" lon="-1.2022">
        <ele>60</ele>
        <time>2015-01-11T09:12:32.000Z</time>
      </trkpt>
      <trkpt lat="47.36225" lon="-1.20232">
        <ele>60</ele>
        <time>2015-01-11T09:12:34.000Z</time>
      </trkpt>
      <trkpt lat="47.36222" lon="-1.20246">
        <ele>61</ele>
        <time>2015-01-11T09:12:36.000Z</time>
      </trkpt>
      <trkpt lat="47.36222" lon="-1.20259">
        <ele>58</ele>
        <time>2015-01-11T09:12:38.000Z</time>
      </trkpt>
      <trkpt lat="47.36219" lon="-1.20267">
        <ele>60</ele>
        <time>2015-01-11T09:12:40.000Z</time>
      </trkpt>
      <trkpt lat="47.36219" lon="-1.20267">
        <ele>60</ele>
        <time>2015-01-11T09:12:42.000Z</time>
      </trkpt>
      <trkpt lat="47.36215" lon="-1.20287">
        <ele>62</ele>
        <time>2015-01-11T09:12:44.000Z</time>
      </trkpt>
      <trkpt lat="47.36213" lon="-1.20298">
        <ele>63</ele>
        <time>2015-01-11T09:12:46.000Z</time>
      </trkpt>
      <trkpt lat="47.36212" lon="-1.20307">
        <ele>63</ele>
        <time>2015-01-11T09:12:48.000Z</time>
      </trkpt>
      <trkpt lat="47.36211" lon="-1.20315">
        <ele>63</ele>
        <time>2015-01-11T09:12:50.000Z</time>
      </trkpt>
      <trkpt lat="47.36211" lon="-1.20324">
        <ele>63</ele>
        <time>2015-01-11T09:12:52.000Z</time>
      </trkpt>
      <trkpt lat="47.36212" lon="-1.20334">
        <ele>63</ele>
        <time>2015-01-11T09:12:54.000Z</time>
      </trkpt>
      <trkpt lat="47.36215" lon="-1.20342">
        <ele>63</ele>
        <time>2015-01-11T09:12:56.000Z</time>
      </trkpt>
      <trkpt lat="47.3622" lon="-1.20349">
        <ele>64</ele>
        <time>2015-01-11T09:12:58.000Z</time>
      </trkpt>
      <trkpt lat="47.36225" lon="-1.20355">
        <ele>65</ele>
        <time>2015-01-11T09:13:00.000Z</time>
      </trkpt>
      <trkpt lat="47.36225" lon="-1.20355">
        <ele>65</ele>
        <time>2015-01-11T09:13:02.000Z</time>
      </trkpt>
      <trkpt lat="47.36232" lon="-1.20363">
        <ele>69</ele>
        <time>2015-01-11T09:13:04.000Z</time>
      </trkpt>
      <trkpt lat="47.36232" lon="-1.20363">
        <ele>69</ele>
        <time>2015-01-11T09:13:06.000Z</time>
      </trkpt>
      <trkpt lat="47.36232" lon="-1.20363">
        <ele>69</ele>
        <time>2015-01-11T09:13:08.000Z</time>
      </trkpt>
      <trkpt lat="47.36242" lon="-1.2037">
        <ele>70</ele>
        <time>2015-01-11T09:13:10.000Z</time>
      </trkpt>
      <trkpt lat="47.36248" lon="-1.20373">
        <ele>69</ele>
        <time>2015-01-11T09:13:12.000Z</time>
      </trkpt>
      <trkpt lat="47.36254" lon="-1.20375">
        <ele>70</ele>
        <time>2015-01-11T09:13:14.000Z</time>
      </trkpt>
      <trkpt lat="47.36261" lon="-1.20378">
        <ele>69</ele>
        <time>2015-01-11T09:13:16.000Z</time>
      </trkpt>
      <trkpt lat="47.36268" lon="-1.20388">
        <ele>67</ele>
        <time>2015-01-11T09:13:20.000Z</time>
      </trkpt>
      <trkpt lat="47.36268" lon="-1.20388">
        <ele>67</ele>
        <time>2015-01-11T09:13:22.000Z</time>
      </trkpt>
      <trkpt lat="47.36277" lon="-1.20398">
        <ele>66</ele>
        <time>2015-01-11T09:13:24.000Z</time>
      </trkpt>
      <trkpt lat="47.3628" lon="-1.20405">
        <ele>61</ele>
        <time>2015-01-11T09:13:26.000Z</time>
      </trkpt>
      <trkpt lat="47.36287" lon="-1.20416">
        <ele>63</ele>
        <time>2015-01-11T09:13:30.000Z</time>
      </trkpt>
      <trkpt lat="47.36287" lon="-1.20416">
        <ele>63</ele>
        <time>2015-01-11T09:13:32.000Z</time>
      </trkpt>
      <trkpt lat="47.36294" lon="-1.20428">
        <ele>68</ele>
        <time>2015-01-11T09:13:34.000Z</time>
      </trkpt>
      <trkpt lat="47.36299" lon="-1.20435">
        <ele>67</ele>
        <time>2015-01-11T09:13:36.000Z</time>
      </trkpt>
      <trkpt lat="47.36304" lon="-1.20442">
        <ele>67</ele>
        <time>2015-01-11T09:13:38.000Z</time>
      </trkpt>
      <trkpt lat="47.36309" lon="-1.20449">
        <ele>67</ele>
        <time>2015-01-11T09:13:40.000Z</time>
      </trkpt>
      <trkpt lat="47.36309" lon="-1.20449">
        <ele>67</ele>
        <time>2015-01-11T09:13:42.000Z</time>
      </trkpt>
      <trkpt lat="47.36315" lon="-1.20462">
        <ele>66</ele>
        <time>2015-01-11T09:13:44.000Z</time>
      </trkpt>
      <trkpt lat="47.36315" lon="-1.20462">
        <ele>66</ele>
        <time>2015-01-11T09:13:46.000Z</time>
      </trkpt>
      <trkpt lat="47.36322" lon="-1.20473">
        <ele>64</ele>
        <time>2015-01-11T09:13:48.000Z</time>
      </trkpt>
      <trkpt lat="47.36322" lon="-1.20473">
        <ele>64</ele>
        <time>2015-01-11T09:13:50.000Z</time>
      </trkpt>
      <trkpt lat="47.36331" lon="-1.20479">
        <ele>63</ele>
        <time>2015-01-11T09:13:52.000Z</time>
      </trkpt>
      <trkpt lat="47.36338" lon="-1.20479">
        <ele>63</ele>
        <time>2015-01-11T09:13:54.000Z</time>
      </trkpt>
      <trkpt lat="47.36346" lon="-1.20478">
        <ele>63</ele>
        <time>2015-01-11T09:13:56.000Z</time>
      </trkpt>
      <trkpt lat="47.36352" lon="-1.20477">
        <ele>64</ele>
        <time>2015-01-11T09:13:58.000Z</time>
      </trkpt>
      <trkpt lat="47.36359" lon="-1.20477">
        <ele>67</ele>
        <time>2015-01-11T09:14:00.000Z</time>
      </trkpt>
      <trkpt lat="47.36366" lon="-1.20478">
        <ele>67</ele>
        <time>2015-01-11T09:14:02.000Z</time>
      </trkpt>
      <trkpt lat="47.36373" lon="-1.20478">
        <ele>69</ele>
        <time>2015-01-11T09:14:04.000Z</time>
      </trkpt>
      <trkpt lat="47.36379" lon="-1.2048">
        <ele>71</ele>
        <time>2015-01-11T09:14:06.000Z</time>
      </trkpt>
      <trkpt lat="47.36385" lon="-1.20484">
        <ele>73</ele>
        <time>2015-01-11T09:14:08.000Z</time>
      </trkpt>
      <trkpt lat="47.36385" lon="-1.20484">
        <ele>73</ele>
        <time>2015-01-11T09:14:10.000Z</time>
      </trkpt>
      <trkpt lat="47.36394" lon="-1.20488">
        <ele>71</ele>
        <time>2015-01-11T09:14:12.000Z</time>
      </trkpt>
      <trkpt lat="47.36394" lon="-1.20488">
        <ele>71</ele>
        <time>2015-01-11T09:14:13.000Z</time>
      </trkpt>
      <trkpt lat="47.36402" lon="-1.20491">
        <ele>73</ele>
        <time>2015-01-11T09:14:15.000Z</time>
      </trkpt>
      <trkpt lat="47.36408" lon="-1.20493">
        <ele>74</ele>
        <time>2015-01-11T09:14:17.000Z</time>
      </trkpt>
      <trkpt lat="47.36414" lon="-1.20496">
        <ele>75</ele>
        <time>2015-01-11T09:14:19.000Z</time>
      </trkpt>
      <trkpt lat="47.3642" lon="-1.20498">
        <ele>76</ele>
        <time>2015-01-11T09:14:21.000Z</time>
      </trkpt>
      <trkpt lat="47.36425" lon="-1.20502">
        <ele>76</ele>
        <time>2015-01-11T09:14:23.000Z</time>
      </trkpt>
      <trkpt lat="47.36431" lon="-1.20503">
        <ele>78</ele>
        <time>2015-01-11T09:14:25.000Z</time>
      </trkpt>
      <trkpt lat="47.36431" lon="-1.20503">
        <ele>78</ele>
        <time>2015-01-11T09:14:27.000Z</time>
      </trkpt>
      <trkpt lat="47.36442" lon="-1.20508">
        <ele>79</ele>
        <time>2015-01-11T09:14:29.000Z</time>
      </trkpt>
      <trkpt lat="47.36448" lon="-1.20511">
        <ele>80</ele>
        <time>2015-01-11T09:14:31.000Z</time>
      </trkpt>
      <trkpt lat="47.36454" lon="-1.20513">
        <ele>80</ele>
        <time>2015-01-11T09:14:33.000Z</time>
      </trkpt>
      <trkpt lat="47.3646" lon="-1.20515">
        <ele>80</ele>
        <time>2015-01-11T09:14:35.000Z</time>
      </trkpt>
      <trkpt lat="47.36467" lon="-1.20517">
        <ele>80</ele>
        <time>2015-01-11T09:14:37.000Z</time>
      </trkpt>
      <trkpt lat="47.36473" lon="-1.2052">
        <ele>80</ele>
        <time>2015-01-11T09:14:39.000Z</time>
      </trkpt>
      <trkpt lat="47.36479" lon="-1.20523">
        <ele>80</ele>
        <time>2015-01-11T09:14:41.000Z</time>
      </trkpt>
      <trkpt lat="47.36486" lon="-1.20526">
        <ele>80</ele>
        <time>2015-01-11T09:14:43.000Z</time>
      </trkpt>
      <trkpt lat="47.36491" lon="-1.20531">
        <ele>80</ele>
        <time>2015-01-11T09:14:45.000Z</time>
      </trkpt>
      <trkpt lat="47.36497" lon="-1.20535">
        <ele>80</ele>
        <time>2015-01-11T09:14:47.000Z</time>
      </trkpt>
      <trkpt lat="47.36502" lon="-1.2054">
        <ele>81</ele>
        <time>2015-01-11T09:14:49.000Z</time>
      </trkpt>
      <trkpt lat="47.36508" lon="-1.20545">
        <ele>81</ele>
        <time>2015-01-11T09:14:51.000Z</time>
      </trkpt>
      <trkpt lat="47.36513" lon="-1.20551">
        <ele>80</ele>
        <time>2015-01-11T09:14:53.000Z</time>
      </trkpt>
      <trkpt lat="47.36519" lon="-1.20557">
        <ele>80</ele>
        <time>2015-01-11T09:14:55.000Z</time>
      </trkpt>
      <trkpt lat="47.36526" lon="-1.20563">
        <ele>80</ele>
        <time>2015-01-11T09:14:57.000Z</time>
      </trkpt>
      <trkpt lat="47.36532" lon="-1.2057">
        <ele>80</ele>
        <time>2015-01-11T09:14:59.000Z</time>
      </trkpt>
      <trkpt lat="47.36538" lon="-1.20578">
        <ele>80</ele>
        <time>2015-01-11T09:15:01.000Z</time>
      </trkpt>
      <trkpt lat="47.36544" lon="-1.20586">
        <ele>80</ele>
        <time>2015-01-11T09:15:03.000Z</time>
      </trkpt>
      <trkpt lat="47.36549" lon="-1.20595">
        <ele>80</ele>
        <time>2015-01-11T09:15:05.000Z</time>
      </trkpt>
      <trkpt lat="47.36553" lon="-1.20604">
        <ele>82</ele>
        <time>2015-01-11T09:15:07.000Z</time>
      </trkpt>
      <trkpt lat="47.36557" lon="-1.20613">
        <ele>82</ele>
        <time>2015-01-11T09:15:09.000Z</time>
      </trkpt>
      <trkpt lat="47.36563" lon="-1.20621">
        <ele>80</ele>
        <time>2015-01-11T09:15:11.000Z</time>
      </trkpt>
      <trkpt lat="47.36568" lon="-1.2063">
        <ele>79</ele>
        <time>2015-01-11T09:15:13.000Z</time>
      </trkpt>
      <trkpt lat="47.36574" lon="-1.20639">
        <ele>78</ele>
        <time>2015-01-11T09:15:15.000Z</time>
      </trkpt>
      <trkpt lat="47.3658" lon="-1.20649">
        <ele>78</ele>
        <time>2015-01-11T09:15:17.000Z</time>
      </trkpt>
      <trkpt lat="47.36584" lon="-1.20659">
        <ele>78</ele>
        <time>2015-01-11T09:15:19.000Z</time>
      </trkpt>
      <trkpt lat="47.36589" lon="-1.20668">
        <ele>80</ele>
        <time>2015-01-11T09:15:21.000Z</time>
      </trkpt>
      <trkpt lat="47.36593" lon="-1.20677">
        <ele>80</ele>
        <time>2015-01-11T09:15:23.000Z</time>
      </trkpt>
      <trkpt lat="47.36597" lon="-1.20687">
        <ele>80</ele>
        <time>2015-01-11T09:15:25.000Z</time>
      </trkpt>
      <trkpt lat="47.36597" lon="-1.20695">
        <ele>80</ele>
        <time>2015-01-11T09:15:27.000Z</time>
      </trkpt>
      <trkpt lat="47.36597" lon="-1.20695">
        <ele>80</ele>
        <time>2015-01-11T09:15:29.000Z</time>
      </trkpt>
      <trkpt lat="47.3659" lon="-1.20703">
        <ele>83</ele>
        <time>2015-01-11T09:15:31.000Z</time>
      </trkpt>
      <trkpt lat="47.36582" lon="-1.20705">
        <ele>84</ele>
        <time>2015-01-11T09:15:33.000Z</time>
      </trkpt>
      <trkpt lat="47.36573" lon="-1.20708">
        <ele>85</ele>
        <time>2015-01-11T09:15:35.000Z</time>
      </trkpt>
      <trkpt lat="47.36566" lon="-1.20712">
        <ele>85</ele>
        <time>2015-01-11T09:15:37.000Z</time>
      </trkpt>
      <trkpt lat="47.36559" lon="-1.20715">
        <ele>86</ele>
        <time>2015-01-11T09:15:39.000Z</time>
      </trkpt>
      <trkpt lat="47.36553" lon="-1.20719">
        <ele>85</ele>
        <time>2015-01-11T09:15:41.000Z</time>
      </trkpt>
      <trkpt lat="47.36547" lon="-1.20722">
        <ele>85</ele>
        <time>2015-01-11T09:15:43.000Z</time>
      </trkpt>
      <trkpt lat="47.3654" lon="-1.20726">
        <ele>85</ele>
        <time>2015-01-11T09:15:45.000Z</time>
      </trkpt>
      <trkpt lat="47.36533" lon="-1.2073">
        <ele>85</ele>
        <time>2015-01-11T09:15:47.000Z</time>
      </trkpt>
      <trkpt lat="47.36526" lon="-1.20735">
        <ele>85</ele>
        <time>2015-01-11T09:15:49.000Z</time>
      </trkpt>
      <trkpt lat="47.36518" lon="-1.20739">
        <ele>85</ele>
        <time>2015-01-11T09:15:51.000Z</time>
      </trkpt>
      <trkpt lat="47.3651" lon="-1.20744">
        <ele>85</ele>
        <time>2015-01-11T09:15:53.000Z</time>
      </trkpt>
      <trkpt lat="47.36502" lon="-1.2075">
        <ele>85</ele>
        <time>2015-01-11T09:15:55.000Z</time>
      </trkpt>
      <trkpt lat="47.36494" lon="-1.20756">
        <ele>84</ele>
        <time>2015-01-11T09:15:57.000Z</time>
      </trkpt>
      <trkpt lat="47.36485" lon="-1.20761">
        <ele>84</ele>
        <time>2015-01-11T09:15:59.000Z</time>
      </trkpt>
      <trkpt lat="47.36476" lon="-1.20765">
        <ele>84</ele>
        <time>2015-01-11T09:16:01.000Z</time>
      </trkpt>
      <trkpt lat="47.36467" lon="-1.2077">
        <ele>84</ele>
        <time>2015-01-11T09:16:03.000Z</time>
      </trkpt>
      <trkpt lat="47.36458" lon="-1.20771">
        <ele>84</ele>
        <time>2015-01-11T09:16:05.000Z</time>
      </trkpt>
      <trkpt lat="47.36449" lon="-1.20775">
        <ele>84</ele>
        <time>2015-01-11T09:16:07.000Z</time>
      </trkpt>
      <trkpt lat="47.3644" lon="-1.20778">
        <ele>85</ele>
        <time>2015-01-11T09:16:09.000Z</time>
      </trkpt>
      <trkpt lat="47.36431" lon="-1.2078">
        <ele>85</ele>
        <time>2015-01-11T09:16:11.000Z</time>
      </trkpt>
      <trkpt lat="47.36422" lon="-1.20783">
        <ele>85</ele>
        <time>2015-01-11T09:16:13.000Z</time>
      </trkpt>
      <trkpt lat="47.36413" lon="-1.20786">
        <ele>85</ele>
        <time>2015-01-11T09:16:15.000Z</time>
      </trkpt>
      <trkpt lat="47.36404" lon="-1.20788">
        <ele>84</ele>
        <time>2015-01-11T09:16:17.000Z</time>
      </trkpt>
      <trkpt lat="47.36395" lon="-1.2079">
        <ele>84</ele>
        <time>2015-01-11T09:16:19.000Z</time>
      </trkpt>
      <trkpt lat="47.36386" lon="-1.20793">
        <ele>84</ele>
        <time>2015-01-11T09:16:21.000Z</time>
      </trkpt>
      <trkpt lat="47.36378" lon="-1.20795">
        <ele>84</ele>
        <time>2015-01-11T09:16:23.000Z</time>
      </trkpt>
      <trkpt lat="47.3637" lon="-1.20797">
        <ele>84</ele>
        <time>2015-01-11T09:16:25.000Z</time>
      </trkpt>
      <trkpt lat="47.36362" lon="-1.208">
        <ele>84</ele>
        <time>2015-01-11T09:16:27.000Z</time>
      </trkpt>
      <trkpt lat="47.36354" lon="-1.20804">
        <ele>84</ele>
        <time>2015-01-11T09:16:29.000Z</time>
      </trkpt>
      <trkpt lat="47.36346" lon="-1.20807">
        <ele>84</ele>
        <time>2015-01-11T09:16:31.000Z</time>
      </trkpt>
      <trkpt lat="47.36338" lon="-1.20808">
        <ele>83</ele>
        <time>2015-01-11T09:16:33.000Z</time>
      </trkpt>
      <trkpt lat="47.36331" lon="-1.20807">
        <ele>83</ele>
        <time>2015-01-11T09:16:35.000Z</time>
      </trkpt>
      <trkpt lat="47.36325" lon="-1.2081">
        <ele>83</ele>
        <time>2015-01-11T09:16:37.000Z</time>
      </trkpt>
      <trkpt lat="47.3632" lon="-1.20815">
        <ele>83</ele>
        <time>2015-01-11T09:16:39.000Z</time>
      </trkpt>
      <trkpt lat="47.36314" lon="-1.20817">
        <ele>83</ele>
        <time>2015-01-11T09:16:41.000Z</time>
      </trkpt>
      <trkpt lat="47.36308" lon="-1.20817">
        <ele>83</ele>
        <time>2015-01-11T09:16:43.000Z</time>
      </trkpt>
      <trkpt lat="47.36301" lon="-1.20817">
        <ele>83</ele>
        <time>2015-01-11T09:16:45.000Z</time>
      </trkpt>
      <trkpt lat="47.36295" lon="-1.20817">
        <ele>82</ele>
        <time>2015-01-11T09:16:47.000Z</time>
      </trkpt>
      <trkpt lat="47.36288" lon="-1.20816">
        <ele>82</ele>
        <time>2015-01-11T09:16:49.000Z</time>
      </trkpt>
      <trkpt lat="47.36288" lon="-1.20816">
        <ele>82</ele>
        <time>2015-01-11T09:16:51.000Z</time>
      </trkpt>
      <trkpt lat="47.3628" lon="-1.20823">
        <ele>84</ele>
        <time>2015-01-11T09:16:53.000Z</time>
      </trkpt>
      <trkpt lat="47.3628" lon="-1.20833">
        <ele>84</ele>
        <time>2015-01-11T09:16:55.000Z</time>
      </trkpt>
      <trkpt lat="47.3628" lon="-1.20844">
        <ele>85</ele>
        <time>2015-01-11T09:16:57.000Z</time>
      </trkpt>
      <trkpt lat="47.3628" lon="-1.20855">
        <ele>86</ele>
        <time>2015-01-11T09:16:59.000Z</time>
      </trkpt>
      <trkpt lat="47.3628" lon="-1.20866">
        <ele>86</ele>
        <time>2015-01-11T09:17:01.000Z</time>
      </trkpt>
      <trkpt lat="47.36279" lon="-1.20877">
        <ele>86</ele>
        <time>2015-01-11T09:17:03.000Z</time>
      </trkpt>
      <trkpt lat="47.36279" lon="-1.20889">
        <ele>86</ele>
        <time>2015-01-11T09:17:05.000Z</time>
      </trkpt>
      <trkpt lat="47.36278" lon="-1.209">
        <ele>86</ele>
        <time>2015-01-11T09:17:07.000Z</time>
      </trkpt>
      <trkpt lat="47.36277" lon="-1.20909">
        <ele>85</ele>
        <time>2015-01-11T09:17:09.000Z</time>
      </trkpt>
      <trkpt lat="47.36277" lon="-1.20918">
        <ele>86</ele>
        <time>2015-01-11T09:17:11.000Z</time>
      </trkpt>
      <trkpt lat="47.36277" lon="-1.20927">
        <ele>85</ele>
        <time>2015-01-11T09:17:13.000Z</time>
      </trkpt>
      <trkpt lat="47.36276" lon="-1.20936">
        <ele>84</ele>
        <time>2015-01-11T09:17:15.000Z</time>
      </trkpt>
      <trkpt lat="47.36275" lon="-1.20946">
        <ele>84</ele>
        <time>2015-01-11T09:17:17.000Z</time>
      </trkpt>
      <trkpt lat="47.36274" lon="-1.20956">
        <ele>85</ele>
        <time>2015-01-11T09:17:19.000Z</time>
      </trkpt>
      <trkpt lat="47.36273" lon="-1.20965">
        <ele>85</ele>
        <time>2015-01-11T09:17:21.000Z</time>
      </trkpt>
      <trkpt lat="47.36273" lon="-1.20974">
        <ele>85</ele>
        <time>2015-01-11T09:17:23.000Z</time>
      </trkpt>
      <trkpt lat="47.36272" lon="-1.20983">
        <ele>85</ele>
        <time>2015-01-11T09:17:25.000Z</time>
      </trkpt>
      <trkpt lat="47.36272" lon="-1.20983">
        <ele>85</ele>
        <time>2015-01-11T09:17:27.000Z</time>
      </trkpt>
      <trkpt lat="47.36275" lon="-1.20998">
        <ele>87</ele>
        <time>2015-01-11T09:17:29.000Z</time>
      </trkpt>
      <trkpt lat="47.3628" lon="-1.21001">
        <ele>87</ele>
        <time>2015-01-11T09:17:31.000Z</time>
      </trkpt>
      <trkpt lat="47.36287" lon="-1.21001">
        <ele>87</ele>
        <time>2015-01-11T09:17:33.000Z</time>
      </trkpt>
      <trkpt lat="47.36293" lon="-1.21001">
        <ele>88</ele>
        <time>2015-01-11T09:17:35.000Z</time>
      </trkpt>
      <trkpt lat="47.36299" lon="-1.21002">
        <ele>90</ele>
        <time>2015-01-11T09:17:37.000Z</time>
      </trkpt>
      <trkpt lat="47.36299" lon="-1.21002">
        <ele>90</ele>
        <time>2015-01-11T09:17:39.000Z</time>
      </trkpt>
      <trkpt lat="47.36311" lon="-1.21003">
        <ele>91</ele>
        <time>2015-01-11T09:17:41.000Z</time>
      </trkpt>
      <trkpt lat="47.36317" lon="-1.21003">
        <ele>92</ele>
        <time>2015-01-11T09:17:43.000Z</time>
      </trkpt>
      <trkpt lat="47.36323" lon="-1.21004">
        <ele>91</ele>
        <time>2015-01-11T09:17:45.000Z</time>
      </trkpt>
      <trkpt lat="47.3633" lon="-1.21005">
        <ele>92</ele>
        <time>2015-01-11T09:17:47.000Z</time>
      </trkpt>
      <trkpt lat="47.36337" lon="-1.21005">
        <ele>92</ele>
        <time>2015-01-11T09:17:49.000Z</time>
      </trkpt>
      <trkpt lat="47.36343" lon="-1.21006">
        <ele>93</ele>
        <time>2015-01-11T09:17:51.000Z</time>
      </trkpt>
      <trkpt lat="47.36343" lon="-1.21006">
        <ele>93</ele>
        <time>2015-01-11T09:17:53.000Z</time>
      </trkpt>
      <trkpt lat="47.36353" lon="-1.2101">
        <ele>95</ele>
        <time>2015-01-11T09:17:55.000Z</time>
      </trkpt>
      <trkpt lat="47.36353" lon="-1.2101">
        <ele>95</ele>
        <time>2015-01-11T09:17:57.000Z</time>
      </trkpt>
      <trkpt lat="47.36355" lon="-1.21016">
        <ele>94</ele>
        <time>2015-01-11T09:17:59.000Z</time>
      </trkpt>
      <trkpt lat="47.36355" lon="-1.21023">
        <ele>94</ele>
        <time>2015-01-11T09:18:01.000Z</time>
      </trkpt>
      <trkpt lat="47.36356" lon="-1.2103">
        <ele>94</ele>
        <time>2015-01-11T09:18:03.000Z</time>
      </trkpt>
      <trkpt lat="47.36356" lon="-1.21036">
        <ele>94</ele>
        <time>2015-01-11T09:18:05.000Z</time>
      </trkpt>
      <trkpt lat="47.36361" lon="-1.21042">
        <ele>94</ele>
        <time>2015-01-11T09:18:08.000Z</time>
      </trkpt>
      <trkpt lat="47.36373" lon="-1.21047">
        <ele>95</ele>
        <time>2015-01-11T09:18:10.000Z</time>
      </trkpt>
      <trkpt lat="47.36379" lon="-1.21046">
        <ele>95</ele>
        <time>2015-01-11T09:18:12.000Z</time>
      </trkpt>
      <trkpt lat="47.36385" lon="-1.21045">
        <ele>95</ele>
        <time>2015-01-11T09:18:14.000Z</time>
      </trkpt>
      <trkpt lat="47.36391" lon="-1.21044">
        <ele>95</ele>
        <time>2015-01-11T09:18:16.000Z</time>
      </trkpt>
      <trkpt lat="47.36398" lon="-1.21044">
        <ele>93</ele>
        <time>2015-01-11T09:18:18.000Z</time>
      </trkpt>
      <trkpt lat="47.36404" lon="-1.21043">
        <ele>93</ele>
        <time>2015-01-11T09:18:20.000Z</time>
      </trkpt>
      <trkpt lat="47.3641" lon="-1.21042">
        <ele>93</ele>
        <time>2015-01-11T09:18:22.000Z</time>
      </trkpt>
      <trkpt lat="47.36416" lon="-1.2104">
        <ele>94</ele>
        <time>2015-01-11T09:18:24.000Z</time>
      </trkpt>
      <trkpt lat="47.36423" lon="-1.21039">
        <ele>94</ele>
        <time>2015-01-11T09:18:26.000Z</time>
      </trkpt>
      <trkpt lat="47.3643" lon="-1.21038">
        <ele>94</ele>
        <time>2015-01-11T09:18:28.000Z</time>
      </trkpt>
      <trkpt lat="47.36436" lon="-1.21038">
        <ele>95</ele>
        <time>2015-01-11T09:18:30.000Z</time>
      </trkpt>
      <trkpt lat="47.36443" lon="-1.21036">
        <ele>94</ele>
        <time>2015-01-11T09:18:32.000Z</time>
      </trkpt>
      <trkpt lat="47.36449" lon="-1.21035">
        <ele>94</ele>
        <time>2015-01-11T09:18:34.000Z</time>
      </trkpt>
      <trkpt lat="47.36456" lon="-1.21035">
        <ele>93</ele>
        <time>2015-01-11T09:18:36.000Z</time>
      </trkpt>
      <trkpt lat="47.36462" lon="-1.21037">
        <ele>92</ele>
        <time>2015-01-11T09:18:38.000Z</time>
      </trkpt>
      <trkpt lat="47.36462" lon="-1.21037">
        <ele>92</ele>
        <time>2015-01-11T09:18:40.000Z</time>
      </trkpt>
      <trkpt lat="47.36461" lon="-1.21054">
        <ele>91</ele>
        <time>2015-01-11T09:18:42.000Z</time>
      </trkpt>
      <trkpt lat="47.36459" lon="-1.21064">
        <ele>92</ele>
        <time>2015-01-11T09:18:44.000Z</time>
      </trkpt>
      <trkpt lat="47.36457" lon="-1.21074">
        <ele>91</ele>
        <time>2015-01-11T09:18:46.000Z</time>
      </trkpt>
      <trkpt lat="47.36456" lon="-1.21084">
        <ele>91</ele>
        <time>2015-01-11T09:18:48.000Z</time>
      </trkpt>
      <trkpt lat="47.36455" lon="-1.21093">
        <ele>91</ele>
        <time>2015-01-11T09:18:50.000Z</time>
      </trkpt>
      <trkpt lat="47.36453" lon="-1.21103">
        <ele>92</ele>
        <time>2015-01-11T09:18:52.000Z</time>
      </trkpt>
      <trkpt lat="47.36453" lon="-1.21111">
        <ele>91</ele>
        <time>2015-01-11T09:18:54.000Z</time>
      </trkpt>
      <trkpt lat="47.36454" lon="-1.2112">
        <ele>90</ele>
        <time>2015-01-11T09:18:56.000Z</time>
      </trkpt>
      <trkpt lat="47.36454" lon="-1.2112">
        <ele>90</ele>
        <time>2015-01-11T09:18:58.000Z</time>
      </trkpt>
      <trkpt lat="47.36458" lon="-1.21131">
        <ele>91</ele>
        <time>2015-01-11T09:19:00.000Z</time>
      </trkpt>
      <trkpt lat="47.36458" lon="-1.21131">
        <ele>91</ele>
        <time>2015-01-11T09:19:02.000Z</time>
      </trkpt>
      <trkpt lat="47.36458" lon="-1.21131">
        <ele>91</ele>
        <time>2015-01-11T09:19:04.000Z</time>
      </trkpt>
      <trkpt lat="47.36458" lon="-1.21131">
        <ele>91</ele>
        <time>2015-01-11T09:19:06.000Z</time>
      </trkpt>
      <trkpt lat="47.36458" lon="-1.21131">
        <ele>91</ele>
        <time>2015-01-11T09:19:08.000Z</time>
      </trkpt>
      <trkpt lat="47.36467" lon="-1.21132">
        <ele>93</ele>
        <time>2015-01-11T09:20:18.000Z</time>
      </trkpt>
      <trkpt lat="47.36475" lon="-1.21132">
        <ele>93</ele>
        <time>2015-01-11T09:20:20.000Z</time>
      </trkpt>
      <trkpt lat="47.36482" lon="-1.21133">
        <ele>92</ele>
        <time>2015-01-11T09:20:22.000Z</time>
      </trkpt>
      <trkpt lat="47.36489" lon="-1.21134">
        <ele>92</ele>
        <time>2015-01-11T09:20:24.000Z</time>
      </trkpt>
      <trkpt lat="47.36496" lon="-1.21134">
        <ele>94</ele>
        <time>2015-01-11T09:20:26.000Z</time>
      </trkpt>
      <trkpt lat="47.3651" lon="-1.21135">
        <ele>94</ele>
        <time>2015-01-11T09:20:28.000Z</time>
      </trkpt>
      <trkpt lat="47.36517" lon="-1.21137">
        <ele>94</ele>
        <time>2015-01-11T09:20:30.000Z</time>
      </trkpt>
      <trkpt lat="47.36522" lon="-1.21143">
        <ele>93</ele>
        <time>2015-01-11T09:20:32.000Z</time>
      </trkpt>
      <trkpt lat="47.36523" lon="-1.21154">
        <ele>93</ele>
        <time>2015-01-11T09:20:34.000Z</time>
      </trkpt>
      <trkpt lat="47.36522" lon="-1.21166">
        <ele>93</ele>
        <time>2015-01-11T09:20:36.000Z</time>
      </trkpt>
      <trkpt lat="47.3652" lon="-1.21178">
        <ele>93</ele>
        <time>2015-01-11T09:20:38.000Z</time>
      </trkpt>
      <trkpt lat="47.36519" lon="-1.2119">
        <ele>93</ele>
        <time>2015-01-11T09:20:40.000Z</time>
      </trkpt>
      <trkpt lat="47.36518" lon="-1.21202">
        <ele>92</ele>
        <time>2015-01-11T09:20:42.000Z</time>
      </trkpt>
      <trkpt lat="47.36517" lon="-1.21214">
        <ele>91</ele>
        <time>2015-01-11T09:20:44.000Z</time>
      </trkpt>
      <trkpt lat="47.36517" lon="-1.21226">
        <ele>92</ele>
        <time>2015-01-11T09:20:46.000Z</time>
      </trkpt>
      <trkpt lat="47.36515" lon="-1.21237">
        <ele>92</ele>
        <time>2015-01-11T09:20:48.000Z</time>
      </trkpt>
      <trkpt lat="47.36514" lon="-1.21249">
        <ele>93</ele>
        <time>2015-01-11T09:20:50.000Z</time>
      </trkpt>
      <trkpt lat="47.3651" lon="-1.21263">
        <ele>92</ele>
        <time>2015-01-11T09:20:52.000Z</time>
      </trkpt>
      <trkpt lat="47.36509" lon="-1.21276">
        <ele>92</ele>
        <time>2015-01-11T09:20:54.000Z</time>
      </trkpt>
      <trkpt lat="47.36507" lon="-1.21287">
        <ele>92</ele>
        <time>2015-01-11T09:20:56.000Z</time>
      </trkpt>
      <trkpt lat="47.36505" lon="-1.21302">
        <ele>92</ele>
        <time>2015-01-11T09:20:58.000Z</time>
      </trkpt>
      <trkpt lat="47.36502" lon="-1.21316">
        <ele>91</ele>
        <time>2015-01-11T09:21:00.000Z</time>
      </trkpt>
      <trkpt lat="47.365" lon="-1.2133">
        <ele>91</ele>
        <time>2015-01-11T09:21:02.000Z</time>
      </trkpt>
      <trkpt lat="47.36499" lon="-1.21344">
        <ele>90</ele>
        <time>2015-01-11T09:21:04.000Z</time>
      </trkpt>
      <trkpt lat="47.36497" lon="-1.21359">
        <ele>90</ele>
        <time>2015-01-11T09:21:06.000Z</time>
      </trkpt>
      <trkpt lat="47.36496" lon="-1.21373">
        <ele>90</ele>
        <time>2015-01-11T09:21:08.000Z</time>
      </trkpt>
      <trkpt lat="47.36493" lon="-1.21386">
        <ele>90</ele>
        <time>2015-01-11T09:21:10.000Z</time>
      </trkpt>
      <trkpt lat="47.36491" lon="-1.214">
        <ele>90</ele>
        <time>2015-01-11T09:21:12.000Z</time>
      </trkpt>
      <trkpt lat="47.36488" lon="-1.21414">
        <ele>90</ele>
        <time>2015-01-11T09:21:14.000Z</time>
      </trkpt>
      <trkpt lat="47.36486" lon="-1.21428">
        <ele>90</ele>
        <time>2015-01-11T09:21:16.000Z</time>
      </trkpt>
      <trkpt lat="47.36484" lon="-1.21442">
        <ele>90</ele>
        <time>2015-01-11T09:21:18.000Z</time>
      </trkpt>
      <trkpt lat="47.36483" lon="-1.21456">
        <ele>90</ele>
        <time>2015-01-11T09:21:20.000Z</time>
      </trkpt>
      <trkpt lat="47.3648" lon="-1.2147">
        <ele>90</ele>
        <time>2015-01-11T09:21:22.000Z</time>
      </trkpt>
      <trkpt lat="47.36477" lon="-1.21487">
        <ele>90</ele>
        <time>2015-01-11T09:21:24.000Z</time>
      </trkpt>
      <trkpt lat="47.36475" lon="-1.21501">
        <ele>91</ele>
        <time>2015-01-11T09:21:26.000Z</time>
      </trkpt>
      <trkpt lat="47.36473" lon="-1.21517">
        <ele>91</ele>
        <time>2015-01-11T09:21:28.000Z</time>
      </trkpt>
      <trkpt lat="47.36473" lon="-1.21532">
        <ele>90</ele>
        <time>2015-01-11T09:21:30.000Z</time>
      </trkpt>
      <trkpt lat="47.36471" lon="-1.21547">
        <ele>91</ele>
        <time>2015-01-11T09:21:32.000Z</time>
      </trkpt>
      <trkpt lat="47.3647" lon="-1.21559">
        <ele>92</ele>
        <time>2015-01-11T09:21:34.000Z</time>
      </trkpt>
      <trkpt lat="47.36467" lon="-1.21571">
        <ele>91</ele>
        <time>2015-01-11T09:21:36.000Z</time>
      </trkpt>
      <trkpt lat="47.36467" lon="-1.21581">
        <ele>92</ele>
        <time>2015-01-11T09:21:38.000Z</time>
      </trkpt>
      <trkpt lat="47.36465" lon="-1.21595">
        <ele>92</ele>
        <time>2015-01-11T09:21:40.000Z</time>
      </trkpt>
      <trkpt lat="47.36466" lon="-1.21607">
        <ele>92</ele>
        <time>2015-01-11T09:21:42.000Z</time>
      </trkpt>
      <trkpt lat="47.36466" lon="-1.21623">
        <ele>93</ele>
        <time>2015-01-11T09:21:44.000Z</time>
      </trkpt>
      <trkpt lat="47.36464" lon="-1.21639">
        <ele>93</ele>
        <time>2015-01-11T09:21:46.000Z</time>
      </trkpt>
      <trkpt lat="47.36464" lon="-1.21654">
        <ele>93</ele>
        <time>2015-01-11T09:21:48.000Z</time>
      </trkpt>
      <trkpt lat="47.36462" lon="-1.21667">
        <ele>93</ele>
        <time>2015-01-11T09:21:50.000Z</time>
      </trkpt>
      <trkpt lat="47.36462" lon="-1.21678">
        <ele>93</ele>
        <time>2015-01-11T09:21:52.000Z</time>
      </trkpt>
      <trkpt lat="47.3646" lon="-1.2169">
        <ele>94</ele>
        <time>2015-01-11T09:21:54.000Z</time>
      </trkpt>
      <trkpt lat="47.36459" lon="-1.217">
        <ele>94</ele>
        <time>2015-01-11T09:21:56.000Z</time>
      </trkpt>
      <trkpt lat="47.36457" lon="-1.21712">
        <ele>93</ele>
        <time>2015-01-11T09:21:58.000Z</time>
      </trkpt>
      <trkpt lat="47.36455" lon="-1.21723">
        <ele>93</ele>
        <time>2015-01-11T09:22:00.000Z</time>
      </trkpt>
      <trkpt lat="47.36452" lon="-1.21734">
        <ele>94</ele>
        <time>2015-01-11T09:22:02.000Z</time>
      </trkpt>
      <trkpt lat="47.36449" lon="-1.21745">
        <ele>93</ele>
        <time>2015-01-11T09:22:04.000Z</time>
      </trkpt>
      <trkpt lat="47.36445" lon="-1.21755">
        <ele>92</ele>
        <time>2015-01-11T09:22:06.000Z</time>
      </trkpt>
      <trkpt lat="47.36439" lon="-1.21764">
        <ele>93</ele>
        <time>2015-01-11T09:22:08.000Z</time>
      </trkpt>
      <trkpt lat="47.36433" lon="-1.21772">
        <ele>93</ele>
        <time>2015-01-11T09:22:10.000Z</time>
      </trkpt>
      <trkpt lat="47.36427" lon="-1.21779">
        <ele>94</ele>
        <time>2015-01-11T09:22:12.000Z</time>
      </trkpt>
      <trkpt lat="47.36421" lon="-1.21786">
        <ele>94</ele>
        <time>2015-01-11T09:22:14.000Z</time>
      </trkpt>
      <trkpt lat="47.36415" lon="-1.21794">
        <ele>93</ele>
        <time>2015-01-11T09:22:16.000Z</time>
      </trkpt>
      <trkpt lat="47.3641" lon="-1.21801">
        <ele>92</ele>
        <time>2015-01-11T09:22:18.000Z</time>
      </trkpt>
      <trkpt lat="47.36405" lon="-1.21808">
        <ele>91</ele>
        <time>2015-01-11T09:22:20.000Z</time>
      </trkpt>
      <trkpt lat="47.36399" lon="-1.21816">
        <ele>93</ele>
        <time>2015-01-11T09:22:22.000Z</time>
      </trkpt>
      <trkpt lat="47.36395" lon="-1.21825">
        <ele>92</ele>
        <time>2015-01-11T09:22:24.000Z</time>
      </trkpt>
      <trkpt lat="47.36389" lon="-1.2183">
        <ele>91</ele>
        <time>2015-01-11T09:22:26.000Z</time>
      </trkpt>
      <trkpt lat="47.36382" lon="-1.21832">
        <ele>92</ele>
        <time>2015-01-11T09:22:28.000Z</time>
      </trkpt>
      <trkpt lat="47.36374" lon="-1.21834">
        <ele>92</ele>
        <time>2015-01-11T09:22:30.000Z</time>
      </trkpt>
      <trkpt lat="47.36365" lon="-1.21837">
        <ele>91</ele>
        <time>2015-01-11T09:22:32.000Z</time>
      </trkpt>
      <trkpt lat="47.36356" lon="-1.21846">
        <ele>90</ele>
        <time>2015-01-11T09:22:34.000Z</time>
      </trkpt>
      <trkpt lat="47.36348" lon="-1.21852">
        <ele>91</ele>
        <time>2015-01-11T09:22:36.000Z</time>
      </trkpt>
      <trkpt lat="47.36341" lon="-1.21855">
        <ele>89</ele>
        <time>2015-01-11T09:22:38.000Z</time>
      </trkpt>
      <trkpt lat="47.36329" lon="-1.21857">
        <ele>87</ele>
        <time>2015-01-11T09:22:40.000Z</time>
      </trkpt>
      <trkpt lat="47.36319" lon="-1.21857">
        <ele>87</ele>
        <time>2015-01-11T09:22:42.000Z</time>
      </trkpt>
      <trkpt lat="47.36309" lon="-1.21856">
        <ele>88</ele>
        <time>2015-01-11T09:22:44.000Z</time>
      </trkpt>
      <trkpt lat="47.36299" lon="-1.21855">
        <ele>87</ele>
        <time>2015-01-11T09:22:46.000Z</time>
      </trkpt>
      <trkpt lat="47.3629" lon="-1.21855">
        <ele>87</ele>
        <time>2015-01-11T09:22:48.000Z</time>
      </trkpt>
      <trkpt lat="47.36281" lon="-1.21859">
        <ele>86</ele>
        <time>2015-01-11T09:22:50.000Z</time>
      </trkpt>
      <trkpt lat="47.36277" lon="-1.21867">
        <ele>83</ele>
        <time>2015-01-11T09:22:52.000Z</time>
      </trkpt>
      <trkpt lat="47.36276" lon="-1.21876">
        <ele>83</ele>
        <time>2015-01-11T09:22:54.000Z</time>
      </trkpt>
      <trkpt lat="47.36277" lon="-1.21889">
        <ele>84</ele>
        <time>2015-01-11T09:22:56.000Z</time>
      </trkpt>
      <trkpt lat="47.36277" lon="-1.21899">
        <ele>86</ele>
        <time>2015-01-11T09:22:58.000Z</time>
      </trkpt>
      <trkpt lat="47.36277" lon="-1.2191">
        <ele>87</ele>
        <time>2015-01-11T09:23:00.000Z</time>
      </trkpt>
      <trkpt lat="47.36279" lon="-1.2192">
        <ele>87</ele>
        <time>2015-01-11T09:23:02.000Z</time>
      </trkpt>
      <trkpt lat="47.3628" lon="-1.21932">
        <ele>87</ele>
        <time>2015-01-11T09:23:04.000Z</time>
      </trkpt>
      <trkpt lat="47.36281" lon="-1.21944">
        <ele>88</ele>
        <time>2015-01-11T09:23:06.000Z</time>
      </trkpt>
      <trkpt lat="47.36281" lon="-1.21956">
        <ele>89</ele>
        <time>2015-01-11T09:23:08.000Z</time>
      </trkpt>
      <trkpt lat="47.36281" lon="-1.21968">
        <ele>89</ele>
        <time>2015-01-11T09:23:10.000Z</time>
      </trkpt>
      <trkpt lat="47.3628" lon="-1.21979">
        <ele>90</ele>
        <time>2015-01-11T09:23:12.000Z</time>
      </trkpt>
      <trkpt lat="47.36278" lon="-1.21989">
        <ele>91</ele>
        <time>2015-01-11T09:23:14.000Z</time>
      </trkpt>
      <trkpt lat="47.36275" lon="-1.21999">
        <ele>90</ele>
        <time>2015-01-11T09:23:16.000Z</time>
      </trkpt>
      <trkpt lat="47.36271" lon="-1.22008">
        <ele>90</ele>
        <time>2015-01-11T09:23:18.000Z</time>
      </trkpt>
      <trkpt lat="47.36269" lon="-1.22016">
        <ele>91</ele>
        <time>2015-01-11T09:23:20.000Z</time>
      </trkpt>
      <trkpt lat="47.36266" lon="-1.22024">
        <ele>91</ele>
        <time>2015-01-11T09:23:22.000Z</time>
      </trkpt>
      <trkpt lat="47.36263" lon="-1.22032">
        <ele>91</ele>
        <time>2015-01-11T09:23:24.000Z</time>
      </trkpt>
      <trkpt lat="47.36259" lon="-1.2204">
        <ele>92</ele>
        <time>2015-01-11T09:23:26.000Z</time>
      </trkpt>
      <trkpt lat="47.36256" lon="-1.22049">
        <ele>92</ele>
        <time>2015-01-11T09:23:28.000Z</time>
      </trkpt>
      <trkpt lat="47.36251" lon="-1.22058">
        <ele>92</ele>
        <time>2015-01-11T09:23:30.000Z</time>
      </trkpt>
      <trkpt lat="47.36246" lon="-1.22065">
        <ele>94</ele>
        <time>2015-01-11T09:23:32.000Z</time>
      </trkpt>
      <trkpt lat="47.3624" lon="-1.22068">
        <ele>95</ele>
        <time>2015-01-11T09:23:34.000Z</time>
      </trkpt>
      <trkpt lat="47.36232" lon="-1.22066">
        <ele>96</ele>
        <time>2015-01-11T09:23:36.000Z</time>
      </trkpt>
      <trkpt lat="47.36225" lon="-1.22063">
        <ele>97</ele>
        <time>2015-01-11T09:23:38.000Z</time>
      </trkpt>
      <trkpt lat="47.36219" lon="-1.22059">
        <ele>97</ele>
        <time>2015-01-11T09:23:40.000Z</time>
      </trkpt>
      <trkpt lat="47.36212" lon="-1.22054">
        <ele>97</ele>
        <time>2015-01-11T09:23:42.000Z</time>
      </trkpt>
      <trkpt lat="47.36206" lon="-1.2205">
        <ele>97</ele>
        <time>2015-01-11T09:23:44.000Z</time>
      </trkpt>
      <trkpt lat="47.36199" lon="-1.22047">
        <ele>97</ele>
        <time>2015-01-11T09:23:46.000Z</time>
      </trkpt>
      <trkpt lat="47.36193" lon="-1.22042">
        <ele>96</ele>
        <time>2015-01-11T09:23:48.000Z</time>
      </trkpt>
      <trkpt lat="47.36187" lon="-1.22036">
        <ele>95</ele>
        <time>2015-01-11T09:23:50.000Z</time>
      </trkpt>
      <trkpt lat="47.36182" lon="-1.22027">
        <ele>95</ele>
        <time>2015-01-11T09:23:52.000Z</time>
      </trkpt>
      <trkpt lat="47.36177" lon="-1.22017">
        <ele>95</ele>
        <time>2015-01-11T09:23:54.000Z</time>
      </trkpt>
      <trkpt lat="47.36172" lon="-1.22006">
        <ele>95</ele>
        <time>2015-01-11T09:23:56.000Z</time>
      </trkpt>
      <trkpt lat="47.36167" lon="-1.21996">
        <ele>95</ele>
        <time>2015-01-11T09:23:58.000Z</time>
      </trkpt>
      <trkpt lat="47.36162" lon="-1.21987">
        <ele>95</ele>
        <time>2015-01-11T09:24:00.000Z</time>
      </trkpt>
      <trkpt lat="47.36157" lon="-1.21978">
        <ele>95</ele>
        <time>2015-01-11T09:24:02.000Z</time>
      </trkpt>
      <trkpt lat="47.36152" lon="-1.21968">
        <ele>94</ele>
        <time>2015-01-11T09:24:04.000Z</time>
      </trkpt>
      <trkpt lat="47.36147" lon="-1.21959">
        <ele>94</ele>
        <time>2015-01-11T09:24:06.000Z</time>
      </trkpt>
      <trkpt lat="47.36142" lon="-1.2195">
        <ele>94</ele>
        <time>2015-01-11T09:24:08.000Z</time>
      </trkpt>
      <trkpt lat="47.36137" lon="-1.21941">
        <ele>94</ele>
        <time>2015-01-11T09:24:10.000Z</time>
      </trkpt>
      <trkpt lat="47.36132" lon="-1.21934">
        <ele>93</ele>
        <time>2015-01-11T09:24:12.000Z</time>
      </trkpt>
      <trkpt lat="47.36127" lon="-1.21933">
        <ele>93</ele>
        <time>2015-01-11T09:24:14.000Z</time>
      </trkpt>
      <trkpt lat="47.36121" lon="-1.21936">
        <ele>93</ele>
        <time>2015-01-11T09:24:16.000Z</time>
      </trkpt>
      <trkpt lat="47.36115" lon="-1.21941">
        <ele>93</ele>
        <time>2015-01-11T09:24:18.000Z</time>
      </trkpt>
      <trkpt lat="47.3611" lon="-1.21946">
        <ele>94</ele>
        <time>2015-01-11T09:24:20.000Z</time>
      </trkpt>
      <trkpt lat="47.3611" lon="-1.21946">
        <ele>94</ele>
        <time>2015-01-11T09:24:22.000Z</time>
      </trkpt>
      <trkpt lat="47.36103" lon="-1.2195">
        <ele>95</ele>
        <time>2015-01-11T09:24:24.000Z</time>
      </trkpt>
      <trkpt lat="47.36103" lon="-1.2195">
        <ele>95</ele>
        <time>2015-01-11T09:24:26.000Z</time>
      </trkpt>
      <trkpt lat="47.36103" lon="-1.2195">
        <ele>95</ele>
        <time>2015-01-11T09:24:28.000Z</time>
      </trkpt>
      <trkpt lat="47.36101" lon="-1.2194">
        <ele>96</ele>
        <time>2015-01-11T09:24:30.000Z</time>
      </trkpt>
      <trkpt lat="47.36101" lon="-1.2194">
        <ele>96</ele>
        <time>2015-01-11T09:24:32.000Z</time>
      </trkpt>
      <trkpt lat="47.36101" lon="-1.2194">
        <ele>96</ele>
        <time>2015-01-11T09:24:34.000Z</time>
      </trkpt>
      <trkpt lat="47.36101" lon="-1.2194">
        <ele>96</ele>
        <time>2015-01-11T09:24:36.000Z</time>
      </trkpt>
      <trkpt lat="47.36101" lon="-1.2194">
        <ele>96</ele>
        <time>2015-01-11T09:24:38.000Z</time>
      </trkpt>
      <trkpt lat="47.36086" lon="-1.21909">
        <ele>93</ele>
        <time>2015-01-11T09:24:53.000Z</time>
      </trkpt>
      <trkpt lat="47.36073" lon="-1.21878">
        <ele>91</ele>
        <time>2015-01-11T09:24:56.000Z</time>
      </trkpt>
      <trkpt lat="47.36058" lon="-1.21834">
        <ele>86</ele>
        <time>2015-01-11T09:24:59.000Z</time>
      </trkpt>
      <trkpt lat="47.36047" lon="-1.21807">
        <ele>86</ele>
        <time>2015-01-11T09:25:01.000Z</time>
      </trkpt>
      <trkpt lat="47.36036" lon="-1.21781">
        <ele>86</ele>
        <time>2015-01-11T09:25:03.000Z</time>
      </trkpt>
      <trkpt lat="47.36028" lon="-1.2175">
        <ele>83</ele>
        <time>2015-01-11T09:25:05.000Z</time>
      </trkpt>
      <trkpt lat="47.36023" lon="-1.21717">
        <ele>83</ele>
        <time>2015-01-11T09:25:07.000Z</time>
      </trkpt>
      <trkpt lat="47.36021" lon="-1.21689">
        <ele>78</ele>
        <time>2015-01-11T09:25:09.000Z</time>
      </trkpt>
      <trkpt lat="47.36009" lon="-1.21665">
        <ele>76</ele>
        <time>2015-01-11T09:25:12.000Z</time>
      </trkpt>
      <trkpt lat="47.35996" lon="-1.21654">
        <ele>72</ele>
        <time>2015-01-11T09:25:14.000Z</time>
      </trkpt>
      <trkpt lat="47.35984" lon="-1.2164">
        <ele>71</ele>
        <time>2015-01-11T09:25:16.000Z</time>
      </trkpt>
      <trkpt lat="47.35981" lon="-1.21621">
        <ele>70</ele>
        <time>2015-01-11T09:25:18.000Z</time>
      </trkpt>
      <trkpt lat="47.35985" lon="-1.21602">
        <ele>68</ele>
        <time>2015-01-11T09:25:20.000Z</time>
      </trkpt>
      <trkpt lat="47.35989" lon="-1.21583">
        <ele>68</ele>
        <time>2015-01-11T09:25:22.000Z</time>
      </trkpt>
      <trkpt lat="47.35992" lon="-1.21564">
        <ele>66</ele>
        <time>2015-01-11T09:25:24.000Z</time>
      </trkpt>
      <trkpt lat="47.35993" lon="-1.21549">
        <ele>65</ele>
        <time>2015-01-11T09:25:26.000Z</time>
      </trkpt>
      <trkpt lat="47.35994" lon="-1.21539">
        <ele>64</ele>
        <time>2015-01-11T09:25:28.000Z</time>
      </trkpt>
      <trkpt lat="47.35994" lon="-1.21539">
        <ele>64</ele>
        <time>2015-01-11T09:25:30.000Z</time>
      </trkpt>
      <trkpt lat="47.35989" lon="-1.21529">
        <ele>63</ele>
        <time>2015-01-11T09:25:32.000Z</time>
      </trkpt>
      <trkpt lat="47.35989" lon="-1.21529">
        <ele>63</ele>
        <time>2015-01-11T09:25:34.000Z</time>
      </trkpt>
      <trkpt lat="47.35984" lon="-1.21526">
        <ele>63</ele>
        <time>2015-01-11T09:25:36.000Z</time>
      </trkpt>
      <trkpt lat="47.35984" lon="-1.21526">
        <ele>63</ele>
        <time>2015-01-11T09:25:38.000Z</time>
      </trkpt>
      <trkpt lat="47.35976" lon="-1.21528">
        <ele>64</ele>
        <time>2015-01-11T09:25:40.000Z</time>
      </trkpt>
      <trkpt lat="47.35973" lon="-1.21534">
        <ele>65</ele>
        <time>2015-01-11T09:25:42.000Z</time>
      </trkpt>
      <trkpt lat="47.35968" lon="-1.21545">
        <ele>62</ele>
        <time>2015-01-11T09:25:44.000Z</time>
      </trkpt>
      <trkpt lat="47.35963" lon="-1.21554">
        <ele>60</ele>
        <time>2015-01-11T09:25:46.000Z</time>
      </trkpt>
      <trkpt lat="47.35959" lon="-1.2156">
        <ele>59</ele>
        <time>2015-01-11T09:25:48.000Z</time>
      </trkpt>
      <trkpt lat="47.35955" lon="-1.21567">
        <ele>59</ele>
        <time>2015-01-11T09:25:50.000Z</time>
      </trkpt>
      <trkpt lat="47.35948" lon="-1.21573">
        <ele>58</ele>
        <time>2015-01-11T09:25:52.000Z</time>
      </trkpt>
      <trkpt lat="47.35941" lon="-1.21581">
        <ele>57</ele>
        <time>2015-01-11T09:25:54.000Z</time>
      </trkpt>
      <trkpt lat="47.35935" lon="-1.21592">
        <ele>59</ele>
        <time>2015-01-11T09:25:56.000Z</time>
      </trkpt>
      <trkpt lat="47.35928" lon="-1.21608">
        <ele>60</ele>
        <time>2015-01-11T09:25:58.000Z</time>
      </trkpt>
      <trkpt lat="47.35924" lon="-1.21618">
        <ele>62</ele>
        <time>2015-01-11T09:26:00.000Z</time>
      </trkpt>
      <trkpt lat="47.35921" lon="-1.21632">
        <ele>60</ele>
        <time>2015-01-11T09:26:02.000Z</time>
      </trkpt>
      <trkpt lat="47.35916" lon="-1.21657">
        <ele>59</ele>
        <time>2015-01-11T09:26:05.000Z</time>
      </trkpt>
      <trkpt lat="47.35918" lon="-1.21669">
        <ele>61</ele>
        <time>2015-01-11T09:26:07.000Z</time>
      </trkpt>
      <trkpt lat="47.35915" lon="-1.21678">
        <ele>62</ele>
        <time>2015-01-11T09:26:09.000Z</time>
      </trkpt>
      <trkpt lat="47.35917" lon="-1.21692">
        <ele>60</ele>
        <time>2015-01-11T09:26:11.000Z</time>
      </trkpt>
      <trkpt lat="47.35918" lon="-1.217">
        <ele>63</ele>
        <time>2015-01-11T09:26:13.000Z</time>
      </trkpt>
      <trkpt lat="47.35918" lon="-1.21709">
        <ele>68</ele>
        <time>2015-01-11T09:26:15.000Z</time>
      </trkpt>
      <trkpt lat="47.35919" lon="-1.21723">
        <ele>61</ele>
        <time>2015-01-11T09:26:17.000Z</time>
      </trkpt>
      <trkpt lat="47.35918" lon="-1.21734">
        <ele>58</ele>
        <time>2015-01-11T09:26:19.000Z</time>
      </trkpt>
      <trkpt lat="47.35918" lon="-1.21734">
        <ele>58</ele>
        <time>2015-01-11T09:26:21.000Z</time>
      </trkpt>
      <trkpt lat="47.35916" lon="-1.21746">
        <ele>56</ele>
        <time>2015-01-11T09:26:23.000Z</time>
      </trkpt>
      <trkpt lat="47.35917" lon="-1.21755">
        <ele>52</ele>
        <time>2015-01-11T09:26:25.000Z</time>
      </trkpt>
      <trkpt lat="47.35917" lon="-1.21755">
        <ele>52</ele>
        <time>2015-01-11T09:26:27.000Z</time>
      </trkpt>
      <trkpt lat="47.35916" lon="-1.2177">
        <ele>54</ele>
        <time>2015-01-11T09:26:29.000Z</time>
      </trkpt>
      <trkpt lat="47.35916" lon="-1.2177">
        <ele>54</ele>
        <time>2015-01-11T09:26:31.000Z</time>
      </trkpt>
      <trkpt lat="47.35915" lon="-1.21785">
        <ele>58</ele>
        <time>2015-01-11T09:26:33.000Z</time>
      </trkpt>
      <trkpt lat="47.35911" lon="-1.21794">
        <ele>58</ele>
        <time>2015-01-11T09:26:35.000Z</time>
      </trkpt>
      <trkpt lat="47.35907" lon="-1.21804">
        <ele>57</ele>
        <time>2015-01-11T09:26:37.000Z</time>
      </trkpt>
      <trkpt lat="47.35905" lon="-1.21813">
        <ele>53</ele>
        <time>2015-01-11T09:26:39.000Z</time>
      </trkpt>
      <trkpt lat="47.35905" lon="-1.21822">
        <ele>59</ele>
        <time>2015-01-11T09:26:41.000Z</time>
      </trkpt>
      <trkpt lat="47.35905" lon="-1.21822">
        <ele>59</ele>
        <time>2015-01-11T09:26:43.000Z</time>
      </trkpt>
      <trkpt lat="47.35899" lon="-1.21838">
        <ele>69</ele>
        <time>2015-01-11T09:26:45.000Z</time>
      </trkpt>
      <trkpt lat="47.35896" lon="-1.21847">
        <ele>70</ele>
        <time>2015-01-11T09:26:47.000Z</time>
      </trkpt>
      <trkpt lat="47.35892" lon="-1.21868">
        <ele>73</ele>
        <time>2015-01-11T09:26:51.000Z</time>
      </trkpt>
      <trkpt lat="47.35892" lon="-1.21884">
        <ele>71</ele>
        <time>2015-01-11T09:26:53.000Z</time>
      </trkpt>
      <trkpt lat="47.35892" lon="-1.21899">
        <ele>71</ele>
        <time>2015-01-11T09:26:55.000Z</time>
      </trkpt>
      <trkpt lat="47.35892" lon="-1.21911">
        <ele>69</ele>
        <time>2015-01-11T09:26:57.000Z</time>
      </trkpt>
      <trkpt lat="47.3589" lon="-1.2192">
        <ele>65</ele>
        <time>2015-01-11T09:26:59.000Z</time>
      </trkpt>
      <trkpt lat="47.35889" lon="-1.21929">
        <ele>63</ele>
        <time>2015-01-11T09:27:01.000Z</time>
      </trkpt>
      <trkpt lat="47.35888" lon="-1.21937">
        <ele>62</ele>
        <time>2015-01-11T09:27:03.000Z</time>
      </trkpt>
      <trkpt lat="47.35887" lon="-1.21947">
        <ele>61</ele>
        <time>2015-01-11T09:27:05.000Z</time>
      </trkpt>
      <trkpt lat="47.35887" lon="-1.21958">
        <ele>55</ele>
        <time>2015-01-11T09:27:07.000Z</time>
      </trkpt>
      <trkpt lat="47.35885" lon="-1.21969">
        <ele>54</ele>
        <time>2015-01-11T09:27:09.000Z</time>
      </trkpt>
      <trkpt lat="47.35883" lon="-1.21977">
        <ele>55</ele>
        <time>2015-01-11T09:27:11.000Z</time>
      </trkpt>
      <trkpt lat="47.35881" lon="-1.21985">
        <ele>54</ele>
        <time>2015-01-11T09:27:13.000Z</time>
      </trkpt>
      <trkpt lat="47.35879" lon="-1.21994">
        <ele>53</ele>
        <time>2015-01-11T09:27:15.000Z</time>
      </trkpt>
      <trkpt lat="47.35877" lon="-1.22002">
        <ele>54</ele>
        <time>2015-01-11T09:27:17.000Z</time>
      </trkpt>
      <trkpt lat="47.35875" lon="-1.2201">
        <ele>54</ele>
        <time>2015-01-11T09:27:19.000Z</time>
      </trkpt>
      <trkpt lat="47.35872" lon="-1.22025">
        <ele>54</ele>
        <time>2015-01-11T09:27:23.000Z</time>
      </trkpt>
      <trkpt lat="47.35872" lon="-1.22025">
        <ele>54</ele>
        <time>2015-01-11T09:27:25.000Z</time>
      </trkpt>
      <trkpt lat="47.35868" lon="-1.22038">
        <ele>54</ele>
        <time>2015-01-11T09:27:27.000Z</time>
      </trkpt>
      <trkpt lat="47.35868" lon="-1.22038">
        <ele>54</ele>
        <time>2015-01-11T09:27:29.000Z</time>
      </trkpt>
      <trkpt lat="47.35865" lon="-1.2205">
        <ele>57</ele>
        <time>2015-01-11T09:27:31.000Z</time>
      </trkpt>
      <trkpt lat="47.35865" lon="-1.2205">
        <ele>57</ele>
        <time>2015-01-11T09:27:33.000Z</time>
      </trkpt>
      <trkpt lat="47.35861" lon="-1.22062">
        <ele>58</ele>
        <time>2015-01-11T09:27:35.000Z</time>
      </trkpt>
      <trkpt lat="47.35858" lon="-1.22075">
        <ele>58</ele>
        <time>2015-01-11T09:27:39.000Z</time>
      </trkpt>
      <trkpt lat="47.35858" lon="-1.22075">
        <ele>58</ele>
        <time>2015-01-11T09:27:41.000Z</time>
      </trkpt>
      <trkpt lat="47.35854" lon="-1.22082">
        <ele>60</ele>
        <time>2015-01-11T09:27:43.000Z</time>
      </trkpt>
      <trkpt lat="47.35854" lon="-1.22082">
        <ele>60</ele>
        <time>2015-01-11T09:27:45.000Z</time>
      </trkpt>
      <trkpt lat="47.35854" lon="-1.22082">
        <ele>60</ele>
        <time>2015-01-11T09:27:47.000Z</time>
      </trkpt>
      <trkpt lat="47.35852" lon="-1.22094">
        <ele>61</ele>
        <time>2015-01-11T09:27:49.000Z</time>
      </trkpt>
      <trkpt lat="47.35852" lon="-1.22094">
        <ele>61</ele>
        <time>2015-01-11T09:27:51.000Z</time>
      </trkpt>
      <trkpt lat="47.35852" lon="-1.22094">
        <ele>61</ele>
        <time>2015-01-11T09:27:53.000Z</time>
      </trkpt>
      <trkpt lat="47.35852" lon="-1.22094">
        <ele>61</ele>
        <time>2015-01-11T09:27:55.000Z</time>
      </trkpt>
      <trkpt lat="47.35847" lon="-1.22091">
        <ele>58</ele>
        <time>2015-01-11T09:28:18.000Z</time>
      </trkpt>
      <trkpt lat="47.35841" lon="-1.22091">
        <ele>56</ele>
        <time>2015-01-11T09:28:20.000Z</time>
      </trkpt>
      <trkpt lat="47.35837" lon="-1.22095">
        <ele>57</ele>
        <time>2015-01-11T09:28:22.000Z</time>
      </trkpt>
      <trkpt lat="47.35834" lon="-1.221">
        <ele>56</ele>
        <time>2015-01-11T09:28:24.000Z</time>
      </trkpt>
      <trkpt lat="47.3583" lon="-1.22105">
        <ele>56</ele>
        <time>2015-01-11T09:28:26.000Z</time>
      </trkpt>
      <trkpt lat="47.35823" lon="-1.22114">
        <ele>56</ele>
        <time>2015-01-11T09:28:28.000Z</time>
      </trkpt>
      <trkpt lat="47.35817" lon="-1.22123">
        <ele>55</ele>
        <time>2015-01-11T09:28:32.000Z</time>
      </trkpt>
      <trkpt lat="47.3581" lon="-1.22133">
        <ele>55</ele>
        <time>2015-01-11T09:28:36.000Z</time>
      </trkpt>
      <trkpt lat="47.35802" lon="-1.22143">
        <ele>54</ele>
        <time>2015-01-11T09:28:40.000Z</time>
      </trkpt>
      <trkpt lat="47.35794" lon="-1.22152">
        <ele>55</ele>
        <time>2015-01-11T09:28:44.000Z</time>
      </trkpt>
      <trkpt lat="47.35794" lon="-1.22152">
        <ele>55</ele>
        <time>2015-01-11T09:28:46.000Z</time>
      </trkpt>
      <trkpt lat="47.35786" lon="-1.22161">
        <ele>55</ele>
        <time>2015-01-11T09:28:48.000Z</time>
      </trkpt>
      <trkpt lat="47.35778" lon="-1.22169">
        <ele>56</ele>
        <time>2015-01-11T09:28:52.000Z</time>
      </trkpt>
      <trkpt lat="47.3577" lon="-1.22179">
        <ele>56</ele>
        <time>2015-01-11T09:28:56.000Z</time>
      </trkpt>
      <trkpt lat="47.35762" lon="-1.22189">
        <ele>55</ele>
        <time>2015-01-11T09:29:00.000Z</time>
      </trkpt>
      <trkpt lat="47.35762" lon="-1.22189">
        <ele>55</ele>
        <time>2015-01-11T09:29:02.000Z</time>
      </trkpt>
      <trkpt lat="47.35753" lon="-1.22194">
        <ele>57</ele>
        <time>2015-01-11T09:29:04.000Z</time>
      </trkpt>
      <trkpt lat="47.35753" lon="-1.22194">
        <ele>57</ele>
        <time>2015-01-11T09:29:06.000Z</time>
      </trkpt>
      <trkpt lat="47.35744" lon="-1.22199">
        <ele>58</ele>
        <time>2015-01-11T09:29:08.000Z</time>
      </trkpt>
      <trkpt lat="47.35744" lon="-1.22199">
        <ele>58</ele>
        <time>2015-01-11T09:29:10.000Z</time>
      </trkpt>
      <trkpt lat="47.35736" lon="-1.22205">
        <ele>60</ele>
        <time>2015-01-11T09:29:12.000Z</time>
      </trkpt>
      <trkpt lat="47.35736" lon="-1.22205">
        <ele>60</ele>
        <time>2015-01-11T09:29:14.000Z</time>
      </trkpt>
      <trkpt lat="47.35731" lon="-1.22216">
        <ele>60</ele>
        <time>2015-01-11T09:29:16.000Z</time>
      </trkpt>
      <trkpt lat="47.35731" lon="-1.22216">
        <ele>60</ele>
        <time>2015-01-11T09:29:18.000Z</time>
      </trkpt>
      <trkpt lat="47.3573" lon="-1.22227">
        <ele>61</ele>
        <time>2015-01-11T09:29:20.000Z</time>
      </trkpt>
      <trkpt lat="47.3573" lon="-1.22242">
        <ele>61</ele>
        <time>2015-01-11T09:29:24.000Z</time>
      </trkpt>
      <trkpt lat="47.35728" lon="-1.22251">
        <ele>60</ele>
        <time>2015-01-11T09:29:26.000Z</time>
      </trkpt>
      <trkpt lat="47.35727" lon="-1.22267">
        <ele>60</ele>
        <time>2015-01-11T09:29:30.000Z</time>
      </trkpt>
      <trkpt lat="47.35725" lon="-1.22282">
        <ele>58</ele>
        <time>2015-01-11T09:29:34.000Z</time>
      </trkpt>
      <trkpt lat="47.35725" lon="-1.22282">
        <ele>58</ele>
        <time>2015-01-11T09:29:36.000Z</time>
      </trkpt>
      <trkpt lat="47.35721" lon="-1.22295">
        <ele>58</ele>
        <time>2015-01-11T09:29:38.000Z</time>
      </trkpt>
      <trkpt lat="47.35721" lon="-1.22295">
        <ele>58</ele>
        <time>2015-01-11T09:29:40.000Z</time>
      </trkpt>
      <trkpt lat="47.35717" lon="-1.22304">
        <ele>58</ele>
        <time>2015-01-11T09:29:42.000Z</time>
      </trkpt>
      <trkpt lat="47.35717" lon="-1.22304">
        <ele>58</ele>
        <time>2015-01-11T09:29:44.000Z</time>
      </trkpt>
      <trkpt lat="47.35717" lon="-1.22304">
        <ele>58</ele>
        <time>2015-01-11T09:29:46.000Z</time>
      </trkpt>
      <trkpt lat="47.35716" lon="-1.22316">
        <ele>59</ele>
        <time>2015-01-11T09:29:48.000Z</time>
      </trkpt>
      <trkpt lat="47.35716" lon="-1.22316">
        <ele>59</ele>
        <time>2015-01-11T09:29:50.000Z</time>
      </trkpt>
      <trkpt lat="47.35714" lon="-1.22325">
        <ele>58</ele>
        <time>2015-01-11T09:29:52.000Z</time>
      </trkpt>
      <trkpt lat="47.35714" lon="-1.22325">
        <ele>58</ele>
        <time>2015-01-11T09:29:54.000Z</time>
      </trkpt>
      <trkpt lat="47.35714" lon="-1.22325">
        <ele>58</ele>
        <time>2015-01-11T09:29:56.000Z</time>
      </trkpt>
      <trkpt lat="47.35713" lon="-1.22338">
        <ele>58</ele>
        <time>2015-01-11T09:29:58.000Z</time>
      </trkpt>
      <trkpt lat="47.35711" lon="-1.2235">
        <ele>57</ele>
        <time>2015-01-11T09:30:02.000Z</time>
      </trkpt>
      <trkpt lat="47.3571" lon="-1.22359">
        <ele>57</ele>
        <time>2015-01-11T09:30:04.000Z</time>
      </trkpt>
      <trkpt lat="47.35709" lon="-1.22368">
        <ele>57</ele>
        <time>2015-01-11T09:30:06.000Z</time>
      </trkpt>
      <trkpt lat="47.35709" lon="-1.22378">
        <ele>57</ele>
        <time>2015-01-11T09:30:08.000Z</time>
      </trkpt>
      <trkpt lat="47.35712" lon="-1.22387">
        <ele>57</ele>
        <time>2015-01-11T09:30:10.000Z</time>
      </trkpt>
      <trkpt lat="47.35719" lon="-1.22394">
        <ele>57</ele>
        <time>2015-01-11T09:30:12.000Z</time>
      </trkpt>
      <trkpt lat="47.35725" lon="-1.224">
        <ele>58</ele>
        <time>2015-01-11T09:30:14.000Z</time>
      </trkpt>
      <trkpt lat="47.35725" lon="-1.224">
        <ele>58</ele>
        <time>2015-01-11T09:30:16.000Z</time>
      </trkpt>
      <trkpt lat="47.35734" lon="-1.22409">
        <ele>57</ele>
        <time>2015-01-11T09:30:18.000Z</time>
      </trkpt>
      <trkpt lat="47.35739" lon="-1.22415">
        <ele>57</ele>
        <time>2015-01-11T09:30:20.000Z</time>
      </trkpt>
      <trkpt lat="47.35741" lon="-1.22423">
        <ele>57</ele>
        <time>2015-01-11T09:30:22.000Z</time>
      </trkpt>
      <trkpt lat="47.35739" lon="-1.22433">
        <ele>57</ele>
        <time>2015-01-11T09:30:24.000Z</time>
      </trkpt>
      <trkpt lat="47.35735" lon="-1.22443">
        <ele>57</ele>
        <time>2015-01-11T09:30:26.000Z</time>
      </trkpt>
      <trkpt lat="47.35731" lon="-1.22453">
        <ele>57</ele>
        <time>2015-01-11T09:30:28.000Z</time>
      </trkpt>
      <trkpt lat="47.35725" lon="-1.2246">
        <ele>57</ele>
        <time>2015-01-11T09:30:30.000Z</time>
      </trkpt>
      <trkpt lat="47.3572" lon="-1.22468">
        <ele>56</ele>
        <time>2015-01-11T09:30:32.000Z</time>
      </trkpt>
      <trkpt lat="47.35714" lon="-1.22478">
        <ele>56</ele>
        <time>2015-01-11T09:30:34.000Z</time>
      </trkpt>
      <trkpt lat="47.35709" lon="-1.22488">
        <ele>56</ele>
        <time>2015-01-11T09:30:36.000Z</time>
      </trkpt>
      <trkpt lat="47.35704" lon="-1.22499">
        <ele>57</ele>
        <time>2015-01-11T09:30:38.000Z</time>
      </trkpt>
      <trkpt lat="47.35699" lon="-1.22509">
        <ele>57</ele>
        <time>2015-01-11T09:30:40.000Z</time>
      </trkpt>
      <trkpt lat="47.35695" lon="-1.22521">
        <ele>58</ele>
        <time>2015-01-11T09:30:42.000Z</time>
      </trkpt>
      <trkpt lat="47.3569" lon="-1.22532">
        <ele>57</ele>
        <time>2015-01-11T09:30:44.000Z</time>
      </trkpt>
      <trkpt lat="47.35686" lon="-1.22543">
        <ele>59</ele>
        <time>2015-01-11T09:30:46.000Z</time>
      </trkpt>
      <trkpt lat="47.3568" lon="-1.22553">
        <ele>60</ele>
        <time>2015-01-11T09:30:48.000Z</time>
      </trkpt>
      <trkpt lat="47.35675" lon="-1.22563">
        <ele>60</ele>
        <time>2015-01-11T09:30:50.000Z</time>
      </trkpt>
      <trkpt lat="47.35669" lon="-1.22577">
        <ele>60</ele>
        <time>2015-01-11T09:30:52.000Z</time>
      </trkpt>
      <trkpt lat="47.35665" lon="-1.22588">
        <ele>61</ele>
        <time>2015-01-11T09:30:54.000Z</time>
      </trkpt>
      <trkpt lat="47.35656" lon="-1.22598">
        <ele>59</ele>
        <time>2015-01-11T09:30:56.000Z</time>
      </trkpt>
      <trkpt lat="47.35653" lon="-1.22608">
        <ele>60</ele>
        <time>2015-01-11T09:30:58.000Z</time>
      </trkpt>
      <trkpt lat="47.35648" lon="-1.22617">
        <ele>60</ele>
        <time>2015-01-11T09:31:00.000Z</time>
      </trkpt>
      <trkpt lat="47.35639" lon="-1.22623">
        <ele>59</ele>
        <time>2015-01-11T09:31:02.000Z</time>
      </trkpt>
      <trkpt lat="47.35634" lon="-1.22632">
        <ele>59</ele>
        <time>2015-01-11T09:31:04.000Z</time>
      </trkpt>
      <trkpt lat="47.35629" lon="-1.22646">
        <ele>59</ele>
        <time>2015-01-11T09:31:06.000Z</time>
      </trkpt>
      <trkpt lat="47.35627" lon="-1.22659">
        <ele>58</ele>
        <time>2015-01-11T09:31:08.000Z</time>
      </trkpt>
      <trkpt lat="47.35621" lon="-1.22672">
        <ele>58</ele>
        <time>2015-01-11T09:31:10.000Z</time>
      </trkpt>
      <trkpt lat="47.35616" lon="-1.22684">
        <ele>59</ele>
        <time>2015-01-11T09:31:12.000Z</time>
      </trkpt>
      <trkpt lat="47.35611" lon="-1.22696">
        <ele>59</ele>
        <time>2015-01-11T09:31:14.000Z</time>
      </trkpt>
      <trkpt lat="47.35604" lon="-1.22707">
        <ele>59</ele>
        <time>2015-01-11T09:31:16.000Z</time>
      </trkpt>
      <trkpt lat="47.35598" lon="-1.22718">
        <ele>59</ele>
        <time>2015-01-11T09:31:18.000Z</time>
      </trkpt>
      <trkpt lat="47.35595" lon="-1.22732">
        <ele>58</ele>
        <time>2015-01-11T09:31:20.000Z</time>
      </trkpt>
      <trkpt lat="47.35588" lon="-1.22742">
        <ele>56</ele>
        <time>2015-01-11T09:31:22.000Z</time>
      </trkpt>
      <trkpt lat="47.35582" lon="-1.22751">
        <ele>57</ele>
        <time>2015-01-11T09:31:24.000Z</time>
      </trkpt>
      <trkpt lat="47.35577" lon="-1.22763">
        <ele>56</ele>
        <time>2015-01-11T09:31:26.000Z</time>
      </trkpt>
      <trkpt lat="47.35574" lon="-1.22775">
        <ele>55</ele>
        <time>2015-01-11T09:31:28.000Z</time>
      </trkpt>
      <trkpt lat="47.35571" lon="-1.22784">
        <ele>55</ele>
        <time>2015-01-11T09:31:30.000Z</time>
      </trkpt>
      <trkpt lat="47.35567" lon="-1.22794">
        <ele>57</ele>
        <time>2015-01-11T09:31:32.000Z</time>
      </trkpt>
      <trkpt lat="47.35564" lon="-1.22803">
        <ele>58</ele>
        <time>2015-01-11T09:31:34.000Z</time>
      </trkpt>
      <trkpt lat="47.35558" lon="-1.22813">
        <ele>59</ele>
        <time>2015-01-11T09:31:36.000Z</time>
      </trkpt>
      <trkpt lat="47.35553" lon="-1.22822">
        <ele>60</ele>
        <time>2015-01-11T09:31:38.000Z</time>
      </trkpt>
      <trkpt lat="47.35548" lon="-1.2283">
        <ele>60</ele>
        <time>2015-01-11T09:31:40.000Z</time>
      </trkpt>
      <trkpt lat="47.35542" lon="-1.22839">
        <ele>60</ele>
        <time>2015-01-11T09:31:42.000Z</time>
      </trkpt>
      <trkpt lat="47.35536" lon="-1.22848">
        <ele>61</ele>
        <time>2015-01-11T09:31:44.000Z</time>
      </trkpt>
      <trkpt lat="47.35531" lon="-1.22862">
        <ele>61</ele>
        <time>2015-01-11T09:31:46.000Z</time>
      </trkpt>
      <trkpt lat="47.35525" lon="-1.22876">
        <ele>60</ele>
        <time>2015-01-11T09:31:48.000Z</time>
      </trkpt>
      <trkpt lat="47.35522" lon="-1.22884">
        <ele>61</ele>
        <time>2015-01-11T09:31:50.000Z</time>
      </trkpt>
      <trkpt lat="47.35517" lon="-1.2289">
        <ele>60</ele>
        <time>2015-01-11T09:31:52.000Z</time>
      </trkpt>
      <trkpt lat="47.35517" lon="-1.2289">
        <ele>60</ele>
        <time>2015-01-11T09:31:54.000Z</time>
      </trkpt>
      <trkpt lat="47.35517" lon="-1.2289">
        <ele>60</ele>
        <time>2015-01-11T09:31:56.000Z</time>
      </trkpt>
      <trkpt lat="47.35517" lon="-1.2289">
        <ele>60</ele>
        <time>2015-01-11T09:31:58.000Z</time>
      </trkpt>
      <trkpt lat="47.3552" lon="-1.22888">
        <ele>61</ele>
        <time>2015-01-11T09:32:04.000Z</time>
      </trkpt>
      <trkpt lat="47.35522" lon="-1.22886">
        <ele>61</ele>
        <time>2015-01-11T09:32:06.000Z</time>
      </trkpt>
      <trkpt lat="47.35526" lon="-1.2288">
        <ele>60</ele>
        <time>2015-01-11T09:32:10.000Z</time>
      </trkpt>
      <trkpt lat="47.35529" lon="-1.22874">
        <ele>55</ele>
        <time>2015-01-11T09:32:12.000Z</time>
      </trkpt>
      <trkpt lat="47.35533" lon="-1.22867">
        <ele>58</ele>
        <time>2015-01-11T09:32:14.000Z</time>
      </trkpt>
      <trkpt lat="47.35538" lon="-1.22859">
        <ele>59</ele>
        <time>2015-01-11T09:32:16.000Z</time>
      </trkpt>
      <trkpt lat="47.35542" lon="-1.2285">
        <ele>60</ele>
        <time>2015-01-11T09:32:18.000Z</time>
      </trkpt>
      <trkpt lat="47.35551" lon="-1.22832">
        <ele>59</ele>
        <time>2015-01-11T09:32:20.000Z</time>
      </trkpt>
      <trkpt lat="47.35551" lon="-1.22832">
        <ele>59</ele>
        <time>2015-01-11T09:32:22.000Z</time>
      </trkpt>
      <trkpt lat="47.35557" lon="-1.2282">
        <ele>62</ele>
        <time>2015-01-11T09:32:24.000Z</time>
      </trkpt>
      <trkpt lat="47.3556" lon="-1.22813">
        <ele>62</ele>
        <time>2015-01-11T09:32:26.000Z</time>
      </trkpt>
      <trkpt lat="47.35565" lon="-1.22801">
        <ele>63</ele>
        <time>2015-01-11T09:32:28.000Z</time>
      </trkpt>
      <trkpt lat="47.3557" lon="-1.22789">
        <ele>63</ele>
        <time>2015-01-11T09:32:30.000Z</time>
      </trkpt>
      <trkpt lat="47.35574" lon="-1.2277">
        <ele>63</ele>
        <time>2015-01-11T09:32:32.000Z</time>
      </trkpt>
      <trkpt lat="47.35579" lon="-1.22755">
        <ele>62</ele>
        <time>2015-01-11T09:32:34.000Z</time>
      </trkpt>
      <trkpt lat="47.35587" lon="-1.22744">
        <ele>64</ele>
        <time>2015-01-11T09:32:36.000Z</time>
      </trkpt>
      <trkpt lat="47.35593" lon="-1.22733">
        <ele>64</ele>
        <time>2015-01-11T09:32:38.000Z</time>
      </trkpt>
      <trkpt lat="47.356" lon="-1.2272">
        <ele>65</ele>
        <time>2015-01-11T09:32:40.000Z</time>
      </trkpt>
      <trkpt lat="47.35606" lon="-1.2271">
        <ele>65</ele>
        <time>2015-01-11T09:32:42.000Z</time>
      </trkpt>
      <trkpt lat="47.35612" lon="-1.22695">
        <ele>65</ele>
        <time>2015-01-11T09:32:44.000Z</time>
      </trkpt>
      <trkpt lat="47.35619" lon="-1.22683">
        <ele>66</ele>
        <time>2015-01-11T09:32:46.000Z</time>
      </trkpt>
      <trkpt lat="47.35625" lon="-1.22672">
        <ele>67</ele>
        <time>2015-01-11T09:32:48.000Z</time>
      </trkpt>
      <trkpt lat="47.35631" lon="-1.22661">
        <ele>67</ele>
        <time>2015-01-11T09:32:50.000Z</time>
      </trkpt>
      <trkpt lat="47.35636" lon="-1.22651">
        <ele>67</ele>
        <time>2015-01-11T09:32:52.000Z</time>
      </trkpt>
      <trkpt lat="47.3564" lon="-1.22638">
        <ele>68</ele>
        <time>2015-01-11T09:32:54.000Z</time>
      </trkpt>
      <trkpt lat="47.35647" lon="-1.22626">
        <ele>67</ele>
        <time>2015-01-11T09:32:56.000Z</time>
      </trkpt>
      <trkpt lat="47.35653" lon="-1.22619">
        <ele>68</ele>
        <time>2015-01-11T09:32:58.000Z</time>
      </trkpt>
      <trkpt lat="47.35653" lon="-1.22619">
        <ele>68</ele>
        <time>2015-01-11T09:33:00.000Z</time>
      </trkpt>
      <trkpt lat="47.3566" lon="-1.22613">
        <ele>68</ele>
        <time>2015-01-11T09:33:02.000Z</time>
      </trkpt>
      <trkpt lat="47.35667" lon="-1.22627">
        <ele>66</ele>
        <time>2015-01-11T09:33:05.000Z</time>
      </trkpt>
      <trkpt lat="47.35667" lon="-1.22627">
        <ele>66</ele>
        <time>2015-01-11T09:33:07.000Z</time>
      </trkpt>
      <trkpt lat="47.35673" lon="-1.2264">
        <ele>63</ele>
        <time>2015-01-11T09:33:09.000Z</time>
      </trkpt>
      <trkpt lat="47.35673" lon="-1.2264">
        <ele>63</ele>
        <time>2015-01-11T09:33:11.000Z</time>
      </trkpt>
      <trkpt lat="47.35676" lon="-1.22651">
        <ele>65</ele>
        <time>2015-01-11T09:33:13.000Z</time>
      </trkpt>
      <trkpt lat="47.35676" lon="-1.22651">
        <ele>65</ele>
        <time>2015-01-11T09:33:15.000Z</time>
      </trkpt>
      <trkpt lat="47.35678" lon="-1.22662">
        <ele>66</ele>
        <time>2015-01-11T09:33:17.000Z</time>
      </trkpt>
      <trkpt lat="47.35679" lon="-1.22675">
        <ele>64</ele>
        <time>2015-01-11T09:33:21.000Z</time>
      </trkpt>
      <trkpt lat="47.35682" lon="-1.22686">
        <ele>65</ele>
        <time>2015-01-11T09:33:25.000Z</time>
      </trkpt>
      <trkpt lat="47.35682" lon="-1.22686">
        <ele>65</ele>
        <time>2015-01-11T09:33:27.000Z</time>
      </trkpt>
      <trkpt lat="47.35683" lon="-1.22697">
        <ele>62</ele>
        <time>2015-01-11T09:33:29.000Z</time>
      </trkpt>
      <trkpt lat="47.35683" lon="-1.22697">
        <ele>62</ele>
        <time>2015-01-11T09:33:31.000Z</time>
      </trkpt>
      <trkpt lat="47.35684" lon="-1.22708">
        <ele>62</ele>
        <time>2015-01-11T09:33:33.000Z</time>
      </trkpt>
      <trkpt lat="47.35684" lon="-1.22708">
        <ele>62</ele>
        <time>2015-01-11T09:33:35.000Z</time>
      </trkpt>
      <trkpt lat="47.35686" lon="-1.22721">
        <ele>63</ele>
        <time>2015-01-11T09:33:37.000Z</time>
      </trkpt>
      <trkpt lat="47.35687" lon="-1.22733">
        <ele>65</ele>
        <time>2015-01-11T09:33:41.000Z</time>
      </trkpt>
      <trkpt lat="47.35687" lon="-1.22733">
        <ele>65</ele>
        <time>2015-01-11T09:33:43.000Z</time>
      </trkpt>
      <trkpt lat="47.35687" lon="-1.22744">
        <ele>66</ele>
        <time>2015-01-11T09:33:45.000Z</time>
      </trkpt>
      <trkpt lat="47.35687" lon="-1.22744">
        <ele>66</ele>
        <time>2015-01-11T09:33:47.000Z</time>
      </trkpt>
      <trkpt lat="47.35689" lon="-1.22754">
        <ele>69</ele>
        <time>2015-01-11T09:33:49.000Z</time>
      </trkpt>
      <trkpt lat="47.35689" lon="-1.22754">
        <ele>69</ele>
        <time>2015-01-11T09:33:51.000Z</time>
      </trkpt>
      <trkpt lat="47.35689" lon="-1.22754">
        <ele>69</ele>
        <time>2015-01-11T09:33:53.000Z</time>
      </trkpt>
      <trkpt lat="47.35693" lon="-1.22765">
        <ele>69</ele>
        <time>2015-01-11T09:33:55.000Z</time>
      </trkpt>
      <trkpt lat="47.35694" lon="-1.22775">
        <ele>70</ele>
        <time>2015-01-11T09:33:59.000Z</time>
      </trkpt>
      <trkpt lat="47.35694" lon="-1.22775">
        <ele>70</ele>
        <time>2015-01-11T09:34:03.000Z</time>
      </trkpt>
      <trkpt lat="47.35696" lon="-1.22787">
        <ele>71</ele>
        <time>2015-01-11T09:34:05.000Z</time>
      </trkpt>
      <trkpt lat="47.35696" lon="-1.22787">
        <ele>71</ele>
        <time>2015-01-11T09:34:07.000Z</time>
      </trkpt>
      <trkpt lat="47.35696" lon="-1.22787">
        <ele>71</ele>
        <time>2015-01-11T09:34:09.000Z</time>
      </trkpt>
      <trkpt lat="47.35697" lon="-1.22797">
        <ele>74</ele>
        <time>2015-01-11T09:34:11.000Z</time>
      </trkpt>
      <trkpt lat="47.35699" lon="-1.2281">
        <ele>76</ele>
        <time>2015-01-11T09:34:15.000Z</time>
      </trkpt>
      <trkpt lat="47.35701" lon="-1.22821">
        <ele>76</ele>
        <time>2015-01-11T09:34:19.000Z</time>
      </trkpt>
      <trkpt lat="47.35701" lon="-1.22821">
        <ele>76</ele>
        <time>2015-01-11T09:34:21.000Z</time>
      </trkpt>
      <trkpt lat="47.35703" lon="-1.22831">
        <ele>78</ele>
        <time>2015-01-11T09:34:23.000Z</time>
      </trkpt>
      <trkpt lat="47.35707" lon="-1.22844">
        <ele>80</ele>
        <time>2015-01-11T09:34:27.000Z</time>
      </trkpt>
      <trkpt lat="47.35709" lon="-1.22858">
        <ele>83</ele>
        <time>2015-01-11T09:34:31.000Z</time>
      </trkpt>
      <trkpt lat="47.35709" lon="-1.22871">
        <ele>83</ele>
        <time>2015-01-11T09:34:35.000Z</time>
      </trkpt>
      <trkpt lat="47.35709" lon="-1.22871">
        <ele>83</ele>
        <time>2015-01-11T09:34:37.000Z</time>
      </trkpt>
      <trkpt lat="47.35711" lon="-1.22882">
        <ele>85</ele>
        <time>2015-01-11T09:34:39.000Z</time>
      </trkpt>
      <trkpt lat="47.35711" lon="-1.22882">
        <ele>85</ele>
        <time>2015-01-11T09:34:41.000Z</time>
      </trkpt>
      <trkpt lat="47.35711" lon="-1.22891">
        <ele>89</ele>
        <time>2015-01-11T09:34:43.000Z</time>
      </trkpt>
      <trkpt lat="47.35711" lon="-1.22891">
        <ele>89</ele>
        <time>2015-01-11T09:34:45.000Z</time>
      </trkpt>
      <trkpt lat="47.3571" lon="-1.229">
        <ele>89</ele>
        <time>2015-01-11T09:34:47.000Z</time>
      </trkpt>
      <trkpt lat="47.3571" lon="-1.229">
        <ele>89</ele>
        <time>2015-01-11T09:34:49.000Z</time>
      </trkpt>
      <trkpt lat="47.3571" lon="-1.22905">
        <ele>89</ele>
        <time>2015-01-11T09:34:51.000Z</time>
      </trkpt>
      <trkpt lat="47.3571" lon="-1.22909">
        <ele>91</ele>
        <time>2015-01-11T09:34:53.000Z</time>
      </trkpt>
      <trkpt lat="47.35711" lon="-1.22914">
        <ele>90</ele>
        <time>2015-01-11T09:34:55.000Z</time>
      </trkpt>
      <trkpt lat="47.35711" lon="-1.22914">
        <ele>90</ele>
        <time>2015-01-11T09:34:57.000Z</time>
      </trkpt>
      <trkpt lat="47.35711" lon="-1.22921">
        <ele>90</ele>
        <time>2015-01-11T09:34:59.000Z</time>
      </trkpt>
      <trkpt lat="47.35711" lon="-1.22926">
        <ele>90</ele>
        <time>2015-01-11T09:35:01.000Z</time>
      </trkpt>
      <trkpt lat="47.35711" lon="-1.22926">
        <ele>90</ele>
        <time>2015-01-11T09:35:03.000Z</time>
      </trkpt>
      <trkpt lat="47.35713" lon="-1.2293">
        <ele>89</ele>
        <time>2015-01-11T09:35:05.000Z</time>
      </trkpt>
      <trkpt lat="47.35713" lon="-1.2293">
        <ele>89</ele>
        <time>2015-01-11T09:35:07.000Z</time>
      </trkpt>
      <trkpt lat="47.35713" lon="-1.2293">
        <ele>89</ele>
        <time>2015-01-11T09:35:09.000Z</time>
      </trkpt>
      <trkpt lat="47.35716" lon="-1.22944">
        <ele>90</ele>
        <time>2015-01-11T09:35:27.000Z</time>
      </trkpt>
      <trkpt lat="47.35716" lon="-1.22953">
        <ele>91</ele>
        <time>2015-01-11T09:35:29.000Z</time>
      </trkpt>
      <trkpt lat="47.35714" lon="-1.22959">
        <ele>92</ele>
        <time>2015-01-11T09:35:31.000Z</time>
      </trkpt>
      <trkpt lat="47.3571" lon="-1.22962">
        <ele>93</ele>
        <time>2015-01-11T09:35:33.000Z</time>
      </trkpt>
      <trkpt lat="47.35705" lon="-1.22963">
        <ele>92</ele>
        <time>2015-01-11T09:35:35.000Z</time>
      </trkpt>
      <trkpt lat="47.35696" lon="-1.22962">
        <ele>94</ele>
        <time>2015-01-11T09:35:37.000Z</time>
      </trkpt>
      <trkpt lat="47.3569" lon="-1.22959">
        <ele>95</ele>
        <time>2015-01-11T09:35:39.000Z</time>
      </trkpt>
      <trkpt lat="47.35683" lon="-1.22955">
        <ele>95</ele>
        <time>2015-01-11T09:35:41.000Z</time>
      </trkpt>
      <trkpt lat="47.35677" lon="-1.22952">
        <ele>92</ele>
        <time>2015-01-11T09:35:43.000Z</time>
      </trkpt>
      <trkpt lat="47.35669" lon="-1.2295">
        <ele>93</ele>
        <time>2015-01-11T09:35:45.000Z</time>
      </trkpt>
      <trkpt lat="47.35661" lon="-1.2295">
        <ele>90</ele>
        <time>2015-01-11T09:35:47.000Z</time>
      </trkpt>
      <trkpt lat="47.35653" lon="-1.2295">
        <ele>92</ele>
        <time>2015-01-11T09:35:49.000Z</time>
      </trkpt>
      <trkpt lat="47.35646" lon="-1.2295">
        <ele>91</ele>
        <time>2015-01-11T09:35:51.000Z</time>
      </trkpt>
      <trkpt lat="47.35638" lon="-1.22951">
        <ele>92</ele>
        <time>2015-01-11T09:35:53.000Z</time>
      </trkpt>
      <trkpt lat="47.35631" lon="-1.22953">
        <ele>92</ele>
        <time>2015-01-11T09:35:55.000Z</time>
      </trkpt>
      <trkpt lat="47.35624" lon="-1.22957">
        <ele>92</ele>
        <time>2015-01-11T09:35:57.000Z</time>
      </trkpt>
      <trkpt lat="47.35618" lon="-1.22962">
        <ele>92</ele>
        <time>2015-01-11T09:35:59.000Z</time>
      </trkpt>
      <trkpt lat="47.35612" lon="-1.22967">
        <ele>92</ele>
        <time>2015-01-11T09:36:01.000Z</time>
      </trkpt>
      <trkpt lat="47.35607" lon="-1.22974">
        <ele>93</ele>
        <time>2015-01-11T09:36:03.000Z</time>
      </trkpt>
      <trkpt lat="47.35602" lon="-1.2298">
        <ele>94</ele>
        <time>2015-01-11T09:36:05.000Z</time>
      </trkpt>
      <trkpt lat="47.35602" lon="-1.2298">
        <ele>94</ele>
        <time>2015-01-11T09:36:07.000Z</time>
      </trkpt>
      <trkpt lat="47.35595" lon="-1.22987">
        <ele>92</ele>
        <time>2015-01-11T09:36:09.000Z</time>
      </trkpt>
      <trkpt lat="47.35595" lon="-1.22987">
        <ele>92</ele>
        <time>2015-01-11T09:36:11.000Z</time>
      </trkpt>
      <trkpt lat="47.35595" lon="-1.22987">
        <ele>92</ele>
        <time>2015-01-11T09:36:13.000Z</time>
      </trkpt>
      <trkpt lat="47.35595" lon="-1.22987">
        <ele>92</ele>
        <time>2015-01-11T09:36:15.000Z</time>
      </trkpt>
      <trkpt lat="47.35595" lon="-1.22987">
        <ele>92</ele>
        <time>2015-01-11T09:36:17.000Z</time>
      </trkpt>
      <trkpt lat="47.35589" lon="-1.22996">
        <ele>96</ele>
        <time>2015-01-11T09:37:41.000Z</time>
      </trkpt>
      <trkpt lat="47.35584" lon="-1.23004">
        <ele>94</ele>
        <time>2015-01-11T09:37:43.000Z</time>
      </trkpt>
      <trkpt lat="47.35579" lon="-1.23012">
        <ele>92</ele>
        <time>2015-01-11T09:37:45.000Z</time>
      </trkpt>
      <trkpt lat="47.35575" lon="-1.2302">
        <ele>92</ele>
        <time>2015-01-11T09:37:47.000Z</time>
      </trkpt>
      <trkpt lat="47.35572" lon="-1.23027">
        <ele>93</ele>
        <time>2015-01-11T09:37:49.000Z</time>
      </trkpt>
      <trkpt lat="47.35564" lon="-1.23042">
        <ele>92</ele>
        <time>2015-01-11T09:37:51.000Z</time>
      </trkpt>
      <trkpt lat="47.35561" lon="-1.2305">
        <ele>92</ele>
        <time>2015-01-11T09:37:53.000Z</time>
      </trkpt>
      <trkpt lat="47.35558" lon="-1.23058">
        <ele>92</ele>
        <time>2015-01-11T09:37:55.000Z</time>
      </trkpt>
      <trkpt lat="47.35555" lon="-1.23066">
        <ele>93</ele>
        <time>2015-01-11T09:37:57.000Z</time>
      </trkpt>
      <trkpt lat="47.35552" lon="-1.23074">
        <ele>94</ele>
        <time>2015-01-11T09:37:59.000Z</time>
      </trkpt>
      <trkpt lat="47.3555" lon="-1.23083">
        <ele>94</ele>
        <time>2015-01-11T09:38:01.000Z</time>
      </trkpt>
      <trkpt lat="47.35547" lon="-1.23092">
        <ele>94</ele>
        <time>2015-01-11T09:38:03.000Z</time>
      </trkpt>
      <trkpt lat="47.35545" lon="-1.23101">
        <ele>95</ele>
        <time>2015-01-11T09:38:05.000Z</time>
      </trkpt>
      <trkpt lat="47.35543" lon="-1.23109">
        <ele>96</ele>
        <time>2015-01-11T09:38:07.000Z</time>
      </trkpt>
      <trkpt lat="47.35544" lon="-1.23117">
        <ele>97</ele>
        <time>2015-01-11T09:38:09.000Z</time>
      </trkpt>
      <trkpt lat="47.35547" lon="-1.23126">
        <ele>98</ele>
        <time>2015-01-11T09:38:11.000Z</time>
      </trkpt>
      <trkpt lat="47.35548" lon="-1.23136">
        <ele>98</ele>
        <time>2015-01-11T09:38:13.000Z</time>
      </trkpt>
      <trkpt lat="47.35548" lon="-1.23136">
        <ele>98</ele>
        <time>2015-01-11T09:38:15.000Z</time>
      </trkpt>
      <trkpt lat="47.35548" lon="-1.2315">
        <ele>101</ele>
        <time>2015-01-11T09:38:17.000Z</time>
      </trkpt>
      <trkpt lat="47.35548" lon="-1.2315">
        <ele>101</ele>
        <time>2015-01-11T09:38:19.000Z</time>
      </trkpt>
      <trkpt lat="47.35545" lon="-1.23163">
        <ele>100</ele>
        <time>2015-01-11T09:38:21.000Z</time>
      </trkpt>
      <trkpt lat="47.35545" lon="-1.23163">
        <ele>100</ele>
        <time>2015-01-11T09:38:23.000Z</time>
      </trkpt>
      <trkpt lat="47.35539" lon="-1.23163">
        <ele>102</ele>
        <time>2015-01-11T09:38:25.000Z</time>
      </trkpt>
      <trkpt lat="47.35539" lon="-1.23163">
        <ele>102</ele>
        <time>2015-01-11T09:38:27.000Z</time>
      </trkpt>
      <trkpt lat="47.35532" lon="-1.2316">
        <ele>99</ele>
        <time>2015-01-11T09:38:29.000Z</time>
      </trkpt>
      <trkpt lat="47.35527" lon="-1.23162">
        <ele>98</ele>
        <time>2015-01-11T09:38:31.000Z</time>
      </trkpt>
      <trkpt lat="47.35521" lon="-1.23167">
        <ele>99</ele>
        <time>2015-01-11T09:38:33.000Z</time>
      </trkpt>
      <trkpt lat="47.35514" lon="-1.2317">
        <ele>101</ele>
        <time>2015-01-11T09:38:35.000Z</time>
      </trkpt>
      <trkpt lat="47.35509" lon="-1.23174">
        <ele>100</ele>
        <time>2015-01-11T09:38:37.000Z</time>
      </trkpt>
      <trkpt lat="47.35504" lon="-1.2318">
        <ele>100</ele>
        <time>2015-01-11T09:38:39.000Z</time>
      </trkpt>
      <trkpt lat="47.35499" lon="-1.23187">
        <ele>101</ele>
        <time>2015-01-11T09:38:41.000Z</time>
      </trkpt>
      <trkpt lat="47.35494" lon="-1.23194">
        <ele>103</ele>
        <time>2015-01-11T09:38:43.000Z</time>
      </trkpt>
      <trkpt lat="47.3549" lon="-1.23201">
        <ele>104</ele>
        <time>2015-01-11T09:38:45.000Z</time>
      </trkpt>
      <trkpt lat="47.35485" lon="-1.23208">
        <ele>105</ele>
        <time>2015-01-11T09:38:47.000Z</time>
      </trkpt>
      <trkpt lat="47.35485" lon="-1.23208">
        <ele>105</ele>
        <time>2015-01-11T09:38:49.000Z</time>
      </trkpt>
      <trkpt lat="47.35478" lon="-1.23214">
        <ele>109</ele>
        <time>2015-01-11T09:38:51.000Z</time>
      </trkpt>
      <trkpt lat="47.35478" lon="-1.23214">
        <ele>109</ele>
        <time>2015-01-11T09:38:53.000Z</time>
      </trkpt>
      <trkpt lat="47.35469" lon="-1.23215">
        <ele>108</ele>
        <time>2015-01-11T09:38:55.000Z</time>
      </trkpt>
      <trkpt lat="47.35461" lon="-1.23215">
        <ele>108</ele>
        <time>2015-01-11T09:38:57.000Z</time>
      </trkpt>
      <trkpt lat="47.35453" lon="-1.23222">
        <ele>103</ele>
        <time>2015-01-11T09:38:59.000Z</time>
      </trkpt>
      <trkpt lat="47.35445" lon="-1.23232">
        <ele>99</ele>
        <time>2015-01-11T09:39:01.000Z</time>
      </trkpt>
      <trkpt lat="47.35439" lon="-1.23243">
        <ele>97</ele>
        <time>2015-01-11T09:39:03.000Z</time>
      </trkpt>
      <trkpt lat="47.35432" lon="-1.23254">
        <ele>97</ele>
        <time>2015-01-11T09:39:05.000Z</time>
      </trkpt>
      <trkpt lat="47.35425" lon="-1.23262">
        <ele>99</ele>
        <time>2015-01-11T09:39:07.000Z</time>
      </trkpt>
      <trkpt lat="47.35418" lon="-1.23271">
        <ele>100</ele>
        <time>2015-01-11T09:39:09.000Z</time>
      </trkpt>
      <trkpt lat="47.35412" lon="-1.23281">
        <ele>100</ele>
        <time>2015-01-11T09:39:11.000Z</time>
      </trkpt>
      <trkpt lat="47.35406" lon="-1.23291">
        <ele>101</ele>
        <time>2015-01-11T09:39:13.000Z</time>
      </trkpt>
      <trkpt lat="47.35401" lon="-1.233">
        <ele>99</ele>
        <time>2015-01-11T09:39:15.000Z</time>
      </trkpt>
      <trkpt lat="47.35395" lon="-1.23308">
        <ele>100</ele>
        <time>2015-01-11T09:39:17.000Z</time>
      </trkpt>
      <trkpt lat="47.35389" lon="-1.23316">
        <ele>99</ele>
        <time>2015-01-11T09:39:19.000Z</time>
      </trkpt>
      <trkpt lat="47.35384" lon="-1.23323">
        <ele>99</ele>
        <time>2015-01-11T09:39:21.000Z</time>
      </trkpt>
      <trkpt lat="47.35377" lon="-1.23326">
        <ele>97</ele>
        <time>2015-01-11T09:39:23.000Z</time>
      </trkpt>
      <trkpt lat="47.35371" lon="-1.23326">
        <ele>97</ele>
        <time>2015-01-11T09:39:25.000Z</time>
      </trkpt>
      <trkpt lat="47.35371" lon="-1.23326">
        <ele>97</ele>
        <time>2015-01-11T09:39:27.000Z</time>
      </trkpt>
      <trkpt lat="47.35371" lon="-1.23326">
        <ele>97</ele>
        <time>2015-01-11T09:39:29.000Z</time>
      </trkpt>
      <trkpt lat="47.35371" lon="-1.23326">
        <ele>97</ele>
        <time>2015-01-11T09:39:31.000Z</time>
      </trkpt>
      <trkpt lat="47.35371" lon="-1.23326">
        <ele>97</ele>
        <time>2015-01-11T09:39:33.000Z</time>
      </trkpt>
      <trkpt lat="47.35371" lon="-1.23326">
        <ele>97</ele>
        <time>2015-01-11T09:39:35.000Z</time>
      </trkpt>
      <trkpt lat="47.35376" lon="-1.23329">
        <ele>96</ele>
        <time>2015-01-11T09:40:29.000Z</time>
      </trkpt>
      <trkpt lat="47.35379" lon="-1.23335">
        <ele>99</ele>
        <time>2015-01-11T09:40:31.000Z</time>
      </trkpt>
      <trkpt lat="47.35382" lon="-1.23342">
        <ele>100</ele>
        <time>2015-01-11T09:40:33.000Z</time>
      </trkpt>
      <trkpt lat="47.35384" lon="-1.23349">
        <ele>102</ele>
        <time>2015-01-11T09:40:35.000Z</time>
      </trkpt>
      <trkpt lat="47.35386" lon="-1.23357">
        <ele>102</ele>
        <time>2015-01-11T09:40:37.000Z</time>
      </trkpt>
      <trkpt lat="47.35389" lon="-1.23374">
        <ele>103</ele>
        <time>2015-01-11T09:40:39.000Z</time>
      </trkpt>
      <trkpt lat="47.35392" lon="-1.23387">
        <ele>104</ele>
        <time>2015-01-11T09:40:43.000Z</time>
      </trkpt>
      <trkpt lat="47.35392" lon="-1.23387">
        <ele>104</ele>
        <time>2015-01-11T09:40:45.000Z</time>
      </trkpt>
      <trkpt lat="47.35394" lon="-1.23401">
        <ele>104</ele>
        <time>2015-01-11T09:40:47.000Z</time>
      </trkpt>
      <trkpt lat="47.35394" lon="-1.2341">
        <ele>103</ele>
        <time>2015-01-11T09:40:49.000Z</time>
      </trkpt>
      <trkpt lat="47.35394" lon="-1.23422">
        <ele>102</ele>
        <time>2015-01-11T09:40:51.000Z</time>
      </trkpt>
      <trkpt lat="47.35394" lon="-1.23434">
        <ele>101</ele>
        <time>2015-01-11T09:40:53.000Z</time>
      </trkpt>
      <trkpt lat="47.35394" lon="-1.23445">
        <ele>101</ele>
        <time>2015-01-11T09:40:55.000Z</time>
      </trkpt>
      <trkpt lat="47.35395" lon="-1.23457">
        <ele>102</ele>
        <time>2015-01-11T09:40:57.000Z</time>
      </trkpt>
      <trkpt lat="47.35395" lon="-1.23469">
        <ele>102</ele>
        <time>2015-01-11T09:40:59.000Z</time>
      </trkpt>
      <trkpt lat="47.35396" lon="-1.2348">
        <ele>102</ele>
        <time>2015-01-11T09:41:01.000Z</time>
      </trkpt>
      <trkpt lat="47.35397" lon="-1.23492">
        <ele>102</ele>
        <time>2015-01-11T09:41:03.000Z</time>
      </trkpt>
      <trkpt lat="47.35398" lon="-1.23504">
        <ele>102</ele>
        <time>2015-01-11T09:41:05.000Z</time>
      </trkpt>
      <trkpt lat="47.35398" lon="-1.23516">
        <ele>102</ele>
        <time>2015-01-11T09:41:07.000Z</time>
      </trkpt>
      <trkpt lat="47.35398" lon="-1.23527">
        <ele>102</ele>
        <time>2015-01-11T09:41:09.000Z</time>
      </trkpt>
      <trkpt lat="47.35399" lon="-1.23537">
        <ele>102</ele>
        <time>2015-01-11T09:41:11.000Z</time>
      </trkpt>
      <trkpt lat="47.35399" lon="-1.23548">
        <ele>103</ele>
        <time>2015-01-11T09:41:13.000Z</time>
      </trkpt>
      <trkpt lat="47.354" lon="-1.23559">
        <ele>102</ele>
        <time>2015-01-11T09:41:15.000Z</time>
      </trkpt>
      <trkpt lat="47.35402" lon="-1.23569">
        <ele>102</ele>
        <time>2015-01-11T09:41:17.000Z</time>
      </trkpt>
      <trkpt lat="47.35403" lon="-1.23579">
        <ele>102</ele>
        <time>2015-01-11T09:41:19.000Z</time>
      </trkpt>
      <trkpt lat="47.35405" lon="-1.2359">
        <ele>103</ele>
        <time>2015-01-11T09:41:21.000Z</time>
      </trkpt>
      <trkpt lat="47.35408" lon="-1.236">
        <ele>103</ele>
        <time>2015-01-11T09:41:23.000Z</time>
      </trkpt>
      <trkpt lat="47.35412" lon="-1.2361">
        <ele>103</ele>
        <time>2015-01-11T09:41:25.000Z</time>
      </trkpt>
      <trkpt lat="47.35416" lon="-1.2362">
        <ele>103</ele>
        <time>2015-01-11T09:41:27.000Z</time>
      </trkpt>
      <trkpt lat="47.35421" lon="-1.23628">
        <ele>103</ele>
        <time>2015-01-11T09:41:29.000Z</time>
      </trkpt>
      <trkpt lat="47.35427" lon="-1.23633">
        <ele>103</ele>
        <time>2015-01-11T09:41:31.000Z</time>
      </trkpt>
      <trkpt lat="47.35433" lon="-1.23636">
        <ele>105</ele>
        <time>2015-01-11T09:41:33.000Z</time>
      </trkpt>
      <trkpt lat="47.3544" lon="-1.23637">
        <ele>106</ele>
        <time>2015-01-11T09:41:35.000Z</time>
      </trkpt>
      <trkpt lat="47.35447" lon="-1.23635">
        <ele>106</ele>
        <time>2015-01-11T09:41:37.000Z</time>
      </trkpt>
      <trkpt lat="47.35455" lon="-1.23633">
        <ele>107</ele>
        <time>2015-01-11T09:41:39.000Z</time>
      </trkpt>
      <trkpt lat="47.35463" lon="-1.23633">
        <ele>108</ele>
        <time>2015-01-11T09:41:41.000Z</time>
      </trkpt>
      <trkpt lat="47.35471" lon="-1.23633">
        <ele>109</ele>
        <time>2015-01-11T09:41:43.000Z</time>
      </trkpt>
      <trkpt lat="47.35478" lon="-1.23633">
        <ele>109</ele>
        <time>2015-01-11T09:41:45.000Z</time>
      </trkpt>
      <trkpt lat="47.35486" lon="-1.23632">
        <ele>110</ele>
        <time>2015-01-11T09:41:47.000Z</time>
      </trkpt>
      <trkpt lat="47.35494" lon="-1.23632">
        <ele>111</ele>
        <time>2015-01-11T09:41:49.000Z</time>
      </trkpt>
      <trkpt lat="47.35501" lon="-1.23632">
        <ele>111</ele>
        <time>2015-01-11T09:41:51.000Z</time>
      </trkpt>
      <trkpt lat="47.35509" lon="-1.23632">
        <ele>111</ele>
        <time>2015-01-11T09:41:53.000Z</time>
      </trkpt>
      <trkpt lat="47.35517" lon="-1.23633">
        <ele>112</ele>
        <time>2015-01-11T09:41:55.000Z</time>
      </trkpt>
      <trkpt lat="47.35525" lon="-1.23633">
        <ele>112</ele>
        <time>2015-01-11T09:41:57.000Z</time>
      </trkpt>
      <trkpt lat="47.35532" lon="-1.23634">
        <ele>112</ele>
        <time>2015-01-11T09:41:59.000Z</time>
      </trkpt>
      <trkpt lat="47.3554" lon="-1.23635">
        <ele>112</ele>
        <time>2015-01-11T09:42:01.000Z</time>
      </trkpt>
      <trkpt lat="47.35548" lon="-1.23636">
        <ele>112</ele>
        <time>2015-01-11T09:42:03.000Z</time>
      </trkpt>
      <trkpt lat="47.35556" lon="-1.23636">
        <ele>113</ele>
        <time>2015-01-11T09:42:05.000Z</time>
      </trkpt>
      <trkpt lat="47.35564" lon="-1.23637">
        <ele>113</ele>
        <time>2015-01-11T09:42:07.000Z</time>
      </trkpt>
      <trkpt lat="47.35573" lon="-1.23637">
        <ele>113</ele>
        <time>2015-01-11T09:42:09.000Z</time>
      </trkpt>
      <trkpt lat="47.35581" lon="-1.23637">
        <ele>113</ele>
        <time>2015-01-11T09:42:11.000Z</time>
      </trkpt>
      <trkpt lat="47.35589" lon="-1.23636">
        <ele>113</ele>
        <time>2015-01-11T09:42:13.000Z</time>
      </trkpt>
      <trkpt lat="47.35598" lon="-1.23636">
        <ele>113</ele>
        <time>2015-01-11T09:42:15.000Z</time>
      </trkpt>
      <trkpt lat="47.35607" lon="-1.23637">
        <ele>113</ele>
        <time>2015-01-11T09:42:17.000Z</time>
      </trkpt>
      <trkpt lat="47.35616" lon="-1.23637">
        <ele>113</ele>
        <time>2015-01-11T09:42:19.000Z</time>
      </trkpt>
      <trkpt lat="47.35625" lon="-1.23637">
        <ele>112</ele>
        <time>2015-01-11T09:42:21.000Z</time>
      </trkpt>
      <trkpt lat="47.35633" lon="-1.23637">
        <ele>112</ele>
        <time>2015-01-11T09:42:23.000Z</time>
      </trkpt>
      <trkpt lat="47.35642" lon="-1.23636">
        <ele>113</ele>
        <time>2015-01-11T09:42:25.000Z</time>
      </trkpt>
      <trkpt lat="47.35651" lon="-1.23636">
        <ele>113</ele>
        <time>2015-01-11T09:42:27.000Z</time>
      </trkpt>
      <trkpt lat="47.35659" lon="-1.23635">
        <ele>113</ele>
        <time>2015-01-11T09:42:29.000Z</time>
      </trkpt>
      <trkpt lat="47.35666" lon="-1.23635">
        <ele>113</ele>
        <time>2015-01-11T09:42:31.000Z</time>
      </trkpt>
      <trkpt lat="47.35674" lon="-1.23638">
        <ele>112</ele>
        <time>2015-01-11T09:42:33.000Z</time>
      </trkpt>
      <trkpt lat="47.35678" lon="-1.23645">
        <ele>112</ele>
        <time>2015-01-11T09:42:35.000Z</time>
      </trkpt>
      <trkpt lat="47.3568" lon="-1.23657">
        <ele>112</ele>
        <time>2015-01-11T09:42:37.000Z</time>
      </trkpt>
      <trkpt lat="47.35678" lon="-1.23671">
        <ele>112</ele>
        <time>2015-01-11T09:42:39.000Z</time>
      </trkpt>
      <trkpt lat="47.35677" lon="-1.23684">
        <ele>112</ele>
        <time>2015-01-11T09:42:41.000Z</time>
      </trkpt>
      <trkpt lat="47.35677" lon="-1.23698">
        <ele>111</ele>
        <time>2015-01-11T09:42:43.000Z</time>
      </trkpt>
      <trkpt lat="47.35676" lon="-1.23711">
        <ele>111</ele>
        <time>2015-01-11T09:42:45.000Z</time>
      </trkpt>
      <trkpt lat="47.35676" lon="-1.23723">
        <ele>111</ele>
        <time>2015-01-11T09:42:47.000Z</time>
      </trkpt>
      <trkpt lat="47.35676" lon="-1.23736">
        <ele>111</ele>
        <time>2015-01-11T09:42:49.000Z</time>
      </trkpt>
      <trkpt lat="47.35676" lon="-1.23748">
        <ele>111</ele>
        <time>2015-01-11T09:42:51.000Z</time>
      </trkpt>
      <trkpt lat="47.35675" lon="-1.23761">
        <ele>111</ele>
        <time>2015-01-11T09:42:53.000Z</time>
      </trkpt>
      <trkpt lat="47.35675" lon="-1.23774">
        <ele>111</ele>
        <time>2015-01-11T09:42:55.000Z</time>
      </trkpt>
      <trkpt lat="47.35675" lon="-1.23787">
        <ele>111</ele>
        <time>2015-01-11T09:42:57.000Z</time>
      </trkpt>
      <trkpt lat="47.35675" lon="-1.23801">
        <ele>111</ele>
        <time>2015-01-11T09:42:59.000Z</time>
      </trkpt>
      <trkpt lat="47.35675" lon="-1.23815">
        <ele>111</ele>
        <time>2015-01-11T09:43:01.000Z</time>
      </trkpt>
      <trkpt lat="47.35675" lon="-1.23828">
        <ele>110</ele>
        <time>2015-01-11T09:43:03.000Z</time>
      </trkpt>
      <trkpt lat="47.35675" lon="-1.23841">
        <ele>110</ele>
        <time>2015-01-11T09:43:05.000Z</time>
      </trkpt>
      <trkpt lat="47.35674" lon="-1.23854">
        <ele>110</ele>
        <time>2015-01-11T09:43:07.000Z</time>
      </trkpt>
      <trkpt lat="47.35674" lon="-1.23867">
        <ele>109</ele>
        <time>2015-01-11T09:43:09.000Z</time>
      </trkpt>
      <trkpt lat="47.35674" lon="-1.23879">
        <ele>108</ele>
        <time>2015-01-11T09:43:11.000Z</time>
      </trkpt>
      <trkpt lat="47.35674" lon="-1.23892">
        <ele>108</ele>
        <time>2015-01-11T09:43:13.000Z</time>
      </trkpt>
      <trkpt lat="47.35674" lon="-1.23904">
        <ele>108</ele>
        <time>2015-01-11T09:43:15.000Z</time>
      </trkpt>
      <trkpt lat="47.35674" lon="-1.23919">
        <ele>106</ele>
        <time>2015-01-11T09:43:17.000Z</time>
      </trkpt>
      <trkpt lat="47.35675" lon="-1.23932">
        <ele>106</ele>
        <time>2015-01-11T09:43:19.000Z</time>
      </trkpt>
      <trkpt lat="47.35675" lon="-1.23946">
        <ele>105</ele>
        <time>2015-01-11T09:43:21.000Z</time>
      </trkpt>
      <trkpt lat="47.35676" lon="-1.23958">
        <ele>104</ele>
        <time>2015-01-11T09:43:23.000Z</time>
      </trkpt>
      <trkpt lat="47.35675" lon="-1.23971">
        <ele>104</ele>
        <time>2015-01-11T09:43:25.000Z</time>
      </trkpt>
      <trkpt lat="47.35676" lon="-1.23983">
        <ele>104</ele>
        <time>2015-01-11T09:43:27.000Z</time>
      </trkpt>
      <trkpt lat="47.35678" lon="-1.23994">
        <ele>105</ele>
        <time>2015-01-11T09:43:29.000Z</time>
      </trkpt>
      <trkpt lat="47.35683" lon="-1.24002">
        <ele>106</ele>
        <time>2015-01-11T09:43:31.000Z</time>
      </trkpt>
      <trkpt lat="47.35691" lon="-1.24005">
        <ele>106</ele>
        <time>2015-01-11T09:43:33.000Z</time>
      </trkpt>
      <trkpt lat="47.357" lon="-1.24004">
        <ele>106</ele>
        <time>2015-01-11T09:43:35.000Z</time>
      </trkpt>
      <trkpt lat="47.35709" lon="-1.24004">
        <ele>106</ele>
        <time>2015-01-11T09:43:37.000Z</time>
      </trkpt>
      <trkpt lat="47.35716" lon="-1.24007">
        <ele>106</ele>
        <time>2015-01-11T09:43:39.000Z</time>
      </trkpt>
      <trkpt lat="47.35717" lon="-1.24016">
        <ele>106</ele>
        <time>2015-01-11T09:43:41.000Z</time>
      </trkpt>
      <trkpt lat="47.35713" lon="-1.24028">
        <ele>106</ele>
        <time>2015-01-11T09:43:43.000Z</time>
      </trkpt>
      <trkpt lat="47.35706" lon="-1.2404">
        <ele>106</ele>
        <time>2015-01-11T09:43:45.000Z</time>
      </trkpt>
      <trkpt lat="47.35701" lon="-1.24051">
        <ele>107</ele>
        <time>2015-01-11T09:43:47.000Z</time>
      </trkpt>
      <trkpt lat="47.35696" lon="-1.24062">
        <ele>107</ele>
        <time>2015-01-11T09:43:49.000Z</time>
      </trkpt>
      <trkpt lat="47.35692" lon="-1.24073">
        <ele>107</ele>
        <time>2015-01-11T09:43:51.000Z</time>
      </trkpt>
      <trkpt lat="47.35688" lon="-1.24084">
        <ele>106</ele>
        <time>2015-01-11T09:43:53.000Z</time>
      </trkpt>
      <trkpt lat="47.35685" lon="-1.24096">
        <ele>106</ele>
        <time>2015-01-11T09:43:55.000Z</time>
      </trkpt>
      <trkpt lat="47.35682" lon="-1.24107">
        <ele>106</ele>
        <time>2015-01-11T09:43:57.000Z</time>
      </trkpt>
      <trkpt lat="47.35678" lon="-1.24119">
        <ele>106</ele>
        <time>2015-01-11T09:43:59.000Z</time>
      </trkpt>
      <trkpt lat="47.35676" lon="-1.24132">
        <ele>105</ele>
        <time>2015-01-11T09:44:01.000Z</time>
      </trkpt>
      <trkpt lat="47.35674" lon="-1.24143">
        <ele>104</ele>
        <time>2015-01-11T09:44:03.000Z</time>
      </trkpt>
      <trkpt lat="47.3567" lon="-1.24157">
        <ele>103</ele>
        <time>2015-01-11T09:44:05.000Z</time>
      </trkpt>
      <trkpt lat="47.35668" lon="-1.2417">
        <ele>102</ele>
        <time>2015-01-11T09:44:07.000Z</time>
      </trkpt>
      <trkpt lat="47.35665" lon="-1.24184">
        <ele>102</ele>
        <time>2015-01-11T09:44:09.000Z</time>
      </trkpt>
      <trkpt lat="47.35661" lon="-1.24197">
        <ele>103</ele>
        <time>2015-01-11T09:44:11.000Z</time>
      </trkpt>
      <trkpt lat="47.35657" lon="-1.24213">
        <ele>104</ele>
        <time>2015-01-11T09:44:13.000Z</time>
      </trkpt>
      <trkpt lat="47.35655" lon="-1.24226">
        <ele>103</ele>
        <time>2015-01-11T09:44:15.000Z</time>
      </trkpt>
      <trkpt lat="47.35652" lon="-1.24239">
        <ele>103</ele>
        <time>2015-01-11T09:44:17.000Z</time>
      </trkpt>
      <trkpt lat="47.35649" lon="-1.24251">
        <ele>103</ele>
        <time>2015-01-11T09:44:19.000Z</time>
      </trkpt>
      <trkpt lat="47.35644" lon="-1.24269">
        <ele>103</ele>
        <time>2015-01-11T09:44:22.000Z</time>
      </trkpt>
      <trkpt lat="47.3564" lon="-1.24279">
        <ele>102</ele>
        <time>2015-01-11T09:44:24.000Z</time>
      </trkpt>
      <trkpt lat="47.35637" lon="-1.24291">
        <ele>102</ele>
        <time>2015-01-11T09:44:26.000Z</time>
      </trkpt>
      <trkpt lat="47.35633" lon="-1.24301">
        <ele>103</ele>
        <time>2015-01-11T09:44:28.000Z</time>
      </trkpt>
      <trkpt lat="47.35632" lon="-1.24312">
        <ele>103</ele>
        <time>2015-01-11T09:44:30.000Z</time>
      </trkpt>
      <trkpt lat="47.35629" lon="-1.24323">
        <ele>101</ele>
        <time>2015-01-11T09:44:32.000Z</time>
      </trkpt>
      <trkpt lat="47.35628" lon="-1.24333">
        <ele>101</ele>
        <time>2015-01-11T09:44:34.000Z</time>
      </trkpt>
      <trkpt lat="47.35627" lon="-1.24345">
        <ele>101</ele>
        <time>2015-01-11T09:44:36.000Z</time>
      </trkpt>
      <trkpt lat="47.35625" lon="-1.24356">
        <ele>100</ele>
        <time>2015-01-11T09:44:38.000Z</time>
      </trkpt>
      <trkpt lat="47.35624" lon="-1.24368">
        <ele>101</ele>
        <time>2015-01-11T09:44:40.000Z</time>
      </trkpt>
      <trkpt lat="47.35624" lon="-1.24379">
        <ele>101</ele>
        <time>2015-01-11T09:44:42.000Z</time>
      </trkpt>
      <trkpt lat="47.35624" lon="-1.24391">
        <ele>102</ele>
        <time>2015-01-11T09:44:44.000Z</time>
      </trkpt>
      <trkpt lat="47.35625" lon="-1.24403">
        <ele>102</ele>
        <time>2015-01-11T09:44:46.000Z</time>
      </trkpt>
      <trkpt lat="47.35626" lon="-1.24414">
        <ele>101</ele>
        <time>2015-01-11T09:44:48.000Z</time>
      </trkpt>
      <trkpt lat="47.35626" lon="-1.24425">
        <ele>101</ele>
        <time>2015-01-11T09:44:50.000Z</time>
      </trkpt>
      <trkpt lat="47.35627" lon="-1.24436">
        <ele>101</ele>
        <time>2015-01-11T09:44:52.000Z</time>
      </trkpt>
      <trkpt lat="47.35628" lon="-1.24449">
        <ele>101</ele>
        <time>2015-01-11T09:44:54.000Z</time>
      </trkpt>
      <trkpt lat="47.35629" lon="-1.24461">
        <ele>101</ele>
        <time>2015-01-11T09:44:56.000Z</time>
      </trkpt>
      <trkpt lat="47.3563" lon="-1.24472">
        <ele>102</ele>
        <time>2015-01-11T09:44:58.000Z</time>
      </trkpt>
      <trkpt lat="47.35632" lon="-1.24483">
        <ele>103</ele>
        <time>2015-01-11T09:45:00.000Z</time>
      </trkpt>
      <trkpt lat="47.35633" lon="-1.24494">
        <ele>103</ele>
        <time>2015-01-11T09:45:02.000Z</time>
      </trkpt>
      <trkpt lat="47.35634" lon="-1.24505">
        <ele>103</ele>
        <time>2015-01-11T09:45:04.000Z</time>
      </trkpt>
      <trkpt lat="47.35635" lon="-1.24517">
        <ele>104</ele>
        <time>2015-01-11T09:45:06.000Z</time>
      </trkpt>
      <trkpt lat="47.35635" lon="-1.24528">
        <ele>104</ele>
        <time>2015-01-11T09:45:08.000Z</time>
      </trkpt>
      <trkpt lat="47.35637" lon="-1.24539">
        <ele>104</ele>
        <time>2015-01-11T09:45:10.000Z</time>
      </trkpt>
      <trkpt lat="47.35638" lon="-1.2455">
        <ele>103</ele>
        <time>2015-01-11T09:45:12.000Z</time>
      </trkpt>
      <trkpt lat="47.3564" lon="-1.24562">
        <ele>104</ele>
        <time>2015-01-11T09:45:14.000Z</time>
      </trkpt>
      <trkpt lat="47.35642" lon="-1.24573">
        <ele>103</ele>
        <time>2015-01-11T09:45:16.000Z</time>
      </trkpt>
      <trkpt lat="47.35645" lon="-1.24586">
        <ele>104</ele>
        <time>2015-01-11T09:45:18.000Z</time>
      </trkpt>
      <trkpt lat="47.35647" lon="-1.24597">
        <ele>103</ele>
        <time>2015-01-11T09:45:20.000Z</time>
      </trkpt>
      <trkpt lat="47.35649" lon="-1.24609">
        <ele>102</ele>
        <time>2015-01-11T09:45:22.000Z</time>
      </trkpt>
      <trkpt lat="47.35651" lon="-1.2462">
        <ele>102</ele>
        <time>2015-01-11T09:45:24.000Z</time>
      </trkpt>
      <trkpt lat="47.35653" lon="-1.24631">
        <ele>102</ele>
        <time>2015-01-11T09:45:26.000Z</time>
      </trkpt>
      <trkpt lat="47.35655" lon="-1.24642">
        <ele>103</ele>
        <time>2015-01-11T09:45:28.000Z</time>
      </trkpt>
      <trkpt lat="47.35656" lon="-1.24653">
        <ele>103</ele>
        <time>2015-01-11T09:45:30.000Z</time>
      </trkpt>
      <trkpt lat="47.35657" lon="-1.24663">
        <ele>102</ele>
        <time>2015-01-11T09:45:32.000Z</time>
      </trkpt>
      <trkpt lat="47.35658" lon="-1.24673">
        <ele>103</ele>
        <time>2015-01-11T09:45:34.000Z</time>
      </trkpt>
      <trkpt lat="47.35658" lon="-1.24682">
        <ele>104</ele>
        <time>2015-01-11T09:45:36.000Z</time>
      </trkpt>
      <trkpt lat="47.35657" lon="-1.24691">
        <ele>105</ele>
        <time>2015-01-11T09:45:38.000Z</time>
      </trkpt>
      <trkpt lat="47.35657" lon="-1.24691">
        <ele>105</ele>
        <time>2015-01-11T09:45:40.000Z</time>
      </trkpt>
      <trkpt lat="47.35653" lon="-1.24704">
        <ele>105</ele>
        <time>2015-01-11T09:45:42.000Z</time>
      </trkpt>
      <trkpt lat="47.35653" lon="-1.24704">
        <ele>105</ele>
        <time>2015-01-11T09:45:44.000Z</time>
      </trkpt>
      <trkpt lat="47.35653" lon="-1.2472">
        <ele>105</ele>
        <time>2015-01-11T09:45:46.000Z</time>
      </trkpt>
      <trkpt lat="47.35651" lon="-1.24728">
        <ele>105</ele>
        <time>2015-01-11T09:45:48.000Z</time>
      </trkpt>
      <trkpt lat="47.35649" lon="-1.24736">
        <ele>104</ele>
        <time>2015-01-11T09:45:50.000Z</time>
      </trkpt>
      <trkpt lat="47.35649" lon="-1.24736">
        <ele>104</ele>
        <time>2015-01-11T09:45:52.000Z</time>
      </trkpt>
      <trkpt lat="47.35645" lon="-1.24751">
        <ele>105</ele>
        <time>2015-01-11T09:45:54.000Z</time>
      </trkpt>
      <trkpt lat="47.35645" lon="-1.24751">
        <ele>105</ele>
        <time>2015-01-11T09:45:56.000Z</time>
      </trkpt>
      <trkpt lat="47.35641" lon="-1.24764">
        <ele>107</ele>
        <time>2015-01-11T09:45:58.000Z</time>
      </trkpt>
      <trkpt lat="47.35641" lon="-1.24764">
        <ele>107</ele>
        <time>2015-01-11T09:46:00.000Z</time>
      </trkpt>
      <trkpt lat="47.35635" lon="-1.24769">
        <ele>107</ele>
        <time>2015-01-11T09:46:02.000Z</time>
      </trkpt>
      <trkpt lat="47.35635" lon="-1.24769">
        <ele>107</ele>
        <time>2015-01-11T09:46:04.000Z</time>
      </trkpt>
      <trkpt lat="47.35627" lon="-1.24768">
        <ele>106</ele>
        <time>2015-01-11T09:46:06.000Z</time>
      </trkpt>
      <trkpt lat="47.35627" lon="-1.24768">
        <ele>106</ele>
        <time>2015-01-11T09:46:08.000Z</time>
      </trkpt>
      <trkpt lat="47.35627" lon="-1.24768">
        <ele>106</ele>
        <time>2015-01-11T09:46:10.000Z</time>
      </trkpt>
      <trkpt lat="47.3562" lon="-1.2477">
        <ele>109</ele>
        <time>2015-01-11T09:46:12.000Z</time>
      </trkpt>
      <trkpt lat="47.3562" lon="-1.2477">
        <ele>109</ele>
        <time>2015-01-11T09:46:14.000Z</time>
      </trkpt>
      <trkpt lat="47.3562" lon="-1.2477">
        <ele>109</ele>
        <time>2015-01-11T09:46:16.000Z</time>
      </trkpt>
      <trkpt lat="47.3562" lon="-1.2477">
        <ele>109</ele>
        <time>2015-01-11T09:46:18.000Z</time>
      </trkpt>
      <trkpt lat="47.35604" lon="-1.24774">
        <ele>112</ele>
        <time>2015-01-11T09:46:42.000Z</time>
      </trkpt>
      <trkpt lat="47.35597" lon="-1.24775">
        <ele>111</ele>
        <time>2015-01-11T09:46:44.000Z</time>
      </trkpt>
      <trkpt lat="47.35589" lon="-1.24777">
        <ele>111</ele>
        <time>2015-01-11T09:46:46.000Z</time>
      </trkpt>
      <trkpt lat="47.3558" lon="-1.24779">
        <ele>109</ele>
        <time>2015-01-11T09:46:48.000Z</time>
      </trkpt>
      <trkpt lat="47.35574" lon="-1.24784">
        <ele>107</ele>
        <time>2015-01-11T09:46:50.000Z</time>
      </trkpt>
      <trkpt lat="47.35571" lon="-1.24791">
        <ele>106</ele>
        <time>2015-01-11T09:46:52.000Z</time>
      </trkpt>
      <trkpt lat="47.35571" lon="-1.24799">
        <ele>105</ele>
        <time>2015-01-11T09:46:54.000Z</time>
      </trkpt>
      <trkpt lat="47.35571" lon="-1.24799">
        <ele>105</ele>
        <time>2015-01-11T09:46:56.000Z</time>
      </trkpt>
      <trkpt lat="47.35567" lon="-1.24813">
        <ele>103</ele>
        <time>2015-01-11T09:46:58.000Z</time>
      </trkpt>
      <trkpt lat="47.35561" lon="-1.24817">
        <ele>102</ele>
        <time>2015-01-11T09:47:00.000Z</time>
      </trkpt>
      <trkpt lat="47.35554" lon="-1.24818">
        <ele>100</ele>
        <time>2015-01-11T09:47:02.000Z</time>
      </trkpt>
      <trkpt lat="47.35554" lon="-1.24818">
        <ele>100</ele>
        <time>2015-01-11T09:47:04.000Z</time>
      </trkpt>
      <trkpt lat="47.35546" lon="-1.24816">
        <ele>100</ele>
        <time>2015-01-11T09:47:06.000Z</time>
      </trkpt>
      <trkpt lat="47.35546" lon="-1.24816">
        <ele>100</ele>
        <time>2015-01-11T09:47:08.000Z</time>
      </trkpt>
      <trkpt lat="47.35543" lon="-1.248">
        <ele>102</ele>
        <time>2015-01-11T09:47:10.000Z</time>
      </trkpt>
      <trkpt lat="47.35542" lon="-1.2479">
        <ele>103</ele>
        <time>2015-01-11T09:47:12.000Z</time>
      </trkpt>
      <trkpt lat="47.35539" lon="-1.2478">
        <ele>103</ele>
        <time>2015-01-11T09:47:14.000Z</time>
      </trkpt>
      <trkpt lat="47.35536" lon="-1.24768">
        <ele>103</ele>
        <time>2015-01-11T09:47:16.000Z</time>
      </trkpt>
      <trkpt lat="47.35534" lon="-1.24756">
        <ele>103</ele>
        <time>2015-01-11T09:47:18.000Z</time>
      </trkpt>
      <trkpt lat="47.35532" lon="-1.24745">
        <ele>102</ele>
        <time>2015-01-11T09:47:20.000Z</time>
      </trkpt>
      <trkpt lat="47.35532" lon="-1.24734">
        <ele>101</ele>
        <time>2015-01-11T09:47:22.000Z</time>
      </trkpt>
      <trkpt lat="47.35533" lon="-1.24724">
        <ele>100</ele>
        <time>2015-01-11T09:47:24.000Z</time>
      </trkpt>
      <trkpt lat="47.35533" lon="-1.24724">
        <ele>100</ele>
        <time>2015-01-11T09:47:26.000Z</time>
      </trkpt>
      <trkpt lat="47.35531" lon="-1.2471">
        <ele>101</ele>
        <time>2015-01-11T09:47:28.000Z</time>
      </trkpt>
      <trkpt lat="47.35531" lon="-1.2471">
        <ele>101</ele>
        <time>2015-01-11T09:47:30.000Z</time>
      </trkpt>
      <trkpt lat="47.35524" lon="-1.247">
        <ele>103</ele>
        <time>2015-01-11T09:47:32.000Z</time>
      </trkpt>
      <trkpt lat="47.35524" lon="-1.247">
        <ele>103</ele>
        <time>2015-01-11T09:47:34.000Z</time>
      </trkpt>
      <trkpt lat="47.35522" lon="-1.24694">
        <ele>104</ele>
        <time>2015-01-11T09:47:36.000Z</time>
      </trkpt>
      <trkpt lat="47.3552" lon="-1.24689">
        <ele>106</ele>
        <time>2015-01-11T09:47:38.000Z</time>
      </trkpt>
      <trkpt lat="47.35518" lon="-1.24684">
        <ele>106</ele>
        <time>2015-01-11T09:47:40.000Z</time>
      </trkpt>
      <trkpt lat="47.35518" lon="-1.24684">
        <ele>106</ele>
        <time>2015-01-11T09:47:42.000Z</time>
      </trkpt>
      <trkpt lat="47.35518" lon="-1.24684">
        <ele>106</ele>
        <time>2015-01-11T09:47:44.000Z</time>
      </trkpt>
      <trkpt lat="47.35518" lon="-1.24684">
        <ele>106</ele>
        <time>2015-01-11T09:47:46.000Z</time>
      </trkpt>
      <trkpt lat="47.35518" lon="-1.24684">
        <ele>106</ele>
        <time>2015-01-11T09:47:48.000Z</time>
      </trkpt>
      <trkpt lat="47.35511" lon="-1.24666">
        <ele>105</ele>
        <time>2015-01-11T09:48:28.000Z</time>
      </trkpt>
      <trkpt lat="47.35505" lon="-1.24653">
        <ele>105</ele>
        <time>2015-01-11T09:48:30.000Z</time>
      </trkpt>
      <trkpt lat="47.35499" lon="-1.24642">
        <ele>101</ele>
        <time>2015-01-11T09:48:32.000Z</time>
      </trkpt>
      <trkpt lat="47.35495" lon="-1.24632">
        <ele>102</ele>
        <time>2015-01-11T09:48:34.000Z</time>
      </trkpt>
      <trkpt lat="47.3549" lon="-1.24623">
        <ele>103</ele>
        <time>2015-01-11T09:48:36.000Z</time>
      </trkpt>
      <trkpt lat="47.35484" lon="-1.24605">
        <ele>102</ele>
        <time>2015-01-11T09:48:38.000Z</time>
      </trkpt>
      <trkpt lat="47.3548" lon="-1.24596">
        <ele>102</ele>
        <time>2015-01-11T09:48:40.000Z</time>
      </trkpt>
      <trkpt lat="47.35477" lon="-1.24588">
        <ele>104</ele>
        <time>2015-01-11T09:48:42.000Z</time>
      </trkpt>
      <trkpt lat="47.35477" lon="-1.24588">
        <ele>104</ele>
        <time>2015-01-11T09:48:44.000Z</time>
      </trkpt>
      <trkpt lat="47.35477" lon="-1.24588">
        <ele>104</ele>
        <time>2015-01-11T09:48:46.000Z</time>
      </trkpt>
      <trkpt lat="47.35477" lon="-1.24588">
        <ele>104</ele>
        <time>2015-01-11T09:48:48.000Z</time>
      </trkpt>
      <trkpt lat="47.35477" lon="-1.24588">
        <ele>104</ele>
        <time>2015-01-11T09:48:50.000Z</time>
      </trkpt>
      <trkpt lat="47.35477" lon="-1.24588">
        <ele>104</ele>
        <time>2015-01-11T09:48:52.000Z</time>
      </trkpt>
      <trkpt lat="47.35477" lon="-1.24588">
        <ele>104</ele>
        <time>2015-01-11T09:48:54.000Z</time>
      </trkpt>
      <trkpt lat="47.35477" lon="-1.24588">
        <ele>104</ele>
        <time>2015-01-11T09:49:00.000Z</time>
      </trkpt>
      <trkpt lat="47.35465" lon="-1.24573">
        <ele>110</ele>
        <time>2015-01-11T09:49:12.000Z</time>
      </trkpt>
      <trkpt lat="47.3546" lon="-1.24566">
        <ele>110</ele>
        <time>2015-01-11T09:49:16.000Z</time>
      </trkpt>
      <trkpt lat="47.35454" lon="-1.2456">
        <ele>120</ele>
        <time>2015-01-11T09:49:20.000Z</time>
      </trkpt>
      <trkpt lat="47.35453" lon="-1.24544">
        <ele>122</ele>
        <time>2015-01-11T09:49:24.000Z</time>
      </trkpt>
      <trkpt lat="47.35451" lon="-1.24533">
        <ele>125</ele>
        <time>2015-01-11T09:49:26.000Z</time>
      </trkpt>
      <trkpt lat="47.35447" lon="-1.24525">
        <ele>130</ele>
        <time>2015-01-11T09:49:28.000Z</time>
      </trkpt>
      <trkpt lat="47.35442" lon="-1.24518">
        <ele>130</ele>
        <time>2015-01-11T09:49:30.000Z</time>
      </trkpt>
      <trkpt lat="47.35437" lon="-1.24512">
        <ele>132</ele>
        <time>2015-01-11T09:49:32.000Z</time>
      </trkpt>
      <trkpt lat="47.35433" lon="-1.24503">
        <ele>134</ele>
        <time>2015-01-11T09:49:34.000Z</time>
      </trkpt>
      <trkpt lat="47.35425" lon="-1.24441">
        <ele>128</ele>
        <time>2015-01-11T09:49:39.000Z</time>
      </trkpt>
      <trkpt lat="47.35418" lon="-1.24424">
        <ele>125</ele>
        <time>2015-01-11T09:49:41.000Z</time>
      </trkpt>
      <trkpt lat="47.35407" lon="-1.24406">
        <ele>130</ele>
        <time>2015-01-11T09:49:44.000Z</time>
      </trkpt>
      <trkpt lat="47.354" lon="-1.24396">
        <ele>130</ele>
        <time>2015-01-11T09:49:46.000Z</time>
      </trkpt>
      <trkpt lat="47.35398" lon="-1.24373">
        <ele>123</ele>
        <time>2015-01-11T09:49:49.000Z</time>
      </trkpt>
      <trkpt lat="47.35395" lon="-1.24362">
        <ele>122</ele>
        <time>2015-01-11T09:49:51.000Z</time>
      </trkpt>
      <trkpt lat="47.35395" lon="-1.24362">
        <ele>122</ele>
        <time>2015-01-11T09:49:53.000Z</time>
      </trkpt>
      <trkpt lat="47.35388" lon="-1.2435">
        <ele>120</ele>
        <time>2015-01-11T09:49:55.000Z</time>
      </trkpt>
      <trkpt lat="47.35384" lon="-1.24343">
        <ele>118</ele>
        <time>2015-01-11T09:49:57.000Z</time>
      </trkpt>
      <trkpt lat="47.35384" lon="-1.24343">
        <ele>118</ele>
        <time>2015-01-11T09:49:59.000Z</time>
      </trkpt>
      <trkpt lat="47.35384" lon="-1.24343">
        <ele>118</ele>
        <time>2015-01-11T09:50:01.000Z</time>
      </trkpt>
      <trkpt lat="47.35384" lon="-1.24343">
        <ele>118</ele>
        <time>2015-01-11T09:50:03.000Z</time>
      </trkpt>
      <trkpt lat="47.35378" lon="-1.24347">
        <ele>115</ele>
        <time>2015-01-11T09:50:05.000Z</time>
      </trkpt>
      <trkpt lat="47.35378" lon="-1.24347">
        <ele>115</ele>
        <time>2015-01-11T09:50:07.000Z</time>
      </trkpt>
      <trkpt lat="47.35378" lon="-1.24347">
        <ele>115</ele>
        <time>2015-01-11T09:50:09.000Z</time>
      </trkpt>
      <trkpt lat="47.35375" lon="-1.2436">
        <ele>106</ele>
        <time>2015-01-11T09:50:13.000Z</time>
      </trkpt>
      <trkpt lat="47.35374" lon="-1.24373">
        <ele>105</ele>
        <time>2015-01-11T09:50:19.000Z</time>
      </trkpt>
      <trkpt lat="47.35371" lon="-1.24387">
        <ele>103</ele>
        <time>2015-01-11T09:50:23.000Z</time>
      </trkpt>
      <trkpt lat="47.35371" lon="-1.24387">
        <ele>103</ele>
        <time>2015-01-11T09:50:25.000Z</time>
      </trkpt>
      <trkpt lat="47.35369" lon="-1.24395">
        <ele>111</ele>
        <time>2015-01-11T09:50:27.000Z</time>
      </trkpt>
      <trkpt lat="47.35369" lon="-1.24395">
        <ele>111</ele>
        <time>2015-01-11T09:50:29.000Z</time>
      </trkpt>
      <trkpt lat="47.35369" lon="-1.24395">
        <ele>111</ele>
        <time>2015-01-11T09:50:31.000Z</time>
      </trkpt>
      <trkpt lat="47.35368" lon="-1.24399">
        <ele>106</ele>
        <time>2015-01-11T09:50:33.000Z</time>
      </trkpt>
      <trkpt lat="47.35366" lon="-1.24403">
        <ele>109</ele>
        <time>2015-01-11T09:50:35.000Z</time>
      </trkpt>
      <trkpt lat="47.35363" lon="-1.24406">
        <ele>112</ele>
        <time>2015-01-11T09:50:37.000Z</time>
      </trkpt>
      <trkpt lat="47.35363" lon="-1.24406">
        <ele>112</ele>
        <time>2015-01-11T09:50:39.000Z</time>
      </trkpt>
      <trkpt lat="47.35363" lon="-1.24406">
        <ele>112</ele>
        <time>2015-01-11T09:50:41.000Z</time>
      </trkpt>
      <trkpt lat="47.35361" lon="-1.24409">
        <ele>118</ele>
        <time>2015-01-11T09:50:43.000Z</time>
      </trkpt>
      <trkpt lat="47.35361" lon="-1.24409">
        <ele>118</ele>
        <time>2015-01-11T09:50:45.000Z</time>
      </trkpt>
      <trkpt lat="47.35359" lon="-1.24416">
        <ele>118</ele>
        <time>2015-01-11T09:50:47.000Z</time>
      </trkpt>
      <trkpt lat="47.35358" lon="-1.24422">
        <ele>116</ele>
        <time>2015-01-11T09:50:49.000Z</time>
      </trkpt>
      <trkpt lat="47.35357" lon="-1.24429">
        <ele>115</ele>
        <time>2015-01-11T09:50:51.000Z</time>
      </trkpt>
      <trkpt lat="47.35357" lon="-1.24436">
        <ele>115</ele>
        <time>2015-01-11T09:50:53.000Z</time>
      </trkpt>
      <trkpt lat="47.35357" lon="-1.24442">
        <ele>118</ele>
        <time>2015-01-11T09:50:55.000Z</time>
      </trkpt>
      <trkpt lat="47.35357" lon="-1.24453">
        <ele>116</ele>
        <time>2015-01-11T09:50:57.000Z</time>
      </trkpt>
      <trkpt lat="47.35357" lon="-1.24453">
        <ele>116</ele>
        <time>2015-01-11T09:50:59.000Z</time>
      </trkpt>
      <trkpt lat="47.35357" lon="-1.24453">
        <ele>116</ele>
        <time>2015-01-11T09:51:01.000Z</time>
      </trkpt>
      <trkpt lat="47.35357" lon="-1.24453">
        <ele>116</ele>
        <time>2015-01-11T09:51:03.000Z</time>
      </trkpt>
      <trkpt lat="47.35357" lon="-1.24453">
        <ele>116</ele>
        <time>2015-01-11T09:51:05.000Z</time>
      </trkpt>
      <trkpt lat="47.35355" lon="-1.24511">
        <ele>102</ele>
        <time>2015-01-11T09:51:37.000Z</time>
      </trkpt>
      <trkpt lat="47.35355" lon="-1.24511">
        <ele>102</ele>
        <time>2015-01-11T09:51:39.000Z</time>
      </trkpt>
      <trkpt lat="47.35355" lon="-1.24511">
        <ele>102</ele>
        <time>2015-01-11T09:51:41.000Z</time>
      </trkpt>
      <trkpt lat="47.35352" lon="-1.24528">
        <ele>104</ele>
        <time>2015-01-11T09:52:17.000Z</time>
      </trkpt>
      <trkpt lat="47.35349" lon="-1.24539">
        <ele>105</ele>
        <time>2015-01-11T09:52:19.000Z</time>
      </trkpt>
      <trkpt lat="47.35347" lon="-1.24547">
        <ele>107</ele>
        <time>2015-01-11T09:52:21.000Z</time>
      </trkpt>
      <trkpt lat="47.35345" lon="-1.24553">
        <ele>108</ele>
        <time>2015-01-11T09:52:23.000Z</time>
      </trkpt>
      <trkpt lat="47.35345" lon="-1.24558">
        <ele>108</ele>
        <time>2015-01-11T09:52:25.000Z</time>
      </trkpt>
      <trkpt lat="47.35345" lon="-1.2457">
        <ele>107</ele>
        <time>2015-01-11T09:52:27.000Z</time>
      </trkpt>
      <trkpt lat="47.35346" lon="-1.24585">
        <ele>108</ele>
        <time>2015-01-11T09:52:31.000Z</time>
      </trkpt>
      <trkpt lat="47.35346" lon="-1.24585">
        <ele>108</ele>
        <time>2015-01-11T09:52:33.000Z</time>
      </trkpt>
      <trkpt lat="47.35347" lon="-1.24595">
        <ele>108</ele>
        <time>2015-01-11T09:52:35.000Z</time>
      </trkpt>
      <trkpt lat="47.35347" lon="-1.24595">
        <ele>108</ele>
        <time>2015-01-11T09:52:37.000Z</time>
      </trkpt>
      <trkpt lat="47.35347" lon="-1.24606">
        <ele>109</ele>
        <time>2015-01-11T09:52:39.000Z</time>
      </trkpt>
      <trkpt lat="47.35345" lon="-1.24615">
        <ele>109</ele>
        <time>2015-01-11T09:52:43.000Z</time>
      </trkpt>
      <trkpt lat="47.35343" lon="-1.24626">
        <ele>105</ele>
        <time>2015-01-11T09:52:47.000Z</time>
      </trkpt>
      <trkpt lat="47.35339" lon="-1.24635">
        <ele>105</ele>
        <time>2015-01-11T09:52:51.000Z</time>
      </trkpt>
      <trkpt lat="47.35333" lon="-1.24643">
        <ele>106</ele>
        <time>2015-01-11T09:52:55.000Z</time>
      </trkpt>
      <trkpt lat="47.35333" lon="-1.24643">
        <ele>106</ele>
        <time>2015-01-11T09:52:57.000Z</time>
      </trkpt>
      <trkpt lat="47.35333" lon="-1.24643">
        <ele>106</ele>
        <time>2015-01-11T09:52:59.000Z</time>
      </trkpt>
      <trkpt lat="47.35326" lon="-1.24646">
        <ele>108</ele>
        <time>2015-01-11T09:53:01.000Z</time>
      </trkpt>
      <trkpt lat="47.3532" lon="-1.24647">
        <ele>105</ele>
        <time>2015-01-11T09:53:05.000Z</time>
      </trkpt>
      <trkpt lat="47.35314" lon="-1.2465">
        <ele>104</ele>
        <time>2015-01-11T09:53:09.000Z</time>
      </trkpt>
      <trkpt lat="47.35314" lon="-1.2465">
        <ele>104</ele>
        <time>2015-01-11T09:53:11.000Z</time>
      </trkpt>
      <trkpt lat="47.35314" lon="-1.2465">
        <ele>104</ele>
        <time>2015-01-11T09:53:13.000Z</time>
      </trkpt>
      <trkpt lat="47.35314" lon="-1.2465">
        <ele>104</ele>
        <time>2015-01-11T09:53:15.000Z</time>
      </trkpt>
      <trkpt lat="47.35314" lon="-1.2465">
        <ele>104</ele>
        <time>2015-01-11T09:53:17.000Z</time>
      </trkpt>
      <trkpt lat="47.35314" lon="-1.2465">
        <ele>104</ele>
        <time>2015-01-11T09:53:19.000Z</time>
      </trkpt>
      <trkpt lat="47.35299" lon="-1.24654">
        <ele>108</ele>
        <time>2015-01-11T09:53:29.000Z</time>
      </trkpt>
      <trkpt lat="47.35292" lon="-1.24661">
        <ele>110</ele>
        <time>2015-01-11T09:53:33.000Z</time>
      </trkpt>
      <trkpt lat="47.35286" lon="-1.24667">
        <ele>111</ele>
        <time>2015-01-11T09:53:37.000Z</time>
      </trkpt>
      <trkpt lat="47.35286" lon="-1.24667">
        <ele>111</ele>
        <time>2015-01-11T09:53:39.000Z</time>
      </trkpt>
      <trkpt lat="47.3528" lon="-1.24671">
        <ele>113</ele>
        <time>2015-01-11T09:53:41.000Z</time>
      </trkpt>
      <trkpt lat="47.3528" lon="-1.24671">
        <ele>113</ele>
        <time>2015-01-11T09:53:43.000Z</time>
      </trkpt>
      <trkpt lat="47.35272" lon="-1.24676">
        <ele>114</ele>
        <time>2015-01-11T09:53:45.000Z</time>
      </trkpt>
      <trkpt lat="47.35263" lon="-1.24681">
        <ele>115</ele>
        <time>2015-01-11T09:53:49.000Z</time>
      </trkpt>
      <trkpt lat="47.35253" lon="-1.24687">
        <ele>117</ele>
        <time>2015-01-11T09:53:53.000Z</time>
      </trkpt>
      <trkpt lat="47.35243" lon="-1.24694">
        <ele>116</ele>
        <time>2015-01-11T09:53:57.000Z</time>
      </trkpt>
      <trkpt lat="47.35243" lon="-1.24694">
        <ele>116</ele>
        <time>2015-01-11T09:53:59.000Z</time>
      </trkpt>
      <trkpt lat="47.35236" lon="-1.24698">
        <ele>116</ele>
        <time>2015-01-11T09:54:01.000Z</time>
      </trkpt>
      <trkpt lat="47.35236" lon="-1.24698">
        <ele>116</ele>
        <time>2015-01-11T09:54:03.000Z</time>
      </trkpt>
      <trkpt lat="47.35226" lon="-1.24704">
        <ele>117</ele>
        <time>2015-01-11T09:54:05.000Z</time>
      </trkpt>
      <trkpt lat="47.35221" lon="-1.24705">
        <ele>119</ele>
        <time>2015-01-11T09:54:09.000Z</time>
      </trkpt>
      <trkpt lat="47.35218" lon="-1.24704">
        <ele>118</ele>
        <time>2015-01-11T09:54:11.000Z</time>
      </trkpt>
      <trkpt lat="47.35215" lon="-1.24701">
        <ele>119</ele>
        <time>2015-01-11T09:54:13.000Z</time>
      </trkpt>
      <trkpt lat="47.35212" lon="-1.24696">
        <ele>118</ele>
        <time>2015-01-11T09:54:15.000Z</time>
      </trkpt>
      <trkpt lat="47.3521" lon="-1.24691">
        <ele>118</ele>
        <time>2015-01-11T09:54:17.000Z</time>
      </trkpt>
      <trkpt lat="47.35208" lon="-1.2468">
        <ele>118</ele>
        <time>2015-01-11T09:54:19.000Z</time>
      </trkpt>
      <trkpt lat="47.35205" lon="-1.24665">
        <ele>118</ele>
        <time>2015-01-11T09:54:23.000Z</time>
      </trkpt>
      <trkpt lat="47.35201" lon="-1.24653">
        <ele>117</ele>
        <time>2015-01-11T09:54:27.000Z</time>
      </trkpt>
      <trkpt lat="47.35198" lon="-1.24644">
        <ele>116</ele>
        <time>2015-01-11T09:54:29.000Z</time>
      </trkpt>
      <trkpt lat="47.35195" lon="-1.24637">
        <ele>115</ele>
        <time>2015-01-11T09:54:31.000Z</time>
      </trkpt>
      <trkpt lat="47.35191" lon="-1.24628">
        <ele>116</ele>
        <time>2015-01-11T09:54:35.000Z</time>
      </trkpt>
      <trkpt lat="47.35191" lon="-1.24628">
        <ele>116</ele>
        <time>2015-01-11T09:54:37.000Z</time>
      </trkpt>
      <trkpt lat="47.35185" lon="-1.24618">
        <ele>117</ele>
        <time>2015-01-11T09:54:39.000Z</time>
      </trkpt>
      <trkpt lat="47.35179" lon="-1.24606">
        <ele>118</ele>
        <time>2015-01-11T09:54:43.000Z</time>
      </trkpt>
      <trkpt lat="47.35176" lon="-1.24598">
        <ele>118</ele>
        <time>2015-01-11T09:54:45.000Z</time>
      </trkpt>
      <trkpt lat="47.35173" lon="-1.2459">
        <ele>117</ele>
        <time>2015-01-11T09:54:47.000Z</time>
      </trkpt>
      <trkpt lat="47.35168" lon="-1.24582">
        <ele>117</ele>
        <time>2015-01-11T09:54:49.000Z</time>
      </trkpt>
      <trkpt lat="47.35164" lon="-1.24575">
        <ele>117</ele>
        <time>2015-01-11T09:54:51.000Z</time>
      </trkpt>
      <trkpt lat="47.3516" lon="-1.24569">
        <ele>118</ele>
        <time>2015-01-11T09:54:53.000Z</time>
      </trkpt>
      <trkpt lat="47.35156" lon="-1.24563">
        <ele>118</ele>
        <time>2015-01-11T09:54:55.000Z</time>
      </trkpt>
      <trkpt lat="47.35156" lon="-1.24563">
        <ele>118</ele>
        <time>2015-01-11T09:54:57.000Z</time>
      </trkpt>
      <trkpt lat="47.35146" lon="-1.24563">
        <ele>116</ele>
        <time>2015-01-11T09:54:59.000Z</time>
      </trkpt>
      <trkpt lat="47.35142" lon="-1.24569">
        <ele>117</ele>
        <time>2015-01-11T09:55:01.000Z</time>
      </trkpt>
      <trkpt lat="47.35138" lon="-1.24577">
        <ele>117</ele>
        <time>2015-01-11T09:55:03.000Z</time>
      </trkpt>
      <trkpt lat="47.35134" lon="-1.24585">
        <ele>117</ele>
        <time>2015-01-11T09:55:05.000Z</time>
      </trkpt>
      <trkpt lat="47.3513" lon="-1.24592">
        <ele>115</ele>
        <time>2015-01-11T09:55:07.000Z</time>
      </trkpt>
      <trkpt lat="47.35125" lon="-1.24599">
        <ele>117</ele>
        <time>2015-01-11T09:55:09.000Z</time>
      </trkpt>
      <trkpt lat="47.35121" lon="-1.24607">
        <ele>116</ele>
        <time>2015-01-11T09:55:11.000Z</time>
      </trkpt>
      <trkpt lat="47.35116" lon="-1.24614">
        <ele>115</ele>
        <time>2015-01-11T09:55:13.000Z</time>
      </trkpt>
      <trkpt lat="47.35112" lon="-1.24621">
        <ele>116</ele>
        <time>2015-01-11T09:55:15.000Z</time>
      </trkpt>
      <trkpt lat="47.35109" lon="-1.24628">
        <ele>116</ele>
        <time>2015-01-11T09:55:17.000Z</time>
      </trkpt>
      <trkpt lat="47.35105" lon="-1.24635">
        <ele>115</ele>
        <time>2015-01-11T09:55:19.000Z</time>
      </trkpt>
      <trkpt lat="47.35101" lon="-1.24643">
        <ele>115</ele>
        <time>2015-01-11T09:55:21.000Z</time>
      </trkpt>
      <trkpt lat="47.35097" lon="-1.24651">
        <ele>115</ele>
        <time>2015-01-11T09:55:23.000Z</time>
      </trkpt>
      <trkpt lat="47.35093" lon="-1.2466">
        <ele>114</ele>
        <time>2015-01-11T09:55:25.000Z</time>
      </trkpt>
      <trkpt lat="47.35089" lon="-1.24668">
        <ele>113</ele>
        <time>2015-01-11T09:55:27.000Z</time>
      </trkpt>
      <trkpt lat="47.35087" lon="-1.24677">
        <ele>113</ele>
        <time>2015-01-11T09:55:29.000Z</time>
      </trkpt>
      <trkpt lat="47.35087" lon="-1.24687">
        <ele>113</ele>
        <time>2015-01-11T09:55:31.000Z</time>
      </trkpt>
      <trkpt lat="47.35087" lon="-1.24697">
        <ele>113</ele>
        <time>2015-01-11T09:55:33.000Z</time>
      </trkpt>
      <trkpt lat="47.35087" lon="-1.24707">
        <ele>114</ele>
        <time>2015-01-11T09:55:35.000Z</time>
      </trkpt>
      <trkpt lat="47.35089" lon="-1.24717">
        <ele>115</ele>
        <time>2015-01-11T09:55:37.000Z</time>
      </trkpt>
      <trkpt lat="47.35091" lon="-1.24727">
        <ele>115</ele>
        <time>2015-01-11T09:55:39.000Z</time>
      </trkpt>
      <trkpt lat="47.35094" lon="-1.24738">
        <ele>113</ele>
        <time>2015-01-11T09:55:41.000Z</time>
      </trkpt>
      <trkpt lat="47.35096" lon="-1.24748">
        <ele>113</ele>
        <time>2015-01-11T09:55:43.000Z</time>
      </trkpt>
      <trkpt lat="47.35098" lon="-1.24759">
        <ele>112</ele>
        <time>2015-01-11T09:55:45.000Z</time>
      </trkpt>
      <trkpt lat="47.35101" lon="-1.24769">
        <ele>112</ele>
        <time>2015-01-11T09:55:47.000Z</time>
      </trkpt>
      <trkpt lat="47.35103" lon="-1.2478">
        <ele>112</ele>
        <time>2015-01-11T09:55:49.000Z</time>
      </trkpt>
      <trkpt lat="47.35105" lon="-1.2479">
        <ele>113</ele>
        <time>2015-01-11T09:55:51.000Z</time>
      </trkpt>
      <trkpt lat="47.35107" lon="-1.24801">
        <ele>113</ele>
        <time>2015-01-11T09:55:53.000Z</time>
      </trkpt>
      <trkpt lat="47.35109" lon="-1.24812">
        <ele>113</ele>
        <time>2015-01-11T09:55:55.000Z</time>
      </trkpt>
      <trkpt lat="47.3511" lon="-1.24823">
        <ele>113</ele>
        <time>2015-01-11T09:55:57.000Z</time>
      </trkpt>
      <trkpt lat="47.35111" lon="-1.24834">
        <ele>113</ele>
        <time>2015-01-11T09:55:59.000Z</time>
      </trkpt>
      <trkpt lat="47.35112" lon="-1.24846">
        <ele>113</ele>
        <time>2015-01-11T09:56:01.000Z</time>
      </trkpt>
      <trkpt lat="47.35112" lon="-1.24857">
        <ele>113</ele>
        <time>2015-01-11T09:56:03.000Z</time>
      </trkpt>
      <trkpt lat="47.35112" lon="-1.24857">
        <ele>113</ele>
        <time>2015-01-11T09:56:05.000Z</time>
      </trkpt>
      <trkpt lat="47.35106" lon="-1.24865">
        <ele>114</ele>
        <time>2015-01-11T09:56:07.000Z</time>
      </trkpt>
      <trkpt lat="47.35099" lon="-1.24865">
        <ele>115</ele>
        <time>2015-01-11T09:56:09.000Z</time>
      </trkpt>
      <trkpt lat="47.35091" lon="-1.24865">
        <ele>115</ele>
        <time>2015-01-11T09:56:11.000Z</time>
      </trkpt>
      <trkpt lat="47.35085" lon="-1.24865">
        <ele>116</ele>
        <time>2015-01-11T09:56:13.000Z</time>
      </trkpt>
      <trkpt lat="47.35079" lon="-1.24866">
        <ele>116</ele>
        <time>2015-01-11T09:56:15.000Z</time>
      </trkpt>
      <trkpt lat="47.35073" lon="-1.24867">
        <ele>116</ele>
        <time>2015-01-11T09:56:17.000Z</time>
      </trkpt>
      <trkpt lat="47.35067" lon="-1.24868">
        <ele>116</ele>
        <time>2015-01-11T09:56:19.000Z</time>
      </trkpt>
      <trkpt lat="47.35061" lon="-1.24871">
        <ele>117</ele>
        <time>2015-01-11T09:56:21.000Z</time>
      </trkpt>
      <trkpt lat="47.35055" lon="-1.24873">
        <ele>118</ele>
        <time>2015-01-11T09:56:23.000Z</time>
      </trkpt>
      <trkpt lat="47.35049" lon="-1.24875">
        <ele>117</ele>
        <time>2015-01-11T09:56:25.000Z</time>
      </trkpt>
      <trkpt lat="47.35043" lon="-1.24877">
        <ele>118</ele>
        <time>2015-01-11T09:56:27.000Z</time>
      </trkpt>
      <trkpt lat="47.35037" lon="-1.24879">
        <ele>118</ele>
        <time>2015-01-11T09:56:29.000Z</time>
      </trkpt>
      <trkpt lat="47.35031" lon="-1.24881">
        <ele>117</ele>
        <time>2015-01-11T09:56:31.000Z</time>
      </trkpt>
      <trkpt lat="47.35025" lon="-1.2488">
        <ele>118</ele>
        <time>2015-01-11T09:56:33.000Z</time>
      </trkpt>
      <trkpt lat="47.3502" lon="-1.24873">
        <ele>117</ele>
        <time>2015-01-11T09:56:35.000Z</time>
      </trkpt>
      <trkpt lat="47.35018" lon="-1.24861">
        <ele>116</ele>
        <time>2015-01-11T09:56:37.000Z</time>
      </trkpt>
      <trkpt lat="47.35014" lon="-1.24852">
        <ele>116</ele>
        <time>2015-01-11T09:56:39.000Z</time>
      </trkpt>
      <trkpt lat="47.35009" lon="-1.2485">
        <ele>116</ele>
        <time>2015-01-11T09:56:41.000Z</time>
      </trkpt>
      <trkpt lat="47.35009" lon="-1.2485">
        <ele>116</ele>
        <time>2015-01-11T09:56:43.000Z</time>
      </trkpt>
      <trkpt lat="47.34999" lon="-1.24854">
        <ele>116</ele>
        <time>2015-01-11T09:56:45.000Z</time>
      </trkpt>
      <trkpt lat="47.34999" lon="-1.24854">
        <ele>116</ele>
        <time>2015-01-11T09:56:47.000Z</time>
      </trkpt>
      <trkpt lat="47.34995" lon="-1.24858">
        <ele>118</ele>
        <time>2015-01-11T09:56:49.000Z</time>
      </trkpt>
      <trkpt lat="47.34995" lon="-1.24858">
        <ele>118</ele>
        <time>2015-01-11T09:56:51.000Z</time>
      </trkpt>
      <trkpt lat="47.34988" lon="-1.24864">
        <ele>114</ele>
        <time>2015-01-11T09:56:53.000Z</time>
      </trkpt>
      <trkpt lat="47.34962" lon="-1.2487">
        <ele>111</ele>
        <time>2015-01-11T09:56:57.000Z</time>
      </trkpt>
      <trkpt lat="47.34949" lon="-1.24871">
        <ele>111</ele>
        <time>2015-01-11T09:56:59.000Z</time>
      </trkpt>
      <trkpt lat="47.34933" lon="-1.24875">
        <ele>110</ele>
        <time>2015-01-11T09:57:01.000Z</time>
      </trkpt>
      <trkpt lat="47.34919" lon="-1.24881">
        <ele>108</ele>
        <time>2015-01-11T09:57:03.000Z</time>
      </trkpt>
      <trkpt lat="47.34906" lon="-1.24884">
        <ele>108</ele>
        <time>2015-01-11T09:57:05.000Z</time>
      </trkpt>
      <trkpt lat="47.34896" lon="-1.24886">
        <ele>108</ele>
        <time>2015-01-11T09:57:07.000Z</time>
      </trkpt>
      <trkpt lat="47.34889" lon="-1.2489">
        <ele>106</ele>
        <time>2015-01-11T09:57:09.000Z</time>
      </trkpt>
      <trkpt lat="47.34879" lon="-1.24896">
        <ele>105</ele>
        <time>2015-01-11T09:57:11.000Z</time>
      </trkpt>
      <trkpt lat="47.34868" lon="-1.24902">
        <ele>104</ele>
        <time>2015-01-11T09:57:13.000Z</time>
      </trkpt>
      <trkpt lat="47.34858" lon="-1.24912">
        <ele>102</ele>
        <time>2015-01-11T09:57:15.000Z</time>
      </trkpt>
      <trkpt lat="47.34853" lon="-1.24923">
        <ele>103</ele>
        <time>2015-01-11T09:57:17.000Z</time>
      </trkpt>
      <trkpt lat="47.34851" lon="-1.24933">
        <ele>102</ele>
        <time>2015-01-11T09:57:19.000Z</time>
      </trkpt>
      <trkpt lat="47.3485" lon="-1.24942">
        <ele>101</ele>
        <time>2015-01-11T09:57:21.000Z</time>
      </trkpt>
      <trkpt lat="47.3485" lon="-1.24942">
        <ele>101</ele>
        <time>2015-01-11T09:57:23.000Z</time>
      </trkpt>
      <trkpt lat="47.34848" lon="-1.24958">
        <ele>102</ele>
        <time>2015-01-11T09:57:25.000Z</time>
      </trkpt>
      <trkpt lat="47.34848" lon="-1.24958">
        <ele>102</ele>
        <time>2015-01-11T09:57:27.000Z</time>
      </trkpt>
      <trkpt lat="47.34849" lon="-1.24973">
        <ele>101</ele>
        <time>2015-01-11T09:57:29.000Z</time>
      </trkpt>
      <trkpt lat="47.34849" lon="-1.24973">
        <ele>101</ele>
        <time>2015-01-11T09:57:31.000Z</time>
      </trkpt>
      <trkpt lat="47.34847" lon="-1.24984">
        <ele>98</ele>
        <time>2015-01-11T09:57:33.000Z</time>
      </trkpt>
      <trkpt lat="47.34847" lon="-1.24984">
        <ele>98</ele>
        <time>2015-01-11T09:57:35.000Z</time>
      </trkpt>
      <trkpt lat="47.3484" lon="-1.24985">
        <ele>95</ele>
        <time>2015-01-11T09:57:37.000Z</time>
      </trkpt>
      <trkpt lat="47.3484" lon="-1.24985">
        <ele>95</ele>
        <time>2015-01-11T09:57:39.000Z</time>
      </trkpt>
      <trkpt lat="47.3484" lon="-1.24985">
        <ele>95</ele>
        <time>2015-01-11T09:57:41.000Z</time>
      </trkpt>
      <trkpt lat="47.3484" lon="-1.24985">
        <ele>95</ele>
        <time>2015-01-11T09:57:43.000Z</time>
      </trkpt>
      <trkpt lat="47.3484" lon="-1.24985">
        <ele>95</ele>
        <time>2015-01-11T09:57:45.000Z</time>
      </trkpt>
      <trkpt lat="47.34838" lon="-1.25016">
        <ele>95</ele>
        <time>2015-01-11T09:57:56.000Z</time>
      </trkpt>
      <trkpt lat="47.34837" lon="-1.25032">
        <ele>96</ele>
        <time>2015-01-11T09:57:58.000Z</time>
      </trkpt>
      <trkpt lat="47.34836" lon="-1.25051">
        <ele>93</ele>
        <time>2015-01-11T09:58:00.000Z</time>
      </trkpt>
      <trkpt lat="47.34833" lon="-1.25066">
        <ele>91</ele>
        <time>2015-01-11T09:58:02.000Z</time>
      </trkpt>
      <trkpt lat="47.34826" lon="-1.25064">
        <ele>88</ele>
        <time>2015-01-11T09:58:05.000Z</time>
      </trkpt>
      <trkpt lat="47.3482" lon="-1.25052">
        <ele>86</ele>
        <time>2015-01-11T09:58:07.000Z</time>
      </trkpt>
      <trkpt lat="47.34815" lon="-1.25042">
        <ele>86</ele>
        <time>2015-01-11T09:58:09.000Z</time>
      </trkpt>
      <trkpt lat="47.34809" lon="-1.25039">
        <ele>85</ele>
        <time>2015-01-11T09:58:11.000Z</time>
      </trkpt>
      <trkpt lat="47.34809" lon="-1.25039">
        <ele>85</ele>
        <time>2015-01-11T09:58:13.000Z</time>
      </trkpt>
      <trkpt lat="47.34809" lon="-1.25039">
        <ele>85</ele>
        <time>2015-01-11T09:58:15.000Z</time>
      </trkpt>
      <trkpt lat="47.34809" lon="-1.25039">
        <ele>85</ele>
        <time>2015-01-11T09:58:17.000Z</time>
      </trkpt>
      <trkpt lat="47.34809" lon="-1.25039">
        <ele>85</ele>
        <time>2015-01-11T09:58:19.000Z</time>
      </trkpt>
      <trkpt lat="47.34803" lon="-1.25046">
        <ele>82</ele>
        <time>2015-01-11T09:58:21.000Z</time>
      </trkpt>
      <trkpt lat="47.34796" lon="-1.25065">
        <ele>79</ele>
        <time>2015-01-11T09:58:24.000Z</time>
      </trkpt>
      <trkpt lat="47.34789" lon="-1.25077">
        <ele>77</ele>
        <time>2015-01-11T09:58:26.000Z</time>
      </trkpt>
      <trkpt lat="47.34783" lon="-1.25088">
        <ele>77</ele>
        <time>2015-01-11T09:58:28.000Z</time>
      </trkpt>
      <trkpt lat="47.34776" lon="-1.25105">
        <ele>73</ele>
        <time>2015-01-11T09:58:30.000Z</time>
      </trkpt>
      <trkpt lat="47.34774" lon="-1.25124">
        <ele>71</ele>
        <time>2015-01-11T09:58:32.000Z</time>
      </trkpt>
      <trkpt lat="47.34775" lon="-1.25141">
        <ele>70</ele>
        <time>2015-01-11T09:58:34.000Z</time>
      </trkpt>
      <trkpt lat="47.34776" lon="-1.25153">
        <ele>69</ele>
        <time>2015-01-11T09:58:36.000Z</time>
      </trkpt>
      <trkpt lat="47.34776" lon="-1.25153">
        <ele>69</ele>
        <time>2015-01-11T09:58:38.000Z</time>
      </trkpt>
      <trkpt lat="47.34776" lon="-1.25153">
        <ele>69</ele>
        <time>2015-01-11T09:58:40.000Z</time>
      </trkpt>
      <trkpt lat="47.34776" lon="-1.25162">
        <ele>72</ele>
        <time>2015-01-11T09:58:42.000Z</time>
      </trkpt>
      <trkpt lat="47.34776" lon="-1.25162">
        <ele>72</ele>
        <time>2015-01-11T09:58:44.000Z</time>
      </trkpt>
      <trkpt lat="47.34776" lon="-1.25162">
        <ele>72</ele>
        <time>2015-01-11T09:58:46.000Z</time>
      </trkpt>
      <trkpt lat="47.34776" lon="-1.25162">
        <ele>72</ele>
        <time>2015-01-11T09:58:56.000Z</time>
      </trkpt>
      <trkpt lat="47.34778" lon="-1.25177">
        <ele>67</ele>
        <time>2015-01-11T09:59:28.000Z</time>
      </trkpt>
      <trkpt lat="47.3478" lon="-1.25188">
        <ele>66</ele>
        <time>2015-01-11T09:59:30.000Z</time>
      </trkpt>
      <trkpt lat="47.34782" lon="-1.25199">
        <ele>64</ele>
        <time>2015-01-11T09:59:32.000Z</time>
      </trkpt>
      <trkpt lat="47.34783" lon="-1.25212">
        <ele>63</ele>
        <time>2015-01-11T09:59:34.000Z</time>
      </trkpt>
      <trkpt lat="47.34784" lon="-1.25224">
        <ele>64</ele>
        <time>2015-01-11T09:59:36.000Z</time>
      </trkpt>
      <trkpt lat="47.34788" lon="-1.2525">
        <ele>63</ele>
        <time>2015-01-11T09:59:38.000Z</time>
      </trkpt>
      <trkpt lat="47.3479" lon="-1.25259">
        <ele>63</ele>
        <time>2015-01-11T09:59:40.000Z</time>
      </trkpt>
      <trkpt lat="47.34792" lon="-1.2527">
        <ele>62</ele>
        <time>2015-01-11T09:59:42.000Z</time>
      </trkpt>
      <trkpt lat="47.34793" lon="-1.25281">
        <ele>63</ele>
        <time>2015-01-11T09:59:44.000Z</time>
      </trkpt>
      <trkpt lat="47.34794" lon="-1.25293">
        <ele>64</ele>
        <time>2015-01-11T09:59:46.000Z</time>
      </trkpt>
      <trkpt lat="47.34795" lon="-1.25305">
        <ele>65</ele>
        <time>2015-01-11T09:59:48.000Z</time>
      </trkpt>
      <trkpt lat="47.34796" lon="-1.25318">
        <ele>65</ele>
        <time>2015-01-11T09:59:50.000Z</time>
      </trkpt>
      <trkpt lat="47.34797" lon="-1.25332">
        <ele>64</ele>
        <time>2015-01-11T09:59:52.000Z</time>
      </trkpt>
      <trkpt lat="47.34798" lon="-1.25345">
        <ele>65</ele>
        <time>2015-01-11T09:59:54.000Z</time>
      </trkpt>
      <trkpt lat="47.34798" lon="-1.25356">
        <ele>65</ele>
        <time>2015-01-11T09:59:56.000Z</time>
      </trkpt>
      <trkpt lat="47.34798" lon="-1.25366">
        <ele>64</ele>
        <time>2015-01-11T09:59:58.000Z</time>
      </trkpt>
      <trkpt lat="47.34797" lon="-1.2538">
        <ele>64</ele>
        <time>2015-01-11T10:00:01.000Z</time>
      </trkpt>
      <trkpt lat="47.34797" lon="-1.25389">
        <ele>63</ele>
        <time>2015-01-11T10:00:03.000Z</time>
      </trkpt>
      <trkpt lat="47.34795" lon="-1.25399">
        <ele>63</ele>
        <time>2015-01-11T10:00:05.000Z</time>
      </trkpt>
      <trkpt lat="47.34795" lon="-1.25416">
        <ele>62</ele>
        <time>2015-01-11T10:00:07.000Z</time>
      </trkpt>
      <trkpt lat="47.34795" lon="-1.25433">
        <ele>64</ele>
        <time>2015-01-11T10:00:09.000Z</time>
      </trkpt>
      <trkpt lat="47.34793" lon="-1.25451">
        <ele>63</ele>
        <time>2015-01-11T10:00:11.000Z</time>
      </trkpt>
      <trkpt lat="47.34793" lon="-1.25471">
        <ele>62</ele>
        <time>2015-01-11T10:00:13.000Z</time>
      </trkpt>
      <trkpt lat="47.34792" lon="-1.25488">
        <ele>61</ele>
        <time>2015-01-11T10:00:15.000Z</time>
      </trkpt>
      <trkpt lat="47.34791" lon="-1.25506">
        <ele>61</ele>
        <time>2015-01-11T10:00:17.000Z</time>
      </trkpt>
      <trkpt lat="47.3479" lon="-1.25524">
        <ele>59</ele>
        <time>2015-01-11T10:00:19.000Z</time>
      </trkpt>
      <trkpt lat="47.34787" lon="-1.25538">
        <ele>59</ele>
        <time>2015-01-11T10:00:21.000Z</time>
      </trkpt>
      <trkpt lat="47.34785" lon="-1.25552">
        <ele>60</ele>
        <time>2015-01-11T10:00:23.000Z</time>
      </trkpt>
      <trkpt lat="47.34783" lon="-1.25569">
        <ele>58</ele>
        <time>2015-01-11T10:00:25.000Z</time>
      </trkpt>
      <trkpt lat="47.34778" lon="-1.25583">
        <ele>59</ele>
        <time>2015-01-11T10:00:27.000Z</time>
      </trkpt>
      <trkpt lat="47.34776" lon="-1.256">
        <ele>57</ele>
        <time>2015-01-11T10:00:29.000Z</time>
      </trkpt>
      <trkpt lat="47.34774" lon="-1.25616">
        <ele>57</ele>
        <time>2015-01-11T10:00:31.000Z</time>
      </trkpt>
      <trkpt lat="47.34772" lon="-1.25632">
        <ele>57</ele>
        <time>2015-01-11T10:00:33.000Z</time>
      </trkpt>
      <trkpt lat="47.3477" lon="-1.25649">
        <ele>56</ele>
        <time>2015-01-11T10:00:35.000Z</time>
      </trkpt>
      <trkpt lat="47.34771" lon="-1.25666">
        <ele>55</ele>
        <time>2015-01-11T10:00:37.000Z</time>
      </trkpt>
      <trkpt lat="47.34771" lon="-1.25681">
        <ele>55</ele>
        <time>2015-01-11T10:00:39.000Z</time>
      </trkpt>
      <trkpt lat="47.34773" lon="-1.25696">
        <ele>55</ele>
        <time>2015-01-11T10:00:41.000Z</time>
      </trkpt>
      <trkpt lat="47.34775" lon="-1.25712">
        <ele>55</ele>
        <time>2015-01-11T10:00:43.000Z</time>
      </trkpt>
      <trkpt lat="47.34778" lon="-1.25728">
        <ele>54</ele>
        <time>2015-01-11T10:00:45.000Z</time>
      </trkpt>
      <trkpt lat="47.34781" lon="-1.25744">
        <ele>51</ele>
        <time>2015-01-11T10:00:47.000Z</time>
      </trkpt>
      <trkpt lat="47.34784" lon="-1.2576">
        <ele>51</ele>
        <time>2015-01-11T10:00:49.000Z</time>
      </trkpt>
      <trkpt lat="47.34787" lon="-1.25775">
        <ele>52</ele>
        <time>2015-01-11T10:00:51.000Z</time>
      </trkpt>
      <trkpt lat="47.3479" lon="-1.25789">
        <ele>53</ele>
        <time>2015-01-11T10:00:53.000Z</time>
      </trkpt>
      <trkpt lat="47.34794" lon="-1.25806">
        <ele>54</ele>
        <time>2015-01-11T10:00:55.000Z</time>
      </trkpt>
      <trkpt lat="47.34797" lon="-1.25821">
        <ele>54</ele>
        <time>2015-01-11T10:00:57.000Z</time>
      </trkpt>
      <trkpt lat="47.34799" lon="-1.25837">
        <ele>55</ele>
        <time>2015-01-11T10:00:59.000Z</time>
      </trkpt>
      <trkpt lat="47.34801" lon="-1.25851">
        <ele>56</ele>
        <time>2015-01-11T10:01:01.000Z</time>
      </trkpt>
      <trkpt lat="47.34804" lon="-1.25865">
        <ele>56</ele>
        <time>2015-01-11T10:01:03.000Z</time>
      </trkpt>
      <trkpt lat="47.34808" lon="-1.25884">
        <ele>55</ele>
        <time>2015-01-11T10:01:05.000Z</time>
      </trkpt>
      <trkpt lat="47.3481" lon="-1.25899">
        <ele>55</ele>
        <time>2015-01-11T10:01:07.000Z</time>
      </trkpt>
      <trkpt lat="47.34812" lon="-1.25914">
        <ele>56</ele>
        <time>2015-01-11T10:01:09.000Z</time>
      </trkpt>
      <trkpt lat="47.34816" lon="-1.25931">
        <ele>56</ele>
        <time>2015-01-11T10:01:11.000Z</time>
      </trkpt>
      <trkpt lat="47.34819" lon="-1.25949">
        <ele>55</ele>
        <time>2015-01-11T10:01:13.000Z</time>
      </trkpt>
      <trkpt lat="47.3482" lon="-1.25965">
        <ele>55</ele>
        <time>2015-01-11T10:01:15.000Z</time>
      </trkpt>
      <trkpt lat="47.34826" lon="-1.25979">
        <ele>56</ele>
        <time>2015-01-11T10:01:17.000Z</time>
      </trkpt>
      <trkpt lat="47.34827" lon="-1.25997">
        <ele>55</ele>
        <time>2015-01-11T10:01:19.000Z</time>
      </trkpt>
      <trkpt lat="47.3483" lon="-1.26013">
        <ele>56</ele>
        <time>2015-01-11T10:01:22.000Z</time>
      </trkpt>
      <trkpt lat="47.34833" lon="-1.26026">
        <ele>56</ele>
        <time>2015-01-11T10:01:24.000Z</time>
      </trkpt>
      <trkpt lat="47.34835" lon="-1.26037">
        <ele>57</ele>
        <time>2015-01-11T10:01:26.000Z</time>
      </trkpt>
      <trkpt lat="47.34839" lon="-1.26048">
        <ele>56</ele>
        <time>2015-01-11T10:01:28.000Z</time>
      </trkpt>
      <trkpt lat="47.34842" lon="-1.26056">
        <ele>55</ele>
        <time>2015-01-11T10:01:30.000Z</time>
      </trkpt>
      <trkpt lat="47.34842" lon="-1.26056">
        <ele>55</ele>
        <time>2015-01-11T10:01:32.000Z</time>
      </trkpt>
      <trkpt lat="47.34848" lon="-1.26067">
        <ele>57</ele>
        <time>2015-01-11T10:01:34.000Z</time>
      </trkpt>
      <trkpt lat="47.34848" lon="-1.26067">
        <ele>57</ele>
        <time>2015-01-11T10:01:36.000Z</time>
      </trkpt>
      <trkpt lat="47.34855" lon="-1.26068">
        <ele>59</ele>
        <time>2015-01-11T10:01:38.000Z</time>
      </trkpt>
      <trkpt lat="47.34855" lon="-1.26068">
        <ele>59</ele>
        <time>2015-01-11T10:01:40.000Z</time>
      </trkpt>
      <trkpt lat="47.34866" lon="-1.26068">
        <ele>60</ele>
        <time>2015-01-11T10:01:42.000Z</time>
      </trkpt>
      <trkpt lat="47.34877" lon="-1.26069">
        <ele>59</ele>
        <time>2015-01-11T10:01:46.000Z</time>
      </trkpt>
      <trkpt lat="47.34888" lon="-1.26068">
        <ele>57</ele>
        <time>2015-01-11T10:01:50.000Z</time>
      </trkpt>
      <trkpt lat="47.34894" lon="-1.26069">
        <ele>57</ele>
        <time>2015-01-11T10:01:52.000Z</time>
      </trkpt>
      <trkpt lat="47.34894" lon="-1.26069">
        <ele>57</ele>
        <time>2015-01-11T10:01:54.000Z</time>
      </trkpt>
      <trkpt lat="47.34904" lon="-1.26071">
        <ele>58</ele>
        <time>2015-01-11T10:01:56.000Z</time>
      </trkpt>
      <trkpt lat="47.34904" lon="-1.26071">
        <ele>58</ele>
        <time>2015-01-11T10:01:58.000Z</time>
      </trkpt>
      <trkpt lat="47.34914" lon="-1.26072">
        <ele>56</ele>
        <time>2015-01-11T10:02:00.000Z</time>
      </trkpt>
      <trkpt lat="47.34914" lon="-1.26072">
        <ele>56</ele>
        <time>2015-01-11T10:02:02.000Z</time>
      </trkpt>
      <trkpt lat="47.34925" lon="-1.26072">
        <ele>56</ele>
        <time>2015-01-11T10:02:04.000Z</time>
      </trkpt>
      <trkpt lat="47.34932" lon="-1.26072">
        <ele>57</ele>
        <time>2015-01-11T10:02:06.000Z</time>
      </trkpt>
      <trkpt lat="47.3494" lon="-1.26071">
        <ele>63</ele>
        <time>2015-01-11T10:02:09.000Z</time>
      </trkpt>
      <trkpt lat="47.3494" lon="-1.26071">
        <ele>63</ele>
        <time>2015-01-11T10:02:11.000Z</time>
      </trkpt>
      <trkpt lat="47.3495" lon="-1.2607">
        <ele>66</ele>
        <time>2015-01-11T10:02:13.000Z</time>
      </trkpt>
      <trkpt lat="47.3495" lon="-1.2607">
        <ele>66</ele>
        <time>2015-01-11T10:02:15.000Z</time>
      </trkpt>
      <trkpt lat="47.34959" lon="-1.26063">
        <ele>74</ele>
        <time>2015-01-11T10:02:17.000Z</time>
      </trkpt>
      <trkpt lat="47.34959" lon="-1.26063">
        <ele>74</ele>
        <time>2015-01-11T10:02:19.000Z</time>
      </trkpt>
      <trkpt lat="47.34967" lon="-1.26057">
        <ele>80</ele>
        <time>2015-01-11T10:02:21.000Z</time>
      </trkpt>
      <trkpt lat="47.34967" lon="-1.26057">
        <ele>80</ele>
        <time>2015-01-11T10:02:23.000Z</time>
      </trkpt>
      <trkpt lat="47.34974" lon="-1.26055">
        <ele>81</ele>
        <time>2015-01-11T10:02:25.000Z</time>
      </trkpt>
      <trkpt lat="47.34974" lon="-1.26055">
        <ele>81</ele>
        <time>2015-01-11T10:02:27.000Z</time>
      </trkpt>
      <trkpt lat="47.3498" lon="-1.26058">
        <ele>78</ele>
        <time>2015-01-11T10:02:29.000Z</time>
      </trkpt>
      <trkpt lat="47.34986" lon="-1.2605">
        <ele>83</ele>
        <time>2015-01-11T10:02:33.000Z</time>
      </trkpt>
      <trkpt lat="47.3499" lon="-1.26043">
        <ele>83</ele>
        <time>2015-01-11T10:02:35.000Z</time>
      </trkpt>
      <trkpt lat="47.34995" lon="-1.26038">
        <ele>85</ele>
        <time>2015-01-11T10:02:37.000Z</time>
      </trkpt>
      <trkpt lat="47.35001" lon="-1.26032">
        <ele>82</ele>
        <time>2015-01-11T10:02:39.000Z</time>
      </trkpt>
      <trkpt lat="47.35006" lon="-1.26028">
        <ele>84</ele>
        <time>2015-01-11T10:02:41.000Z</time>
      </trkpt>
      <trkpt lat="47.35006" lon="-1.26028">
        <ele>84</ele>
        <time>2015-01-11T10:02:43.000Z</time>
      </trkpt>
      <trkpt lat="47.35015" lon="-1.26025">
        <ele>83</ele>
        <time>2015-01-11T10:02:45.000Z</time>
      </trkpt>
      <trkpt lat="47.35015" lon="-1.26025">
        <ele>83</ele>
        <time>2015-01-11T10:02:47.000Z</time>
      </trkpt>
      <trkpt lat="47.35025" lon="-1.26024">
        <ele>82</ele>
        <time>2015-01-11T10:02:49.000Z</time>
      </trkpt>
      <trkpt lat="47.35036" lon="-1.2602">
        <ele>75</ele>
        <time>2015-01-11T10:02:53.000Z</time>
      </trkpt>
      <trkpt lat="47.35046" lon="-1.26015">
        <ele>75</ele>
        <time>2015-01-11T10:02:57.000Z</time>
      </trkpt>
      <trkpt lat="47.35046" lon="-1.26015">
        <ele>75</ele>
        <time>2015-01-11T10:02:59.000Z</time>
      </trkpt>
      <trkpt lat="47.35051" lon="-1.26011">
        <ele>81</ele>
        <time>2015-01-11T10:03:01.000Z</time>
      </trkpt>
      <trkpt lat="47.35051" lon="-1.26011">
        <ele>81</ele>
        <time>2015-01-11T10:03:03.000Z</time>
      </trkpt>
      <trkpt lat="47.35051" lon="-1.26011">
        <ele>81</ele>
        <time>2015-01-11T10:03:05.000Z</time>
      </trkpt>
      <trkpt lat="47.35056" lon="-1.26002">
        <ele>78</ele>
        <time>2015-01-11T10:03:07.000Z</time>
      </trkpt>
      <trkpt lat="47.35062" lon="-1.26">
        <ele>80</ele>
        <time>2015-01-11T10:03:11.000Z</time>
      </trkpt>
      <trkpt lat="47.35062" lon="-1.26">
        <ele>80</ele>
        <time>2015-01-11T10:03:13.000Z</time>
      </trkpt>
      <trkpt lat="47.35062" lon="-1.26">
        <ele>80</ele>
        <time>2015-01-11T10:03:15.000Z</time>
      </trkpt>
      <trkpt lat="47.3507" lon="-1.25997">
        <ele>78</ele>
        <time>2015-01-11T10:03:17.000Z</time>
      </trkpt>
      <trkpt lat="47.3507" lon="-1.25997">
        <ele>78</ele>
        <time>2015-01-11T10:03:19.000Z</time>
      </trkpt>
      <trkpt lat="47.3507" lon="-1.25997">
        <ele>78</ele>
        <time>2015-01-11T10:03:21.000Z</time>
      </trkpt>
      <trkpt lat="47.3507" lon="-1.25997">
        <ele>78</ele>
        <time>2015-01-11T10:03:23.000Z</time>
      </trkpt>
      <trkpt lat="47.35078" lon="-1.25991">
        <ele>78</ele>
        <time>2015-01-11T10:03:37.000Z</time>
      </trkpt>
      <trkpt lat="47.35083" lon="-1.25987">
        <ele>79</ele>
        <time>2015-01-11T10:03:39.000Z</time>
      </trkpt>
      <trkpt lat="47.35087" lon="-1.25984">
        <ele>79</ele>
        <time>2015-01-11T10:03:41.000Z</time>
      </trkpt>
      <trkpt lat="47.3509" lon="-1.25982">
        <ele>83</ele>
        <time>2015-01-11T10:03:43.000Z</time>
      </trkpt>
      <trkpt lat="47.3509" lon="-1.25982">
        <ele>83</ele>
        <time>2015-01-11T10:03:45.000Z</time>
      </trkpt>
      <trkpt lat="47.35093" lon="-1.25981">
        <ele>83</ele>
        <time>2015-01-11T10:03:47.000Z</time>
      </trkpt>
      <trkpt lat="47.35093" lon="-1.25981">
        <ele>83</ele>
        <time>2015-01-11T10:03:49.000Z</time>
      </trkpt>
      <trkpt lat="47.35108" lon="-1.25975">
        <ele>89</ele>
        <time>2015-01-11T10:04:15.000Z</time>
      </trkpt>
      <trkpt lat="47.35117" lon="-1.25971">
        <ele>88</ele>
        <time>2015-01-11T10:04:17.000Z</time>
      </trkpt>
      <trkpt lat="47.35123" lon="-1.25969">
        <ele>89</ele>
        <time>2015-01-11T10:04:19.000Z</time>
      </trkpt>
      <trkpt lat="47.35126" lon="-1.25966">
        <ele>88</ele>
        <time>2015-01-11T10:04:21.000Z</time>
      </trkpt>
      <trkpt lat="47.35126" lon="-1.25966">
        <ele>88</ele>
        <time>2015-01-11T10:04:23.000Z</time>
      </trkpt>
      <trkpt lat="47.3513" lon="-1.25964">
        <ele>86</ele>
        <time>2015-01-11T10:04:25.000Z</time>
      </trkpt>
      <trkpt lat="47.35134" lon="-1.25963">
        <ele>86</ele>
        <time>2015-01-11T10:04:27.000Z</time>
      </trkpt>
      <trkpt lat="47.35138" lon="-1.25962">
        <ele>87</ele>
        <time>2015-01-11T10:04:29.000Z</time>
      </trkpt>
      <trkpt lat="47.35138" lon="-1.25962">
        <ele>87</ele>
        <time>2015-01-11T10:04:31.000Z</time>
      </trkpt>
      <trkpt lat="47.35138" lon="-1.25962">
        <ele>87</ele>
        <time>2015-01-11T10:04:33.000Z</time>
      </trkpt>
      <trkpt lat="47.35138" lon="-1.25962">
        <ele>87</ele>
        <time>2015-01-11T10:04:35.000Z</time>
      </trkpt>
      <trkpt lat="47.35138" lon="-1.25962">
        <ele>87</ele>
        <time>2015-01-11T10:04:37.000Z</time>
      </trkpt>
      <trkpt lat="47.35138" lon="-1.25962">
        <ele>87</ele>
        <time>2015-01-11T10:04:39.000Z</time>
      </trkpt>
      <trkpt lat="47.35149" lon="-1.25959">
        <ele>96</ele>
        <time>2015-01-11T10:04:53.000Z</time>
      </trkpt>
      <trkpt lat="47.35156" lon="-1.25957">
        <ele>98</ele>
        <time>2015-01-11T10:04:55.000Z</time>
      </trkpt>
      <trkpt lat="47.35156" lon="-1.25957">
        <ele>98</ele>
        <time>2015-01-11T10:04:57.000Z</time>
      </trkpt>
      <trkpt lat="47.35156" lon="-1.25957">
        <ele>98</ele>
        <time>2015-01-11T10:04:59.000Z</time>
      </trkpt>
      <trkpt lat="47.35156" lon="-1.25957">
        <ele>98</ele>
        <time>2015-01-11T10:05:01.000Z</time>
      </trkpt>
      <trkpt lat="47.35156" lon="-1.25957">
        <ele>98</ele>
        <time>2015-01-11T10:05:03.000Z</time>
      </trkpt>
      <trkpt lat="47.35162" lon="-1.25949">
        <ele>104</ele>
        <time>2015-01-11T10:05:19.000Z</time>
      </trkpt>
      <trkpt lat="47.35166" lon="-1.25945">
        <ele>104</ele>
        <time>2015-01-11T10:05:21.000Z</time>
      </trkpt>
      <trkpt lat="47.35169" lon="-1.25944">
        <ele>100</ele>
        <time>2015-01-11T10:05:23.000Z</time>
      </trkpt>
      <trkpt lat="47.35172" lon="-1.25942">
        <ele>104</ele>
        <time>2015-01-11T10:05:27.000Z</time>
      </trkpt>
      <trkpt lat="47.35172" lon="-1.25942">
        <ele>104</ele>
        <time>2015-01-11T10:05:29.000Z</time>
      </trkpt>
      <trkpt lat="47.35172" lon="-1.25942">
        <ele>104</ele>
        <time>2015-01-11T10:05:31.000Z</time>
      </trkpt>
      <trkpt lat="47.35172" lon="-1.25942">
        <ele>104</ele>
        <time>2015-01-11T10:05:33.000Z</time>
      </trkpt>
      <trkpt lat="47.35183" lon="-1.25929">
        <ele>86</ele>
        <time>2015-01-11T10:05:43.000Z</time>
      </trkpt>
      <trkpt lat="47.3519" lon="-1.25921">
        <ele>84</ele>
        <time>2015-01-11T10:05:45.000Z</time>
      </trkpt>
      <trkpt lat="47.35196" lon="-1.25916">
        <ele>83</ele>
        <time>2015-01-11T10:05:47.000Z</time>
      </trkpt>
      <trkpt lat="47.352" lon="-1.25912">
        <ele>85</ele>
        <time>2015-01-11T10:05:49.000Z</time>
      </trkpt>
      <trkpt lat="47.35203" lon="-1.25909">
        <ele>87</ele>
        <time>2015-01-11T10:05:51.000Z</time>
      </trkpt>
      <trkpt lat="47.35209" lon="-1.25902">
        <ele>88</ele>
        <time>2015-01-11T10:05:53.000Z</time>
      </trkpt>
      <trkpt lat="47.35209" lon="-1.25902">
        <ele>88</ele>
        <time>2015-01-11T10:05:55.000Z</time>
      </trkpt>
      <trkpt lat="47.35209" lon="-1.25902">
        <ele>88</ele>
        <time>2015-01-11T10:05:57.000Z</time>
      </trkpt>
      <trkpt lat="47.35215" lon="-1.25897">
        <ele>91</ele>
        <time>2015-01-11T10:05:59.000Z</time>
      </trkpt>
      <trkpt lat="47.35222" lon="-1.25895">
        <ele>91</ele>
        <time>2015-01-11T10:06:03.000Z</time>
      </trkpt>
      <trkpt lat="47.35222" lon="-1.25895">
        <ele>91</ele>
        <time>2015-01-11T10:06:07.000Z</time>
      </trkpt>
      <trkpt lat="47.35229" lon="-1.25892">
        <ele>104</ele>
        <time>2015-01-11T10:06:09.000Z</time>
      </trkpt>
      <trkpt lat="47.35239" lon="-1.25887">
        <ele>107</ele>
        <time>2015-01-11T10:06:13.000Z</time>
      </trkpt>
      <trkpt lat="47.35246" lon="-1.2588">
        <ele>110</ele>
        <time>2015-01-11T10:06:17.000Z</time>
      </trkpt>
      <trkpt lat="47.35253" lon="-1.25872">
        <ele>112</ele>
        <time>2015-01-11T10:06:21.000Z</time>
      </trkpt>
      <trkpt lat="47.35262" lon="-1.25864">
        <ele>112</ele>
        <time>2015-01-11T10:06:25.000Z</time>
      </trkpt>
      <trkpt lat="47.35262" lon="-1.25864">
        <ele>112</ele>
        <time>2015-01-11T10:06:27.000Z</time>
      </trkpt>
      <trkpt lat="47.35268" lon="-1.25859">
        <ele>112</ele>
        <time>2015-01-11T10:06:29.000Z</time>
      </trkpt>
      <trkpt lat="47.35268" lon="-1.25859">
        <ele>112</ele>
        <time>2015-01-11T10:06:31.000Z</time>
      </trkpt>
      <trkpt lat="47.35268" lon="-1.25859">
        <ele>112</ele>
        <time>2015-01-11T10:06:33.000Z</time>
      </trkpt>
      <trkpt lat="47.35268" lon="-1.25859">
        <ele>112</ele>
        <time>2015-01-11T10:06:35.000Z</time>
      </trkpt>
      <trkpt lat="47.35268" lon="-1.25859">
        <ele>112</ele>
        <time>2015-01-11T10:06:37.000Z</time>
      </trkpt>
      <trkpt lat="47.35268" lon="-1.25859">
        <ele>112</ele>
        <time>2015-01-11T10:06:39.000Z</time>
      </trkpt>
      <trkpt lat="47.35273" lon="-1.25875">
        <ele>112</ele>
        <time>2015-01-11T10:06:55.000Z</time>
      </trkpt>
      <trkpt lat="47.35273" lon="-1.25889">
        <ele>111</ele>
        <time>2015-01-11T10:06:59.000Z</time>
      </trkpt>
      <trkpt lat="47.35273" lon="-1.25905">
        <ele>112</ele>
        <time>2015-01-11T10:07:03.000Z</time>
      </trkpt>
      <trkpt lat="47.35272" lon="-1.25921">
        <ele>112</ele>
        <time>2015-01-11T10:07:07.000Z</time>
      </trkpt>
      <trkpt lat="47.35272" lon="-1.25921">
        <ele>112</ele>
        <time>2015-01-11T10:07:09.000Z</time>
      </trkpt>
      <trkpt lat="47.35271" lon="-1.25936">
        <ele>112</ele>
        <time>2015-01-11T10:07:11.000Z</time>
      </trkpt>
      <trkpt lat="47.35271" lon="-1.25936">
        <ele>112</ele>
        <time>2015-01-11T10:07:13.000Z</time>
      </trkpt>
      <trkpt lat="47.3527" lon="-1.25948">
        <ele>111</ele>
        <time>2015-01-11T10:07:15.000Z</time>
      </trkpt>
      <trkpt lat="47.3527" lon="-1.25948">
        <ele>111</ele>
        <time>2015-01-11T10:07:17.000Z</time>
      </trkpt>
      <trkpt lat="47.35268" lon="-1.25961">
        <ele>111</ele>
        <time>2015-01-11T10:07:19.000Z</time>
      </trkpt>
      <trkpt lat="47.35267" lon="-1.25974">
        <ele>112</ele>
        <time>2015-01-11T10:07:23.000Z</time>
      </trkpt>
      <trkpt lat="47.35267" lon="-1.25974">
        <ele>112</ele>
        <time>2015-01-11T10:07:25.000Z</time>
      </trkpt>
      <trkpt lat="47.35267" lon="-1.25981">
        <ele>111</ele>
        <time>2015-01-11T10:07:27.000Z</time>
      </trkpt>
      <trkpt lat="47.35266" lon="-1.25988">
        <ele>111</ele>
        <time>2015-01-11T10:07:29.000Z</time>
      </trkpt>
      <trkpt lat="47.35266" lon="-1.25995">
        <ele>111</ele>
        <time>2015-01-11T10:07:31.000Z</time>
      </trkpt>
      <trkpt lat="47.35266" lon="-1.26001">
        <ele>111</ele>
        <time>2015-01-11T10:07:33.000Z</time>
      </trkpt>
      <trkpt lat="47.35266" lon="-1.26007">
        <ele>112</ele>
        <time>2015-01-11T10:07:35.000Z</time>
      </trkpt>
      <trkpt lat="47.35265" lon="-1.26019">
        <ele>112</ele>
        <time>2015-01-11T10:07:37.000Z</time>
      </trkpt>
      <trkpt lat="47.35265" lon="-1.26019">
        <ele>112</ele>
        <time>2015-01-11T10:07:39.000Z</time>
      </trkpt>
      <trkpt lat="47.35265" lon="-1.2603">
        <ele>111</ele>
        <time>2015-01-11T10:07:41.000Z</time>
      </trkpt>
      <trkpt lat="47.35265" lon="-1.26045">
        <ele>114</ele>
        <time>2015-01-11T10:07:45.000Z</time>
      </trkpt>
      <trkpt lat="47.35263" lon="-1.2606">
        <ele>114</ele>
        <time>2015-01-11T10:07:49.000Z</time>
      </trkpt>
      <trkpt lat="47.35262" lon="-1.26075">
        <ele>112</ele>
        <time>2015-01-11T10:07:53.000Z</time>
      </trkpt>
      <trkpt lat="47.3526" lon="-1.2609">
        <ele>112</ele>
        <time>2015-01-11T10:07:57.000Z</time>
      </trkpt>
      <trkpt lat="47.35259" lon="-1.26105">
        <ele>112</ele>
        <time>2015-01-11T10:08:01.000Z</time>
      </trkpt>
      <trkpt lat="47.35259" lon="-1.26105">
        <ele>112</ele>
        <time>2015-01-11T10:08:03.000Z</time>
      </trkpt>
      <trkpt lat="47.35258" lon="-1.26118">
        <ele>112</ele>
        <time>2015-01-11T10:08:05.000Z</time>
      </trkpt>
      <trkpt lat="47.35258" lon="-1.26118">
        <ele>112</ele>
        <time>2015-01-11T10:08:07.000Z</time>
      </trkpt>
      <trkpt lat="47.35258" lon="-1.26131">
        <ele>112</ele>
        <time>2015-01-11T10:08:09.000Z</time>
      </trkpt>
      <trkpt lat="47.35258" lon="-1.26146">
        <ele>111</ele>
        <time>2015-01-11T10:08:13.000Z</time>
      </trkpt>
      <trkpt lat="47.35256" lon="-1.26162">
        <ele>111</ele>
        <time>2015-01-11T10:08:17.000Z</time>
      </trkpt>
      <trkpt lat="47.35255" lon="-1.26172">
        <ele>111</ele>
        <time>2015-01-11T10:08:19.000Z</time>
      </trkpt>
      <trkpt lat="47.35254" lon="-1.26182">
        <ele>111</ele>
        <time>2015-01-11T10:08:21.000Z</time>
      </trkpt>
      <trkpt lat="47.35253" lon="-1.26194">
        <ele>111</ele>
        <time>2015-01-11T10:08:23.000Z</time>
      </trkpt>
      <trkpt lat="47.35252" lon="-1.26206">
        <ele>110</ele>
        <time>2015-01-11T10:08:25.000Z</time>
      </trkpt>
      <trkpt lat="47.35251" lon="-1.26218">
        <ele>110</ele>
        <time>2015-01-11T10:08:27.000Z</time>
      </trkpt>
      <trkpt lat="47.3525" lon="-1.26229">
        <ele>111</ele>
        <time>2015-01-11T10:08:29.000Z</time>
      </trkpt>
      <trkpt lat="47.3525" lon="-1.26241">
        <ele>111</ele>
        <time>2015-01-11T10:08:31.000Z</time>
      </trkpt>
      <trkpt lat="47.35248" lon="-1.26251">
        <ele>111</ele>
        <time>2015-01-11T10:08:33.000Z</time>
      </trkpt>
      <trkpt lat="47.35243" lon="-1.26258">
        <ele>111</ele>
        <time>2015-01-11T10:08:35.000Z</time>
      </trkpt>
      <trkpt lat="47.35243" lon="-1.26258">
        <ele>111</ele>
        <time>2015-01-11T10:08:37.000Z</time>
      </trkpt>
      <trkpt lat="47.35243" lon="-1.26275">
        <ele>108</ele>
        <time>2015-01-11T10:08:39.000Z</time>
      </trkpt>
      <trkpt lat="47.35245" lon="-1.26289">
        <ele>107</ele>
        <time>2015-01-11T10:08:41.000Z</time>
      </trkpt>
      <trkpt lat="47.35245" lon="-1.26304">
        <ele>107</ele>
        <time>2015-01-11T10:08:43.000Z</time>
      </trkpt>
      <trkpt lat="47.35246" lon="-1.26319">
        <ele>106</ele>
        <time>2015-01-11T10:08:45.000Z</time>
      </trkpt>
      <trkpt lat="47.35246" lon="-1.26335">
        <ele>105</ele>
        <time>2015-01-11T10:08:47.000Z</time>
      </trkpt>
      <trkpt lat="47.35246" lon="-1.26352">
        <ele>105</ele>
        <time>2015-01-11T10:08:49.000Z</time>
      </trkpt>
      <trkpt lat="47.35246" lon="-1.26368">
        <ele>105</ele>
        <time>2015-01-11T10:08:51.000Z</time>
      </trkpt>
      <trkpt lat="47.35247" lon="-1.26385">
        <ele>104</ele>
        <time>2015-01-11T10:08:53.000Z</time>
      </trkpt>
      <trkpt lat="47.35248" lon="-1.26397">
        <ele>103</ele>
        <time>2015-01-11T10:08:55.000Z</time>
      </trkpt>
      <trkpt lat="47.35249" lon="-1.2641">
        <ele>103</ele>
        <time>2015-01-11T10:08:57.000Z</time>
      </trkpt>
      <trkpt lat="47.3525" lon="-1.26424">
        <ele>102</ele>
        <time>2015-01-11T10:08:59.000Z</time>
      </trkpt>
      <trkpt lat="47.35252" lon="-1.26437">
        <ele>101</ele>
        <time>2015-01-11T10:09:01.000Z</time>
      </trkpt>
      <trkpt lat="47.35252" lon="-1.26451">
        <ele>101</ele>
        <time>2015-01-11T10:09:03.000Z</time>
      </trkpt>
      <trkpt lat="47.35252" lon="-1.26467">
        <ele>101</ele>
        <time>2015-01-11T10:09:05.000Z</time>
      </trkpt>
      <trkpt lat="47.35254" lon="-1.26478">
        <ele>101</ele>
        <time>2015-01-11T10:09:07.000Z</time>
      </trkpt>
      <trkpt lat="47.35255" lon="-1.26491">
        <ele>101</ele>
        <time>2015-01-11T10:09:09.000Z</time>
      </trkpt>
      <trkpt lat="47.35255" lon="-1.26505">
        <ele>99</ele>
        <time>2015-01-11T10:09:11.000Z</time>
      </trkpt>
      <trkpt lat="47.35257" lon="-1.26522">
        <ele>98</ele>
        <time>2015-01-11T10:09:13.000Z</time>
      </trkpt>
      <trkpt lat="47.35258" lon="-1.26537">
        <ele>99</ele>
        <time>2015-01-11T10:09:15.000Z</time>
      </trkpt>
      <trkpt lat="47.3526" lon="-1.26553">
        <ele>98</ele>
        <time>2015-01-11T10:09:17.000Z</time>
      </trkpt>
      <trkpt lat="47.35261" lon="-1.26568">
        <ele>98</ele>
        <time>2015-01-11T10:09:19.000Z</time>
      </trkpt>
      <trkpt lat="47.35262" lon="-1.26583">
        <ele>99</ele>
        <time>2015-01-11T10:09:21.000Z</time>
      </trkpt>
      <trkpt lat="47.35264" lon="-1.26599">
        <ele>99</ele>
        <time>2015-01-11T10:09:23.000Z</time>
      </trkpt>
      <trkpt lat="47.35265" lon="-1.26616">
        <ele>98</ele>
        <time>2015-01-11T10:09:25.000Z</time>
      </trkpt>
      <trkpt lat="47.35267" lon="-1.26633">
        <ele>96</ele>
        <time>2015-01-11T10:09:27.000Z</time>
      </trkpt>
      <trkpt lat="47.35268" lon="-1.26649">
        <ele>96</ele>
        <time>2015-01-11T10:09:29.000Z</time>
      </trkpt>
      <trkpt lat="47.3527" lon="-1.26664">
        <ele>95</ele>
        <time>2015-01-11T10:09:31.000Z</time>
      </trkpt>
      <trkpt lat="47.35271" lon="-1.26685">
        <ele>96</ele>
        <time>2015-01-11T10:09:33.000Z</time>
      </trkpt>
      <trkpt lat="47.35274" lon="-1.26706">
        <ele>95</ele>
        <time>2015-01-11T10:09:35.000Z</time>
      </trkpt>
      <trkpt lat="47.35275" lon="-1.26731">
        <ele>93</ele>
        <time>2015-01-11T10:09:37.000Z</time>
      </trkpt>
      <trkpt lat="47.35278" lon="-1.2676">
        <ele>92</ele>
        <time>2015-01-11T10:09:39.000Z</time>
      </trkpt>
      <trkpt lat="47.3528" lon="-1.26784">
        <ele>94</ele>
        <time>2015-01-11T10:09:41.000Z</time>
      </trkpt>
      <trkpt lat="47.35281" lon="-1.26804">
        <ele>96</ele>
        <time>2015-01-11T10:09:43.000Z</time>
      </trkpt>
      <trkpt lat="47.35282" lon="-1.26822">
        <ele>97</ele>
        <time>2015-01-11T10:09:45.000Z</time>
      </trkpt>
      <trkpt lat="47.35281" lon="-1.26841">
        <ele>97</ele>
        <time>2015-01-11T10:09:47.000Z</time>
      </trkpt>
      <trkpt lat="47.35281" lon="-1.2686">
        <ele>95</ele>
        <time>2015-01-11T10:09:49.000Z</time>
      </trkpt>
      <trkpt lat="47.35283" lon="-1.26885">
        <ele>94</ele>
        <time>2015-01-11T10:09:51.000Z</time>
      </trkpt>
      <trkpt lat="47.35284" lon="-1.26906">
        <ele>94</ele>
        <time>2015-01-11T10:09:53.000Z</time>
      </trkpt>
      <trkpt lat="47.35284" lon="-1.26927">
        <ele>93</ele>
        <time>2015-01-11T10:09:55.000Z</time>
      </trkpt>
      <trkpt lat="47.35285" lon="-1.26949">
        <ele>93</ele>
        <time>2015-01-11T10:09:57.000Z</time>
      </trkpt>
      <trkpt lat="47.35285" lon="-1.2697">
        <ele>92</ele>
        <time>2015-01-11T10:09:59.000Z</time>
      </trkpt>
      <trkpt lat="47.35284" lon="-1.26992">
        <ele>92</ele>
        <time>2015-01-11T10:10:01.000Z</time>
      </trkpt>
      <trkpt lat="47.35283" lon="-1.27012">
        <ele>92</ele>
        <time>2015-01-11T10:10:03.000Z</time>
      </trkpt>
      <trkpt lat="47.35281" lon="-1.27031">
        <ele>91</ele>
        <time>2015-01-11T10:10:05.000Z</time>
      </trkpt>
      <trkpt lat="47.35275" lon="-1.27046">
        <ele>89</ele>
        <time>2015-01-11T10:10:07.000Z</time>
      </trkpt>
      <trkpt lat="47.35269" lon="-1.27058">
        <ele>90</ele>
        <time>2015-01-11T10:10:09.000Z</time>
      </trkpt>
      <trkpt lat="47.35262" lon="-1.27073">
        <ele>89</ele>
        <time>2015-01-11T10:10:11.000Z</time>
      </trkpt>
      <trkpt lat="47.35255" lon="-1.27087">
        <ele>88</ele>
        <time>2015-01-11T10:10:13.000Z</time>
      </trkpt>
      <trkpt lat="47.35249" lon="-1.27101">
        <ele>88</ele>
        <time>2015-01-11T10:10:15.000Z</time>
      </trkpt>
      <trkpt lat="47.35245" lon="-1.27114">
        <ele>87</ele>
        <time>2015-01-11T10:10:17.000Z</time>
      </trkpt>
      <trkpt lat="47.35242" lon="-1.27126">
        <ele>87</ele>
        <time>2015-01-11T10:10:19.000Z</time>
      </trkpt>
      <trkpt lat="47.35235" lon="-1.27137">
        <ele>86</ele>
        <time>2015-01-11T10:10:21.000Z</time>
      </trkpt>
      <trkpt lat="47.3523" lon="-1.27148">
        <ele>86</ele>
        <time>2015-01-11T10:10:23.000Z</time>
      </trkpt>
      <trkpt lat="47.35224" lon="-1.27162">
        <ele>85</ele>
        <time>2015-01-11T10:10:25.000Z</time>
      </trkpt>
      <trkpt lat="47.35218" lon="-1.27177">
        <ele>84</ele>
        <time>2015-01-11T10:10:27.000Z</time>
      </trkpt>
      <trkpt lat="47.35212" lon="-1.27192">
        <ele>83</ele>
        <time>2015-01-11T10:10:29.000Z</time>
      </trkpt>
      <trkpt lat="47.35205" lon="-1.27205">
        <ele>82</ele>
        <time>2015-01-11T10:10:31.000Z</time>
      </trkpt>
      <trkpt lat="47.35199" lon="-1.2722">
        <ele>82</ele>
        <time>2015-01-11T10:10:33.000Z</time>
      </trkpt>
      <trkpt lat="47.35191" lon="-1.27235">
        <ele>82</ele>
        <time>2015-01-11T10:10:35.000Z</time>
      </trkpt>
      <trkpt lat="47.35185" lon="-1.2725">
        <ele>81</ele>
        <time>2015-01-11T10:10:37.000Z</time>
      </trkpt>
      <trkpt lat="47.3518" lon="-1.27263">
        <ele>80</ele>
        <time>2015-01-11T10:10:39.000Z</time>
      </trkpt>
      <trkpt lat="47.35172" lon="-1.27277">
        <ele>80</ele>
        <time>2015-01-11T10:10:41.000Z</time>
      </trkpt>
      <trkpt lat="47.35163" lon="-1.27293">
        <ele>80</ele>
        <time>2015-01-11T10:10:43.000Z</time>
      </trkpt>
      <trkpt lat="47.35156" lon="-1.27309">
        <ele>83</ele>
        <time>2015-01-11T10:10:45.000Z</time>
      </trkpt>
      <trkpt lat="47.3515" lon="-1.27323">
        <ele>83</ele>
        <time>2015-01-11T10:10:47.000Z</time>
      </trkpt>
      <trkpt lat="47.35145" lon="-1.27335">
        <ele>83</ele>
        <time>2015-01-11T10:10:49.000Z</time>
      </trkpt>
      <trkpt lat="47.35137" lon="-1.27349">
        <ele>82</ele>
        <time>2015-01-11T10:10:51.000Z</time>
      </trkpt>
      <trkpt lat="47.35129" lon="-1.27363">
        <ele>81</ele>
        <time>2015-01-11T10:10:53.000Z</time>
      </trkpt>
      <trkpt lat="47.3512" lon="-1.27368">
        <ele>83</ele>
        <time>2015-01-11T10:10:56.000Z</time>
      </trkpt>
      <trkpt lat="47.3509" lon="-1.2737">
        <ele>79</ele>
        <time>2015-01-11T10:11:00.000Z</time>
      </trkpt>
      <trkpt lat="47.35071" lon="-1.27369">
        <ele>78</ele>
        <time>2015-01-11T10:11:02.000Z</time>
      </trkpt>
      <trkpt lat="47.35049" lon="-1.27368">
        <ele>76</ele>
        <time>2015-01-11T10:11:04.000Z</time>
      </trkpt>
      <trkpt lat="47.35029" lon="-1.27365">
        <ele>76</ele>
        <time>2015-01-11T10:11:06.000Z</time>
      </trkpt>
      <trkpt lat="47.35009" lon="-1.27364">
        <ele>73</ele>
        <time>2015-01-11T10:11:08.000Z</time>
      </trkpt>
      <trkpt lat="47.34991" lon="-1.27359">
        <ele>74</ele>
        <time>2015-01-11T10:11:10.000Z</time>
      </trkpt>
      <trkpt lat="47.34974" lon="-1.27357">
        <ele>72</ele>
        <time>2015-01-11T10:11:12.000Z</time>
      </trkpt>
      <trkpt lat="47.34957" lon="-1.27355">
        <ele>72</ele>
        <time>2015-01-11T10:11:14.000Z</time>
      </trkpt>
      <trkpt lat="47.34942" lon="-1.27355">
        <ele>72</ele>
        <time>2015-01-11T10:11:16.000Z</time>
      </trkpt>
      <trkpt lat="47.34929" lon="-1.27364">
        <ele>73</ele>
        <time>2015-01-11T10:11:19.000Z</time>
      </trkpt>
      <trkpt lat="47.34922" lon="-1.27373">
        <ele>73</ele>
        <time>2015-01-11T10:11:21.000Z</time>
      </trkpt>
      <trkpt lat="47.34916" lon="-1.27384">
        <ele>72</ele>
        <time>2015-01-11T10:11:23.000Z</time>
      </trkpt>
      <trkpt lat="47.34912" lon="-1.27397">
        <ele>71</ele>
        <time>2015-01-11T10:11:25.000Z</time>
      </trkpt>
      <trkpt lat="47.34907" lon="-1.27407">
        <ele>71</ele>
        <time>2015-01-11T10:11:27.000Z</time>
      </trkpt>
      <trkpt lat="47.34907" lon="-1.27407">
        <ele>71</ele>
        <time>2015-01-11T10:11:29.000Z</time>
      </trkpt>
      <trkpt lat="47.34908" lon="-1.27425">
        <ele>71</ele>
        <time>2015-01-11T10:11:31.000Z</time>
      </trkpt>
      <trkpt lat="47.34908" lon="-1.27425">
        <ele>71</ele>
        <time>2015-01-11T10:11:33.000Z</time>
      </trkpt>
      <trkpt lat="47.34906" lon="-1.27436">
        <ele>70</ele>
        <time>2015-01-11T10:11:35.000Z</time>
      </trkpt>
      <trkpt lat="47.34906" lon="-1.27436">
        <ele>70</ele>
        <time>2015-01-11T10:11:37.000Z</time>
      </trkpt>
      <trkpt lat="47.34904" lon="-1.27444">
        <ele>71</ele>
        <time>2015-01-11T10:11:39.000Z</time>
      </trkpt>
      <trkpt lat="47.34904" lon="-1.27444">
        <ele>71</ele>
        <time>2015-01-11T10:11:41.000Z</time>
      </trkpt>
      <trkpt lat="47.34893" lon="-1.2745">
        <ele>69</ele>
        <time>2015-01-11T10:11:43.000Z</time>
      </trkpt>
      <trkpt lat="47.34886" lon="-1.27454">
        <ele>69</ele>
        <time>2015-01-11T10:11:45.000Z</time>
      </trkpt>
      <trkpt lat="47.34882" lon="-1.27465">
        <ele>68</ele>
        <time>2015-01-11T10:11:47.000Z</time>
      </trkpt>
      <trkpt lat="47.34874" lon="-1.27474">
        <ele>66</ele>
        <time>2015-01-11T10:11:49.000Z</time>
      </trkpt>
      <trkpt lat="47.34863" lon="-1.27477">
        <ele>66</ele>
        <time>2015-01-11T10:11:51.000Z</time>
      </trkpt>
      <trkpt lat="47.34856" lon="-1.27482">
        <ele>64</ele>
        <time>2015-01-11T10:11:53.000Z</time>
      </trkpt>
      <trkpt lat="47.34851" lon="-1.27488">
        <ele>63</ele>
        <time>2015-01-11T10:11:55.000Z</time>
      </trkpt>
      <trkpt lat="47.34846" lon="-1.27493">
        <ele>63</ele>
        <time>2015-01-11T10:11:57.000Z</time>
      </trkpt>
      <trkpt lat="47.34843" lon="-1.27518">
        <ele>61</ele>
        <time>2015-01-11T10:12:00.000Z</time>
      </trkpt>
      <trkpt lat="47.34838" lon="-1.27531">
        <ele>64</ele>
        <time>2015-01-11T10:12:03.000Z</time>
      </trkpt>
      <trkpt lat="47.34837" lon="-1.27542">
        <ele>64</ele>
        <time>2015-01-11T10:12:05.000Z</time>
      </trkpt>
      <trkpt lat="47.34836" lon="-1.27557">
        <ele>60</ele>
        <time>2015-01-11T10:12:07.000Z</time>
      </trkpt>
      <trkpt lat="47.34833" lon="-1.27567">
        <ele>59</ele>
        <time>2015-01-11T10:12:09.000Z</time>
      </trkpt>
      <trkpt lat="47.3483" lon="-1.27575">
        <ele>60</ele>
        <time>2015-01-11T10:12:11.000Z</time>
      </trkpt>
      <trkpt lat="47.3483" lon="-1.27575">
        <ele>60</ele>
        <time>2015-01-11T10:12:13.000Z</time>
      </trkpt>
      <trkpt lat="47.34829" lon="-1.27592">
        <ele>65</ele>
        <time>2015-01-11T10:12:15.000Z</time>
      </trkpt>
      <trkpt lat="47.34829" lon="-1.27601">
        <ele>66</ele>
        <time>2015-01-11T10:12:17.000Z</time>
      </trkpt>
      <trkpt lat="47.34828" lon="-1.27611">
        <ele>68</ele>
        <time>2015-01-11T10:12:19.000Z</time>
      </trkpt>
      <trkpt lat="47.34828" lon="-1.27621">
        <ele>68</ele>
        <time>2015-01-11T10:12:21.000Z</time>
      </trkpt>
      <trkpt lat="47.34828" lon="-1.2763">
        <ele>69</ele>
        <time>2015-01-11T10:12:23.000Z</time>
      </trkpt>
      <trkpt lat="47.34827" lon="-1.2764">
        <ele>72</ele>
        <time>2015-01-11T10:12:25.000Z</time>
      </trkpt>
      <trkpt lat="47.34826" lon="-1.27649">
        <ele>72</ele>
        <time>2015-01-11T10:12:27.000Z</time>
      </trkpt>
      <trkpt lat="47.34824" lon="-1.2766">
        <ele>72</ele>
        <time>2015-01-11T10:12:29.000Z</time>
      </trkpt>
      <trkpt lat="47.34822" lon="-1.27673">
        <ele>72</ele>
        <time>2015-01-11T10:12:31.000Z</time>
      </trkpt>
      <trkpt lat="47.3482" lon="-1.27686">
        <ele>71</ele>
        <time>2015-01-11T10:12:33.000Z</time>
      </trkpt>
      <trkpt lat="47.34818" lon="-1.27697">
        <ele>71</ele>
        <time>2015-01-11T10:12:35.000Z</time>
      </trkpt>
      <trkpt lat="47.34816" lon="-1.27707">
        <ele>70</ele>
        <time>2015-01-11T10:12:37.000Z</time>
      </trkpt>
      <trkpt lat="47.34814" lon="-1.27718">
        <ele>70</ele>
        <time>2015-01-11T10:12:39.000Z</time>
      </trkpt>
      <trkpt lat="47.34813" lon="-1.27729">
        <ele>69</ele>
        <time>2015-01-11T10:12:41.000Z</time>
      </trkpt>
      <trkpt lat="47.34811" lon="-1.2774">
        <ele>69</ele>
        <time>2015-01-11T10:12:43.000Z</time>
      </trkpt>
      <trkpt lat="47.34809" lon="-1.27751">
        <ele>69</ele>
        <time>2015-01-11T10:12:45.000Z</time>
      </trkpt>
      <trkpt lat="47.34808" lon="-1.27762">
        <ele>69</ele>
        <time>2015-01-11T10:12:47.000Z</time>
      </trkpt>
      <trkpt lat="47.34807" lon="-1.27775">
        <ele>67</ele>
        <time>2015-01-11T10:12:49.000Z</time>
      </trkpt>
      <trkpt lat="47.34807" lon="-1.27788">
        <ele>68</ele>
        <time>2015-01-11T10:12:51.000Z</time>
      </trkpt>
      <trkpt lat="47.34806" lon="-1.27799">
        <ele>67</ele>
        <time>2015-01-11T10:12:53.000Z</time>
      </trkpt>
      <trkpt lat="47.34804" lon="-1.27809">
        <ele>65</ele>
        <time>2015-01-11T10:12:55.000Z</time>
      </trkpt>
      <trkpt lat="47.348" lon="-1.27819">
        <ele>65</ele>
        <time>2015-01-11T10:12:57.000Z</time>
      </trkpt>
      <trkpt lat="47.34795" lon="-1.27828">
        <ele>64</ele>
        <time>2015-01-11T10:12:59.000Z</time>
      </trkpt>
      <trkpt lat="47.34791" lon="-1.2784">
        <ele>64</ele>
        <time>2015-01-11T10:13:01.000Z</time>
      </trkpt>
      <trkpt lat="47.34788" lon="-1.27852">
        <ele>64</ele>
        <time>2015-01-11T10:13:03.000Z</time>
      </trkpt>
      <trkpt lat="47.34786" lon="-1.27864">
        <ele>64</ele>
        <time>2015-01-11T10:13:05.000Z</time>
      </trkpt>
      <trkpt lat="47.34783" lon="-1.27879">
        <ele>65</ele>
        <time>2015-01-11T10:13:07.000Z</time>
      </trkpt>
      <trkpt lat="47.3478" lon="-1.27892">
        <ele>66</ele>
        <time>2015-01-11T10:13:09.000Z</time>
      </trkpt>
      <trkpt lat="47.34777" lon="-1.27904">
        <ele>66</ele>
        <time>2015-01-11T10:13:11.000Z</time>
      </trkpt>
      <trkpt lat="47.34774" lon="-1.27917">
        <ele>65</ele>
        <time>2015-01-11T10:13:13.000Z</time>
      </trkpt>
      <trkpt lat="47.34771" lon="-1.2793">
        <ele>65</ele>
        <time>2015-01-11T10:13:15.000Z</time>
      </trkpt>
      <trkpt lat="47.34768" lon="-1.27943">
        <ele>64</ele>
        <time>2015-01-11T10:13:17.000Z</time>
      </trkpt>
      <trkpt lat="47.34764" lon="-1.27957">
        <ele>63</ele>
        <time>2015-01-11T10:13:19.000Z</time>
      </trkpt>
      <trkpt lat="47.34762" lon="-1.27973">
        <ele>63</ele>
        <time>2015-01-11T10:13:21.000Z</time>
      </trkpt>
      <trkpt lat="47.34759" lon="-1.27987">
        <ele>63</ele>
        <time>2015-01-11T10:13:23.000Z</time>
      </trkpt>
      <trkpt lat="47.34756" lon="-1.28">
        <ele>62</ele>
        <time>2015-01-11T10:13:25.000Z</time>
      </trkpt>
      <trkpt lat="47.34753" lon="-1.28014">
        <ele>60</ele>
        <time>2015-01-11T10:13:27.000Z</time>
      </trkpt>
      <trkpt lat="47.3475" lon="-1.28028">
        <ele>60</ele>
        <time>2015-01-11T10:13:29.000Z</time>
      </trkpt>
      <trkpt lat="47.34747" lon="-1.28042">
        <ele>59</ele>
        <time>2015-01-11T10:13:31.000Z</time>
      </trkpt>
      <trkpt lat="47.34743" lon="-1.28056">
        <ele>60</ele>
        <time>2015-01-11T10:13:33.000Z</time>
      </trkpt>
      <trkpt lat="47.3474" lon="-1.28071">
        <ele>59</ele>
        <time>2015-01-11T10:13:35.000Z</time>
      </trkpt>
      <trkpt lat="47.34736" lon="-1.28084">
        <ele>58</ele>
        <time>2015-01-11T10:13:37.000Z</time>
      </trkpt>
      <trkpt lat="47.34733" lon="-1.28098">
        <ele>58</ele>
        <time>2015-01-11T10:13:39.000Z</time>
      </trkpt>
      <trkpt lat="47.34729" lon="-1.28108">
        <ele>59</ele>
        <time>2015-01-11T10:13:41.000Z</time>
      </trkpt>
      <trkpt lat="47.34724" lon="-1.2812">
        <ele>60</ele>
        <time>2015-01-11T10:13:43.000Z</time>
      </trkpt>
      <trkpt lat="47.34716" lon="-1.28126">
        <ele>60</ele>
        <time>2015-01-11T10:13:45.000Z</time>
      </trkpt>
      <trkpt lat="47.3471" lon="-1.28127">
        <ele>60</ele>
        <time>2015-01-11T10:13:47.000Z</time>
      </trkpt>
      <trkpt lat="47.34702" lon="-1.28128">
        <ele>60</ele>
        <time>2015-01-11T10:13:49.000Z</time>
      </trkpt>
      <trkpt lat="47.34694" lon="-1.28127">
        <ele>60</ele>
        <time>2015-01-11T10:13:51.000Z</time>
      </trkpt>
      <trkpt lat="47.34687" lon="-1.28127">
        <ele>61</ele>
        <time>2015-01-11T10:13:53.000Z</time>
      </trkpt>
      <trkpt lat="47.34679" lon="-1.28127">
        <ele>61</ele>
        <time>2015-01-11T10:13:55.000Z</time>
      </trkpt>
      <trkpt lat="47.34671" lon="-1.28127">
        <ele>61</ele>
        <time>2015-01-11T10:13:57.000Z</time>
      </trkpt>
      <trkpt lat="47.34663" lon="-1.28127">
        <ele>61</ele>
        <time>2015-01-11T10:13:59.000Z</time>
      </trkpt>
      <trkpt lat="47.34656" lon="-1.28129">
        <ele>61</ele>
        <time>2015-01-11T10:14:01.000Z</time>
      </trkpt>
      <trkpt lat="47.34649" lon="-1.28132">
        <ele>62</ele>
        <time>2015-01-11T10:14:03.000Z</time>
      </trkpt>
      <trkpt lat="47.34643" lon="-1.28138">
        <ele>63</ele>
        <time>2015-01-11T10:14:05.000Z</time>
      </trkpt>
      <trkpt lat="47.34639" lon="-1.28147">
        <ele>63</ele>
        <time>2015-01-11T10:14:07.000Z</time>
      </trkpt>
      <trkpt lat="47.34635" lon="-1.28156">
        <ele>64</ele>
        <time>2015-01-11T10:14:09.000Z</time>
      </trkpt>
      <trkpt lat="47.34631" lon="-1.28165">
        <ele>64</ele>
        <time>2015-01-11T10:14:11.000Z</time>
      </trkpt>
      <trkpt lat="47.34626" lon="-1.28172">
        <ele>65</ele>
        <time>2015-01-11T10:14:13.000Z</time>
      </trkpt>
      <trkpt lat="47.34622" lon="-1.2818">
        <ele>65</ele>
        <time>2015-01-11T10:14:15.000Z</time>
      </trkpt>
      <trkpt lat="47.34618" lon="-1.28188">
        <ele>65</ele>
        <time>2015-01-11T10:14:17.000Z</time>
      </trkpt>
      <trkpt lat="47.34614" lon="-1.28196">
        <ele>65</ele>
        <time>2015-01-11T10:14:19.000Z</time>
      </trkpt>
      <trkpt lat="47.3461" lon="-1.28203">
        <ele>65</ele>
        <time>2015-01-11T10:14:21.000Z</time>
      </trkpt>
      <trkpt lat="47.34606" lon="-1.2821">
        <ele>65</ele>
        <time>2015-01-11T10:14:23.000Z</time>
      </trkpt>
      <trkpt lat="47.34603" lon="-1.28217">
        <ele>64</ele>
        <time>2015-01-11T10:14:25.000Z</time>
      </trkpt>
      <trkpt lat="47.34599" lon="-1.28225">
        <ele>64</ele>
        <time>2015-01-11T10:14:27.000Z</time>
      </trkpt>
      <trkpt lat="47.34594" lon="-1.28232">
        <ele>63</ele>
        <time>2015-01-11T10:14:29.000Z</time>
      </trkpt>
      <trkpt lat="47.34586" lon="-1.28238">
        <ele>62</ele>
        <time>2015-01-11T10:14:31.000Z</time>
      </trkpt>
      <trkpt lat="47.34577" lon="-1.28242">
        <ele>62</ele>
        <time>2015-01-11T10:14:33.000Z</time>
      </trkpt>
      <trkpt lat="47.34568" lon="-1.28246">
        <ele>62</ele>
        <time>2015-01-11T10:14:35.000Z</time>
      </trkpt>
      <trkpt lat="47.3456" lon="-1.28248">
        <ele>61</ele>
        <time>2015-01-11T10:14:37.000Z</time>
      </trkpt>
      <trkpt lat="47.34552" lon="-1.2825">
        <ele>62</ele>
        <time>2015-01-11T10:14:39.000Z</time>
      </trkpt>
      <trkpt lat="47.34546" lon="-1.28253">
        <ele>61</ele>
        <time>2015-01-11T10:14:41.000Z</time>
      </trkpt>
      <trkpt lat="47.34539" lon="-1.28255">
        <ele>62</ele>
        <time>2015-01-11T10:14:43.000Z</time>
      </trkpt>
      <trkpt lat="47.34532" lon="-1.28257">
        <ele>62</ele>
        <time>2015-01-11T10:14:45.000Z</time>
      </trkpt>
      <trkpt lat="47.34525" lon="-1.28259">
        <ele>61</ele>
        <time>2015-01-11T10:14:47.000Z</time>
      </trkpt>
      <trkpt lat="47.34519" lon="-1.28258">
        <ele>61</ele>
        <time>2015-01-11T10:14:49.000Z</time>
      </trkpt>
      <trkpt lat="47.34515" lon="-1.2825">
        <ele>62</ele>
        <time>2015-01-11T10:14:51.000Z</time>
      </trkpt>
      <trkpt lat="47.34522" lon="-1.28213">
        <ele>64</ele>
        <time>2015-01-11T10:14:55.000Z</time>
      </trkpt>
      <trkpt lat="47.34523" lon="-1.28199">
        <ele>63</ele>
        <time>2015-01-11T10:14:57.000Z</time>
      </trkpt>
      <trkpt lat="47.34523" lon="-1.28183">
        <ele>63</ele>
        <time>2015-01-11T10:14:59.000Z</time>
      </trkpt>
      <trkpt lat="47.34525" lon="-1.2817">
        <ele>64</ele>
        <time>2015-01-11T10:15:01.000Z</time>
      </trkpt>
      <trkpt lat="47.34526" lon="-1.28156">
        <ele>65</ele>
        <time>2015-01-11T10:15:03.000Z</time>
      </trkpt>
      <trkpt lat="47.34526" lon="-1.28141">
        <ele>66</ele>
        <time>2015-01-11T10:15:05.000Z</time>
      </trkpt>
      <trkpt lat="47.34525" lon="-1.28129">
        <ele>67</ele>
        <time>2015-01-11T10:15:07.000Z</time>
      </trkpt>
      <trkpt lat="47.34523" lon="-1.28114">
        <ele>69</ele>
        <time>2015-01-11T10:15:09.000Z</time>
      </trkpt>
      <trkpt lat="47.3452" lon="-1.28098">
        <ele>70</ele>
        <time>2015-01-11T10:15:11.000Z</time>
      </trkpt>
      <trkpt lat="47.34514" lon="-1.28084">
        <ele>69</ele>
        <time>2015-01-11T10:15:13.000Z</time>
      </trkpt>
      <trkpt lat="47.3451" lon="-1.2807">
        <ele>70</ele>
        <time>2015-01-11T10:15:15.000Z</time>
      </trkpt>
      <trkpt lat="47.34504" lon="-1.28056">
        <ele>70</ele>
        <time>2015-01-11T10:15:17.000Z</time>
      </trkpt>
      <trkpt lat="47.34497" lon="-1.28044">
        <ele>70</ele>
        <time>2015-01-11T10:15:19.000Z</time>
      </trkpt>
      <trkpt lat="47.34491" lon="-1.28031">
        <ele>71</ele>
        <time>2015-01-11T10:15:21.000Z</time>
      </trkpt>
      <trkpt lat="47.34486" lon="-1.28019">
        <ele>72</ele>
        <time>2015-01-11T10:15:23.000Z</time>
      </trkpt>
      <trkpt lat="47.34478" lon="-1.28009">
        <ele>72</ele>
        <time>2015-01-11T10:15:25.000Z</time>
      </trkpt>
      <trkpt lat="47.34472" lon="-1.28">
        <ele>72</ele>
        <time>2015-01-11T10:15:27.000Z</time>
      </trkpt>
      <trkpt lat="47.34464" lon="-1.2799">
        <ele>72</ele>
        <time>2015-01-11T10:15:29.000Z</time>
      </trkpt>
      <trkpt lat="47.34455" lon="-1.27981">
        <ele>72</ele>
        <time>2015-01-11T10:15:31.000Z</time>
      </trkpt>
      <trkpt lat="47.34446" lon="-1.27974">
        <ele>71</ele>
        <time>2015-01-11T10:15:33.000Z</time>
      </trkpt>
      <trkpt lat="47.34436" lon="-1.27968">
        <ele>70</ele>
        <time>2015-01-11T10:15:35.000Z</time>
      </trkpt>
      <trkpt lat="47.34424" lon="-1.27962">
        <ele>69</ele>
        <time>2015-01-11T10:15:37.000Z</time>
      </trkpt>
      <trkpt lat="47.34414" lon="-1.27957">
        <ele>69</ele>
        <time>2015-01-11T10:15:39.000Z</time>
      </trkpt>
      <trkpt lat="47.34404" lon="-1.27952">
        <ele>68</ele>
        <time>2015-01-11T10:15:41.000Z</time>
      </trkpt>
      <trkpt lat="47.34393" lon="-1.27949">
        <ele>68</ele>
        <time>2015-01-11T10:15:43.000Z</time>
      </trkpt>
      <trkpt lat="47.34383" lon="-1.27943">
        <ele>67</ele>
        <time>2015-01-11T10:15:45.000Z</time>
      </trkpt>
      <trkpt lat="47.34375" lon="-1.27937">
        <ele>67</ele>
        <time>2015-01-11T10:15:47.000Z</time>
      </trkpt>
      <trkpt lat="47.34365" lon="-1.27934">
        <ele>67</ele>
        <time>2015-01-11T10:15:49.000Z</time>
      </trkpt>
      <trkpt lat="47.34355" lon="-1.27932">
        <ele>67</ele>
        <time>2015-01-11T10:15:51.000Z</time>
      </trkpt>
      <trkpt lat="47.34345" lon="-1.27929">
        <ele>66</ele>
        <time>2015-01-11T10:15:53.000Z</time>
      </trkpt>
      <trkpt lat="47.34335" lon="-1.27926">
        <ele>67</ele>
        <time>2015-01-11T10:15:55.000Z</time>
      </trkpt>
      <trkpt lat="47.34325" lon="-1.27922">
        <ele>67</ele>
        <time>2015-01-11T10:15:57.000Z</time>
      </trkpt>
      <trkpt lat="47.34314" lon="-1.27919">
        <ele>67</ele>
        <time>2015-01-11T10:15:59.000Z</time>
      </trkpt>
      <trkpt lat="47.34303" lon="-1.27916">
        <ele>68</ele>
        <time>2015-01-11T10:16:01.000Z</time>
      </trkpt>
      <trkpt lat="47.34293" lon="-1.27913">
        <ele>67</ele>
        <time>2015-01-11T10:16:03.000Z</time>
      </trkpt>
      <trkpt lat="47.34283" lon="-1.27907">
        <ele>69</ele>
        <time>2015-01-11T10:16:05.000Z</time>
      </trkpt>
      <trkpt lat="47.34272" lon="-1.27902">
        <ele>69</ele>
        <time>2015-01-11T10:16:07.000Z</time>
      </trkpt>
      <trkpt lat="47.34262" lon="-1.27899">
        <ele>69</ele>
        <time>2015-01-11T10:16:09.000Z</time>
      </trkpt>
      <trkpt lat="47.3425" lon="-1.27897">
        <ele>68</ele>
        <time>2015-01-11T10:16:11.000Z</time>
      </trkpt>
      <trkpt lat="47.34239" lon="-1.27894">
        <ele>68</ele>
        <time>2015-01-11T10:16:13.000Z</time>
      </trkpt>
      <trkpt lat="47.34229" lon="-1.27892">
        <ele>67</ele>
        <time>2015-01-11T10:16:15.000Z</time>
      </trkpt>
      <trkpt lat="47.34218" lon="-1.27889">
        <ele>66</ele>
        <time>2015-01-11T10:16:17.000Z</time>
      </trkpt>
      <trkpt lat="47.34208" lon="-1.27886">
        <ele>67</ele>
        <time>2015-01-11T10:16:19.000Z</time>
      </trkpt>
      <trkpt lat="47.34197" lon="-1.27882">
        <ele>67</ele>
        <time>2015-01-11T10:16:21.000Z</time>
      </trkpt>
      <trkpt lat="47.34186" lon="-1.27879">
        <ele>66</ele>
        <time>2015-01-11T10:16:23.000Z</time>
      </trkpt>
      <trkpt lat="47.34175" lon="-1.27876">
        <ele>66</ele>
        <time>2015-01-11T10:16:25.000Z</time>
      </trkpt>
      <trkpt lat="47.34164" lon="-1.27872">
        <ele>66</ele>
        <time>2015-01-11T10:16:27.000Z</time>
      </trkpt>
      <trkpt lat="47.34153" lon="-1.27868">
        <ele>65</ele>
        <time>2015-01-11T10:16:29.000Z</time>
      </trkpt>
      <trkpt lat="47.34142" lon="-1.27865">
        <ele>65</ele>
        <time>2015-01-11T10:16:31.000Z</time>
      </trkpt>
      <trkpt lat="47.34131" lon="-1.27862">
        <ele>65</ele>
        <time>2015-01-11T10:16:33.000Z</time>
      </trkpt>
      <trkpt lat="47.3412" lon="-1.27858">
        <ele>65</ele>
        <time>2015-01-11T10:16:35.000Z</time>
      </trkpt>
      <trkpt lat="47.34109" lon="-1.27855">
        <ele>64</ele>
        <time>2015-01-11T10:16:37.000Z</time>
      </trkpt>
      <trkpt lat="47.34097" lon="-1.27851">
        <ele>64</ele>
        <time>2015-01-11T10:16:39.000Z</time>
      </trkpt>
      <trkpt lat="47.34085" lon="-1.27849">
        <ele>63</ele>
        <time>2015-01-11T10:16:41.000Z</time>
      </trkpt>
      <trkpt lat="47.34074" lon="-1.27844">
        <ele>65</ele>
        <time>2015-01-11T10:16:43.000Z</time>
      </trkpt>
      <trkpt lat="47.34063" lon="-1.2784">
        <ele>64</ele>
        <time>2015-01-11T10:16:45.000Z</time>
      </trkpt>
      <trkpt lat="47.34051" lon="-1.27837">
        <ele>65</ele>
        <time>2015-01-11T10:16:47.000Z</time>
      </trkpt>
      <trkpt lat="47.3404" lon="-1.27833">
        <ele>65</ele>
        <time>2015-01-11T10:16:49.000Z</time>
      </trkpt>
      <trkpt lat="47.34029" lon="-1.27829">
        <ele>65</ele>
        <time>2015-01-11T10:16:51.000Z</time>
      </trkpt>
      <trkpt lat="47.34016" lon="-1.27826">
        <ele>64</ele>
        <time>2015-01-11T10:16:53.000Z</time>
      </trkpt>
      <trkpt lat="47.34004" lon="-1.27822">
        <ele>64</ele>
        <time>2015-01-11T10:16:55.000Z</time>
      </trkpt>
      <trkpt lat="47.33992" lon="-1.27818">
        <ele>64</ele>
        <time>2015-01-11T10:16:57.000Z</time>
      </trkpt>
      <trkpt lat="47.33981" lon="-1.27815">
        <ele>64</ele>
        <time>2015-01-11T10:16:59.000Z</time>
      </trkpt>
      <trkpt lat="47.3397" lon="-1.27812">
        <ele>63</ele>
        <time>2015-01-11T10:17:01.000Z</time>
      </trkpt>
      <trkpt lat="47.33959" lon="-1.27808">
        <ele>63</ele>
        <time>2015-01-11T10:17:03.000Z</time>
      </trkpt>
      <trkpt lat="47.33949" lon="-1.27805">
        <ele>61</ele>
        <time>2015-01-11T10:17:05.000Z</time>
      </trkpt>
      <trkpt lat="47.33938" lon="-1.27802">
        <ele>62</ele>
        <time>2015-01-11T10:17:07.000Z</time>
      </trkpt>
      <trkpt lat="47.33926" lon="-1.27798">
        <ele>62</ele>
        <time>2015-01-11T10:17:09.000Z</time>
      </trkpt>
      <trkpt lat="47.33916" lon="-1.27793">
        <ele>63</ele>
        <time>2015-01-11T10:17:11.000Z</time>
      </trkpt>
      <trkpt lat="47.33905" lon="-1.2779">
        <ele>62</ele>
        <time>2015-01-11T10:17:13.000Z</time>
      </trkpt>
      <trkpt lat="47.33893" lon="-1.27787">
        <ele>64</ele>
        <time>2015-01-11T10:17:15.000Z</time>
      </trkpt>
      <trkpt lat="47.3388" lon="-1.27782">
        <ele>63</ele>
        <time>2015-01-11T10:17:17.000Z</time>
      </trkpt>
      <trkpt lat="47.33868" lon="-1.27777">
        <ele>63</ele>
        <time>2015-01-11T10:17:19.000Z</time>
      </trkpt>
      <trkpt lat="47.33854" lon="-1.27772">
        <ele>63</ele>
        <time>2015-01-11T10:17:21.000Z</time>
      </trkpt>
      <trkpt lat="47.33844" lon="-1.2777">
        <ele>63</ele>
        <time>2015-01-11T10:17:23.000Z</time>
      </trkpt>
      <trkpt lat="47.33831" lon="-1.27767">
        <ele>62</ele>
        <time>2015-01-11T10:17:25.000Z</time>
      </trkpt>
      <trkpt lat="47.33818" lon="-1.27762">
        <ele>63</ele>
        <time>2015-01-11T10:17:27.000Z</time>
      </trkpt>
      <trkpt lat="47.33805" lon="-1.27758">
        <ele>63</ele>
        <time>2015-01-11T10:17:29.000Z</time>
      </trkpt>
      <trkpt lat="47.33796" lon="-1.27754">
        <ele>63</ele>
        <time>2015-01-11T10:17:31.000Z</time>
      </trkpt>
      <trkpt lat="47.33783" lon="-1.27751">
        <ele>61</ele>
        <time>2015-01-11T10:17:33.000Z</time>
      </trkpt>
      <trkpt lat="47.33772" lon="-1.27747">
        <ele>61</ele>
        <time>2015-01-11T10:17:35.000Z</time>
      </trkpt>
      <trkpt lat="47.3376" lon="-1.27742">
        <ele>61</ele>
        <time>2015-01-11T10:17:37.000Z</time>
      </trkpt>
      <trkpt lat="47.33749" lon="-1.27741">
        <ele>59</ele>
        <time>2015-01-11T10:17:39.000Z</time>
      </trkpt>
      <trkpt lat="47.33748" lon="-1.27754">
        <ele>59</ele>
        <time>2015-01-11T10:17:42.000Z</time>
      </trkpt>
      <trkpt lat="47.33748" lon="-1.27754">
        <ele>59</ele>
        <time>2015-01-11T10:17:44.000Z</time>
      </trkpt>
      <trkpt lat="47.3375" lon="-1.27765">
        <ele>59</ele>
        <time>2015-01-11T10:17:46.000Z</time>
      </trkpt>
      <trkpt lat="47.33745" lon="-1.27773">
        <ele>59</ele>
        <time>2015-01-11T10:17:48.000Z</time>
      </trkpt>
      <trkpt lat="47.3374" lon="-1.27782">
        <ele>58</ele>
        <time>2015-01-11T10:17:50.000Z</time>
      </trkpt>
      <trkpt lat="47.33736" lon="-1.27792">
        <ele>58</ele>
        <time>2015-01-11T10:17:52.000Z</time>
      </trkpt>
      <trkpt lat="47.33731" lon="-1.27802">
        <ele>57</ele>
        <time>2015-01-11T10:17:54.000Z</time>
      </trkpt>
      <trkpt lat="47.33727" lon="-1.27811">
        <ele>56</ele>
        <time>2015-01-11T10:17:56.000Z</time>
      </trkpt>
      <trkpt lat="47.33724" lon="-1.27818">
        <ele>56</ele>
        <time>2015-01-11T10:17:58.000Z</time>
      </trkpt>
      <trkpt lat="47.33724" lon="-1.27818">
        <ele>56</ele>
        <time>2015-01-11T10:18:00.000Z</time>
      </trkpt>
      <trkpt lat="47.3372" lon="-1.27827">
        <ele>58</ele>
        <time>2015-01-11T10:18:02.000Z</time>
      </trkpt>
      <trkpt lat="47.3372" lon="-1.27827">
        <ele>58</ele>
        <time>2015-01-11T10:18:04.000Z</time>
      </trkpt>
      <trkpt lat="47.33715" lon="-1.27839">
        <ele>59</ele>
        <time>2015-01-11T10:18:06.000Z</time>
      </trkpt>
      <trkpt lat="47.33712" lon="-1.27848">
        <ele>58</ele>
        <time>2015-01-11T10:18:08.000Z</time>
      </trkpt>
      <trkpt lat="47.33708" lon="-1.27856">
        <ele>57</ele>
        <time>2015-01-11T10:18:10.000Z</time>
      </trkpt>
      <trkpt lat="47.33704" lon="-1.27864">
        <ele>57</ele>
        <time>2015-01-11T10:18:12.000Z</time>
      </trkpt>
      <trkpt lat="47.33701" lon="-1.27872">
        <ele>57</ele>
        <time>2015-01-11T10:18:14.000Z</time>
      </trkpt>
      <trkpt lat="47.33698" lon="-1.27882">
        <ele>56</ele>
        <time>2015-01-11T10:18:16.000Z</time>
      </trkpt>
      <trkpt lat="47.33695" lon="-1.27891">
        <ele>56</ele>
        <time>2015-01-11T10:18:18.000Z</time>
      </trkpt>
      <trkpt lat="47.33691" lon="-1.27902">
        <ele>56</ele>
        <time>2015-01-11T10:18:20.000Z</time>
      </trkpt>
      <trkpt lat="47.33688" lon="-1.27912">
        <ele>56</ele>
        <time>2015-01-11T10:18:22.000Z</time>
      </trkpt>
      <trkpt lat="47.33685" lon="-1.2792">
        <ele>56</ele>
        <time>2015-01-11T10:18:24.000Z</time>
      </trkpt>
      <trkpt lat="47.33681" lon="-1.27928">
        <ele>56</ele>
        <time>2015-01-11T10:18:26.000Z</time>
      </trkpt>
      <trkpt lat="47.33677" lon="-1.27936">
        <ele>57</ele>
        <time>2015-01-11T10:18:28.000Z</time>
      </trkpt>
      <trkpt lat="47.33673" lon="-1.27944">
        <ele>57</ele>
        <time>2015-01-11T10:18:30.000Z</time>
      </trkpt>
      <trkpt lat="47.33669" lon="-1.27951">
        <ele>56</ele>
        <time>2015-01-11T10:18:32.000Z</time>
      </trkpt>
      <trkpt lat="47.33666" lon="-1.27958">
        <ele>57</ele>
        <time>2015-01-11T10:18:34.000Z</time>
      </trkpt>
      <trkpt lat="47.33662" lon="-1.27966">
        <ele>57</ele>
        <time>2015-01-11T10:18:36.000Z</time>
      </trkpt>
      <trkpt lat="47.33659" lon="-1.27973">
        <ele>57</ele>
        <time>2015-01-11T10:18:38.000Z</time>
      </trkpt>
      <trkpt lat="47.33656" lon="-1.2798">
        <ele>58</ele>
        <time>2015-01-11T10:18:40.000Z</time>
      </trkpt>
      <trkpt lat="47.33656" lon="-1.2798">
        <ele>58</ele>
        <time>2015-01-11T10:18:42.000Z</time>
      </trkpt>
      <trkpt lat="47.33649" lon="-1.27995">
        <ele>59</ele>
        <time>2015-01-11T10:18:44.000Z</time>
      </trkpt>
      <trkpt lat="47.33649" lon="-1.27995">
        <ele>59</ele>
        <time>2015-01-11T10:18:46.000Z</time>
      </trkpt>
      <trkpt lat="47.33642" lon="-1.28003">
        <ele>62</ele>
        <time>2015-01-11T10:18:48.000Z</time>
      </trkpt>
      <trkpt lat="47.33642" lon="-1.28003">
        <ele>62</ele>
        <time>2015-01-11T10:18:50.000Z</time>
      </trkpt>
      <trkpt lat="47.33635" lon="-1.28015">
        <ele>62</ele>
        <time>2015-01-11T10:18:52.000Z</time>
      </trkpt>
      <trkpt lat="47.3363" lon="-1.28024">
        <ele>66</ele>
        <time>2015-01-11T10:18:54.000Z</time>
      </trkpt>
      <trkpt lat="47.33627" lon="-1.28032">
        <ele>64</ele>
        <time>2015-01-11T10:18:56.000Z</time>
      </trkpt>
      <trkpt lat="47.33623" lon="-1.28042">
        <ele>65</ele>
        <time>2015-01-11T10:18:58.000Z</time>
      </trkpt>
      <trkpt lat="47.33619" lon="-1.28053">
        <ele>65</ele>
        <time>2015-01-11T10:19:00.000Z</time>
      </trkpt>
      <trkpt lat="47.33616" lon="-1.28064">
        <ele>63</ele>
        <time>2015-01-11T10:19:02.000Z</time>
      </trkpt>
      <trkpt lat="47.33613" lon="-1.28074">
        <ele>64</ele>
        <time>2015-01-11T10:19:04.000Z</time>
      </trkpt>
      <trkpt lat="47.3361" lon="-1.28084">
        <ele>63</ele>
        <time>2015-01-11T10:19:06.000Z</time>
      </trkpt>
      <trkpt lat="47.33607" lon="-1.28094">
        <ele>63</ele>
        <time>2015-01-11T10:19:08.000Z</time>
      </trkpt>
      <trkpt lat="47.33605" lon="-1.28103">
        <ele>63</ele>
        <time>2015-01-11T10:19:10.000Z</time>
      </trkpt>
      <trkpt lat="47.33602" lon="-1.28112">
        <ele>61</ele>
        <time>2015-01-11T10:19:12.000Z</time>
      </trkpt>
      <trkpt lat="47.33599" lon="-1.28122">
        <ele>61</ele>
        <time>2015-01-11T10:19:14.000Z</time>
      </trkpt>
      <trkpt lat="47.33596" lon="-1.2813">
        <ele>61</ele>
        <time>2015-01-11T10:19:16.000Z</time>
      </trkpt>
      <trkpt lat="47.33592" lon="-1.28139">
        <ele>61</ele>
        <time>2015-01-11T10:19:18.000Z</time>
      </trkpt>
      <trkpt lat="47.3359" lon="-1.28147">
        <ele>60</ele>
        <time>2015-01-11T10:19:20.000Z</time>
      </trkpt>
      <trkpt lat="47.33588" lon="-1.28156">
        <ele>59</ele>
        <time>2015-01-11T10:19:22.000Z</time>
      </trkpt>
      <trkpt lat="47.33588" lon="-1.28156">
        <ele>59</ele>
        <time>2015-01-11T10:19:24.000Z</time>
      </trkpt>
      <trkpt lat="47.33584" lon="-1.2817">
        <ele>60</ele>
        <time>2015-01-11T10:19:26.000Z</time>
      </trkpt>
      <trkpt lat="47.33582" lon="-1.28177">
        <ele>59</ele>
        <time>2015-01-11T10:19:28.000Z</time>
      </trkpt>
      <trkpt lat="47.33578" lon="-1.28185">
        <ele>59</ele>
        <time>2015-01-11T10:19:30.000Z</time>
      </trkpt>
      <trkpt lat="47.33575" lon="-1.28193">
        <ele>59</ele>
        <time>2015-01-11T10:19:32.000Z</time>
      </trkpt>
      <trkpt lat="47.33572" lon="-1.282">
        <ele>59</ele>
        <time>2015-01-11T10:19:34.000Z</time>
      </trkpt>
      <trkpt lat="47.33569" lon="-1.28209">
        <ele>59</ele>
        <time>2015-01-11T10:19:36.000Z</time>
      </trkpt>
      <trkpt lat="47.33566" lon="-1.28217">
        <ele>58</ele>
        <time>2015-01-11T10:19:38.000Z</time>
      </trkpt>
      <trkpt lat="47.33563" lon="-1.28225">
        <ele>58</ele>
        <time>2015-01-11T10:19:40.000Z</time>
      </trkpt>
      <trkpt lat="47.33561" lon="-1.28233">
        <ele>58</ele>
        <time>2015-01-11T10:19:42.000Z</time>
      </trkpt>
      <trkpt lat="47.33558" lon="-1.28241">
        <ele>59</ele>
        <time>2015-01-11T10:19:44.000Z</time>
      </trkpt>
      <trkpt lat="47.33555" lon="-1.28248">
        <ele>61</ele>
        <time>2015-01-11T10:19:46.000Z</time>
      </trkpt>
      <trkpt lat="47.33555" lon="-1.28248">
        <ele>61</ele>
        <time>2015-01-11T10:19:48.000Z</time>
      </trkpt>
      <trkpt lat="47.3355" lon="-1.28263">
        <ele>61</ele>
        <time>2015-01-11T10:19:50.000Z</time>
      </trkpt>
      <trkpt lat="47.33548" lon="-1.28271">
        <ele>62</ele>
        <time>2015-01-11T10:19:52.000Z</time>
      </trkpt>
      <trkpt lat="47.33547" lon="-1.2828">
        <ele>63</ele>
        <time>2015-01-11T10:19:54.000Z</time>
      </trkpt>
      <trkpt lat="47.33547" lon="-1.2828">
        <ele>63</ele>
        <time>2015-01-11T10:19:56.000Z</time>
      </trkpt>
      <trkpt lat="47.33546" lon="-1.28293">
        <ele>65</ele>
        <time>2015-01-11T10:19:58.000Z</time>
      </trkpt>
      <trkpt lat="47.33546" lon="-1.28293">
        <ele>65</ele>
        <time>2015-01-11T10:20:00.000Z</time>
      </trkpt>
      <trkpt lat="47.33544" lon="-1.28306">
        <ele>65</ele>
        <time>2015-01-11T10:20:02.000Z</time>
      </trkpt>
      <trkpt lat="47.33544" lon="-1.28315">
        <ele>66</ele>
        <time>2015-01-11T10:20:04.000Z</time>
      </trkpt>
      <trkpt lat="47.33543" lon="-1.28324">
        <ele>66</ele>
        <time>2015-01-11T10:20:06.000Z</time>
      </trkpt>
      <trkpt lat="47.33541" lon="-1.28335">
        <ele>67</ele>
        <time>2015-01-11T10:20:08.000Z</time>
      </trkpt>
      <trkpt lat="47.33541" lon="-1.28345">
        <ele>68</ele>
        <time>2015-01-11T10:20:10.000Z</time>
      </trkpt>
      <trkpt lat="47.33541" lon="-1.28345">
        <ele>68</ele>
        <time>2015-01-11T10:20:12.000Z</time>
      </trkpt>
      <trkpt lat="47.33543" lon="-1.28356">
        <ele>72</ele>
        <time>2015-01-11T10:20:14.000Z</time>
      </trkpt>
      <trkpt lat="47.33543" lon="-1.28356">
        <ele>72</ele>
        <time>2015-01-11T10:20:16.000Z</time>
      </trkpt>
      <trkpt lat="47.33542" lon="-1.28367">
        <ele>78</ele>
        <time>2015-01-11T10:20:18.000Z</time>
      </trkpt>
      <trkpt lat="47.33542" lon="-1.28367">
        <ele>78</ele>
        <time>2015-01-11T10:20:20.000Z</time>
      </trkpt>
      <trkpt lat="47.33541" lon="-1.2838">
        <ele>77</ele>
        <time>2015-01-11T10:20:22.000Z</time>
      </trkpt>
      <trkpt lat="47.33541" lon="-1.28387">
        <ele>79</ele>
        <time>2015-01-11T10:20:26.000Z</time>
      </trkpt>
      <trkpt lat="47.33541" lon="-1.28393">
        <ele>79</ele>
        <time>2015-01-11T10:20:28.000Z</time>
      </trkpt>
      <trkpt lat="47.33541" lon="-1.28398">
        <ele>79</ele>
        <time>2015-01-11T10:20:30.000Z</time>
      </trkpt>
      <trkpt lat="47.33541" lon="-1.28403">
        <ele>78</ele>
        <time>2015-01-11T10:20:32.000Z</time>
      </trkpt>
      <trkpt lat="47.33541" lon="-1.28408">
        <ele>78</ele>
        <time>2015-01-11T10:20:34.000Z</time>
      </trkpt>
      <trkpt lat="47.33541" lon="-1.28408">
        <ele>78</ele>
        <time>2015-01-11T10:20:36.000Z</time>
      </trkpt>
      <trkpt lat="47.33541" lon="-1.28408">
        <ele>78</ele>
        <time>2015-01-11T10:20:38.000Z</time>
      </trkpt>
      <trkpt lat="47.33541" lon="-1.28408">
        <ele>78</ele>
        <time>2015-01-11T10:20:40.000Z</time>
      </trkpt>
      <trkpt lat="47.33534" lon="-1.28439">
        <ele>78</ele>
        <time>2015-01-11T10:21:08.000Z</time>
      </trkpt>
      <trkpt lat="47.33531" lon="-1.28451">
        <ele>79</ele>
        <time>2015-01-11T10:21:12.000Z</time>
      </trkpt>
      <trkpt lat="47.3353" lon="-1.28462">
        <ele>80</ele>
        <time>2015-01-11T10:21:16.000Z</time>
      </trkpt>
      <trkpt lat="47.3353" lon="-1.28462">
        <ele>80</ele>
        <time>2015-01-11T10:21:18.000Z</time>
      </trkpt>
      <trkpt lat="47.3353" lon="-1.28462">
        <ele>80</ele>
        <time>2015-01-11T10:21:20.000Z</time>
      </trkpt>
      <trkpt lat="47.33528" lon="-1.2847">
        <ele>79</ele>
        <time>2015-01-11T10:21:22.000Z</time>
      </trkpt>
      <trkpt lat="47.33526" lon="-1.28481">
        <ele>79</ele>
        <time>2015-01-11T10:21:26.000Z</time>
      </trkpt>
      <trkpt lat="47.33525" lon="-1.28493">
        <ele>81</ele>
        <time>2015-01-11T10:21:30.000Z</time>
      </trkpt>
      <trkpt lat="47.33523" lon="-1.28506">
        <ele>82</ele>
        <time>2015-01-11T10:21:34.000Z</time>
      </trkpt>
      <trkpt lat="47.33517" lon="-1.28518">
        <ele>81</ele>
        <time>2015-01-11T10:21:38.000Z</time>
      </trkpt>
      <trkpt lat="47.33511" lon="-1.28532">
        <ele>79</ele>
        <time>2015-01-11T10:21:42.000Z</time>
      </trkpt>
      <trkpt lat="47.33509" lon="-1.2854">
        <ele>79</ele>
        <time>2015-01-11T10:21:44.000Z</time>
      </trkpt>
      <trkpt lat="47.33506" lon="-1.28548">
        <ele>80</ele>
        <time>2015-01-11T10:21:46.000Z</time>
      </trkpt>
      <trkpt lat="47.33501" lon="-1.28562">
        <ele>81</ele>
        <time>2015-01-11T10:21:50.000Z</time>
      </trkpt>
      <trkpt lat="47.33501" lon="-1.28562">
        <ele>81</ele>
        <time>2015-01-11T10:21:52.000Z</time>
      </trkpt>
      <trkpt lat="47.33497" lon="-1.28575">
        <ele>80</ele>
        <time>2015-01-11T10:21:54.000Z</time>
      </trkpt>
      <trkpt lat="47.33497" lon="-1.28575">
        <ele>80</ele>
        <time>2015-01-11T10:21:56.000Z</time>
      </trkpt>
      <trkpt lat="47.33494" lon="-1.2859">
        <ele>80</ele>
        <time>2015-01-11T10:21:58.000Z</time>
      </trkpt>
      <trkpt lat="47.33492" lon="-1.28599">
        <ele>80</ele>
        <time>2015-01-11T10:22:00.000Z</time>
      </trkpt>
      <trkpt lat="47.3349" lon="-1.28607">
        <ele>80</ele>
        <time>2015-01-11T10:22:02.000Z</time>
      </trkpt>
      <trkpt lat="47.33487" lon="-1.28615">
        <ele>79</ele>
        <time>2015-01-11T10:22:04.000Z</time>
      </trkpt>
      <trkpt lat="47.33485" lon="-1.28628">
        <ele>78</ele>
        <time>2015-01-11T10:22:08.000Z</time>
      </trkpt>
      <trkpt lat="47.33485" lon="-1.28628">
        <ele>78</ele>
        <time>2015-01-11T10:22:10.000Z</time>
      </trkpt>
      <trkpt lat="47.33485" lon="-1.28628">
        <ele>78</ele>
        <time>2015-01-11T10:22:12.000Z</time>
      </trkpt>
      <trkpt lat="47.33485" lon="-1.28628">
        <ele>78</ele>
        <time>2015-01-11T10:22:14.000Z</time>
      </trkpt>
      <trkpt lat="47.3348" lon="-1.28644">
        <ele>75</ele>
        <time>2015-01-11T10:22:26.000Z</time>
      </trkpt>
      <trkpt lat="47.33477" lon="-1.28656">
        <ele>74</ele>
        <time>2015-01-11T10:22:28.000Z</time>
      </trkpt>
      <trkpt lat="47.33473" lon="-1.28668">
        <ele>73</ele>
        <time>2015-01-11T10:22:30.000Z</time>
      </trkpt>
      <trkpt lat="47.3347" lon="-1.28679">
        <ele>70</ele>
        <time>2015-01-11T10:22:32.000Z</time>
      </trkpt>
      <trkpt lat="47.33466" lon="-1.28692">
        <ele>68</ele>
        <time>2015-01-11T10:22:34.000Z</time>
      </trkpt>
      <trkpt lat="47.33458" lon="-1.28713">
        <ele>68</ele>
        <time>2015-01-11T10:22:36.000Z</time>
      </trkpt>
      <trkpt lat="47.33458" lon="-1.28713">
        <ele>68</ele>
        <time>2015-01-11T10:22:38.000Z</time>
      </trkpt>
      <trkpt lat="47.33458" lon="-1.28713">
        <ele>68</ele>
        <time>2015-01-11T10:22:40.000Z</time>
      </trkpt>
      <trkpt lat="47.33458" lon="-1.28713">
        <ele>68</ele>
        <time>2015-01-11T10:22:42.000Z</time>
      </trkpt>
      <trkpt lat="47.33458" lon="-1.28713">
        <ele>68</ele>
        <time>2015-01-11T10:22:44.000Z</time>
      </trkpt>
      <trkpt lat="47.33458" lon="-1.28713">
        <ele>68</ele>
        <time>2015-01-11T10:22:48.000Z</time>
      </trkpt>
      <trkpt lat="47.33458" lon="-1.28713">
        <ele>68</ele>
        <time>2015-01-11T10:22:50.000Z</time>
      </trkpt>
      <trkpt lat="47.33452" lon="-1.28732">
        <ele>63</ele>
        <time>2015-01-11T10:23:44.000Z</time>
      </trkpt>
      <trkpt lat="47.33447" lon="-1.28745">
        <ele>63</ele>
        <time>2015-01-11T10:23:46.000Z</time>
      </trkpt>
      <trkpt lat="47.33441" lon="-1.28754">
        <ele>63</ele>
        <time>2015-01-11T10:23:48.000Z</time>
      </trkpt>
      <trkpt lat="47.33436" lon="-1.28763">
        <ele>62</ele>
        <time>2015-01-11T10:23:50.000Z</time>
      </trkpt>
      <trkpt lat="47.3343" lon="-1.28772">
        <ele>61</ele>
        <time>2015-01-11T10:23:52.000Z</time>
      </trkpt>
      <trkpt lat="47.33421" lon="-1.28791">
        <ele>61</ele>
        <time>2015-01-11T10:23:54.000Z</time>
      </trkpt>
      <trkpt lat="47.33416" lon="-1.28801">
        <ele>60</ele>
        <time>2015-01-11T10:23:56.000Z</time>
      </trkpt>
      <trkpt lat="47.3341" lon="-1.28815">
        <ele>60</ele>
        <time>2015-01-11T10:23:58.000Z</time>
      </trkpt>
      <trkpt lat="47.33403" lon="-1.28825">
        <ele>61</ele>
        <time>2015-01-11T10:24:00.000Z</time>
      </trkpt>
      <trkpt lat="47.33398" lon="-1.28836">
        <ele>61</ele>
        <time>2015-01-11T10:24:02.000Z</time>
      </trkpt>
      <trkpt lat="47.33393" lon="-1.28847">
        <ele>61</ele>
        <time>2015-01-11T10:24:04.000Z</time>
      </trkpt>
      <trkpt lat="47.33389" lon="-1.28858">
        <ele>61</ele>
        <time>2015-01-11T10:24:06.000Z</time>
      </trkpt>
      <trkpt lat="47.33382" lon="-1.28868">
        <ele>61</ele>
        <time>2015-01-11T10:24:08.000Z</time>
      </trkpt>
      <trkpt lat="47.33378" lon="-1.28878">
        <ele>60</ele>
        <time>2015-01-11T10:24:10.000Z</time>
      </trkpt>
      <trkpt lat="47.33372" lon="-1.28886">
        <ele>60</ele>
        <time>2015-01-11T10:24:12.000Z</time>
      </trkpt>
      <trkpt lat="47.33366" lon="-1.28894">
        <ele>59</ele>
        <time>2015-01-11T10:24:14.000Z</time>
      </trkpt>
      <trkpt lat="47.33361" lon="-1.28903">
        <ele>59</ele>
        <time>2015-01-11T10:24:16.000Z</time>
      </trkpt>
      <trkpt lat="47.33357" lon="-1.28913">
        <ele>59</ele>
        <time>2015-01-11T10:24:18.000Z</time>
      </trkpt>
      <trkpt lat="47.33353" lon="-1.28923">
        <ele>59</ele>
        <time>2015-01-11T10:24:20.000Z</time>
      </trkpt>
      <trkpt lat="47.33348" lon="-1.28932">
        <ele>60</ele>
        <time>2015-01-11T10:24:22.000Z</time>
      </trkpt>
      <trkpt lat="47.33344" lon="-1.28941">
        <ele>60</ele>
        <time>2015-01-11T10:24:24.000Z</time>
      </trkpt>
      <trkpt lat="47.33339" lon="-1.28951">
        <ele>60</ele>
        <time>2015-01-11T10:24:26.000Z</time>
      </trkpt>
      <trkpt lat="47.33334" lon="-1.2896">
        <ele>60</ele>
        <time>2015-01-11T10:24:28.000Z</time>
      </trkpt>
      <trkpt lat="47.33329" lon="-1.2897">
        <ele>60</ele>
        <time>2015-01-11T10:24:30.000Z</time>
      </trkpt>
      <trkpt lat="47.33324" lon="-1.28979">
        <ele>59</ele>
        <time>2015-01-11T10:24:32.000Z</time>
      </trkpt>
      <trkpt lat="47.33319" lon="-1.28989">
        <ele>58</ele>
        <time>2015-01-11T10:24:34.000Z</time>
      </trkpt>
      <trkpt lat="47.33314" lon="-1.28998">
        <ele>59</ele>
        <time>2015-01-11T10:24:36.000Z</time>
      </trkpt>
      <trkpt lat="47.33309" lon="-1.29007">
        <ele>60</ele>
        <time>2015-01-11T10:24:38.000Z</time>
      </trkpt>
      <trkpt lat="47.33305" lon="-1.29014">
        <ele>61</ele>
        <time>2015-01-11T10:24:40.000Z</time>
      </trkpt>
      <trkpt lat="47.333" lon="-1.2902">
        <ele>62</ele>
        <time>2015-01-11T10:24:42.000Z</time>
      </trkpt>
      <trkpt lat="47.33296" lon="-1.29026">
        <ele>62</ele>
        <time>2015-01-11T10:24:44.000Z</time>
      </trkpt>
      <trkpt lat="47.33296" lon="-1.29026">
        <ele>62</ele>
        <time>2015-01-11T10:24:46.000Z</time>
      </trkpt>
      <trkpt lat="47.3329" lon="-1.29037">
        <ele>65</ele>
        <time>2015-01-11T10:24:48.000Z</time>
      </trkpt>
      <trkpt lat="47.3329" lon="-1.29037">
        <ele>65</ele>
        <time>2015-01-11T10:24:50.000Z</time>
      </trkpt>
      <trkpt lat="47.33284" lon="-1.29049">
        <ele>66</ele>
        <time>2015-01-11T10:24:52.000Z</time>
      </trkpt>
      <trkpt lat="47.33284" lon="-1.29049">
        <ele>66</ele>
        <time>2015-01-11T10:24:54.000Z</time>
      </trkpt>
      <trkpt lat="47.33277" lon="-1.2906">
        <ele>68</ele>
        <time>2015-01-11T10:24:56.000Z</time>
      </trkpt>
      <trkpt lat="47.33277" lon="-1.2906">
        <ele>68</ele>
        <time>2015-01-11T10:24:58.000Z</time>
      </trkpt>
      <trkpt lat="47.33272" lon="-1.29072">
        <ele>72</ele>
        <time>2015-01-11T10:25:00.000Z</time>
      </trkpt>
      <trkpt lat="47.33272" lon="-1.29072">
        <ele>72</ele>
        <time>2015-01-11T10:25:02.000Z</time>
      </trkpt>
      <trkpt lat="47.33264" lon="-1.29084">
        <ele>73</ele>
        <time>2015-01-11T10:25:04.000Z</time>
      </trkpt>
      <trkpt lat="47.33259" lon="-1.2909">
        <ele>72</ele>
        <time>2015-01-11T10:25:06.000Z</time>
      </trkpt>
      <trkpt lat="47.33253" lon="-1.29097">
        <ele>73</ele>
        <time>2015-01-11T10:25:08.000Z</time>
      </trkpt>
      <trkpt lat="47.33249" lon="-1.29105">
        <ele>74</ele>
        <time>2015-01-11T10:25:10.000Z</time>
      </trkpt>
      <trkpt lat="47.33244" lon="-1.29112">
        <ele>75</ele>
        <time>2015-01-11T10:25:12.000Z</time>
      </trkpt>
      <trkpt lat="47.33238" lon="-1.29119">
        <ele>73</ele>
        <time>2015-01-11T10:25:14.000Z</time>
      </trkpt>
      <trkpt lat="47.33231" lon="-1.29125">
        <ele>71</ele>
        <time>2015-01-11T10:25:16.000Z</time>
      </trkpt>
      <trkpt lat="47.33224" lon="-1.2913">
        <ele>69</ele>
        <time>2015-01-11T10:25:18.000Z</time>
      </trkpt>
      <trkpt lat="47.33218" lon="-1.29135">
        <ele>67</ele>
        <time>2015-01-11T10:25:20.000Z</time>
      </trkpt>
      <trkpt lat="47.33218" lon="-1.29135">
        <ele>67</ele>
        <time>2015-01-11T10:25:22.000Z</time>
      </trkpt>
      <trkpt lat="47.33211" lon="-1.29137">
        <ele>64</ele>
        <time>2015-01-11T10:25:24.000Z</time>
      </trkpt>
      <trkpt lat="47.33211" lon="-1.29137">
        <ele>64</ele>
        <time>2015-01-11T10:25:26.000Z</time>
      </trkpt>
      <trkpt lat="47.33211" lon="-1.29137">
        <ele>64</ele>
        <time>2015-01-11T10:25:28.000Z</time>
      </trkpt>
      <trkpt lat="47.33205" lon="-1.29142">
        <ele>63</ele>
        <time>2015-01-11T10:25:32.000Z</time>
      </trkpt>
      <trkpt lat="47.33205" lon="-1.29142">
        <ele>63</ele>
        <time>2015-01-11T10:25:36.000Z</time>
      </trkpt>
      <trkpt lat="47.33205" lon="-1.29142">
        <ele>63</ele>
        <time>2015-01-11T10:25:38.000Z</time>
      </trkpt>
      <trkpt lat="47.33205" lon="-1.29142">
        <ele>63</ele>
        <time>2015-01-11T10:25:40.000Z</time>
      </trkpt>
      <trkpt lat="47.33184" lon="-1.2916">
        <ele>60</ele>
        <time>2015-01-11T10:25:50.000Z</time>
      </trkpt>
      <trkpt lat="47.33179" lon="-1.29166">
        <ele>61</ele>
        <time>2015-01-11T10:25:52.000Z</time>
      </trkpt>
      <trkpt lat="47.33174" lon="-1.29172">
        <ele>61</ele>
        <time>2015-01-11T10:25:54.000Z</time>
      </trkpt>
      <trkpt lat="47.3317" lon="-1.2918">
        <ele>60</ele>
        <time>2015-01-11T10:25:56.000Z</time>
      </trkpt>
      <trkpt lat="47.33169" lon="-1.29191">
        <ele>60</ele>
        <time>2015-01-11T10:25:58.000Z</time>
      </trkpt>
      <trkpt lat="47.33168" lon="-1.29202">
        <ele>61</ele>
        <time>2015-01-11T10:26:00.000Z</time>
      </trkpt>
      <trkpt lat="47.33167" lon="-1.29213">
        <ele>60</ele>
        <time>2015-01-11T10:26:02.000Z</time>
      </trkpt>
      <trkpt lat="47.33167" lon="-1.29224">
        <ele>62</ele>
        <time>2015-01-11T10:26:04.000Z</time>
      </trkpt>
      <trkpt lat="47.33164" lon="-1.29232">
        <ele>62</ele>
        <time>2015-01-11T10:26:06.000Z</time>
      </trkpt>
      <trkpt lat="47.33158" lon="-1.29237">
        <ele>62</ele>
        <time>2015-01-11T10:26:08.000Z</time>
      </trkpt>
      <trkpt lat="47.33153" lon="-1.29243">
        <ele>63</ele>
        <time>2015-01-11T10:26:10.000Z</time>
      </trkpt>
      <trkpt lat="47.33148" lon="-1.2925">
        <ele>63</ele>
        <time>2015-01-11T10:26:12.000Z</time>
      </trkpt>
      <trkpt lat="47.33144" lon="-1.29256">
        <ele>64</ele>
        <time>2015-01-11T10:26:14.000Z</time>
      </trkpt>
      <trkpt lat="47.33144" lon="-1.29256">
        <ele>64</ele>
        <time>2015-01-11T10:26:16.000Z</time>
      </trkpt>
      <trkpt lat="47.33138" lon="-1.29249">
        <ele>65</ele>
        <time>2015-01-11T10:26:18.000Z</time>
      </trkpt>
      <trkpt lat="47.33137" lon="-1.2924">
        <ele>66</ele>
        <time>2015-01-11T10:26:20.000Z</time>
      </trkpt>
      <trkpt lat="47.33134" lon="-1.29231">
        <ele>67</ele>
        <time>2015-01-11T10:26:22.000Z</time>
      </trkpt>
      <trkpt lat="47.33131" lon="-1.29225">
        <ele>68</ele>
        <time>2015-01-11T10:26:24.000Z</time>
      </trkpt>
      <trkpt lat="47.33126" lon="-1.2922">
        <ele>68</ele>
        <time>2015-01-11T10:26:26.000Z</time>
      </trkpt>
      <trkpt lat="47.3312" lon="-1.29219">
        <ele>68</ele>
        <time>2015-01-11T10:26:28.000Z</time>
      </trkpt>
      <trkpt lat="47.33113" lon="-1.29218">
        <ele>68</ele>
        <time>2015-01-11T10:26:30.000Z</time>
      </trkpt>
      <trkpt lat="47.33108" lon="-1.29217">
        <ele>68</ele>
        <time>2015-01-11T10:26:32.000Z</time>
      </trkpt>
      <trkpt lat="47.33108" lon="-1.29217">
        <ele>68</ele>
        <time>2015-01-11T10:26:34.000Z</time>
      </trkpt>
      <trkpt lat="47.33099" lon="-1.29215">
        <ele>71</ele>
        <time>2015-01-11T10:26:36.000Z</time>
      </trkpt>
      <trkpt lat="47.33099" lon="-1.29215">
        <ele>71</ele>
        <time>2015-01-11T10:26:38.000Z</time>
      </trkpt>
      <trkpt lat="47.33089" lon="-1.29211">
        <ele>73</ele>
        <time>2015-01-11T10:26:40.000Z</time>
      </trkpt>
      <trkpt lat="47.33083" lon="-1.29207">
        <ele>74</ele>
        <time>2015-01-11T10:26:42.000Z</time>
      </trkpt>
      <trkpt lat="47.33078" lon="-1.29203">
        <ele>77</ele>
        <time>2015-01-11T10:26:44.000Z</time>
      </trkpt>
      <trkpt lat="47.33073" lon="-1.292">
        <ele>78</ele>
        <time>2015-01-11T10:26:46.000Z</time>
      </trkpt>
      <trkpt lat="47.33062" lon="-1.29194">
        <ele>81</ele>
        <time>2015-01-11T10:26:50.000Z</time>
      </trkpt>
      <trkpt lat="47.33052" lon="-1.29186">
        <ele>82</ele>
        <time>2015-01-11T10:26:54.000Z</time>
      </trkpt>
      <trkpt lat="47.33043" lon="-1.29177">
        <ele>82</ele>
        <time>2015-01-11T10:26:58.000Z</time>
      </trkpt>
      <trkpt lat="47.33038" lon="-1.29172">
        <ele>83</ele>
        <time>2015-01-11T10:27:00.000Z</time>
      </trkpt>
      <trkpt lat="47.3303" lon="-1.29162">
        <ele>85</ele>
        <time>2015-01-11T10:27:04.000Z</time>
      </trkpt>
      <trkpt lat="47.3303" lon="-1.29162">
        <ele>85</ele>
        <time>2015-01-11T10:27:06.000Z</time>
      </trkpt>
      <trkpt lat="47.33023" lon="-1.29151">
        <ele>88</ele>
        <time>2015-01-11T10:27:08.000Z</time>
      </trkpt>
      <trkpt lat="47.33023" lon="-1.29151">
        <ele>88</ele>
        <time>2015-01-11T10:27:10.000Z</time>
      </trkpt>
      <trkpt lat="47.33016" lon="-1.29141">
        <ele>89</ele>
        <time>2015-01-11T10:27:12.000Z</time>
      </trkpt>
      <trkpt lat="47.33016" lon="-1.29141">
        <ele>89</ele>
        <time>2015-01-11T10:27:14.000Z</time>
      </trkpt>
      <trkpt lat="47.33009" lon="-1.2913">
        <ele>91</ele>
        <time>2015-01-11T10:27:16.000Z</time>
      </trkpt>
      <trkpt lat="47.33009" lon="-1.2913">
        <ele>91</ele>
        <time>2015-01-11T10:27:18.000Z</time>
      </trkpt>
      <trkpt lat="47.33003" lon="-1.29118">
        <ele>92</ele>
        <time>2015-01-11T10:27:20.000Z</time>
      </trkpt>
      <trkpt lat="47.33003" lon="-1.29118">
        <ele>92</ele>
        <time>2015-01-11T10:27:22.000Z</time>
      </trkpt>
      <trkpt lat="47.32997" lon="-1.29107">
        <ele>94</ele>
        <time>2015-01-11T10:27:24.000Z</time>
      </trkpt>
      <trkpt lat="47.32997" lon="-1.29107">
        <ele>94</ele>
        <time>2015-01-11T10:27:26.000Z</time>
      </trkpt>
      <trkpt lat="47.32994" lon="-1.29101">
        <ele>95</ele>
        <time>2015-01-11T10:27:28.000Z</time>
      </trkpt>
      <trkpt lat="47.32991" lon="-1.29095">
        <ele>96</ele>
        <time>2015-01-11T10:27:30.000Z</time>
      </trkpt>
      <trkpt lat="47.32988" lon="-1.29089">
        <ele>96</ele>
        <time>2015-01-11T10:27:32.000Z</time>
      </trkpt>
      <trkpt lat="47.32985" lon="-1.29084">
        <ele>96</ele>
        <time>2015-01-11T10:27:34.000Z</time>
      </trkpt>
      <trkpt lat="47.32981" lon="-1.29079">
        <ele>96</ele>
        <time>2015-01-11T10:27:36.000Z</time>
      </trkpt>
      <trkpt lat="47.32974" lon="-1.29069">
        <ele>97</ele>
        <time>2015-01-11T10:27:38.000Z</time>
      </trkpt>
      <trkpt lat="47.32967" lon="-1.2906">
        <ele>97</ele>
        <time>2015-01-11T10:27:42.000Z</time>
      </trkpt>
      <trkpt lat="47.32967" lon="-1.2906">
        <ele>97</ele>
        <time>2015-01-11T10:27:44.000Z</time>
      </trkpt>
      <trkpt lat="47.32959" lon="-1.29053">
        <ele>99</ele>
        <time>2015-01-11T10:27:46.000Z</time>
      </trkpt>
      <trkpt lat="47.32959" lon="-1.29053">
        <ele>99</ele>
        <time>2015-01-11T10:27:48.000Z</time>
      </trkpt>
      <trkpt lat="47.32952" lon="-1.29046">
        <ele>100</ele>
        <time>2015-01-11T10:27:50.000Z</time>
      </trkpt>
      <trkpt lat="47.32952" lon="-1.29046">
        <ele>100</ele>
        <time>2015-01-11T10:27:53.000Z</time>
      </trkpt>
      <trkpt lat="47.32952" lon="-1.29046">
        <ele>100</ele>
        <time>2015-01-11T10:27:55.000Z</time>
      </trkpt>
      <trkpt lat="47.32952" lon="-1.29046">
        <ele>100</ele>
        <time>2015-01-11T10:27:57.000Z</time>
      </trkpt>
      <trkpt lat="47.32952" lon="-1.29046">
        <ele>100</ele>
        <time>2015-01-11T10:27:59.000Z</time>
      </trkpt>
      <trkpt lat="47.32949" lon="-1.29057">
        <ele>102</ele>
        <time>2015-01-11T10:28:47.000Z</time>
      </trkpt>
      <trkpt lat="47.32945" lon="-1.29064">
        <ele>102</ele>
        <time>2015-01-11T10:28:49.000Z</time>
      </trkpt>
      <trkpt lat="47.32941" lon="-1.2907">
        <ele>102</ele>
        <time>2015-01-11T10:28:51.000Z</time>
      </trkpt>
      <trkpt lat="47.32938" lon="-1.29075">
        <ele>102</ele>
        <time>2015-01-11T10:28:53.000Z</time>
      </trkpt>
      <trkpt lat="47.32935" lon="-1.2908">
        <ele>101</ele>
        <time>2015-01-11T10:28:55.000Z</time>
      </trkpt>
      <trkpt lat="47.32928" lon="-1.29091">
        <ele>101</ele>
        <time>2015-01-11T10:28:57.000Z</time>
      </trkpt>
      <trkpt lat="47.32921" lon="-1.291">
        <ele>101</ele>
        <time>2015-01-11T10:29:01.000Z</time>
      </trkpt>
      <trkpt lat="47.32921" lon="-1.291">
        <ele>101</ele>
        <time>2015-01-11T10:29:03.000Z</time>
      </trkpt>
      <trkpt lat="47.32917" lon="-1.29113">
        <ele>101</ele>
        <time>2015-01-11T10:29:05.000Z</time>
      </trkpt>
      <trkpt lat="47.32916" lon="-1.29122">
        <ele>100</ele>
        <time>2015-01-11T10:29:07.000Z</time>
      </trkpt>
      <trkpt lat="47.32917" lon="-1.29138">
        <ele>99</ele>
        <time>2015-01-11T10:29:09.000Z</time>
      </trkpt>
      <trkpt lat="47.32914" lon="-1.29153">
        <ele>98</ele>
        <time>2015-01-11T10:29:11.000Z</time>
      </trkpt>
      <trkpt lat="47.32907" lon="-1.29167">
        <ele>97</ele>
        <time>2015-01-11T10:29:13.000Z</time>
      </trkpt>
      <trkpt lat="47.32899" lon="-1.29178">
        <ele>97</ele>
        <time>2015-01-11T10:29:15.000Z</time>
      </trkpt>
      <trkpt lat="47.32892" lon="-1.29189">
        <ele>96</ele>
        <time>2015-01-11T10:29:17.000Z</time>
      </trkpt>
      <trkpt lat="47.32886" lon="-1.292">
        <ele>96</ele>
        <time>2015-01-11T10:29:19.000Z</time>
      </trkpt>
      <trkpt lat="47.3288" lon="-1.2921">
        <ele>96</ele>
        <time>2015-01-11T10:29:21.000Z</time>
      </trkpt>
      <trkpt lat="47.32876" lon="-1.29221">
        <ele>96</ele>
        <time>2015-01-11T10:29:23.000Z</time>
      </trkpt>
      <trkpt lat="47.32872" lon="-1.29232">
        <ele>95</ele>
        <time>2015-01-11T10:29:25.000Z</time>
      </trkpt>
      <trkpt lat="47.32868" lon="-1.29243">
        <ele>95</ele>
        <time>2015-01-11T10:29:27.000Z</time>
      </trkpt>
      <trkpt lat="47.32866" lon="-1.29254">
        <ele>95</ele>
        <time>2015-01-11T10:29:29.000Z</time>
      </trkpt>
      <trkpt lat="47.32867" lon="-1.29265">
        <ele>94</ele>
        <time>2015-01-11T10:29:31.000Z</time>
      </trkpt>
      <trkpt lat="47.3287" lon="-1.29276">
        <ele>93</ele>
        <time>2015-01-11T10:29:33.000Z</time>
      </trkpt>
      <trkpt lat="47.32874" lon="-1.29288">
        <ele>91</ele>
        <time>2015-01-11T10:29:35.000Z</time>
      </trkpt>
      <trkpt lat="47.32877" lon="-1.29299">
        <ele>91</ele>
        <time>2015-01-11T10:29:37.000Z</time>
      </trkpt>
      <trkpt lat="47.3288" lon="-1.29309">
        <ele>93</ele>
        <time>2015-01-11T10:29:39.000Z</time>
      </trkpt>
      <trkpt lat="47.32882" lon="-1.29317">
        <ele>93</ele>
        <time>2015-01-11T10:29:41.000Z</time>
      </trkpt>
      <trkpt lat="47.32882" lon="-1.29317">
        <ele>93</ele>
        <time>2015-01-11T10:29:43.000Z</time>
      </trkpt>
      <trkpt lat="47.32887" lon="-1.2933">
        <ele>94</ele>
        <time>2015-01-11T10:29:45.000Z</time>
      </trkpt>
      <trkpt lat="47.32887" lon="-1.2933">
        <ele>94</ele>
        <time>2015-01-11T10:29:47.000Z</time>
      </trkpt>
      <trkpt lat="47.32884" lon="-1.29347">
        <ele>91</ele>
        <time>2015-01-11T10:29:49.000Z</time>
      </trkpt>
      <trkpt lat="47.32878" lon="-1.2935">
        <ele>92</ele>
        <time>2015-01-11T10:29:51.000Z</time>
      </trkpt>
      <trkpt lat="47.32872" lon="-1.29351">
        <ele>92</ele>
        <time>2015-01-11T10:29:53.000Z</time>
      </trkpt>
      <trkpt lat="47.32872" lon="-1.29351">
        <ele>92</ele>
        <time>2015-01-11T10:29:55.000Z</time>
      </trkpt>
      <trkpt lat="47.32862" lon="-1.29354">
        <ele>92</ele>
        <time>2015-01-11T10:29:57.000Z</time>
      </trkpt>
      <trkpt lat="47.32862" lon="-1.29354">
        <ele>92</ele>
        <time>2015-01-11T10:29:59.000Z</time>
      </trkpt>
      <trkpt lat="47.32853" lon="-1.29354">
        <ele>90</ele>
        <time>2015-01-11T10:30:01.000Z</time>
      </trkpt>
      <trkpt lat="47.32853" lon="-1.29354">
        <ele>90</ele>
        <time>2015-01-11T10:30:03.000Z</time>
      </trkpt>
      <trkpt lat="47.32843" lon="-1.29356">
        <ele>91</ele>
        <time>2015-01-11T10:30:05.000Z</time>
      </trkpt>
      <trkpt lat="47.32829" lon="-1.29358">
        <ele>89</ele>
        <time>2015-01-11T10:30:08.000Z</time>
      </trkpt>
      <trkpt lat="47.32819" lon="-1.29357">
        <ele>91</ele>
        <time>2015-01-11T10:30:10.000Z</time>
      </trkpt>
      <trkpt lat="47.3281" lon="-1.29358">
        <ele>91</ele>
        <time>2015-01-11T10:30:12.000Z</time>
      </trkpt>
      <trkpt lat="47.32802" lon="-1.2936">
        <ele>92</ele>
        <time>2015-01-11T10:30:14.000Z</time>
      </trkpt>
      <trkpt lat="47.32795" lon="-1.29363">
        <ele>92</ele>
        <time>2015-01-11T10:30:16.000Z</time>
      </trkpt>
      <trkpt lat="47.32787" lon="-1.29365">
        <ele>92</ele>
        <time>2015-01-11T10:30:18.000Z</time>
      </trkpt>
      <trkpt lat="47.32781" lon="-1.29368">
        <ele>92</ele>
        <time>2015-01-11T10:30:20.000Z</time>
      </trkpt>
      <trkpt lat="47.32774" lon="-1.29369">
        <ele>92</ele>
        <time>2015-01-11T10:30:22.000Z</time>
      </trkpt>
      <trkpt lat="47.32767" lon="-1.29371">
        <ele>92</ele>
        <time>2015-01-11T10:30:24.000Z</time>
      </trkpt>
      <trkpt lat="47.32761" lon="-1.29372">
        <ele>91</ele>
        <time>2015-01-11T10:30:26.000Z</time>
      </trkpt>
      <trkpt lat="47.32754" lon="-1.29374">
        <ele>90</ele>
        <time>2015-01-11T10:30:28.000Z</time>
      </trkpt>
      <trkpt lat="47.32747" lon="-1.29375">
        <ele>90</ele>
        <time>2015-01-11T10:30:30.000Z</time>
      </trkpt>
      <trkpt lat="47.32739" lon="-1.29375">
        <ele>89</ele>
        <time>2015-01-11T10:30:32.000Z</time>
      </trkpt>
      <trkpt lat="47.32733" lon="-1.29369">
        <ele>88</ele>
        <time>2015-01-11T10:30:34.000Z</time>
      </trkpt>
      <trkpt lat="47.32729" lon="-1.29358">
        <ele>87</ele>
        <time>2015-01-11T10:30:36.000Z</time>
      </trkpt>
      <trkpt lat="47.32724" lon="-1.29353">
        <ele>86</ele>
        <time>2015-01-11T10:30:38.000Z</time>
      </trkpt>
      <trkpt lat="47.32718" lon="-1.29355">
        <ele>86</ele>
        <time>2015-01-11T10:30:40.000Z</time>
      </trkpt>
      <trkpt lat="47.32712" lon="-1.2936">
        <ele>86</ele>
        <time>2015-01-11T10:30:42.000Z</time>
      </trkpt>
      <trkpt lat="47.32705" lon="-1.29365">
        <ele>85</ele>
        <time>2015-01-11T10:30:44.000Z</time>
      </trkpt>
      <trkpt lat="47.32698" lon="-1.2937">
        <ele>85</ele>
        <time>2015-01-11T10:30:46.000Z</time>
      </trkpt>
      <trkpt lat="47.3269" lon="-1.29374">
        <ele>85</ele>
        <time>2015-01-11T10:30:48.000Z</time>
      </trkpt>
      <trkpt lat="47.32684" lon="-1.29377">
        <ele>85</ele>
        <time>2015-01-11T10:30:50.000Z</time>
      </trkpt>
      <trkpt lat="47.32678" lon="-1.29379">
        <ele>84</ele>
        <time>2015-01-11T10:30:52.000Z</time>
      </trkpt>
      <trkpt lat="47.32672" lon="-1.29381">
        <ele>83</ele>
        <time>2015-01-11T10:30:54.000Z</time>
      </trkpt>
      <trkpt lat="47.32665" lon="-1.29383">
        <ele>83</ele>
        <time>2015-01-11T10:30:56.000Z</time>
      </trkpt>
      <trkpt lat="47.32659" lon="-1.29384">
        <ele>83</ele>
        <time>2015-01-11T10:30:58.000Z</time>
      </trkpt>
      <trkpt lat="47.32653" lon="-1.29386">
        <ele>82</ele>
        <time>2015-01-11T10:31:00.000Z</time>
      </trkpt>
      <trkpt lat="47.32647" lon="-1.2939">
        <ele>82</ele>
        <time>2015-01-11T10:31:02.000Z</time>
      </trkpt>
      <trkpt lat="47.32642" lon="-1.29395">
        <ele>82</ele>
        <time>2015-01-11T10:31:04.000Z</time>
      </trkpt>
      <trkpt lat="47.32636" lon="-1.29401">
        <ele>82</ele>
        <time>2015-01-11T10:31:06.000Z</time>
      </trkpt>
      <trkpt lat="47.32629" lon="-1.29406">
        <ele>83</ele>
        <time>2015-01-11T10:31:08.000Z</time>
      </trkpt>
      <trkpt lat="47.32623" lon="-1.29407">
        <ele>82</ele>
        <time>2015-01-11T10:31:10.000Z</time>
      </trkpt>
      <trkpt lat="47.32616" lon="-1.29403">
        <ele>82</ele>
        <time>2015-01-11T10:31:12.000Z</time>
      </trkpt>
      <trkpt lat="47.32617" lon="-1.29394">
        <ele>82</ele>
        <time>2015-01-11T10:31:14.000Z</time>
      </trkpt>
      <trkpt lat="47.32618" lon="-1.29386">
        <ele>82</ele>
        <time>2015-01-11T10:31:16.000Z</time>
      </trkpt>
      <trkpt lat="47.32619" lon="-1.29376">
        <ele>83</ele>
        <time>2015-01-11T10:31:18.000Z</time>
      </trkpt>
      <trkpt lat="47.32621" lon="-1.29368">
        <ele>85</ele>
        <time>2015-01-11T10:31:20.000Z</time>
      </trkpt>
      <trkpt lat="47.32623" lon="-1.29359">
        <ele>86</ele>
        <time>2015-01-11T10:31:22.000Z</time>
      </trkpt>
      <trkpt lat="47.32624" lon="-1.2935">
        <ele>87</ele>
        <time>2015-01-11T10:31:24.000Z</time>
      </trkpt>
      <trkpt lat="47.32625" lon="-1.2934">
        <ele>88</ele>
        <time>2015-01-11T10:31:26.000Z</time>
      </trkpt>
      <trkpt lat="47.32626" lon="-1.29331">
        <ele>88</ele>
        <time>2015-01-11T10:31:28.000Z</time>
      </trkpt>
      <trkpt lat="47.32627" lon="-1.29322">
        <ele>89</ele>
        <time>2015-01-11T10:31:30.000Z</time>
      </trkpt>
      <trkpt lat="47.32627" lon="-1.29314">
        <ele>89</ele>
        <time>2015-01-11T10:31:32.000Z</time>
      </trkpt>
      <trkpt lat="47.32627" lon="-1.29305">
        <ele>90</ele>
        <time>2015-01-11T10:31:34.000Z</time>
      </trkpt>
      <trkpt lat="47.32627" lon="-1.29305">
        <ele>90</ele>
        <time>2015-01-11T10:31:36.000Z</time>
      </trkpt>
      <trkpt lat="47.32627" lon="-1.29289">
        <ele>92</ele>
        <time>2015-01-11T10:31:38.000Z</time>
      </trkpt>
      <trkpt lat="47.32627" lon="-1.29289">
        <ele>92</ele>
        <time>2015-01-11T10:31:40.000Z</time>
      </trkpt>
      <trkpt lat="47.3263" lon="-1.29273">
        <ele>94</ele>
        <time>2015-01-11T10:31:42.000Z</time>
      </trkpt>
      <trkpt lat="47.3263" lon="-1.29273">
        <ele>94</ele>
        <time>2015-01-11T10:31:44.000Z</time>
      </trkpt>
      <trkpt lat="47.32631" lon="-1.29257">
        <ele>96</ele>
        <time>2015-01-11T10:31:46.000Z</time>
      </trkpt>
      <trkpt lat="47.32631" lon="-1.29257">
        <ele>96</ele>
        <time>2015-01-11T10:31:48.000Z</time>
      </trkpt>
      <trkpt lat="47.32629" lon="-1.29242">
        <ele>97</ele>
        <time>2015-01-11T10:31:50.000Z</time>
      </trkpt>
      <trkpt lat="47.32629" lon="-1.29242">
        <ele>97</ele>
        <time>2015-01-11T10:31:52.000Z</time>
      </trkpt>
      <trkpt lat="47.32626" lon="-1.29227">
        <ele>98</ele>
        <time>2015-01-11T10:31:54.000Z</time>
      </trkpt>
      <trkpt lat="47.32626" lon="-1.29227">
        <ele>98</ele>
        <time>2015-01-11T10:31:56.000Z</time>
      </trkpt>
      <trkpt lat="47.32623" lon="-1.29214">
        <ele>100</ele>
        <time>2015-01-11T10:31:58.000Z</time>
      </trkpt>
      <trkpt lat="47.32623" lon="-1.29214">
        <ele>100</ele>
        <time>2015-01-11T10:32:00.000Z</time>
      </trkpt>
      <trkpt lat="47.32621" lon="-1.29201">
        <ele>101</ele>
        <time>2015-01-11T10:32:02.000Z</time>
      </trkpt>
      <trkpt lat="47.32621" lon="-1.29201">
        <ele>101</ele>
        <time>2015-01-11T10:32:04.000Z</time>
      </trkpt>
      <trkpt lat="47.32618" lon="-1.29187">
        <ele>103</ele>
        <time>2015-01-11T10:32:06.000Z</time>
      </trkpt>
      <trkpt lat="47.32618" lon="-1.29187">
        <ele>103</ele>
        <time>2015-01-11T10:32:08.000Z</time>
      </trkpt>
      <trkpt lat="47.32616" lon="-1.29174">
        <ele>104</ele>
        <time>2015-01-11T10:32:10.000Z</time>
      </trkpt>
      <trkpt lat="47.32616" lon="-1.29174">
        <ele>104</ele>
        <time>2015-01-11T10:32:12.000Z</time>
      </trkpt>
      <trkpt lat="47.32613" lon="-1.29162">
        <ele>105</ele>
        <time>2015-01-11T10:32:14.000Z</time>
      </trkpt>
      <trkpt lat="47.32613" lon="-1.29162">
        <ele>105</ele>
        <time>2015-01-11T10:32:16.000Z</time>
      </trkpt>
      <trkpt lat="47.32611" lon="-1.29153">
        <ele>105</ele>
        <time>2015-01-11T10:32:18.000Z</time>
      </trkpt>
      <trkpt lat="47.32611" lon="-1.29153">
        <ele>105</ele>
        <time>2015-01-11T10:32:20.000Z</time>
      </trkpt>
      <trkpt lat="47.32604" lon="-1.29155">
        <ele>106</ele>
        <time>2015-01-11T10:32:22.000Z</time>
      </trkpt>
      <trkpt lat="47.32594" lon="-1.29163">
        <ele>105</ele>
        <time>2015-01-11T10:32:26.000Z</time>
      </trkpt>
      <trkpt lat="47.32589" lon="-1.29166">
        <ele>106</ele>
        <time>2015-01-11T10:32:28.000Z</time>
      </trkpt>
      <trkpt lat="47.32582" lon="-1.2917">
        <ele>106</ele>
        <time>2015-01-11T10:32:30.000Z</time>
      </trkpt>
      <trkpt lat="47.32576" lon="-1.29174">
        <ele>106</ele>
        <time>2015-01-11T10:32:32.000Z</time>
      </trkpt>
      <trkpt lat="47.3257" lon="-1.29178">
        <ele>106</ele>
        <time>2015-01-11T10:32:34.000Z</time>
      </trkpt>
      <trkpt lat="47.32563" lon="-1.29182">
        <ele>106</ele>
        <time>2015-01-11T10:32:36.000Z</time>
      </trkpt>
      <trkpt lat="47.32557" lon="-1.29184">
        <ele>107</ele>
        <time>2015-01-11T10:32:38.000Z</time>
      </trkpt>
      <trkpt lat="47.32551" lon="-1.29184">
        <ele>106</ele>
        <time>2015-01-11T10:32:40.000Z</time>
      </trkpt>
      <trkpt lat="47.32551" lon="-1.29184">
        <ele>106</ele>
        <time>2015-01-11T10:32:42.000Z</time>
      </trkpt>
      <trkpt lat="47.32551" lon="-1.29184">
        <ele>106</ele>
        <time>2015-01-11T10:32:44.000Z</time>
      </trkpt>
      <trkpt lat="47.32551" lon="-1.29184">
        <ele>106</ele>
        <time>2015-01-11T10:32:46.000Z</time>
      </trkpt>
      <trkpt lat="47.32551" lon="-1.29184">
        <ele>106</ele>
        <time>2015-01-11T10:32:48.000Z</time>
      </trkpt>
      <trkpt lat="47.32551" lon="-1.29184">
        <ele>106</ele>
        <time>2015-01-11T10:32:56.000Z</time>
      </trkpt>
      <trkpt lat="47.32551" lon="-1.29184">
        <ele>106</ele>
        <time>2015-01-11T10:33:02.000Z</time>
      </trkpt>
      <trkpt lat="47.32548" lon="-1.29172">
        <ele>105</ele>
        <time>2015-01-11T10:33:08.000Z</time>
      </trkpt>
      <trkpt lat="47.32545" lon="-1.29162">
        <ele>105</ele>
        <time>2015-01-11T10:33:10.000Z</time>
      </trkpt>
      <trkpt lat="47.32541" lon="-1.29152">
        <ele>106</ele>
        <time>2015-01-11T10:33:12.000Z</time>
      </trkpt>
      <trkpt lat="47.32539" lon="-1.29143">
        <ele>106</ele>
        <time>2015-01-11T10:33:14.000Z</time>
      </trkpt>
      <trkpt lat="47.32538" lon="-1.29134">
        <ele>106</ele>
        <time>2015-01-11T10:33:16.000Z</time>
      </trkpt>
      <trkpt lat="47.32536" lon="-1.29117">
        <ele>107</ele>
        <time>2015-01-11T10:33:18.000Z</time>
      </trkpt>
      <trkpt lat="47.32536" lon="-1.29117">
        <ele>107</ele>
        <time>2015-01-11T10:33:20.000Z</time>
      </trkpt>
      <trkpt lat="47.32532" lon="-1.29103">
        <ele>107</ele>
        <time>2015-01-11T10:33:22.000Z</time>
      </trkpt>
      <trkpt lat="47.32523" lon="-1.29092">
        <ele>108</ele>
        <time>2015-01-11T10:33:26.000Z</time>
      </trkpt>
      <trkpt lat="47.32518" lon="-1.29088">
        <ele>109</ele>
        <time>2015-01-11T10:33:28.000Z</time>
      </trkpt>
      <trkpt lat="47.32513" lon="-1.29083">
        <ele>109</ele>
        <time>2015-01-11T10:33:30.000Z</time>
      </trkpt>
      <trkpt lat="47.32504" lon="-1.29077">
        <ele>109</ele>
        <time>2015-01-11T10:33:34.000Z</time>
      </trkpt>
      <trkpt lat="47.32504" lon="-1.29077">
        <ele>109</ele>
        <time>2015-01-11T10:33:36.000Z</time>
      </trkpt>
      <trkpt lat="47.32495" lon="-1.29084">
        <ele>106</ele>
        <time>2015-01-11T10:33:38.000Z</time>
      </trkpt>
      <trkpt lat="47.32491" lon="-1.29092">
        <ele>106</ele>
        <time>2015-01-11T10:33:40.000Z</time>
      </trkpt>
      <trkpt lat="47.32486" lon="-1.29099">
        <ele>105</ele>
        <time>2015-01-11T10:33:42.000Z</time>
      </trkpt>
      <trkpt lat="47.32478" lon="-1.29102">
        <ele>104</ele>
        <time>2015-01-11T10:33:44.000Z</time>
      </trkpt>
      <trkpt lat="47.3247" lon="-1.29098">
        <ele>105</ele>
        <time>2015-01-11T10:33:46.000Z</time>
      </trkpt>
      <trkpt lat="47.32465" lon="-1.29091">
        <ele>106</ele>
        <time>2015-01-11T10:33:48.000Z</time>
      </trkpt>
      <trkpt lat="47.32461" lon="-1.29084">
        <ele>106</ele>
        <time>2015-01-11T10:33:50.000Z</time>
      </trkpt>
      <trkpt lat="47.32461" lon="-1.29084">
        <ele>106</ele>
        <time>2015-01-11T10:33:52.000Z</time>
      </trkpt>
      <trkpt lat="47.32451" lon="-1.29084">
        <ele>106</ele>
        <time>2015-01-11T10:33:54.000Z</time>
      </trkpt>
      <trkpt lat="47.32445" lon="-1.29088">
        <ele>104</ele>
        <time>2015-01-11T10:33:56.000Z</time>
      </trkpt>
      <trkpt lat="47.3244" lon="-1.29091">
        <ele>104</ele>
        <time>2015-01-11T10:33:58.000Z</time>
      </trkpt>
      <trkpt lat="47.3243" lon="-1.29097">
        <ele>104</ele>
        <time>2015-01-11T10:34:02.000Z</time>
      </trkpt>
      <trkpt lat="47.3243" lon="-1.29097">
        <ele>104</ele>
        <time>2015-01-11T10:34:04.000Z</time>
      </trkpt>
      <trkpt lat="47.3242" lon="-1.29102">
        <ele>104</ele>
        <time>2015-01-11T10:34:06.000Z</time>
      </trkpt>
      <trkpt lat="47.3242" lon="-1.29102">
        <ele>104</ele>
        <time>2015-01-11T10:34:08.000Z</time>
      </trkpt>
      <trkpt lat="47.3241" lon="-1.29104">
        <ele>106</ele>
        <time>2015-01-11T10:34:10.000Z</time>
      </trkpt>
      <trkpt lat="47.3241" lon="-1.29104">
        <ele>106</ele>
        <time>2015-01-11T10:34:12.000Z</time>
      </trkpt>
      <trkpt lat="47.32401" lon="-1.29104">
        <ele>106</ele>
        <time>2015-01-11T10:34:14.000Z</time>
      </trkpt>
      <trkpt lat="47.32391" lon="-1.29105">
        <ele>107</ele>
        <time>2015-01-11T10:34:18.000Z</time>
      </trkpt>
      <trkpt lat="47.32381" lon="-1.29106">
        <ele>108</ele>
        <time>2015-01-11T10:34:22.000Z</time>
      </trkpt>
      <trkpt lat="47.32381" lon="-1.29106">
        <ele>108</ele>
        <time>2015-01-11T10:34:24.000Z</time>
      </trkpt>
      <trkpt lat="47.32371" lon="-1.29107">
        <ele>108</ele>
        <time>2015-01-11T10:34:26.000Z</time>
      </trkpt>
      <trkpt lat="47.32359" lon="-1.29108">
        <ele>109</ele>
        <time>2015-01-11T10:34:30.000Z</time>
      </trkpt>
      <trkpt lat="47.32353" lon="-1.29108">
        <ele>109</ele>
        <time>2015-01-11T10:34:32.000Z</time>
      </trkpt>
      <trkpt lat="47.32346" lon="-1.29109">
        <ele>109</ele>
        <time>2015-01-11T10:34:34.000Z</time>
      </trkpt>
      <trkpt lat="47.3234" lon="-1.29109">
        <ele>110</ele>
        <time>2015-01-11T10:34:36.000Z</time>
      </trkpt>
      <trkpt lat="47.3234" lon="-1.29109">
        <ele>110</ele>
        <time>2015-01-11T10:34:38.000Z</time>
      </trkpt>
      <trkpt lat="47.32329" lon="-1.29109">
        <ele>108</ele>
        <time>2015-01-11T10:34:40.000Z</time>
      </trkpt>
      <trkpt lat="47.32329" lon="-1.29109">
        <ele>108</ele>
        <time>2015-01-11T10:34:42.000Z</time>
      </trkpt>
      <trkpt lat="47.32318" lon="-1.29109">
        <ele>111</ele>
        <time>2015-01-11T10:34:44.000Z</time>
      </trkpt>
      <trkpt lat="47.32318" lon="-1.29109">
        <ele>111</ele>
        <time>2015-01-11T10:34:46.000Z</time>
      </trkpt>
      <trkpt lat="47.32308" lon="-1.2911">
        <ele>113</ele>
        <time>2015-01-11T10:34:48.000Z</time>
      </trkpt>
      <trkpt lat="47.32308" lon="-1.2911">
        <ele>113</ele>
        <time>2015-01-11T10:34:50.000Z</time>
      </trkpt>
      <trkpt lat="47.32296" lon="-1.29112">
        <ele>113</ele>
        <time>2015-01-11T10:34:52.000Z</time>
      </trkpt>
      <trkpt lat="47.3229" lon="-1.29114">
        <ele>111</ele>
        <time>2015-01-11T10:34:54.000Z</time>
      </trkpt>
      <trkpt lat="47.32283" lon="-1.29115">
        <ele>110</ele>
        <time>2015-01-11T10:34:56.000Z</time>
      </trkpt>
      <trkpt lat="47.32277" lon="-1.29116">
        <ele>110</ele>
        <time>2015-01-11T10:34:58.000Z</time>
      </trkpt>
      <trkpt lat="47.3227" lon="-1.29116">
        <ele>110</ele>
        <time>2015-01-11T10:35:00.000Z</time>
      </trkpt>
      <trkpt lat="47.32264" lon="-1.29115">
        <ele>110</ele>
        <time>2015-01-11T10:35:02.000Z</time>
      </trkpt>
      <trkpt lat="47.32258" lon="-1.29111">
        <ele>111</ele>
        <time>2015-01-11T10:35:04.000Z</time>
      </trkpt>
      <trkpt lat="47.32253" lon="-1.29104">
        <ele>111</ele>
        <time>2015-01-11T10:35:06.000Z</time>
      </trkpt>
      <trkpt lat="47.32248" lon="-1.29096">
        <ele>111</ele>
        <time>2015-01-11T10:35:08.000Z</time>
      </trkpt>
      <trkpt lat="47.32244" lon="-1.29087">
        <ele>112</ele>
        <time>2015-01-11T10:35:10.000Z</time>
      </trkpt>
      <trkpt lat="47.3224" lon="-1.29077">
        <ele>112</ele>
        <time>2015-01-11T10:35:12.000Z</time>
      </trkpt>
      <trkpt lat="47.32235" lon="-1.29068">
        <ele>112</ele>
        <time>2015-01-11T10:35:14.000Z</time>
      </trkpt>
      <trkpt lat="47.32231" lon="-1.29058">
        <ele>112</ele>
        <time>2015-01-11T10:35:16.000Z</time>
      </trkpt>
      <trkpt lat="47.32226" lon="-1.29049">
        <ele>113</ele>
        <time>2015-01-11T10:35:18.000Z</time>
      </trkpt>
      <trkpt lat="47.32222" lon="-1.2904">
        <ele>113</ele>
        <time>2015-01-11T10:35:20.000Z</time>
      </trkpt>
      <trkpt lat="47.32217" lon="-1.29031">
        <ele>112</ele>
        <time>2015-01-11T10:35:22.000Z</time>
      </trkpt>
      <trkpt lat="47.32212" lon="-1.29023">
        <ele>112</ele>
        <time>2015-01-11T10:35:24.000Z</time>
      </trkpt>
      <trkpt lat="47.32206" lon="-1.29016">
        <ele>112</ele>
        <time>2015-01-11T10:35:26.000Z</time>
      </trkpt>
      <trkpt lat="47.32201" lon="-1.29012">
        <ele>112</ele>
        <time>2015-01-11T10:35:28.000Z</time>
      </trkpt>
      <trkpt lat="47.32195" lon="-1.29008">
        <ele>111</ele>
        <time>2015-01-11T10:35:30.000Z</time>
      </trkpt>
      <trkpt lat="47.32188" lon="-1.29003">
        <ele>111</ele>
        <time>2015-01-11T10:35:32.000Z</time>
      </trkpt>
      <trkpt lat="47.32183" lon="-1.28997">
        <ele>112</ele>
        <time>2015-01-11T10:35:34.000Z</time>
      </trkpt>
      <trkpt lat="47.32178" lon="-1.28989">
        <ele>113</ele>
        <time>2015-01-11T10:35:36.000Z</time>
      </trkpt>
      <trkpt lat="47.32175" lon="-1.28978">
        <ele>113</ele>
        <time>2015-01-11T10:35:38.000Z</time>
      </trkpt>
      <trkpt lat="47.32172" lon="-1.28968">
        <ele>114</ele>
        <time>2015-01-11T10:35:40.000Z</time>
      </trkpt>
      <trkpt lat="47.32168" lon="-1.28958">
        <ele>114</ele>
        <time>2015-01-11T10:35:42.000Z</time>
      </trkpt>
      <trkpt lat="47.32164" lon="-1.2895">
        <ele>114</ele>
        <time>2015-01-11T10:35:44.000Z</time>
      </trkpt>
      <trkpt lat="47.32158" lon="-1.28943">
        <ele>115</ele>
        <time>2015-01-11T10:35:46.000Z</time>
      </trkpt>
      <trkpt lat="47.32151" lon="-1.28938">
        <ele>116</ele>
        <time>2015-01-11T10:35:48.000Z</time>
      </trkpt>
      <trkpt lat="47.32144" lon="-1.28937">
        <ele>116</ele>
        <time>2015-01-11T10:35:50.000Z</time>
      </trkpt>
      <trkpt lat="47.32136" lon="-1.28936">
        <ele>117</ele>
        <time>2015-01-11T10:35:52.000Z</time>
      </trkpt>
      <trkpt lat="47.32128" lon="-1.28936">
        <ele>116</ele>
        <time>2015-01-11T10:35:54.000Z</time>
      </trkpt>
      <trkpt lat="47.3212" lon="-1.28934">
        <ele>116</ele>
        <time>2015-01-11T10:35:56.000Z</time>
      </trkpt>
      <trkpt lat="47.32113" lon="-1.28932">
        <ele>116</ele>
        <time>2015-01-11T10:35:58.000Z</time>
      </trkpt>
      <trkpt lat="47.32105" lon="-1.28929">
        <ele>116</ele>
        <time>2015-01-11T10:36:00.000Z</time>
      </trkpt>
      <trkpt lat="47.32097" lon="-1.28926">
        <ele>116</ele>
        <time>2015-01-11T10:36:02.000Z</time>
      </trkpt>
      <trkpt lat="47.32089" lon="-1.28924">
        <ele>118</ele>
        <time>2015-01-11T10:36:04.000Z</time>
      </trkpt>
      <trkpt lat="47.32081" lon="-1.28923">
        <ele>119</ele>
        <time>2015-01-11T10:36:06.000Z</time>
      </trkpt>
      <trkpt lat="47.32074" lon="-1.28921">
        <ele>119</ele>
        <time>2015-01-11T10:36:08.000Z</time>
      </trkpt>
      <trkpt lat="47.32066" lon="-1.28919">
        <ele>120</ele>
        <time>2015-01-11T10:36:10.000Z</time>
      </trkpt>
      <trkpt lat="47.32059" lon="-1.28918">
        <ele>120</ele>
        <time>2015-01-11T10:36:12.000Z</time>
      </trkpt>
      <trkpt lat="47.32051" lon="-1.28916">
        <ele>120</ele>
        <time>2015-01-11T10:36:14.000Z</time>
      </trkpt>
      <trkpt lat="47.32045" lon="-1.28913">
        <ele>121</ele>
        <time>2015-01-11T10:36:16.000Z</time>
      </trkpt>
      <trkpt lat="47.32045" lon="-1.28913">
        <ele>121</ele>
        <time>2015-01-11T10:36:18.000Z</time>
      </trkpt>
      <trkpt lat="47.32048" lon="-1.28898">
        <ele>120</ele>
        <time>2015-01-11T10:36:20.000Z</time>
      </trkpt>
      <trkpt lat="47.32054" lon="-1.28892">
        <ele>120</ele>
        <time>2015-01-11T10:36:22.000Z</time>
      </trkpt>
      <trkpt lat="47.32061" lon="-1.28886">
        <ele>120</ele>
        <time>2015-01-11T10:36:24.000Z</time>
      </trkpt>
      <trkpt lat="47.32067" lon="-1.2888">
        <ele>120</ele>
        <time>2015-01-11T10:36:26.000Z</time>
      </trkpt>
      <trkpt lat="47.32074" lon="-1.28873">
        <ele>120</ele>
        <time>2015-01-11T10:36:28.000Z</time>
      </trkpt>
      <trkpt lat="47.3208" lon="-1.28866">
        <ele>121</ele>
        <time>2015-01-11T10:36:30.000Z</time>
      </trkpt>
      <trkpt lat="47.32086" lon="-1.28858">
        <ele>121</ele>
        <time>2015-01-11T10:36:32.000Z</time>
      </trkpt>
      <trkpt lat="47.32092" lon="-1.28851">
        <ele>121</ele>
        <time>2015-01-11T10:36:34.000Z</time>
      </trkpt>
      <trkpt lat="47.32098" lon="-1.28843">
        <ele>121</ele>
        <time>2015-01-11T10:36:36.000Z</time>
      </trkpt>
      <trkpt lat="47.32104" lon="-1.28836">
        <ele>121</ele>
        <time>2015-01-11T10:36:38.000Z</time>
      </trkpt>
      <trkpt lat="47.32109" lon="-1.28829">
        <ele>121</ele>
        <time>2015-01-11T10:36:40.000Z</time>
      </trkpt>
      <trkpt lat="47.32115" lon="-1.28822">
        <ele>121</ele>
        <time>2015-01-11T10:36:42.000Z</time>
      </trkpt>
      <trkpt lat="47.32121" lon="-1.28815">
        <ele>121</ele>
        <time>2015-01-11T10:36:44.000Z</time>
      </trkpt>
      <trkpt lat="47.32126" lon="-1.28807">
        <ele>122</ele>
        <time>2015-01-11T10:36:46.000Z</time>
      </trkpt>
      <trkpt lat="47.32132" lon="-1.288">
        <ele>122</ele>
        <time>2015-01-11T10:36:48.000Z</time>
      </trkpt>
      <trkpt lat="47.32137" lon="-1.28793">
        <ele>123</ele>
        <time>2015-01-11T10:36:50.000Z</time>
      </trkpt>
      <trkpt lat="47.32142" lon="-1.28785">
        <ele>123</ele>
        <time>2015-01-11T10:36:52.000Z</time>
      </trkpt>
      <trkpt lat="47.32148" lon="-1.28777">
        <ele>123</ele>
        <time>2015-01-11T10:36:54.000Z</time>
      </trkpt>
      <trkpt lat="47.32153" lon="-1.28769">
        <ele>123</ele>
        <time>2015-01-11T10:36:56.000Z</time>
      </trkpt>
      <trkpt lat="47.32159" lon="-1.28761">
        <ele>123</ele>
        <time>2015-01-11T10:36:58.000Z</time>
      </trkpt>
      <trkpt lat="47.32163" lon="-1.28752">
        <ele>123</ele>
        <time>2015-01-11T10:37:00.000Z</time>
      </trkpt>
      <trkpt lat="47.32167" lon="-1.28743">
        <ele>123</ele>
        <time>2015-01-11T10:37:02.000Z</time>
      </trkpt>
      <trkpt lat="47.32171" lon="-1.28734">
        <ele>124</ele>
        <time>2015-01-11T10:37:04.000Z</time>
      </trkpt>
      <trkpt lat="47.32175" lon="-1.28724">
        <ele>124</ele>
        <time>2015-01-11T10:37:06.000Z</time>
      </trkpt>
      <trkpt lat="47.3218" lon="-1.28715">
        <ele>124</ele>
        <time>2015-01-11T10:37:08.000Z</time>
      </trkpt>
      <trkpt lat="47.32184" lon="-1.28706">
        <ele>124</ele>
        <time>2015-01-11T10:37:10.000Z</time>
      </trkpt>
      <trkpt lat="47.32189" lon="-1.28698">
        <ele>125</ele>
        <time>2015-01-11T10:37:12.000Z</time>
      </trkpt>
      <trkpt lat="47.32193" lon="-1.2869">
        <ele>125</ele>
        <time>2015-01-11T10:37:14.000Z</time>
      </trkpt>
      <trkpt lat="47.32198" lon="-1.28682">
        <ele>125</ele>
        <time>2015-01-11T10:37:16.000Z</time>
      </trkpt>
      <trkpt lat="47.32203" lon="-1.28674">
        <ele>125</ele>
        <time>2015-01-11T10:37:18.000Z</time>
      </trkpt>
      <trkpt lat="47.32209" lon="-1.28666">
        <ele>126</ele>
        <time>2015-01-11T10:37:20.000Z</time>
      </trkpt>
      <trkpt lat="47.32214" lon="-1.28659">
        <ele>126</ele>
        <time>2015-01-11T10:37:22.000Z</time>
      </trkpt>
      <trkpt lat="47.3222" lon="-1.28654">
        <ele>126</ele>
        <time>2015-01-11T10:37:24.000Z</time>
      </trkpt>
      <trkpt lat="47.32225" lon="-1.2865">
        <ele>127</ele>
        <time>2015-01-11T10:37:26.000Z</time>
      </trkpt>
      <trkpt lat="47.32231" lon="-1.28647">
        <ele>127</ele>
        <time>2015-01-11T10:37:28.000Z</time>
      </trkpt>
      <trkpt lat="47.32237" lon="-1.28644">
        <ele>127</ele>
        <time>2015-01-11T10:37:30.000Z</time>
      </trkpt>
      <trkpt lat="47.32243" lon="-1.28639">
        <ele>127</ele>
        <time>2015-01-11T10:37:32.000Z</time>
      </trkpt>
      <trkpt lat="47.32249" lon="-1.28632">
        <ele>127</ele>
        <time>2015-01-11T10:37:34.000Z</time>
      </trkpt>
      <trkpt lat="47.32253" lon="-1.28624">
        <ele>127</ele>
        <time>2015-01-11T10:37:36.000Z</time>
      </trkpt>
      <trkpt lat="47.32256" lon="-1.28615">
        <ele>127</ele>
        <time>2015-01-11T10:37:38.000Z</time>
      </trkpt>
      <trkpt lat="47.32259" lon="-1.28607">
        <ele>127</ele>
        <time>2015-01-11T10:37:40.000Z</time>
      </trkpt>
      <trkpt lat="47.32261" lon="-1.28599">
        <ele>127</ele>
        <time>2015-01-11T10:37:42.000Z</time>
      </trkpt>
      <trkpt lat="47.32264" lon="-1.28591">
        <ele>127</ele>
        <time>2015-01-11T10:37:44.000Z</time>
      </trkpt>
      <trkpt lat="47.32266" lon="-1.28582">
        <ele>127</ele>
        <time>2015-01-11T10:37:46.000Z</time>
      </trkpt>
      <trkpt lat="47.32269" lon="-1.28573">
        <ele>127</ele>
        <time>2015-01-11T10:37:48.000Z</time>
      </trkpt>
      <trkpt lat="47.32272" lon="-1.28563">
        <ele>127</ele>
        <time>2015-01-11T10:37:50.000Z</time>
      </trkpt>
      <trkpt lat="47.32276" lon="-1.28554">
        <ele>127</ele>
        <time>2015-01-11T10:37:52.000Z</time>
      </trkpt>
      <trkpt lat="47.32279" lon="-1.28545">
        <ele>127</ele>
        <time>2015-01-11T10:37:54.000Z</time>
      </trkpt>
      <trkpt lat="47.32282" lon="-1.28535">
        <ele>128</ele>
        <time>2015-01-11T10:37:56.000Z</time>
      </trkpt>
      <trkpt lat="47.32285" lon="-1.28526">
        <ele>128</ele>
        <time>2015-01-11T10:37:58.000Z</time>
      </trkpt>
      <trkpt lat="47.32289" lon="-1.28517">
        <ele>128</ele>
        <time>2015-01-11T10:38:00.000Z</time>
      </trkpt>
      <trkpt lat="47.32292" lon="-1.28507">
        <ele>128</ele>
        <time>2015-01-11T10:38:02.000Z</time>
      </trkpt>
      <trkpt lat="47.32296" lon="-1.28498">
        <ele>128</ele>
        <time>2015-01-11T10:38:04.000Z</time>
      </trkpt>
      <trkpt lat="47.32299" lon="-1.28488">
        <ele>128</ele>
        <time>2015-01-11T10:38:06.000Z</time>
      </trkpt>
      <trkpt lat="47.32303" lon="-1.28479">
        <ele>128</ele>
        <time>2015-01-11T10:38:08.000Z</time>
      </trkpt>
      <trkpt lat="47.32306" lon="-1.28471">
        <ele>128</ele>
        <time>2015-01-11T10:38:10.000Z</time>
      </trkpt>
      <trkpt lat="47.32307" lon="-1.28462">
        <ele>128</ele>
        <time>2015-01-11T10:38:12.000Z</time>
      </trkpt>
      <trkpt lat="47.32307" lon="-1.28453">
        <ele>128</ele>
        <time>2015-01-11T10:38:14.000Z</time>
      </trkpt>
      <trkpt lat="47.32307" lon="-1.28444">
        <ele>129</ele>
        <time>2015-01-11T10:38:16.000Z</time>
      </trkpt>
      <trkpt lat="47.32307" lon="-1.28444">
        <ele>129</ele>
        <time>2015-01-11T10:38:18.000Z</time>
      </trkpt>
      <trkpt lat="47.32308" lon="-1.28429">
        <ele>129</ele>
        <time>2015-01-11T10:38:20.000Z</time>
      </trkpt>
      <trkpt lat="47.32308" lon="-1.28429">
        <ele>129</ele>
        <time>2015-01-11T10:38:22.000Z</time>
      </trkpt>
      <trkpt lat="47.32309" lon="-1.28414">
        <ele>129</ele>
        <time>2015-01-11T10:38:24.000Z</time>
      </trkpt>
      <trkpt lat="47.32309" lon="-1.28414">
        <ele>129</ele>
        <time>2015-01-11T10:38:26.000Z</time>
      </trkpt>
      <trkpt lat="47.32312" lon="-1.284">
        <ele>129</ele>
        <time>2015-01-11T10:38:28.000Z</time>
      </trkpt>
      <trkpt lat="47.32312" lon="-1.284">
        <ele>129</ele>
        <time>2015-01-11T10:38:30.000Z</time>
      </trkpt>
      <trkpt lat="47.32315" lon="-1.2839">
        <ele>129</ele>
        <time>2015-01-11T10:38:32.000Z</time>
      </trkpt>
      <trkpt lat="47.32315" lon="-1.2839">
        <ele>129</ele>
        <time>2015-01-11T10:38:34.000Z</time>
      </trkpt>
      <trkpt lat="47.32317" lon="-1.28377">
        <ele>129</ele>
        <time>2015-01-11T10:38:36.000Z</time>
      </trkpt>
      <trkpt lat="47.32317" lon="-1.28377">
        <ele>129</ele>
        <time>2015-01-11T10:38:38.000Z</time>
      </trkpt>
      <trkpt lat="47.32314" lon="-1.28368">
        <ele>129</ele>
        <time>2015-01-11T10:38:40.000Z</time>
      </trkpt>
      <trkpt lat="47.32314" lon="-1.28368">
        <ele>129</ele>
        <time>2015-01-11T10:38:42.000Z</time>
      </trkpt>
      <trkpt lat="47.32313" lon="-1.28352">
        <ele>129</ele>
        <time>2015-01-11T10:38:44.000Z</time>
      </trkpt>
      <trkpt lat="47.32314" lon="-1.28336">
        <ele>130</ele>
        <time>2015-01-11T10:38:48.000Z</time>
      </trkpt>
      <trkpt lat="47.32316" lon="-1.28328">
        <ele>130</ele>
        <time>2015-01-11T10:38:50.000Z</time>
      </trkpt>
      <trkpt lat="47.32321" lon="-1.28323">
        <ele>130</ele>
        <time>2015-01-11T10:38:52.000Z</time>
      </trkpt>
      <trkpt lat="47.32327" lon="-1.28325">
        <ele>130</ele>
        <time>2015-01-11T10:38:54.000Z</time>
      </trkpt>
      <trkpt lat="47.32334" lon="-1.28331">
        <ele>129</ele>
        <time>2015-01-11T10:38:56.000Z</time>
      </trkpt>
      <trkpt lat="47.32341" lon="-1.28337">
        <ele>129</ele>
        <time>2015-01-11T10:38:58.000Z</time>
      </trkpt>
      <trkpt lat="47.32349" lon="-1.28342">
        <ele>129</ele>
        <time>2015-01-11T10:39:00.000Z</time>
      </trkpt>
      <trkpt lat="47.32356" lon="-1.28345">
        <ele>130</ele>
        <time>2015-01-11T10:39:02.000Z</time>
      </trkpt>
      <trkpt lat="47.32362" lon="-1.28349">
        <ele>131</ele>
        <time>2015-01-11T10:39:04.000Z</time>
      </trkpt>
      <trkpt lat="47.32371" lon="-1.28357">
        <ele>130</ele>
        <time>2015-01-11T10:39:06.000Z</time>
      </trkpt>
      <trkpt lat="47.3238" lon="-1.28363">
        <ele>131</ele>
        <time>2015-01-11T10:39:08.000Z</time>
      </trkpt>
      <trkpt lat="47.32388" lon="-1.28372">
        <ele>132</ele>
        <time>2015-01-11T10:39:10.000Z</time>
      </trkpt>
      <trkpt lat="47.32395" lon="-1.28381">
        <ele>131</ele>
        <time>2015-01-11T10:39:12.000Z</time>
      </trkpt>
      <trkpt lat="47.32402" lon="-1.2839">
        <ele>131</ele>
        <time>2015-01-11T10:39:14.000Z</time>
      </trkpt>
      <trkpt lat="47.32409" lon="-1.28398">
        <ele>131</ele>
        <time>2015-01-11T10:39:16.000Z</time>
      </trkpt>
      <trkpt lat="47.32417" lon="-1.28405">
        <ele>131</ele>
        <time>2015-01-11T10:39:18.000Z</time>
      </trkpt>
      <trkpt lat="47.32426" lon="-1.28411">
        <ele>131</ele>
        <time>2015-01-11T10:39:20.000Z</time>
      </trkpt>
      <trkpt lat="47.32434" lon="-1.28415">
        <ele>131</ele>
        <time>2015-01-11T10:39:22.000Z</time>
      </trkpt>
      <trkpt lat="47.32442" lon="-1.28419">
        <ele>131</ele>
        <time>2015-01-11T10:39:24.000Z</time>
      </trkpt>
      <trkpt lat="47.3245" lon="-1.28424">
        <ele>130</ele>
        <time>2015-01-11T10:39:26.000Z</time>
      </trkpt>
      <trkpt lat="47.32458" lon="-1.2843">
        <ele>130</ele>
        <time>2015-01-11T10:39:28.000Z</time>
      </trkpt>
      <trkpt lat="47.32466" lon="-1.28436">
        <ele>131</ele>
        <time>2015-01-11T10:39:30.000Z</time>
      </trkpt>
      <trkpt lat="47.32475" lon="-1.2844">
        <ele>130</ele>
        <time>2015-01-11T10:39:32.000Z</time>
      </trkpt>
      <trkpt lat="47.32483" lon="-1.28445">
        <ele>130</ele>
        <time>2015-01-11T10:39:34.000Z</time>
      </trkpt>
      <trkpt lat="47.32491" lon="-1.28452">
        <ele>129</ele>
        <time>2015-01-11T10:39:36.000Z</time>
      </trkpt>
      <trkpt lat="47.32499" lon="-1.28459">
        <ele>129</ele>
        <time>2015-01-11T10:39:38.000Z</time>
      </trkpt>
      <trkpt lat="47.32507" lon="-1.28468">
        <ele>128</ele>
        <time>2015-01-11T10:39:40.000Z</time>
      </trkpt>
      <trkpt lat="47.32515" lon="-1.28475">
        <ele>128</ele>
        <time>2015-01-11T10:39:42.000Z</time>
      </trkpt>
      <trkpt lat="47.32523" lon="-1.28484">
        <ele>128</ele>
        <time>2015-01-11T10:39:44.000Z</time>
      </trkpt>
      <trkpt lat="47.32531" lon="-1.28491">
        <ele>128</ele>
        <time>2015-01-11T10:39:46.000Z</time>
      </trkpt>
      <trkpt lat="47.32538" lon="-1.28498">
        <ele>128</ele>
        <time>2015-01-11T10:39:48.000Z</time>
      </trkpt>
      <trkpt lat="47.32545" lon="-1.28505">
        <ele>127</ele>
        <time>2015-01-11T10:39:50.000Z</time>
      </trkpt>
      <trkpt lat="47.32553" lon="-1.2851">
        <ele>127</ele>
        <time>2015-01-11T10:39:52.000Z</time>
      </trkpt>
      <trkpt lat="47.32561" lon="-1.28512">
        <ele>126</ele>
        <time>2015-01-11T10:39:54.000Z</time>
      </trkpt>
      <trkpt lat="47.32569" lon="-1.28513">
        <ele>126</ele>
        <time>2015-01-11T10:39:56.000Z</time>
      </trkpt>
      <trkpt lat="47.32577" lon="-1.28512">
        <ele>125</ele>
        <time>2015-01-11T10:39:58.000Z</time>
      </trkpt>
      <trkpt lat="47.32585" lon="-1.28514">
        <ele>125</ele>
        <time>2015-01-11T10:40:00.000Z</time>
      </trkpt>
      <trkpt lat="47.32593" lon="-1.28523">
        <ele>125</ele>
        <time>2015-01-11T10:40:02.000Z</time>
      </trkpt>
      <trkpt lat="47.32601" lon="-1.28531">
        <ele>124</ele>
        <time>2015-01-11T10:40:04.000Z</time>
      </trkpt>
      <trkpt lat="47.32609" lon="-1.2854">
        <ele>124</ele>
        <time>2015-01-11T10:40:06.000Z</time>
      </trkpt>
      <trkpt lat="47.32617" lon="-1.28548">
        <ele>123</ele>
        <time>2015-01-11T10:40:08.000Z</time>
      </trkpt>
      <trkpt lat="47.32624" lon="-1.28557">
        <ele>123</ele>
        <time>2015-01-11T10:40:10.000Z</time>
      </trkpt>
      <trkpt lat="47.32632" lon="-1.28565">
        <ele>122</ele>
        <time>2015-01-11T10:40:12.000Z</time>
      </trkpt>
      <trkpt lat="47.32639" lon="-1.28572">
        <ele>123</ele>
        <time>2015-01-11T10:40:14.000Z</time>
      </trkpt>
      <trkpt lat="47.32646" lon="-1.2858">
        <ele>123</ele>
        <time>2015-01-11T10:40:16.000Z</time>
      </trkpt>
      <trkpt lat="47.32654" lon="-1.28589">
        <ele>122</ele>
        <time>2015-01-11T10:40:18.000Z</time>
      </trkpt>
      <trkpt lat="47.32663" lon="-1.28599">
        <ele>122</ele>
        <time>2015-01-11T10:40:20.000Z</time>
      </trkpt>
      <trkpt lat="47.32671" lon="-1.28608">
        <ele>122</ele>
        <time>2015-01-11T10:40:22.000Z</time>
      </trkpt>
      <trkpt lat="47.32679" lon="-1.28618">
        <ele>122</ele>
        <time>2015-01-11T10:40:24.000Z</time>
      </trkpt>
      <trkpt lat="47.32688" lon="-1.28628">
        <ele>122</ele>
        <time>2015-01-11T10:40:26.000Z</time>
      </trkpt>
      <trkpt lat="47.32697" lon="-1.28638">
        <ele>121</ele>
        <time>2015-01-11T10:40:28.000Z</time>
      </trkpt>
      <trkpt lat="47.32706" lon="-1.28648">
        <ele>121</ele>
        <time>2015-01-11T10:40:30.000Z</time>
      </trkpt>
      <trkpt lat="47.32714" lon="-1.28659">
        <ele>120</ele>
        <time>2015-01-11T10:40:32.000Z</time>
      </trkpt>
      <trkpt lat="47.32723" lon="-1.28669">
        <ele>119</ele>
        <time>2015-01-11T10:40:34.000Z</time>
      </trkpt>
      <trkpt lat="47.32732" lon="-1.28679">
        <ele>119</ele>
        <time>2015-01-11T10:40:36.000Z</time>
      </trkpt>
      <trkpt lat="47.3274" lon="-1.2869">
        <ele>118</ele>
        <time>2015-01-11T10:40:38.000Z</time>
      </trkpt>
      <trkpt lat="47.32748" lon="-1.28702">
        <ele>118</ele>
        <time>2015-01-11T10:40:40.000Z</time>
      </trkpt>
      <trkpt lat="47.32757" lon="-1.28714">
        <ele>118</ele>
        <time>2015-01-11T10:40:42.000Z</time>
      </trkpt>
      <trkpt lat="47.32766" lon="-1.28727">
        <ele>117</ele>
        <time>2015-01-11T10:40:44.000Z</time>
      </trkpt>
      <trkpt lat="47.32775" lon="-1.28739">
        <ele>117</ele>
        <time>2015-01-11T10:40:46.000Z</time>
      </trkpt>
      <trkpt lat="47.32784" lon="-1.28751">
        <ele>117</ele>
        <time>2015-01-11T10:40:48.000Z</time>
      </trkpt>
      <trkpt lat="47.32794" lon="-1.28758">
        <ele>116</ele>
        <time>2015-01-11T10:40:50.000Z</time>
      </trkpt>
      <trkpt lat="47.32802" lon="-1.2875">
        <ele>117</ele>
        <time>2015-01-11T10:40:52.000Z</time>
      </trkpt>
      <trkpt lat="47.32809" lon="-1.28739">
        <ele>117</ele>
        <time>2015-01-11T10:40:54.000Z</time>
      </trkpt>
      <trkpt lat="47.32817" lon="-1.28729">
        <ele>117</ele>
        <time>2015-01-11T10:40:56.000Z</time>
      </trkpt>
      <trkpt lat="47.32825" lon="-1.28718">
        <ele>117</ele>
        <time>2015-01-11T10:40:58.000Z</time>
      </trkpt>
      <trkpt lat="47.32833" lon="-1.28706">
        <ele>116</ele>
        <time>2015-01-11T10:41:00.000Z</time>
      </trkpt>
      <trkpt lat="47.32833" lon="-1.28691">
        <ele>116</ele>
        <time>2015-01-11T10:41:02.000Z</time>
      </trkpt>
      <trkpt lat="47.32827" lon="-1.28681">
        <ele>115</ele>
        <time>2015-01-11T10:41:04.000Z</time>
      </trkpt>
      <trkpt lat="47.32821" lon="-1.28672">
        <ele>115</ele>
        <time>2015-01-11T10:41:06.000Z</time>
      </trkpt>
      <trkpt lat="47.32815" lon="-1.28663">
        <ele>115</ele>
        <time>2015-01-11T10:41:08.000Z</time>
      </trkpt>
      <trkpt lat="47.3281" lon="-1.28653">
        <ele>115</ele>
        <time>2015-01-11T10:41:10.000Z</time>
      </trkpt>
      <trkpt lat="47.32806" lon="-1.28643">
        <ele>115</ele>
        <time>2015-01-11T10:41:12.000Z</time>
      </trkpt>
      <trkpt lat="47.32801" lon="-1.28633">
        <ele>116</ele>
        <time>2015-01-11T10:41:14.000Z</time>
      </trkpt>
      <trkpt lat="47.32798" lon="-1.28622">
        <ele>116</ele>
        <time>2015-01-11T10:41:16.000Z</time>
      </trkpt>
      <trkpt lat="47.32793" lon="-1.28612">
        <ele>116</ele>
        <time>2015-01-11T10:41:18.000Z</time>
      </trkpt>
      <trkpt lat="47.32789" lon="-1.28602">
        <ele>118</ele>
        <time>2015-01-11T10:41:20.000Z</time>
      </trkpt>
      <trkpt lat="47.32785" lon="-1.28593">
        <ele>118</ele>
        <time>2015-01-11T10:41:22.000Z</time>
      </trkpt>
      <trkpt lat="47.3278" lon="-1.28583">
        <ele>118</ele>
        <time>2015-01-11T10:41:24.000Z</time>
      </trkpt>
      <trkpt lat="47.32776" lon="-1.28573">
        <ele>118</ele>
        <time>2015-01-11T10:41:26.000Z</time>
      </trkpt>
      <trkpt lat="47.32772" lon="-1.28561">
        <ele>119</ele>
        <time>2015-01-11T10:41:28.000Z</time>
      </trkpt>
      <trkpt lat="47.32771" lon="-1.28549">
        <ele>119</ele>
        <time>2015-01-11T10:41:30.000Z</time>
      </trkpt>
      <trkpt lat="47.3277" lon="-1.28536">
        <ele>119</ele>
        <time>2015-01-11T10:41:32.000Z</time>
      </trkpt>
      <trkpt lat="47.3277" lon="-1.28523">
        <ele>119</ele>
        <time>2015-01-11T10:41:34.000Z</time>
      </trkpt>
      <trkpt lat="47.3277" lon="-1.28509">
        <ele>120</ele>
        <time>2015-01-11T10:41:36.000Z</time>
      </trkpt>
      <trkpt lat="47.32771" lon="-1.28495">
        <ele>120</ele>
        <time>2015-01-11T10:41:38.000Z</time>
      </trkpt>
      <trkpt lat="47.32771" lon="-1.28483">
        <ele>121</ele>
        <time>2015-01-11T10:41:40.000Z</time>
      </trkpt>
      <trkpt lat="47.32772" lon="-1.2847">
        <ele>121</ele>
        <time>2015-01-11T10:41:42.000Z</time>
      </trkpt>
      <trkpt lat="47.32773" lon="-1.28458">
        <ele>121</ele>
        <time>2015-01-11T10:41:44.000Z</time>
      </trkpt>
      <trkpt lat="47.32773" lon="-1.28446">
        <ele>122</ele>
        <time>2015-01-11T10:41:46.000Z</time>
      </trkpt>
      <trkpt lat="47.32774" lon="-1.28435">
        <ele>122</ele>
        <time>2015-01-11T10:41:48.000Z</time>
      </trkpt>
      <trkpt lat="47.32774" lon="-1.28422">
        <ele>122</ele>
        <time>2015-01-11T10:41:50.000Z</time>
      </trkpt>
      <trkpt lat="47.32774" lon="-1.2841">
        <ele>122</ele>
        <time>2015-01-11T10:41:52.000Z</time>
      </trkpt>
      <trkpt lat="47.32774" lon="-1.28397">
        <ele>122</ele>
        <time>2015-01-11T10:41:54.000Z</time>
      </trkpt>
      <trkpt lat="47.32777" lon="-1.28385">
        <ele>123</ele>
        <time>2015-01-11T10:41:56.000Z</time>
      </trkpt>
      <trkpt lat="47.32781" lon="-1.28373">
        <ele>123</ele>
        <time>2015-01-11T10:41:58.000Z</time>
      </trkpt>
      <trkpt lat="47.32786" lon="-1.28363">
        <ele>123</ele>
        <time>2015-01-11T10:42:00.000Z</time>
      </trkpt>
      <trkpt lat="47.32791" lon="-1.28352">
        <ele>123</ele>
        <time>2015-01-11T10:42:02.000Z</time>
      </trkpt>
      <trkpt lat="47.32796" lon="-1.28341">
        <ele>123</ele>
        <time>2015-01-11T10:42:04.000Z</time>
      </trkpt>
      <trkpt lat="47.328" lon="-1.28329">
        <ele>123</ele>
        <time>2015-01-11T10:42:06.000Z</time>
      </trkpt>
      <trkpt lat="47.32803" lon="-1.28317">
        <ele>123</ele>
        <time>2015-01-11T10:42:08.000Z</time>
      </trkpt>
      <trkpt lat="47.32805" lon="-1.28304">
        <ele>123</ele>
        <time>2015-01-11T10:42:10.000Z</time>
      </trkpt>
      <trkpt lat="47.32806" lon="-1.28291">
        <ele>123</ele>
        <time>2015-01-11T10:42:12.000Z</time>
      </trkpt>
      <trkpt lat="47.32808" lon="-1.28278">
        <ele>123</ele>
        <time>2015-01-11T10:42:14.000Z</time>
      </trkpt>
      <trkpt lat="47.3281" lon="-1.28266">
        <ele>122</ele>
        <time>2015-01-11T10:42:16.000Z</time>
      </trkpt>
      <trkpt lat="47.32811" lon="-1.28254">
        <ele>122</ele>
        <time>2015-01-11T10:42:18.000Z</time>
      </trkpt>
      <trkpt lat="47.3281" lon="-1.28243">
        <ele>122</ele>
        <time>2015-01-11T10:42:20.000Z</time>
      </trkpt>
      <trkpt lat="47.32805" lon="-1.28233">
        <ele>122</ele>
        <time>2015-01-11T10:42:22.000Z</time>
      </trkpt>
      <trkpt lat="47.32798" lon="-1.28228">
        <ele>121</ele>
        <time>2015-01-11T10:42:24.000Z</time>
      </trkpt>
      <trkpt lat="47.3279" lon="-1.28229">
        <ele>122</ele>
        <time>2015-01-11T10:42:26.000Z</time>
      </trkpt>
      <trkpt lat="47.32783" lon="-1.28236">
        <ele>122</ele>
        <time>2015-01-11T10:42:28.000Z</time>
      </trkpt>
      <trkpt lat="47.32777" lon="-1.28246">
        <ele>122</ele>
        <time>2015-01-11T10:42:30.000Z</time>
      </trkpt>
      <trkpt lat="47.3277" lon="-1.28256">
        <ele>123</ele>
        <time>2015-01-11T10:42:32.000Z</time>
      </trkpt>
      <trkpt lat="47.32763" lon="-1.28263">
        <ele>123</ele>
        <time>2015-01-11T10:42:34.000Z</time>
      </trkpt>
      <trkpt lat="47.32755" lon="-1.28269">
        <ele>123</ele>
        <time>2015-01-11T10:42:36.000Z</time>
      </trkpt>
      <trkpt lat="47.32747" lon="-1.28274">
        <ele>123</ele>
        <time>2015-01-11T10:42:38.000Z</time>
      </trkpt>
      <trkpt lat="47.32739" lon="-1.28278">
        <ele>123</ele>
        <time>2015-01-11T10:42:40.000Z</time>
      </trkpt>
      <trkpt lat="47.32732" lon="-1.28277">
        <ele>123</ele>
        <time>2015-01-11T10:42:42.000Z</time>
      </trkpt>
      <trkpt lat="47.32727" lon="-1.2827">
        <ele>123</ele>
        <time>2015-01-11T10:42:44.000Z</time>
      </trkpt>
      <trkpt lat="47.32724" lon="-1.28257">
        <ele>123</ele>
        <time>2015-01-11T10:42:46.000Z</time>
      </trkpt>
      <trkpt lat="47.32722" lon="-1.28244">
        <ele>123</ele>
        <time>2015-01-11T10:42:48.000Z</time>
      </trkpt>
      <trkpt lat="47.32719" lon="-1.28232">
        <ele>123</ele>
        <time>2015-01-11T10:42:50.000Z</time>
      </trkpt>
      <trkpt lat="47.32716" lon="-1.2822">
        <ele>123</ele>
        <time>2015-01-11T10:42:52.000Z</time>
      </trkpt>
      <trkpt lat="47.32713" lon="-1.28206">
        <ele>123</ele>
        <time>2015-01-11T10:42:54.000Z</time>
      </trkpt>
      <trkpt lat="47.32708" lon="-1.28194">
        <ele>122</ele>
        <time>2015-01-11T10:42:56.000Z</time>
      </trkpt>
      <trkpt lat="47.32704" lon="-1.28181">
        <ele>122</ele>
        <time>2015-01-11T10:42:58.000Z</time>
      </trkpt>
      <trkpt lat="47.327" lon="-1.28168">
        <ele>122</ele>
        <time>2015-01-11T10:43:00.000Z</time>
      </trkpt>
      <trkpt lat="47.32695" lon="-1.28155">
        <ele>122</ele>
        <time>2015-01-11T10:43:02.000Z</time>
      </trkpt>
      <trkpt lat="47.3269" lon="-1.28144">
        <ele>122</ele>
        <time>2015-01-11T10:43:04.000Z</time>
      </trkpt>
      <trkpt lat="47.32684" lon="-1.28133">
        <ele>123</ele>
        <time>2015-01-11T10:43:06.000Z</time>
      </trkpt>
      <trkpt lat="47.32677" lon="-1.28122">
        <ele>123</ele>
        <time>2015-01-11T10:43:08.000Z</time>
      </trkpt>
      <trkpt lat="47.3267" lon="-1.28112">
        <ele>124</ele>
        <time>2015-01-11T10:43:10.000Z</time>
      </trkpt>
      <trkpt lat="47.32663" lon="-1.28102">
        <ele>124</ele>
        <time>2015-01-11T10:43:12.000Z</time>
      </trkpt>
      <trkpt lat="47.32655" lon="-1.28093">
        <ele>124</ele>
        <time>2015-01-11T10:43:14.000Z</time>
      </trkpt>
      <trkpt lat="47.32649" lon="-1.28083">
        <ele>125</ele>
        <time>2015-01-11T10:43:16.000Z</time>
      </trkpt>
      <trkpt lat="47.32642" lon="-1.28071">
        <ele>125</ele>
        <time>2015-01-11T10:43:18.000Z</time>
      </trkpt>
      <trkpt lat="47.32635" lon="-1.28061">
        <ele>125</ele>
        <time>2015-01-11T10:43:20.000Z</time>
      </trkpt>
      <trkpt lat="47.32628" lon="-1.28052">
        <ele>125</ele>
        <time>2015-01-11T10:43:22.000Z</time>
      </trkpt>
      <trkpt lat="47.32622" lon="-1.28042">
        <ele>125</ele>
        <time>2015-01-11T10:43:24.000Z</time>
      </trkpt>
      <trkpt lat="47.32616" lon="-1.28033">
        <ele>124</ele>
        <time>2015-01-11T10:43:26.000Z</time>
      </trkpt>
      <trkpt lat="47.32614" lon="-1.28022">
        <ele>124</ele>
        <time>2015-01-11T10:43:28.000Z</time>
      </trkpt>
      <trkpt lat="47.32619" lon="-1.28014">
        <ele>123</ele>
        <time>2015-01-11T10:43:30.000Z</time>
      </trkpt>
      <trkpt lat="47.32627" lon="-1.28005">
        <ele>123</ele>
        <time>2015-01-11T10:43:32.000Z</time>
      </trkpt>
      <trkpt lat="47.32634" lon="-1.27997">
        <ele>123</ele>
        <time>2015-01-11T10:43:34.000Z</time>
      </trkpt>
      <trkpt lat="47.32641" lon="-1.27989">
        <ele>123</ele>
        <time>2015-01-11T10:43:36.000Z</time>
      </trkpt>
      <trkpt lat="47.32648" lon="-1.2798">
        <ele>122</ele>
        <time>2015-01-11T10:43:38.000Z</time>
      </trkpt>
      <trkpt lat="47.32655" lon="-1.27972">
        <ele>123</ele>
        <time>2015-01-11T10:43:40.000Z</time>
      </trkpt>
      <trkpt lat="47.32662" lon="-1.27964">
        <ele>122</ele>
        <time>2015-01-11T10:43:42.000Z</time>
      </trkpt>
      <trkpt lat="47.32669" lon="-1.27956">
        <ele>122</ele>
        <time>2015-01-11T10:43:44.000Z</time>
      </trkpt>
      <trkpt lat="47.32676" lon="-1.27948">
        <ele>122</ele>
        <time>2015-01-11T10:43:46.000Z</time>
      </trkpt>
      <trkpt lat="47.32682" lon="-1.27941">
        <ele>122</ele>
        <time>2015-01-11T10:43:48.000Z</time>
      </trkpt>
      <trkpt lat="47.32687" lon="-1.27934">
        <ele>121</ele>
        <time>2015-01-11T10:43:50.000Z</time>
      </trkpt>
      <trkpt lat="47.32687" lon="-1.27925">
        <ele>122</ele>
        <time>2015-01-11T10:43:52.000Z</time>
      </trkpt>
      <trkpt lat="47.32686" lon="-1.27916">
        <ele>121</ele>
        <time>2015-01-11T10:43:54.000Z</time>
      </trkpt>
      <trkpt lat="47.32684" lon="-1.27907">
        <ele>122</ele>
        <time>2015-01-11T10:43:56.000Z</time>
      </trkpt>
      <trkpt lat="47.32681" lon="-1.27898">
        <ele>122</ele>
        <time>2015-01-11T10:43:58.000Z</time>
      </trkpt>
      <trkpt lat="47.32678" lon="-1.27889">
        <ele>122</ele>
        <time>2015-01-11T10:44:00.000Z</time>
      </trkpt>
      <trkpt lat="47.32678" lon="-1.2788">
        <ele>123</ele>
        <time>2015-01-11T10:44:02.000Z</time>
      </trkpt>
      <trkpt lat="47.32682" lon="-1.27872">
        <ele>122</ele>
        <time>2015-01-11T10:44:04.000Z</time>
      </trkpt>
      <trkpt lat="47.32688" lon="-1.27864">
        <ele>122</ele>
        <time>2015-01-11T10:44:06.000Z</time>
      </trkpt>
      <trkpt lat="47.32694" lon="-1.27857">
        <ele>122</ele>
        <time>2015-01-11T10:44:08.000Z</time>
      </trkpt>
      <trkpt lat="47.327" lon="-1.27851">
        <ele>122</ele>
        <time>2015-01-11T10:44:10.000Z</time>
      </trkpt>
      <trkpt lat="47.32706" lon="-1.27843">
        <ele>122</ele>
        <time>2015-01-11T10:44:12.000Z</time>
      </trkpt>
      <trkpt lat="47.32711" lon="-1.27835">
        <ele>122</ele>
        <time>2015-01-11T10:44:14.000Z</time>
      </trkpt>
      <trkpt lat="47.32713" lon="-1.27826">
        <ele>122</ele>
        <time>2015-01-11T10:44:16.000Z</time>
      </trkpt>
      <trkpt lat="47.32717" lon="-1.27818">
        <ele>122</ele>
        <time>2015-01-11T10:44:18.000Z</time>
      </trkpt>
      <trkpt lat="47.32722" lon="-1.27811">
        <ele>122</ele>
        <time>2015-01-11T10:44:20.000Z</time>
      </trkpt>
      <trkpt lat="47.32727" lon="-1.27804">
        <ele>122</ele>
        <time>2015-01-11T10:44:22.000Z</time>
      </trkpt>
      <trkpt lat="47.32732" lon="-1.27796">
        <ele>123</ele>
        <time>2015-01-11T10:44:24.000Z</time>
      </trkpt>
      <trkpt lat="47.32737" lon="-1.2779">
        <ele>122</ele>
        <time>2015-01-11T10:44:26.000Z</time>
      </trkpt>
      <trkpt lat="47.32741" lon="-1.27784">
        <ele>122</ele>
        <time>2015-01-11T10:44:28.000Z</time>
      </trkpt>
      <trkpt lat="47.32741" lon="-1.27784">
        <ele>122</ele>
        <time>2015-01-11T10:44:30.000Z</time>
      </trkpt>
      <trkpt lat="47.32752" lon="-1.27789">
        <ele>121</ele>
        <time>2015-01-11T10:44:32.000Z</time>
      </trkpt>
      <trkpt lat="47.32759" lon="-1.27795">
        <ele>121</ele>
        <time>2015-01-11T10:44:34.000Z</time>
      </trkpt>
      <trkpt lat="47.32767" lon="-1.27793">
        <ele>121</ele>
        <time>2015-01-11T10:44:36.000Z</time>
      </trkpt>
      <trkpt lat="47.32775" lon="-1.27788">
        <ele>121</ele>
        <time>2015-01-11T10:44:38.000Z</time>
      </trkpt>
      <trkpt lat="47.32782" lon="-1.27783">
        <ele>122</ele>
        <time>2015-01-11T10:44:40.000Z</time>
      </trkpt>
      <trkpt lat="47.32788" lon="-1.27778">
        <ele>122</ele>
        <time>2015-01-11T10:44:42.000Z</time>
      </trkpt>
      <trkpt lat="47.32795" lon="-1.27774">
        <ele>122</ele>
        <time>2015-01-11T10:44:44.000Z</time>
      </trkpt>
      <trkpt lat="47.32801" lon="-1.2777">
        <ele>122</ele>
        <time>2015-01-11T10:44:46.000Z</time>
      </trkpt>
      <trkpt lat="47.32806" lon="-1.27766">
        <ele>122</ele>
        <time>2015-01-11T10:44:48.000Z</time>
      </trkpt>
      <trkpt lat="47.32813" lon="-1.27764">
        <ele>122</ele>
        <time>2015-01-11T10:44:50.000Z</time>
      </trkpt>
      <trkpt lat="47.32819" lon="-1.27762">
        <ele>122</ele>
        <time>2015-01-11T10:44:52.000Z</time>
      </trkpt>
      <trkpt lat="47.32826" lon="-1.2776">
        <ele>122</ele>
        <time>2015-01-11T10:44:54.000Z</time>
      </trkpt>
      <trkpt lat="47.32834" lon="-1.27756">
        <ele>121</ele>
        <time>2015-01-11T10:44:56.000Z</time>
      </trkpt>
      <trkpt lat="47.32841" lon="-1.27753">
        <ele>121</ele>
        <time>2015-01-11T10:44:58.000Z</time>
      </trkpt>
      <trkpt lat="47.32849" lon="-1.27749">
        <ele>121</ele>
        <time>2015-01-11T10:45:00.000Z</time>
      </trkpt>
      <trkpt lat="47.32856" lon="-1.27746">
        <ele>120</ele>
        <time>2015-01-11T10:45:02.000Z</time>
      </trkpt>
      <trkpt lat="47.32862" lon="-1.27743">
        <ele>120</ele>
        <time>2015-01-11T10:45:04.000Z</time>
      </trkpt>
      <trkpt lat="47.32868" lon="-1.2774">
        <ele>119</ele>
        <time>2015-01-11T10:45:06.000Z</time>
      </trkpt>
      <trkpt lat="47.32874" lon="-1.27737">
        <ele>119</ele>
        <time>2015-01-11T10:45:08.000Z</time>
      </trkpt>
      <trkpt lat="47.3288" lon="-1.27735">
        <ele>119</ele>
        <time>2015-01-11T10:45:10.000Z</time>
      </trkpt>
      <trkpt lat="47.32887" lon="-1.27731">
        <ele>119</ele>
        <time>2015-01-11T10:45:12.000Z</time>
      </trkpt>
      <trkpt lat="47.32893" lon="-1.27728">
        <ele>118</ele>
        <time>2015-01-11T10:45:14.000Z</time>
      </trkpt>
      <trkpt lat="47.32901" lon="-1.27728">
        <ele>118</ele>
        <time>2015-01-11T10:45:16.000Z</time>
      </trkpt>
      <trkpt lat="47.32909" lon="-1.27728">
        <ele>118</ele>
        <time>2015-01-11T10:45:18.000Z</time>
      </trkpt>
      <trkpt lat="47.32917" lon="-1.27729">
        <ele>117</ele>
        <time>2015-01-11T10:45:20.000Z</time>
      </trkpt>
      <trkpt lat="47.32923" lon="-1.27731">
        <ele>117</ele>
        <time>2015-01-11T10:45:22.000Z</time>
      </trkpt>
      <trkpt lat="47.32923" lon="-1.27731">
        <ele>117</ele>
        <time>2015-01-11T10:45:24.000Z</time>
      </trkpt>
      <trkpt lat="47.32927" lon="-1.27718">
        <ele>117</ele>
        <time>2015-01-11T10:45:26.000Z</time>
      </trkpt>
      <trkpt lat="47.32926" lon="-1.27707">
        <ele>117</ele>
        <time>2015-01-11T10:45:28.000Z</time>
      </trkpt>
      <trkpt lat="47.32927" lon="-1.27697">
        <ele>117</ele>
        <time>2015-01-11T10:45:30.000Z</time>
      </trkpt>
      <trkpt lat="47.32927" lon="-1.27687">
        <ele>117</ele>
        <time>2015-01-11T10:45:32.000Z</time>
      </trkpt>
      <trkpt lat="47.32927" lon="-1.27676">
        <ele>117</ele>
        <time>2015-01-11T10:45:34.000Z</time>
      </trkpt>
      <trkpt lat="47.32927" lon="-1.27664">
        <ele>117</ele>
        <time>2015-01-11T10:45:36.000Z</time>
      </trkpt>
      <trkpt lat="47.32927" lon="-1.27654">
        <ele>117</ele>
        <time>2015-01-11T10:45:38.000Z</time>
      </trkpt>
      <trkpt lat="47.32927" lon="-1.27644">
        <ele>117</ele>
        <time>2015-01-11T10:45:40.000Z</time>
      </trkpt>
      <trkpt lat="47.32928" lon="-1.27635">
        <ele>117</ele>
        <time>2015-01-11T10:45:42.000Z</time>
      </trkpt>
      <trkpt lat="47.32928" lon="-1.27625">
        <ele>117</ele>
        <time>2015-01-11T10:45:44.000Z</time>
      </trkpt>
      <trkpt lat="47.32928" lon="-1.27615">
        <ele>117</ele>
        <time>2015-01-11T10:45:46.000Z</time>
      </trkpt>
      <trkpt lat="47.32929" lon="-1.27606">
        <ele>117</ele>
        <time>2015-01-11T10:45:48.000Z</time>
      </trkpt>
      <trkpt lat="47.32932" lon="-1.27598">
        <ele>117</ele>
        <time>2015-01-11T10:45:50.000Z</time>
      </trkpt>
      <trkpt lat="47.32932" lon="-1.27598">
        <ele>117</ele>
        <time>2015-01-11T10:45:52.000Z</time>
      </trkpt>
      <trkpt lat="47.32937" lon="-1.27589">
        <ele>118</ele>
        <time>2015-01-11T10:45:54.000Z</time>
      </trkpt>
      <trkpt lat="47.32937" lon="-1.27589">
        <ele>118</ele>
        <time>2015-01-11T10:45:56.000Z</time>
      </trkpt>
      <trkpt lat="47.32935" lon="-1.27593">
        <ele>118</ele>
        <time>2015-01-11T10:45:58.000Z</time>
      </trkpt>
      <trkpt lat="47.32935" lon="-1.27593">
        <ele>118</ele>
        <time>2015-01-11T10:46:00.000Z</time>
      </trkpt>
      <trkpt lat="47.32939" lon="-1.27585">
        <ele>118</ele>
        <time>2015-01-11T10:46:06.000Z</time>
      </trkpt>
      <trkpt lat="47.32942" lon="-1.27577">
        <ele>117</ele>
        <time>2015-01-11T10:46:08.000Z</time>
      </trkpt>
      <trkpt lat="47.32946" lon="-1.27571">
        <ele>117</ele>
        <time>2015-01-11T10:46:10.000Z</time>
      </trkpt>
      <trkpt lat="47.3295" lon="-1.27568">
        <ele>118</ele>
        <time>2015-01-11T10:46:12.000Z</time>
      </trkpt>
      <trkpt lat="47.32956" lon="-1.27566">
        <ele>118</ele>
        <time>2015-01-11T10:46:14.000Z</time>
      </trkpt>
      <trkpt lat="47.3297" lon="-1.27563">
        <ele>119</ele>
        <time>2015-01-11T10:46:16.000Z</time>
      </trkpt>
      <trkpt lat="47.32979" lon="-1.2756">
        <ele>119</ele>
        <time>2015-01-11T10:46:18.000Z</time>
      </trkpt>
      <trkpt lat="47.32986" lon="-1.27556">
        <ele>119</ele>
        <time>2015-01-11T10:46:20.000Z</time>
      </trkpt>
      <trkpt lat="47.32992" lon="-1.27551">
        <ele>119</ele>
        <time>2015-01-11T10:46:22.000Z</time>
      </trkpt>
      <trkpt lat="47.32998" lon="-1.27545">
        <ele>119</ele>
        <time>2015-01-11T10:46:24.000Z</time>
      </trkpt>
      <trkpt lat="47.33003" lon="-1.27537">
        <ele>118</ele>
        <time>2015-01-11T10:46:26.000Z</time>
      </trkpt>
      <trkpt lat="47.33004" lon="-1.27526">
        <ele>117</ele>
        <time>2015-01-11T10:46:28.000Z</time>
      </trkpt>
      <trkpt lat="47.33" lon="-1.27515">
        <ele>117</ele>
        <time>2015-01-11T10:46:30.000Z</time>
      </trkpt>
      <trkpt lat="47.33" lon="-1.27515">
        <ele>117</ele>
        <time>2015-01-11T10:46:32.000Z</time>
      </trkpt>
      <trkpt lat="47.33001" lon="-1.27504">
        <ele>117</ele>
        <time>2015-01-11T10:46:34.000Z</time>
      </trkpt>
      <trkpt lat="47.33009" lon="-1.27504">
        <ele>117</ele>
        <time>2015-01-11T10:46:36.000Z</time>
      </trkpt>
      <trkpt lat="47.33017" lon="-1.27502">
        <ele>117</ele>
        <time>2015-01-11T10:46:38.000Z</time>
      </trkpt>
      <trkpt lat="47.33026" lon="-1.27502">
        <ele>116</ele>
        <time>2015-01-11T10:46:40.000Z</time>
      </trkpt>
      <trkpt lat="47.33034" lon="-1.27503">
        <ele>115</ele>
        <time>2015-01-11T10:46:42.000Z</time>
      </trkpt>
      <trkpt lat="47.33055" lon="-1.27491">
        <ele>115</ele>
        <time>2015-01-11T10:46:45.000Z</time>
      </trkpt>
      <trkpt lat="47.33064" lon="-1.2748">
        <ele>114</ele>
        <time>2015-01-11T10:46:47.000Z</time>
      </trkpt>
      <trkpt lat="47.33073" lon="-1.27466">
        <ele>111</ele>
        <time>2015-01-11T10:46:49.000Z</time>
      </trkpt>
      <trkpt lat="47.33079" lon="-1.27458">
        <ele>111</ele>
        <time>2015-01-11T10:46:51.000Z</time>
      </trkpt>
      <trkpt lat="47.33084" lon="-1.27452">
        <ele>111</ele>
        <time>2015-01-11T10:46:53.000Z</time>
      </trkpt>
      <trkpt lat="47.33091" lon="-1.27439">
        <ele>111</ele>
        <time>2015-01-11T10:46:55.000Z</time>
      </trkpt>
      <trkpt lat="47.33098" lon="-1.27426">
        <ele>111</ele>
        <time>2015-01-11T10:46:57.000Z</time>
      </trkpt>
      <trkpt lat="47.33104" lon="-1.27417">
        <ele>116</ele>
        <time>2015-01-11T10:46:59.000Z</time>
      </trkpt>
      <trkpt lat="47.3311" lon="-1.27408">
        <ele>117</ele>
        <time>2015-01-11T10:47:01.000Z</time>
      </trkpt>
      <trkpt lat="47.33116" lon="-1.27399">
        <ele>118</ele>
        <time>2015-01-11T10:47:03.000Z</time>
      </trkpt>
      <trkpt lat="47.33122" lon="-1.2739">
        <ele>115</ele>
        <time>2015-01-11T10:47:05.000Z</time>
      </trkpt>
      <trkpt lat="47.33129" lon="-1.2738">
        <ele>114</ele>
        <time>2015-01-11T10:47:07.000Z</time>
      </trkpt>
      <trkpt lat="47.33136" lon="-1.2737">
        <ele>114</ele>
        <time>2015-01-11T10:47:09.000Z</time>
      </trkpt>
      <trkpt lat="47.33141" lon="-1.27362">
        <ele>113</ele>
        <time>2015-01-11T10:47:11.000Z</time>
      </trkpt>
      <trkpt lat="47.33147" lon="-1.27351">
        <ele>110</ele>
        <time>2015-01-11T10:47:13.000Z</time>
      </trkpt>
      <trkpt lat="47.33152" lon="-1.27338">
        <ele>108</ele>
        <time>2015-01-11T10:47:15.000Z</time>
      </trkpt>
      <trkpt lat="47.33156" lon="-1.27326">
        <ele>112</ele>
        <time>2015-01-11T10:47:17.000Z</time>
      </trkpt>
      <trkpt lat="47.3316" lon="-1.27316">
        <ele>114</ele>
        <time>2015-01-11T10:47:19.000Z</time>
      </trkpt>
      <trkpt lat="47.33163" lon="-1.27304">
        <ele>115</ele>
        <time>2015-01-11T10:47:21.000Z</time>
      </trkpt>
      <trkpt lat="47.33167" lon="-1.27292">
        <ele>117</ele>
        <time>2015-01-11T10:47:23.000Z</time>
      </trkpt>
      <trkpt lat="47.33174" lon="-1.27279">
        <ele>112</ele>
        <time>2015-01-11T10:47:25.000Z</time>
      </trkpt>
      <trkpt lat="47.33181" lon="-1.27268">
        <ele>111</ele>
        <time>2015-01-11T10:47:27.000Z</time>
      </trkpt>
      <trkpt lat="47.33188" lon="-1.27256">
        <ele>109</ele>
        <time>2015-01-11T10:47:29.000Z</time>
      </trkpt>
      <trkpt lat="47.33188" lon="-1.27256">
        <ele>109</ele>
        <time>2015-01-11T10:47:33.000Z</time>
      </trkpt>
      <trkpt lat="47.33188" lon="-1.27256">
        <ele>109</ele>
        <time>2015-01-11T10:47:35.000Z</time>
      </trkpt>
      <trkpt lat="47.33188" lon="-1.27256">
        <ele>109</ele>
        <time>2015-01-11T10:47:37.000Z</time>
      </trkpt>
      <trkpt lat="47.33188" lon="-1.27256">
        <ele>109</ele>
        <time>2015-01-11T10:47:43.000Z</time>
      </trkpt>
      <trkpt lat="47.33209" lon="-1.27219">
        <ele>108</ele>
        <time>2015-01-11T10:48:11.000Z</time>
      </trkpt>
      <trkpt lat="47.33219" lon="-1.27217">
        <ele>108</ele>
        <time>2015-01-11T10:48:15.000Z</time>
      </trkpt>
      <trkpt lat="47.33229" lon="-1.27217">
        <ele>107</ele>
        <time>2015-01-11T10:48:19.000Z</time>
      </trkpt>
      <trkpt lat="47.33229" lon="-1.27217">
        <ele>107</ele>
        <time>2015-01-11T10:48:21.000Z</time>
      </trkpt>
      <trkpt lat="47.33239" lon="-1.27217">
        <ele>108</ele>
        <time>2015-01-11T10:48:23.000Z</time>
      </trkpt>
      <trkpt lat="47.33245" lon="-1.2722">
        <ele>109</ele>
        <time>2015-01-11T10:48:25.000Z</time>
      </trkpt>
      <trkpt lat="47.3325" lon="-1.27223">
        <ele>110</ele>
        <time>2015-01-11T10:48:27.000Z</time>
      </trkpt>
      <trkpt lat="47.33259" lon="-1.27227">
        <ele>112</ele>
        <time>2015-01-11T10:48:31.000Z</time>
      </trkpt>
      <trkpt lat="47.33265" lon="-1.27229">
        <ele>115</ele>
        <time>2015-01-11T10:48:33.000Z</time>
      </trkpt>
      <trkpt lat="47.33271" lon="-1.27227">
        <ele>114</ele>
        <time>2015-01-11T10:48:35.000Z</time>
      </trkpt>
      <trkpt lat="47.33278" lon="-1.27227">
        <ele>111</ele>
        <time>2015-01-11T10:48:37.000Z</time>
      </trkpt>
      <trkpt lat="47.33278" lon="-1.27227">
        <ele>111</ele>
        <time>2015-01-11T10:48:39.000Z</time>
      </trkpt>
      <trkpt lat="47.33289" lon="-1.27226">
        <ele>115</ele>
        <time>2015-01-11T10:48:41.000Z</time>
      </trkpt>
      <trkpt lat="47.33295" lon="-1.27226">
        <ele>115</ele>
        <time>2015-01-11T10:48:43.000Z</time>
      </trkpt>
      <trkpt lat="47.33303" lon="-1.27228">
        <ele>114</ele>
        <time>2015-01-11T10:48:45.000Z</time>
      </trkpt>
      <trkpt lat="47.33311" lon="-1.27232">
        <ele>114</ele>
        <time>2015-01-11T10:48:47.000Z</time>
      </trkpt>
      <trkpt lat="47.3332" lon="-1.27237">
        <ele>112</ele>
        <time>2015-01-11T10:48:49.000Z</time>
      </trkpt>
      <trkpt lat="47.33328" lon="-1.2724">
        <ele>114</ele>
        <time>2015-01-11T10:48:51.000Z</time>
      </trkpt>
      <trkpt lat="47.33328" lon="-1.2724">
        <ele>114</ele>
        <time>2015-01-11T10:48:53.000Z</time>
      </trkpt>
      <trkpt lat="47.33337" lon="-1.27244">
        <ele>112</ele>
        <time>2015-01-11T10:48:55.000Z</time>
      </trkpt>
      <trkpt lat="47.33344" lon="-1.27247">
        <ele>112</ele>
        <time>2015-01-11T10:48:57.000Z</time>
      </trkpt>
      <trkpt lat="47.33352" lon="-1.27249">
        <ele>109</ele>
        <time>2015-01-11T10:48:59.000Z</time>
      </trkpt>
      <trkpt lat="47.3336" lon="-1.2725">
        <ele>105</ele>
        <time>2015-01-11T10:49:01.000Z</time>
      </trkpt>
      <trkpt lat="47.3337" lon="-1.27253">
        <ele>105</ele>
        <time>2015-01-11T10:49:03.000Z</time>
      </trkpt>
      <trkpt lat="47.33381" lon="-1.27258">
        <ele>106</ele>
        <time>2015-01-11T10:49:05.000Z</time>
      </trkpt>
      <trkpt lat="47.33392" lon="-1.27265">
        <ele>106</ele>
        <time>2015-01-11T10:49:07.000Z</time>
      </trkpt>
      <trkpt lat="47.33401" lon="-1.27272">
        <ele>106</ele>
        <time>2015-01-11T10:49:09.000Z</time>
      </trkpt>
      <trkpt lat="47.33411" lon="-1.27278">
        <ele>104</ele>
        <time>2015-01-11T10:49:11.000Z</time>
      </trkpt>
      <trkpt lat="47.33421" lon="-1.27283">
        <ele>103</ele>
        <time>2015-01-11T10:49:13.000Z</time>
      </trkpt>
      <trkpt lat="47.33431" lon="-1.27286">
        <ele>94</ele>
        <time>2015-01-11T10:49:15.000Z</time>
      </trkpt>
      <trkpt lat="47.33438" lon="-1.27288">
        <ele>91</ele>
        <time>2015-01-11T10:49:17.000Z</time>
      </trkpt>
      <trkpt lat="47.33445" lon="-1.27288">
        <ele>90</ele>
        <time>2015-01-11T10:49:19.000Z</time>
      </trkpt>
      <trkpt lat="47.33451" lon="-1.27285">
        <ele>92</ele>
        <time>2015-01-11T10:49:21.000Z</time>
      </trkpt>
      <trkpt lat="47.33456" lon="-1.2728">
        <ele>85</ele>
        <time>2015-01-11T10:49:23.000Z</time>
      </trkpt>
      <trkpt lat="47.33463" lon="-1.27271">
        <ele>75</ele>
        <time>2015-01-11T10:49:27.000Z</time>
      </trkpt>
      <trkpt lat="47.33463" lon="-1.27271">
        <ele>75</ele>
        <time>2015-01-11T10:49:29.000Z</time>
      </trkpt>
      <trkpt lat="47.33465" lon="-1.27263">
        <ele>76</ele>
        <time>2015-01-11T10:49:31.000Z</time>
      </trkpt>
      <trkpt lat="47.33465" lon="-1.27263">
        <ele>76</ele>
        <time>2015-01-11T10:49:33.000Z</time>
      </trkpt>
      <trkpt lat="47.33465" lon="-1.27263">
        <ele>76</ele>
        <time>2015-01-11T10:49:35.000Z</time>
      </trkpt>
      <trkpt lat="47.33465" lon="-1.27263">
        <ele>76</ele>
        <time>2015-01-11T10:49:37.000Z</time>
      </trkpt>
      <trkpt lat="47.33465" lon="-1.27263">
        <ele>76</ele>
        <time>2015-01-11T10:49:39.000Z</time>
      </trkpt>
      <trkpt lat="47.33469" lon="-1.27259">
        <ele>74</ele>
        <time>2015-01-11T10:49:41.000Z</time>
      </trkpt>
      <trkpt lat="47.33472" lon="-1.27257">
        <ele>76</ele>
        <time>2015-01-11T10:49:43.000Z</time>
      </trkpt>
      <trkpt lat="47.33475" lon="-1.27253">
        <ele>77</ele>
        <time>2015-01-11T10:49:47.000Z</time>
      </trkpt>
      <trkpt lat="47.33477" lon="-1.27249">
        <ele>78</ele>
        <time>2015-01-11T10:49:49.000Z</time>
      </trkpt>
      <trkpt lat="47.33479" lon="-1.27246">
        <ele>80</ele>
        <time>2015-01-11T10:49:51.000Z</time>
      </trkpt>
      <trkpt lat="47.33479" lon="-1.27246">
        <ele>80</ele>
        <time>2015-01-11T10:49:53.000Z</time>
      </trkpt>
      <trkpt lat="47.33482" lon="-1.27241">
        <ele>80</ele>
        <time>2015-01-11T10:49:55.000Z</time>
      </trkpt>
      <trkpt lat="47.33484" lon="-1.27236">
        <ele>82</ele>
        <time>2015-01-11T10:49:57.000Z</time>
      </trkpt>
      <trkpt lat="47.33485" lon="-1.27232">
        <ele>84</ele>
        <time>2015-01-11T10:49:59.000Z</time>
      </trkpt>
      <trkpt lat="47.33487" lon="-1.27227">
        <ele>88</ele>
        <time>2015-01-11T10:50:01.000Z</time>
      </trkpt>
      <trkpt lat="47.33488" lon="-1.27223">
        <ele>90</ele>
        <time>2015-01-11T10:50:03.000Z</time>
      </trkpt>
      <trkpt lat="47.33491" lon="-1.27215">
        <ele>90</ele>
        <time>2015-01-11T10:50:05.000Z</time>
      </trkpt>
      <trkpt lat="47.33491" lon="-1.27215">
        <ele>90</ele>
        <time>2015-01-11T10:50:07.000Z</time>
      </trkpt>
      <trkpt lat="47.33491" lon="-1.27215">
        <ele>90</ele>
        <time>2015-01-11T10:50:09.000Z</time>
      </trkpt>
      <trkpt lat="47.33493" lon="-1.27203">
        <ele>94</ele>
        <time>2015-01-11T10:50:11.000Z</time>
      </trkpt>
      <trkpt lat="47.33496" lon="-1.27194">
        <ele>96</ele>
        <time>2015-01-11T10:50:15.000Z</time>
      </trkpt>
      <trkpt lat="47.33497" lon="-1.27182">
        <ele>97</ele>
        <time>2015-01-11T10:50:19.000Z</time>
      </trkpt>
      <trkpt lat="47.33498" lon="-1.27171">
        <ele>95</ele>
        <time>2015-01-11T10:50:23.000Z</time>
      </trkpt>
      <trkpt lat="47.33498" lon="-1.27171">
        <ele>95</ele>
        <time>2015-01-11T10:50:25.000Z</time>
      </trkpt>
      <trkpt lat="47.335" lon="-1.27162">
        <ele>98</ele>
        <time>2015-01-11T10:50:27.000Z</time>
      </trkpt>
      <trkpt lat="47.335" lon="-1.27162">
        <ele>98</ele>
        <time>2015-01-11T10:50:29.000Z</time>
      </trkpt>
      <trkpt lat="47.335" lon="-1.27162">
        <ele>98</ele>
        <time>2015-01-11T10:50:31.000Z</time>
      </trkpt>
      <trkpt lat="47.335" lon="-1.2715">
        <ele>98</ele>
        <time>2015-01-11T10:50:33.000Z</time>
      </trkpt>
      <trkpt lat="47.335" lon="-1.2715">
        <ele>98</ele>
        <time>2015-01-11T10:50:35.000Z</time>
      </trkpt>
      <trkpt lat="47.335" lon="-1.27141">
        <ele>98</ele>
        <time>2015-01-11T10:50:37.000Z</time>
      </trkpt>
      <trkpt lat="47.335" lon="-1.27141">
        <ele>98</ele>
        <time>2015-01-11T10:50:39.000Z</time>
      </trkpt>
      <trkpt lat="47.33502" lon="-1.2713">
        <ele>99</ele>
        <time>2015-01-11T10:50:41.000Z</time>
      </trkpt>
      <trkpt lat="47.33506" lon="-1.27121">
        <ele>101</ele>
        <time>2015-01-11T10:50:45.000Z</time>
      </trkpt>
      <trkpt lat="47.33506" lon="-1.27121">
        <ele>101</ele>
        <time>2015-01-11T10:50:47.000Z</time>
      </trkpt>
      <trkpt lat="47.3351" lon="-1.27113">
        <ele>102</ele>
        <time>2015-01-11T10:50:49.000Z</time>
      </trkpt>
      <trkpt lat="47.3351" lon="-1.27113">
        <ele>102</ele>
        <time>2015-01-11T10:50:51.000Z</time>
      </trkpt>
      <trkpt lat="47.33516" lon="-1.27104">
        <ele>103</ele>
        <time>2015-01-11T10:50:53.000Z</time>
      </trkpt>
      <trkpt lat="47.33522" lon="-1.27095">
        <ele>102</ele>
        <time>2015-01-11T10:50:57.000Z</time>
      </trkpt>
      <trkpt lat="47.33529" lon="-1.27086">
        <ele>102</ele>
        <time>2015-01-11T10:51:01.000Z</time>
      </trkpt>
      <trkpt lat="47.33536" lon="-1.27077">
        <ele>102</ele>
        <time>2015-01-11T10:51:05.000Z</time>
      </trkpt>
      <trkpt lat="47.33542" lon="-1.27069">
        <ele>102</ele>
        <time>2015-01-11T10:51:09.000Z</time>
      </trkpt>
      <trkpt lat="47.33547" lon="-1.27062">
        <ele>101</ele>
        <time>2015-01-11T10:51:13.000Z</time>
      </trkpt>
      <trkpt lat="47.33547" lon="-1.27062">
        <ele>101</ele>
        <time>2015-01-11T10:51:15.000Z</time>
      </trkpt>
      <trkpt lat="47.33547" lon="-1.27062">
        <ele>101</ele>
        <time>2015-01-11T10:51:17.000Z</time>
      </trkpt>
      <trkpt lat="47.33552" lon="-1.27053">
        <ele>102</ele>
        <time>2015-01-11T10:51:19.000Z</time>
      </trkpt>
      <trkpt lat="47.33552" lon="-1.27053">
        <ele>102</ele>
        <time>2015-01-11T10:51:21.000Z</time>
      </trkpt>
      <trkpt lat="47.33552" lon="-1.27053">
        <ele>102</ele>
        <time>2015-01-11T10:51:23.000Z</time>
      </trkpt>
      <trkpt lat="47.33556" lon="-1.27046">
        <ele>102</ele>
        <time>2015-01-11T10:51:25.000Z</time>
      </trkpt>
      <trkpt lat="47.33556" lon="-1.27046">
        <ele>102</ele>
        <time>2015-01-11T10:51:27.000Z</time>
      </trkpt>
      <trkpt lat="47.33556" lon="-1.27046">
        <ele>102</ele>
        <time>2015-01-11T10:51:29.000Z</time>
      </trkpt>
      <trkpt lat="47.33561" lon="-1.27036">
        <ele>103</ele>
        <time>2015-01-11T10:51:31.000Z</time>
      </trkpt>
      <trkpt lat="47.33564" lon="-1.27028">
        <ele>104</ele>
        <time>2015-01-11T10:51:35.000Z</time>
      </trkpt>
      <trkpt lat="47.33568" lon="-1.27016">
        <ele>104</ele>
        <time>2015-01-11T10:51:39.000Z</time>
      </trkpt>
      <trkpt lat="47.33571" lon="-1.27001">
        <ele>104</ele>
        <time>2015-01-11T10:51:43.000Z</time>
      </trkpt>
      <trkpt lat="47.33572" lon="-1.26989">
        <ele>106</ele>
        <time>2015-01-11T10:51:47.000Z</time>
      </trkpt>
      <trkpt lat="47.33572" lon="-1.26989">
        <ele>106</ele>
        <time>2015-01-11T10:51:49.000Z</time>
      </trkpt>
      <trkpt lat="47.33576" lon="-1.2698">
        <ele>107</ele>
        <time>2015-01-11T10:51:51.000Z</time>
      </trkpt>
      <trkpt lat="47.33578" lon="-1.26975">
        <ele>108</ele>
        <time>2015-01-11T10:51:55.000Z</time>
      </trkpt>
      <trkpt lat="47.3358" lon="-1.26971">
        <ele>109</ele>
        <time>2015-01-11T10:51:57.000Z</time>
      </trkpt>
      <trkpt lat="47.33583" lon="-1.26967">
        <ele>110</ele>
        <time>2015-01-11T10:51:59.000Z</time>
      </trkpt>
      <trkpt lat="47.33586" lon="-1.26963">
        <ele>110</ele>
        <time>2015-01-11T10:52:01.000Z</time>
      </trkpt>
      <trkpt lat="47.33589" lon="-1.26959">
        <ele>111</ele>
        <time>2015-01-11T10:52:03.000Z</time>
      </trkpt>
      <trkpt lat="47.33596" lon="-1.26953">
        <ele>111</ele>
        <time>2015-01-11T10:52:05.000Z</time>
      </trkpt>
      <trkpt lat="47.33596" lon="-1.26953">
        <ele>111</ele>
        <time>2015-01-11T10:52:07.000Z</time>
      </trkpt>
      <trkpt lat="47.33601" lon="-1.26946">
        <ele>113</ele>
        <time>2015-01-11T10:52:09.000Z</time>
      </trkpt>
      <trkpt lat="47.33601" lon="-1.26946">
        <ele>113</ele>
        <time>2015-01-11T10:52:11.000Z</time>
      </trkpt>
      <trkpt lat="47.33605" lon="-1.26936">
        <ele>116</ele>
        <time>2015-01-11T10:52:13.000Z</time>
      </trkpt>
      <trkpt lat="47.33609" lon="-1.26927">
        <ele>117</ele>
        <time>2015-01-11T10:52:17.000Z</time>
      </trkpt>
      <trkpt lat="47.33615" lon="-1.26916">
        <ele>118</ele>
        <time>2015-01-11T10:52:21.000Z</time>
      </trkpt>
      <trkpt lat="47.3362" lon="-1.26907">
        <ele>120</ele>
        <time>2015-01-11T10:52:25.000Z</time>
      </trkpt>
      <trkpt lat="47.3362" lon="-1.26907">
        <ele>120</ele>
        <time>2015-01-11T10:52:27.000Z</time>
      </trkpt>
      <trkpt lat="47.33626" lon="-1.26897">
        <ele>120</ele>
        <time>2015-01-11T10:52:29.000Z</time>
      </trkpt>
      <trkpt lat="47.33626" lon="-1.26897">
        <ele>120</ele>
        <time>2015-01-11T10:52:31.000Z</time>
      </trkpt>
      <trkpt lat="47.33631" lon="-1.26888">
        <ele>121</ele>
        <time>2015-01-11T10:52:33.000Z</time>
      </trkpt>
      <trkpt lat="47.33631" lon="-1.26888">
        <ele>121</ele>
        <time>2015-01-11T10:52:35.000Z</time>
      </trkpt>
      <trkpt lat="47.33635" lon="-1.2688">
        <ele>121</ele>
        <time>2015-01-11T10:52:37.000Z</time>
      </trkpt>
      <trkpt lat="47.33635" lon="-1.2688">
        <ele>121</ele>
        <time>2015-01-11T10:52:39.000Z</time>
      </trkpt>
      <trkpt lat="47.3364" lon="-1.26872">
        <ele>121</ele>
        <time>2015-01-11T10:52:41.000Z</time>
      </trkpt>
      <trkpt lat="47.3364" lon="-1.26872">
        <ele>121</ele>
        <time>2015-01-11T10:52:43.000Z</time>
      </trkpt>
      <trkpt lat="47.33643" lon="-1.26863">
        <ele>121</ele>
        <time>2015-01-11T10:52:45.000Z</time>
      </trkpt>
      <trkpt lat="47.33643" lon="-1.26863">
        <ele>121</ele>
        <time>2015-01-11T10:52:47.000Z</time>
      </trkpt>
      <trkpt lat="47.33648" lon="-1.26855">
        <ele>121</ele>
        <time>2015-01-11T10:52:49.000Z</time>
      </trkpt>
      <trkpt lat="47.33652" lon="-1.26849">
        <ele>122</ele>
        <time>2015-01-11T10:52:53.000Z</time>
      </trkpt>
      <trkpt lat="47.33652" lon="-1.26849">
        <ele>122</ele>
        <time>2015-01-11T10:52:55.000Z</time>
      </trkpt>
      <trkpt lat="47.33657" lon="-1.26842">
        <ele>122</ele>
        <time>2015-01-11T10:52:57.000Z</time>
      </trkpt>
      <trkpt lat="47.33657" lon="-1.26842">
        <ele>122</ele>
        <time>2015-01-11T10:52:59.000Z</time>
      </trkpt>
      <trkpt lat="47.33663" lon="-1.26835">
        <ele>123</ele>
        <time>2015-01-11T10:53:01.000Z</time>
      </trkpt>
      <trkpt lat="47.33669" lon="-1.26827">
        <ele>123</ele>
        <time>2015-01-11T10:53:05.000Z</time>
      </trkpt>
      <trkpt lat="47.33675" lon="-1.2682">
        <ele>123</ele>
        <time>2015-01-11T10:53:09.000Z</time>
      </trkpt>
      <trkpt lat="47.33681" lon="-1.26814">
        <ele>124</ele>
        <time>2015-01-11T10:53:13.000Z</time>
      </trkpt>
      <trkpt lat="47.33681" lon="-1.26814">
        <ele>124</ele>
        <time>2015-01-11T10:53:15.000Z</time>
      </trkpt>
      <trkpt lat="47.33687" lon="-1.2681">
        <ele>124</ele>
        <time>2015-01-11T10:53:17.000Z</time>
      </trkpt>
      <trkpt lat="47.33687" lon="-1.2681">
        <ele>124</ele>
        <time>2015-01-11T10:53:19.000Z</time>
      </trkpt>
      <trkpt lat="47.33687" lon="-1.2681">
        <ele>124</ele>
        <time>2015-01-11T10:53:21.000Z</time>
      </trkpt>
      <trkpt lat="47.33693" lon="-1.26804">
        <ele>124</ele>
        <time>2015-01-11T10:53:23.000Z</time>
      </trkpt>
      <trkpt lat="47.33693" lon="-1.26804">
        <ele>124</ele>
        <time>2015-01-11T10:53:25.000Z</time>
      </trkpt>
      <trkpt lat="47.33698" lon="-1.26796">
        <ele>123</ele>
        <time>2015-01-11T10:53:27.000Z</time>
      </trkpt>
      <trkpt lat="47.33701" lon="-1.26786">
        <ele>122</ele>
        <time>2015-01-11T10:53:31.000Z</time>
      </trkpt>
      <trkpt lat="47.33701" lon="-1.26786">
        <ele>122</ele>
        <time>2015-01-11T10:53:33.000Z</time>
      </trkpt>
      <trkpt lat="47.33704" lon="-1.26777">
        <ele>122</ele>
        <time>2015-01-11T10:53:35.000Z</time>
      </trkpt>
      <trkpt lat="47.33709" lon="-1.26766">
        <ele>125</ele>
        <time>2015-01-11T10:53:39.000Z</time>
      </trkpt>
      <trkpt lat="47.33716" lon="-1.26765">
        <ele>125</ele>
        <time>2015-01-11T10:53:43.000Z</time>
      </trkpt>
      <trkpt lat="47.33724" lon="-1.26775">
        <ele>124</ele>
        <time>2015-01-11T10:53:47.000Z</time>
      </trkpt>
      <trkpt lat="47.33733" lon="-1.26778">
        <ele>123</ele>
        <time>2015-01-11T10:53:51.000Z</time>
      </trkpt>
      <trkpt lat="47.33733" lon="-1.26778">
        <ele>123</ele>
        <time>2015-01-11T10:53:53.000Z</time>
      </trkpt>
      <trkpt lat="47.33736" lon="-1.26785">
        <ele>125</ele>
        <time>2015-01-11T10:53:55.000Z</time>
      </trkpt>
      <trkpt lat="47.33736" lon="-1.26785">
        <ele>125</ele>
        <time>2015-01-11T10:53:57.000Z</time>
      </trkpt>
      <trkpt lat="47.33736" lon="-1.26795">
        <ele>124</ele>
        <time>2015-01-11T10:53:59.000Z</time>
      </trkpt>
      <trkpt lat="47.33736" lon="-1.26795">
        <ele>124</ele>
        <time>2015-01-11T10:54:01.000Z</time>
      </trkpt>
      <trkpt lat="47.33737" lon="-1.268">
        <ele>125</ele>
        <time>2015-01-11T10:54:03.000Z</time>
      </trkpt>
      <trkpt lat="47.33737" lon="-1.268">
        <ele>125</ele>
        <time>2015-01-11T10:54:05.000Z</time>
      </trkpt>
      <trkpt lat="47.33737" lon="-1.268">
        <ele>125</ele>
        <time>2015-01-11T10:54:07.000Z</time>
      </trkpt>
      <trkpt lat="47.33737" lon="-1.268">
        <ele>125</ele>
        <time>2015-01-11T10:54:09.000Z</time>
      </trkpt>
      <trkpt lat="47.33749" lon="-1.26803">
        <ele>121</ele>
        <time>2015-01-11T10:56:36.000Z</time>
      </trkpt>
      <trkpt lat="47.33765" lon="-1.268">
        <ele>121</ele>
        <time>2015-01-11T10:56:39.000Z</time>
      </trkpt>
      <trkpt lat="47.33781" lon="-1.26794">
        <ele>120</ele>
        <time>2015-01-11T10:56:41.000Z</time>
      </trkpt>
      <trkpt lat="47.33797" lon="-1.26788">
        <ele>120</ele>
        <time>2015-01-11T10:56:43.000Z</time>
      </trkpt>
      <trkpt lat="47.33813" lon="-1.26781">
        <ele>116</ele>
        <time>2015-01-11T10:56:45.000Z</time>
      </trkpt>
      <trkpt lat="47.33841" lon="-1.26769">
        <ele>114</ele>
        <time>2015-01-11T10:56:47.000Z</time>
      </trkpt>
      <trkpt lat="47.3385" lon="-1.26765">
        <ele>113</ele>
        <time>2015-01-11T10:56:49.000Z</time>
      </trkpt>
      <trkpt lat="47.33857" lon="-1.26769">
        <ele>112</ele>
        <time>2015-01-11T10:56:51.000Z</time>
      </trkpt>
      <trkpt lat="47.33865" lon="-1.2678">
        <ele>111</ele>
        <time>2015-01-11T10:56:53.000Z</time>
      </trkpt>
      <trkpt lat="47.33872" lon="-1.2679">
        <ele>110</ele>
        <time>2015-01-11T10:56:55.000Z</time>
      </trkpt>
      <trkpt lat="47.3388" lon="-1.26799">
        <ele>109</ele>
        <time>2015-01-11T10:56:57.000Z</time>
      </trkpt>
      <trkpt lat="47.33889" lon="-1.26809">
        <ele>107</ele>
        <time>2015-01-11T10:56:59.000Z</time>
      </trkpt>
      <trkpt lat="47.33896" lon="-1.26821">
        <ele>105</ele>
        <time>2015-01-11T10:57:01.000Z</time>
      </trkpt>
      <trkpt lat="47.33897" lon="-1.26833">
        <ele>104</ele>
        <time>2015-01-11T10:57:03.000Z</time>
      </trkpt>
      <trkpt lat="47.33897" lon="-1.26843">
        <ele>102</ele>
        <time>2015-01-11T10:57:05.000Z</time>
      </trkpt>
      <trkpt lat="47.33891" lon="-1.26853">
        <ele>100</ele>
        <time>2015-01-11T10:57:07.000Z</time>
      </trkpt>
      <trkpt lat="47.33888" lon="-1.26864">
        <ele>97</ele>
        <time>2015-01-11T10:57:09.000Z</time>
      </trkpt>
      <trkpt lat="47.33888" lon="-1.26864">
        <ele>97</ele>
        <time>2015-01-11T10:57:11.000Z</time>
      </trkpt>
      <trkpt lat="47.33883" lon="-1.26875">
        <ele>95</ele>
        <time>2015-01-11T10:57:13.000Z</time>
      </trkpt>
      <trkpt lat="47.33883" lon="-1.26875">
        <ele>95</ele>
        <time>2015-01-11T10:57:15.000Z</time>
      </trkpt>
      <trkpt lat="47.33883" lon="-1.26875">
        <ele>95</ele>
        <time>2015-01-11T10:57:17.000Z</time>
      </trkpt>
      <trkpt lat="47.33882" lon="-1.26886">
        <ele>95</ele>
        <time>2015-01-11T10:57:19.000Z</time>
      </trkpt>
      <trkpt lat="47.33882" lon="-1.26886">
        <ele>95</ele>
        <time>2015-01-11T10:57:21.000Z</time>
      </trkpt>
      <trkpt lat="47.33886" lon="-1.26897">
        <ele>93</ele>
        <time>2015-01-11T10:57:23.000Z</time>
      </trkpt>
      <trkpt lat="47.3389" lon="-1.26905">
        <ele>91</ele>
        <time>2015-01-11T10:57:27.000Z</time>
      </trkpt>
      <trkpt lat="47.3389" lon="-1.26905">
        <ele>91</ele>
        <time>2015-01-11T10:57:29.000Z</time>
      </trkpt>
      <trkpt lat="47.3389" lon="-1.26905">
        <ele>91</ele>
        <time>2015-01-11T10:57:31.000Z</time>
      </trkpt>
      <trkpt lat="47.33896" lon="-1.26907">
        <ele>90</ele>
        <time>2015-01-11T10:57:33.000Z</time>
      </trkpt>
      <trkpt lat="47.33904" lon="-1.26901">
        <ele>90</ele>
        <time>2015-01-11T10:57:37.000Z</time>
      </trkpt>
      <trkpt lat="47.33916" lon="-1.26893">
        <ele>89</ele>
        <time>2015-01-11T10:57:41.000Z</time>
      </trkpt>
      <trkpt lat="47.33923" lon="-1.26886">
        <ele>88</ele>
        <time>2015-01-11T10:57:43.000Z</time>
      </trkpt>
      <trkpt lat="47.33928" lon="-1.26877">
        <ele>88</ele>
        <time>2015-01-11T10:57:45.000Z</time>
      </trkpt>
      <trkpt lat="47.33932" lon="-1.26869">
        <ele>88</ele>
        <time>2015-01-11T10:57:47.000Z</time>
      </trkpt>
      <trkpt lat="47.33936" lon="-1.2686">
        <ele>86</ele>
        <time>2015-01-11T10:57:49.000Z</time>
      </trkpt>
      <trkpt lat="47.3394" lon="-1.26849">
        <ele>87</ele>
        <time>2015-01-11T10:57:51.000Z</time>
      </trkpt>
      <trkpt lat="47.33944" lon="-1.26837">
        <ele>87</ele>
        <time>2015-01-11T10:57:53.000Z</time>
      </trkpt>
      <trkpt lat="47.33948" lon="-1.26825">
        <ele>86</ele>
        <time>2015-01-11T10:57:55.000Z</time>
      </trkpt>
      <trkpt lat="47.3395" lon="-1.26812">
        <ele>87</ele>
        <time>2015-01-11T10:57:57.000Z</time>
      </trkpt>
      <trkpt lat="47.33953" lon="-1.268">
        <ele>85</ele>
        <time>2015-01-11T10:57:59.000Z</time>
      </trkpt>
      <trkpt lat="47.33955" lon="-1.26791">
        <ele>83</ele>
        <time>2015-01-11T10:58:01.000Z</time>
      </trkpt>
      <trkpt lat="47.33955" lon="-1.26791">
        <ele>83</ele>
        <time>2015-01-11T10:58:03.000Z</time>
      </trkpt>
      <trkpt lat="47.33956" lon="-1.26776">
        <ele>79</ele>
        <time>2015-01-11T10:58:05.000Z</time>
      </trkpt>
      <trkpt lat="47.33957" lon="-1.26768">
        <ele>83</ele>
        <time>2015-01-11T10:58:07.000Z</time>
      </trkpt>
      <trkpt lat="47.3396" lon="-1.26759">
        <ele>84</ele>
        <time>2015-01-11T10:58:09.000Z</time>
      </trkpt>
      <trkpt lat="47.33962" lon="-1.26749">
        <ele>82</ele>
        <time>2015-01-11T10:58:11.000Z</time>
      </trkpt>
      <trkpt lat="47.33964" lon="-1.26737">
        <ele>80</ele>
        <time>2015-01-11T10:58:13.000Z</time>
      </trkpt>
      <trkpt lat="47.33966" lon="-1.26725">
        <ele>82</ele>
        <time>2015-01-11T10:58:15.000Z</time>
      </trkpt>
      <trkpt lat="47.3397" lon="-1.26712">
        <ele>80</ele>
        <time>2015-01-11T10:58:17.000Z</time>
      </trkpt>
      <trkpt lat="47.33973" lon="-1.26699">
        <ele>79</ele>
        <time>2015-01-11T10:58:19.000Z</time>
      </trkpt>
      <trkpt lat="47.33976" lon="-1.26688">
        <ele>84</ele>
        <time>2015-01-11T10:58:21.000Z</time>
      </trkpt>
      <trkpt lat="47.33979" lon="-1.26676">
        <ele>83</ele>
        <time>2015-01-11T10:58:23.000Z</time>
      </trkpt>
      <trkpt lat="47.33982" lon="-1.26662">
        <ele>83</ele>
        <time>2015-01-11T10:58:25.000Z</time>
      </trkpt>
      <trkpt lat="47.33984" lon="-1.26651">
        <ele>85</ele>
        <time>2015-01-11T10:58:27.000Z</time>
      </trkpt>
      <trkpt lat="47.33984" lon="-1.26641">
        <ele>84</ele>
        <time>2015-01-11T10:58:29.000Z</time>
      </trkpt>
      <trkpt lat="47.33985" lon="-1.2663">
        <ele>82</ele>
        <time>2015-01-11T10:58:31.000Z</time>
      </trkpt>
      <trkpt lat="47.33985" lon="-1.26616">
        <ele>79</ele>
        <time>2015-01-11T10:58:33.000Z</time>
      </trkpt>
      <trkpt lat="47.33986" lon="-1.26601">
        <ele>76</ele>
        <time>2015-01-11T10:58:35.000Z</time>
      </trkpt>
      <trkpt lat="47.33986" lon="-1.26589">
        <ele>76</ele>
        <time>2015-01-11T10:58:37.000Z</time>
      </trkpt>
      <trkpt lat="47.33987" lon="-1.26578">
        <ele>76</ele>
        <time>2015-01-11T10:58:39.000Z</time>
      </trkpt>
      <trkpt lat="47.33984" lon="-1.26568">
        <ele>76</ele>
        <time>2015-01-11T10:58:41.000Z</time>
      </trkpt>
      <trkpt lat="47.33981" lon="-1.26556">
        <ele>76</ele>
        <time>2015-01-11T10:58:43.000Z</time>
      </trkpt>
      <trkpt lat="47.33978" lon="-1.26544">
        <ele>77</ele>
        <time>2015-01-11T10:58:45.000Z</time>
      </trkpt>
      <trkpt lat="47.33976" lon="-1.26533">
        <ele>77</ele>
        <time>2015-01-11T10:58:47.000Z</time>
      </trkpt>
      <trkpt lat="47.33974" lon="-1.26521">
        <ele>73</ele>
        <time>2015-01-11T10:58:49.000Z</time>
      </trkpt>
      <trkpt lat="47.33973" lon="-1.26508">
        <ele>71</ele>
        <time>2015-01-11T10:58:51.000Z</time>
      </trkpt>
      <trkpt lat="47.33973" lon="-1.26493">
        <ele>68</ele>
        <time>2015-01-11T10:58:53.000Z</time>
      </trkpt>
      <trkpt lat="47.33973" lon="-1.2648">
        <ele>68</ele>
        <time>2015-01-11T10:58:55.000Z</time>
      </trkpt>
      <trkpt lat="47.33972" lon="-1.26467">
        <ele>68</ele>
        <time>2015-01-11T10:58:57.000Z</time>
      </trkpt>
      <trkpt lat="47.33971" lon="-1.26435">
        <ele>64</ele>
        <time>2015-01-11T10:59:00.000Z</time>
      </trkpt>
      <trkpt lat="47.33971" lon="-1.26414">
        <ele>60</ele>
        <time>2015-01-11T10:59:02.000Z</time>
      </trkpt>
      <trkpt lat="47.33971" lon="-1.26398">
        <ele>58</ele>
        <time>2015-01-11T10:59:04.000Z</time>
      </trkpt>
      <trkpt lat="47.33971" lon="-1.26386">
        <ele>58</ele>
        <time>2015-01-11T10:59:06.000Z</time>
      </trkpt>
      <trkpt lat="47.33971" lon="-1.26372">
        <ele>58</ele>
        <time>2015-01-11T10:59:08.000Z</time>
      </trkpt>
      <trkpt lat="47.33972" lon="-1.26359">
        <ele>59</ele>
        <time>2015-01-11T10:59:10.000Z</time>
      </trkpt>
      <trkpt lat="47.33972" lon="-1.26346">
        <ele>60</ele>
        <time>2015-01-11T10:59:12.000Z</time>
      </trkpt>
      <trkpt lat="47.33968" lon="-1.26335">
        <ele>58</ele>
        <time>2015-01-11T10:59:14.000Z</time>
      </trkpt>
      <trkpt lat="47.33968" lon="-1.26335">
        <ele>58</ele>
        <time>2015-01-11T10:59:16.000Z</time>
      </trkpt>
      <trkpt lat="47.33966" lon="-1.26318">
        <ele>59</ele>
        <time>2015-01-11T10:59:18.000Z</time>
      </trkpt>
      <trkpt lat="47.33966" lon="-1.26308">
        <ele>59</ele>
        <time>2015-01-11T10:59:20.000Z</time>
      </trkpt>
      <trkpt lat="47.33966" lon="-1.26298">
        <ele>62</ele>
        <time>2015-01-11T10:59:22.000Z</time>
      </trkpt>
      <trkpt lat="47.33966" lon="-1.26287">
        <ele>58</ele>
        <time>2015-01-11T10:59:24.000Z</time>
      </trkpt>
      <trkpt lat="47.33968" lon="-1.26273">
        <ele>59</ele>
        <time>2015-01-11T10:59:26.000Z</time>
      </trkpt>
      <trkpt lat="47.33969" lon="-1.26256">
        <ele>60</ele>
        <time>2015-01-11T10:59:28.000Z</time>
      </trkpt>
      <trkpt lat="47.33971" lon="-1.26241">
        <ele>61</ele>
        <time>2015-01-11T10:59:30.000Z</time>
      </trkpt>
      <trkpt lat="47.33971" lon="-1.26228">
        <ele>62</ele>
        <time>2015-01-11T10:59:32.000Z</time>
      </trkpt>
      <trkpt lat="47.33971" lon="-1.26217">
        <ele>61</ele>
        <time>2015-01-11T10:59:34.000Z</time>
      </trkpt>
      <trkpt lat="47.33971" lon="-1.26204">
        <ele>62</ele>
        <time>2015-01-11T10:59:36.000Z</time>
      </trkpt>
      <trkpt lat="47.33974" lon="-1.26172">
        <ele>62</ele>
        <time>2015-01-11T10:59:39.000Z</time>
      </trkpt>
      <trkpt lat="47.33975" lon="-1.26156">
        <ele>61</ele>
        <time>2015-01-11T10:59:41.000Z</time>
      </trkpt>
      <trkpt lat="47.33976" lon="-1.26141">
        <ele>59</ele>
        <time>2015-01-11T10:59:43.000Z</time>
      </trkpt>
      <trkpt lat="47.33975" lon="-1.26128">
        <ele>59</ele>
        <time>2015-01-11T10:59:45.000Z</time>
      </trkpt>
      <trkpt lat="47.33975" lon="-1.26128">
        <ele>59</ele>
        <time>2015-01-11T10:59:47.000Z</time>
      </trkpt>
      <trkpt lat="47.33975" lon="-1.26111">
        <ele>60</ele>
        <time>2015-01-11T10:59:49.000Z</time>
      </trkpt>
      <trkpt lat="47.33975" lon="-1.26111">
        <ele>60</ele>
        <time>2015-01-11T10:59:51.000Z</time>
      </trkpt>
      <trkpt lat="47.33976" lon="-1.26095">
        <ele>61</ele>
        <time>2015-01-11T10:59:53.000Z</time>
      </trkpt>
      <trkpt lat="47.33976" lon="-1.26085">
        <ele>61</ele>
        <time>2015-01-11T10:59:55.000Z</time>
      </trkpt>
      <trkpt lat="47.33978" lon="-1.26072">
        <ele>59</ele>
        <time>2015-01-11T10:59:57.000Z</time>
      </trkpt>
      <trkpt lat="47.33979" lon="-1.26057">
        <ele>58</ele>
        <time>2015-01-11T10:59:59.000Z</time>
      </trkpt>
      <trkpt lat="47.33981" lon="-1.26025">
        <ele>56</ele>
        <time>2015-01-11T11:00:02.000Z</time>
      </trkpt>
      <trkpt lat="47.33984" lon="-1.26008">
        <ele>54</ele>
        <time>2015-01-11T11:00:04.000Z</time>
      </trkpt>
      <trkpt lat="47.33986" lon="-1.25992">
        <ele>54</ele>
        <time>2015-01-11T11:00:06.000Z</time>
      </trkpt>
      <trkpt lat="47.33988" lon="-1.25979">
        <ele>54</ele>
        <time>2015-01-11T11:00:08.000Z</time>
      </trkpt>
      <trkpt lat="47.33991" lon="-1.25965">
        <ele>55</ele>
        <time>2015-01-11T11:00:10.000Z</time>
      </trkpt>
      <trkpt lat="47.33994" lon="-1.25952">
        <ele>54</ele>
        <time>2015-01-11T11:00:12.000Z</time>
      </trkpt>
      <trkpt lat="47.33997" lon="-1.25939">
        <ele>54</ele>
        <time>2015-01-11T11:00:14.000Z</time>
      </trkpt>
      <trkpt lat="47.33999" lon="-1.25926">
        <ele>54</ele>
        <time>2015-01-11T11:00:16.000Z</time>
      </trkpt>
      <trkpt lat="47.34" lon="-1.25913">
        <ele>53</ele>
        <time>2015-01-11T11:00:18.000Z</time>
      </trkpt>
      <trkpt lat="47.34002" lon="-1.259">
        <ele>52</ele>
        <time>2015-01-11T11:00:20.000Z</time>
      </trkpt>
      <trkpt lat="47.34005" lon="-1.25886">
        <ele>51</ele>
        <time>2015-01-11T11:00:22.000Z</time>
      </trkpt>
      <trkpt lat="47.34007" lon="-1.25872">
        <ele>50</ele>
        <time>2015-01-11T11:00:24.000Z</time>
      </trkpt>
      <trkpt lat="47.34007" lon="-1.25856">
        <ele>51</ele>
        <time>2015-01-11T11:00:26.000Z</time>
      </trkpt>
      <trkpt lat="47.34006" lon="-1.25841">
        <ele>51</ele>
        <time>2015-01-11T11:00:28.000Z</time>
      </trkpt>
      <trkpt lat="47.34006" lon="-1.25826">
        <ele>52</ele>
        <time>2015-01-11T11:00:30.000Z</time>
      </trkpt>
      <trkpt lat="47.34007" lon="-1.25813">
        <ele>53</ele>
        <time>2015-01-11T11:00:32.000Z</time>
      </trkpt>
      <trkpt lat="47.34007" lon="-1.25801">
        <ele>53</ele>
        <time>2015-01-11T11:00:34.000Z</time>
      </trkpt>
      <trkpt lat="47.34006" lon="-1.25788">
        <ele>54</ele>
        <time>2015-01-11T11:00:36.000Z</time>
      </trkpt>
      <trkpt lat="47.34007" lon="-1.25776">
        <ele>53</ele>
        <time>2015-01-11T11:00:38.000Z</time>
      </trkpt>
      <trkpt lat="47.34008" lon="-1.25763">
        <ele>52</ele>
        <time>2015-01-11T11:00:40.000Z</time>
      </trkpt>
      <trkpt lat="47.3401" lon="-1.25749">
        <ele>53</ele>
        <time>2015-01-11T11:00:42.000Z</time>
      </trkpt>
      <trkpt lat="47.34011" lon="-1.25735">
        <ele>54</ele>
        <time>2015-01-11T11:00:44.000Z</time>
      </trkpt>
      <trkpt lat="47.34011" lon="-1.25722">
        <ele>55</ele>
        <time>2015-01-11T11:00:46.000Z</time>
      </trkpt>
      <trkpt lat="47.34011" lon="-1.2571">
        <ele>57</ele>
        <time>2015-01-11T11:00:48.000Z</time>
      </trkpt>
      <trkpt lat="47.34011" lon="-1.25701">
        <ele>58</ele>
        <time>2015-01-11T11:00:50.000Z</time>
      </trkpt>
      <trkpt lat="47.34011" lon="-1.25701">
        <ele>58</ele>
        <time>2015-01-11T11:00:52.000Z</time>
      </trkpt>
      <trkpt lat="47.34005" lon="-1.25695">
        <ele>59</ele>
        <time>2015-01-11T11:00:54.000Z</time>
      </trkpt>
      <trkpt lat="47.34005" lon="-1.25695">
        <ele>59</ele>
        <time>2015-01-11T11:00:56.000Z</time>
      </trkpt>
      <trkpt lat="47.34005" lon="-1.25695">
        <ele>59</ele>
        <time>2015-01-11T11:00:58.000Z</time>
      </trkpt>
      <trkpt lat="47.34005" lon="-1.25695">
        <ele>59</ele>
        <time>2015-01-11T11:01:00.000Z</time>
      </trkpt>
      <trkpt lat="47.34008" lon="-1.25683">
        <ele>59</ele>
        <time>2015-01-11T11:01:04.000Z</time>
      </trkpt>
      <trkpt lat="47.34007" lon="-1.25672">
        <ele>58</ele>
        <time>2015-01-11T11:01:06.000Z</time>
      </trkpt>
      <trkpt lat="47.34007" lon="-1.25645">
        <ele>57</ele>
        <time>2015-01-11T11:01:09.000Z</time>
      </trkpt>
      <trkpt lat="47.34007" lon="-1.25629">
        <ele>57</ele>
        <time>2015-01-11T11:01:11.000Z</time>
      </trkpt>
      <trkpt lat="47.34006" lon="-1.25615">
        <ele>57</ele>
        <time>2015-01-11T11:01:13.000Z</time>
      </trkpt>
      <trkpt lat="47.34005" lon="-1.256">
        <ele>57</ele>
        <time>2015-01-11T11:01:15.000Z</time>
      </trkpt>
      <trkpt lat="47.34004" lon="-1.25587">
        <ele>57</ele>
        <time>2015-01-11T11:01:17.000Z</time>
      </trkpt>
      <trkpt lat="47.34003" lon="-1.25574">
        <ele>57</ele>
        <time>2015-01-11T11:01:19.000Z</time>
      </trkpt>
      <trkpt lat="47.34003" lon="-1.25563">
        <ele>58</ele>
        <time>2015-01-11T11:01:21.000Z</time>
      </trkpt>
      <trkpt lat="47.34003" lon="-1.25551">
        <ele>58</ele>
        <time>2015-01-11T11:01:23.000Z</time>
      </trkpt>
      <trkpt lat="47.34002" lon="-1.25539">
        <ele>58</ele>
        <time>2015-01-11T11:01:25.000Z</time>
      </trkpt>
      <trkpt lat="47.34002" lon="-1.25527">
        <ele>59</ele>
        <time>2015-01-11T11:01:27.000Z</time>
      </trkpt>
      <trkpt lat="47.34002" lon="-1.25515">
        <ele>58</ele>
        <time>2015-01-11T11:01:29.000Z</time>
      </trkpt>
      <trkpt lat="47.34003" lon="-1.25505">
        <ele>59</ele>
        <time>2015-01-11T11:01:31.000Z</time>
      </trkpt>
      <trkpt lat="47.34004" lon="-1.25495">
        <ele>59</ele>
        <time>2015-01-11T11:01:33.000Z</time>
      </trkpt>
      <trkpt lat="47.34006" lon="-1.25484">
        <ele>60</ele>
        <time>2015-01-11T11:01:35.000Z</time>
      </trkpt>
      <trkpt lat="47.34008" lon="-1.25473">
        <ele>59</ele>
        <time>2015-01-11T11:01:37.000Z</time>
      </trkpt>
      <trkpt lat="47.3401" lon="-1.25461">
        <ele>59</ele>
        <time>2015-01-11T11:01:39.000Z</time>
      </trkpt>
      <trkpt lat="47.34011" lon="-1.25449">
        <ele>59</ele>
        <time>2015-01-11T11:01:41.000Z</time>
      </trkpt>
      <trkpt lat="47.34013" lon="-1.25436">
        <ele>59</ele>
        <time>2015-01-11T11:01:43.000Z</time>
      </trkpt>
      <trkpt lat="47.34015" lon="-1.25424">
        <ele>59</ele>
        <time>2015-01-11T11:01:45.000Z</time>
      </trkpt>
      <trkpt lat="47.34015" lon="-1.25412">
        <ele>59</ele>
        <time>2015-01-11T11:01:47.000Z</time>
      </trkpt>
      <trkpt lat="47.34015" lon="-1.25401">
        <ele>59</ele>
        <time>2015-01-11T11:01:49.000Z</time>
      </trkpt>
      <trkpt lat="47.34015" lon="-1.2539">
        <ele>59</ele>
        <time>2015-01-11T11:01:51.000Z</time>
      </trkpt>
      <trkpt lat="47.34015" lon="-1.2538">
        <ele>60</ele>
        <time>2015-01-11T11:01:53.000Z</time>
      </trkpt>
      <trkpt lat="47.34015" lon="-1.2538">
        <ele>60</ele>
        <time>2015-01-11T11:01:55.000Z</time>
      </trkpt>
      <trkpt lat="47.34014" lon="-1.25364">
        <ele>59</ele>
        <time>2015-01-11T11:01:57.000Z</time>
      </trkpt>
      <trkpt lat="47.34016" lon="-1.25353">
        <ele>57</ele>
        <time>2015-01-11T11:01:59.000Z</time>
      </trkpt>
      <trkpt lat="47.34016" lon="-1.25343">
        <ele>58</ele>
        <time>2015-01-11T11:02:01.000Z</time>
      </trkpt>
      <trkpt lat="47.34016" lon="-1.25343">
        <ele>58</ele>
        <time>2015-01-11T11:02:03.000Z</time>
      </trkpt>
      <trkpt lat="47.34011" lon="-1.25333">
        <ele>60</ele>
        <time>2015-01-11T11:02:05.000Z</time>
      </trkpt>
      <trkpt lat="47.34011" lon="-1.25333">
        <ele>60</ele>
        <time>2015-01-11T11:02:07.000Z</time>
      </trkpt>
      <trkpt lat="47.34011" lon="-1.25316">
        <ele>59</ele>
        <time>2015-01-11T11:02:09.000Z</time>
      </trkpt>
      <trkpt lat="47.34011" lon="-1.25303">
        <ele>60</ele>
        <time>2015-01-11T11:02:11.000Z</time>
      </trkpt>
      <trkpt lat="47.3401" lon="-1.25292">
        <ele>60</ele>
        <time>2015-01-11T11:02:13.000Z</time>
      </trkpt>
      <trkpt lat="47.34007" lon="-1.25281">
        <ele>59</ele>
        <time>2015-01-11T11:02:17.000Z</time>
      </trkpt>
      <trkpt lat="47.34007" lon="-1.25281">
        <ele>59</ele>
        <time>2015-01-11T11:02:19.000Z</time>
      </trkpt>
      <trkpt lat="47.34007" lon="-1.25281">
        <ele>59</ele>
        <time>2015-01-11T11:02:21.000Z</time>
      </trkpt>
      <trkpt lat="47.34007" lon="-1.25281">
        <ele>59</ele>
        <time>2015-01-11T11:02:23.000Z</time>
      </trkpt>
      <trkpt lat="47.34007" lon="-1.25281">
        <ele>59</ele>
        <time>2015-01-11T11:02:25.000Z</time>
      </trkpt>
      <trkpt lat="47.34007" lon="-1.25281">
        <ele>59</ele>
        <time>2015-01-11T11:02:27.000Z</time>
      </trkpt>
      <trkpt lat="47.33998" lon="-1.25229">
        <ele>56</ele>
        <time>2015-01-11T11:06:31.000Z</time>
      </trkpt>
      <trkpt lat="47.33994" lon="-1.25203">
        <ele>57</ele>
        <time>2015-01-11T11:06:33.000Z</time>
      </trkpt>
      <trkpt lat="47.33994" lon="-1.25203">
        <ele>57</ele>
        <time>2015-01-11T11:06:35.000Z</time>
      </trkpt>
      <trkpt lat="47.33994" lon="-1.25203">
        <ele>57</ele>
        <time>2015-01-11T11:06:37.000Z</time>
      </trkpt>
      <trkpt lat="47.33994" lon="-1.25203">
        <ele>57</ele>
        <time>2015-01-11T11:06:43.000Z</time>
      </trkpt>
      <trkpt lat="47.33994" lon="-1.25203">
        <ele>57</ele>
        <time>2015-01-11T11:06:45.000Z</time>
      </trkpt>
      <trkpt lat="47.33994" lon="-1.25203">
        <ele>57</ele>
        <time>2015-01-11T11:06:47.000Z</time>
      </trkpt>
      <trkpt lat="47.33981" lon="-1.25173">
        <ele>70</ele>
        <time>2015-01-11T11:07:43.000Z</time>
      </trkpt>
      <trkpt lat="47.33974" lon="-1.25153">
        <ele>68</ele>
        <time>2015-01-11T11:07:45.000Z</time>
      </trkpt>
      <trkpt lat="47.33964" lon="-1.25134">
        <ele>60</ele>
        <time>2015-01-11T11:07:48.000Z</time>
      </trkpt>
      <trkpt lat="47.33957" lon="-1.25118">
        <ele>58</ele>
        <time>2015-01-11T11:07:50.000Z</time>
      </trkpt>
      <trkpt lat="47.33952" lon="-1.25106">
        <ele>60</ele>
        <time>2015-01-11T11:07:52.000Z</time>
      </trkpt>
      <trkpt lat="47.33941" lon="-1.25084">
        <ele>55</ele>
        <time>2015-01-11T11:07:54.000Z</time>
      </trkpt>
      <trkpt lat="47.33934" lon="-1.25076">
        <ele>54</ele>
        <time>2015-01-11T11:07:56.000Z</time>
      </trkpt>
      <trkpt lat="47.33929" lon="-1.2507">
        <ele>56</ele>
        <time>2015-01-11T11:07:58.000Z</time>
      </trkpt>
      <trkpt lat="47.33924" lon="-1.25064">
        <ele>58</ele>
        <time>2015-01-11T11:08:00.000Z</time>
      </trkpt>
      <trkpt lat="47.33924" lon="-1.25064">
        <ele>58</ele>
        <time>2015-01-11T11:08:02.000Z</time>
      </trkpt>
      <trkpt lat="47.33918" lon="-1.25051">
        <ele>54</ele>
        <time>2015-01-11T11:08:04.000Z</time>
      </trkpt>
      <trkpt lat="47.33918" lon="-1.25051">
        <ele>54</ele>
        <time>2015-01-11T11:08:06.000Z</time>
      </trkpt>
      <trkpt lat="47.33916" lon="-1.25034">
        <ele>52</ele>
        <time>2015-01-11T11:08:08.000Z</time>
      </trkpt>
      <trkpt lat="47.33912" lon="-1.25026">
        <ele>55</ele>
        <time>2015-01-11T11:08:10.000Z</time>
      </trkpt>
      <trkpt lat="47.33912" lon="-1.25026">
        <ele>55</ele>
        <time>2015-01-11T11:08:12.000Z</time>
      </trkpt>
      <trkpt lat="47.33904" lon="-1.25015">
        <ele>58</ele>
        <time>2015-01-11T11:08:14.000Z</time>
      </trkpt>
      <trkpt lat="47.33899" lon="-1.25008">
        <ele>59</ele>
        <time>2015-01-11T11:08:16.000Z</time>
      </trkpt>
      <trkpt lat="47.33895" lon="-1.24999">
        <ele>58</ele>
        <time>2015-01-11T11:08:18.000Z</time>
      </trkpt>
      <trkpt lat="47.33891" lon="-1.24989">
        <ele>57</ele>
        <time>2015-01-11T11:08:20.000Z</time>
      </trkpt>
      <trkpt lat="47.33888" lon="-1.24979">
        <ele>58</ele>
        <time>2015-01-11T11:08:22.000Z</time>
      </trkpt>
      <trkpt lat="47.33888" lon="-1.24979">
        <ele>58</ele>
        <time>2015-01-11T11:08:24.000Z</time>
      </trkpt>
      <trkpt lat="47.33889" lon="-1.2497">
        <ele>59</ele>
        <time>2015-01-11T11:08:26.000Z</time>
      </trkpt>
      <trkpt lat="47.33889" lon="-1.2497">
        <ele>59</ele>
        <time>2015-01-11T11:08:28.000Z</time>
      </trkpt>
      <trkpt lat="47.33896" lon="-1.24968">
        <ele>54</ele>
        <time>2015-01-11T11:08:30.000Z</time>
      </trkpt>
      <trkpt lat="47.33906" lon="-1.24965">
        <ele>53</ele>
        <time>2015-01-11T11:08:34.000Z</time>
      </trkpt>
      <trkpt lat="47.33915" lon="-1.24961">
        <ele>52</ele>
        <time>2015-01-11T11:08:38.000Z</time>
      </trkpt>
      <trkpt lat="47.33924" lon="-1.24956">
        <ele>58</ele>
        <time>2015-01-11T11:08:42.000Z</time>
      </trkpt>
      <trkpt lat="47.33933" lon="-1.24949">
        <ele>58</ele>
        <time>2015-01-11T11:08:46.000Z</time>
      </trkpt>
      <trkpt lat="47.33938" lon="-1.24945">
        <ele>57</ele>
        <time>2015-01-11T11:08:48.000Z</time>
      </trkpt>
      <trkpt lat="47.33944" lon="-1.24941">
        <ele>56</ele>
        <time>2015-01-11T11:08:50.000Z</time>
      </trkpt>
      <trkpt lat="47.33949" lon="-1.24937">
        <ele>54</ele>
        <time>2015-01-11T11:08:52.000Z</time>
      </trkpt>
      <trkpt lat="47.33949" lon="-1.24937">
        <ele>54</ele>
        <time>2015-01-11T11:08:54.000Z</time>
      </trkpt>
      <trkpt lat="47.33956" lon="-1.24932">
        <ele>57</ele>
        <time>2015-01-11T11:08:56.000Z</time>
      </trkpt>
      <trkpt lat="47.33956" lon="-1.24932">
        <ele>57</ele>
        <time>2015-01-11T11:08:58.000Z</time>
      </trkpt>
      <trkpt lat="47.33961" lon="-1.24929">
        <ele>62</ele>
        <time>2015-01-11T11:09:00.000Z</time>
      </trkpt>
      <trkpt lat="47.33961" lon="-1.24929">
        <ele>62</ele>
        <time>2015-01-11T11:09:02.000Z</time>
      </trkpt>
      <trkpt lat="47.33968" lon="-1.24928">
        <ele>65</ele>
        <time>2015-01-11T11:09:04.000Z</time>
      </trkpt>
      <trkpt lat="47.33977" lon="-1.24923">
        <ele>66</ele>
        <time>2015-01-11T11:09:08.000Z</time>
      </trkpt>
      <trkpt lat="47.33986" lon="-1.24915">
        <ele>66</ele>
        <time>2015-01-11T11:09:12.000Z</time>
      </trkpt>
      <trkpt lat="47.33995" lon="-1.24907">
        <ele>69</ele>
        <time>2015-01-11T11:09:16.000Z</time>
      </trkpt>
      <trkpt lat="47.34005" lon="-1.249">
        <ele>67</ele>
        <time>2015-01-11T11:09:20.000Z</time>
      </trkpt>
      <trkpt lat="47.3401" lon="-1.24897">
        <ele>67</ele>
        <time>2015-01-11T11:09:22.000Z</time>
      </trkpt>
      <trkpt lat="47.3402" lon="-1.24889">
        <ele>66</ele>
        <time>2015-01-11T11:09:26.000Z</time>
      </trkpt>
      <trkpt lat="47.3402" lon="-1.24889">
        <ele>66</ele>
        <time>2015-01-11T11:09:28.000Z</time>
      </trkpt>
      <trkpt lat="47.34029" lon="-1.24884">
        <ele>69</ele>
        <time>2015-01-11T11:09:30.000Z</time>
      </trkpt>
      <trkpt lat="47.34029" lon="-1.24884">
        <ele>69</ele>
        <time>2015-01-11T11:09:32.000Z</time>
      </trkpt>
      <trkpt lat="47.34029" lon="-1.24884">
        <ele>69</ele>
        <time>2015-01-11T11:09:34.000Z</time>
      </trkpt>
      <trkpt lat="47.34029" lon="-1.24884">
        <ele>69</ele>
        <time>2015-01-11T11:09:36.000Z</time>
      </trkpt>
      <trkpt lat="47.34029" lon="-1.24884">
        <ele>69</ele>
        <time>2015-01-11T11:09:38.000Z</time>
      </trkpt>
      <trkpt lat="47.34029" lon="-1.24884">
        <ele>69</ele>
        <time>2015-01-11T11:09:40.000Z</time>
      </trkpt>
      <trkpt lat="47.34039" lon="-1.24885">
        <ele>65</ele>
        <time>2015-01-11T11:10:20.000Z</time>
      </trkpt>
      <trkpt lat="47.34049" lon="-1.24883">
        <ele>63</ele>
        <time>2015-01-11T11:10:22.000Z</time>
      </trkpt>
      <trkpt lat="47.34058" lon="-1.2488">
        <ele>63</ele>
        <time>2015-01-11T11:10:24.000Z</time>
      </trkpt>
      <trkpt lat="47.34066" lon="-1.24876">
        <ele>63</ele>
        <time>2015-01-11T11:10:26.000Z</time>
      </trkpt>
      <trkpt lat="47.34074" lon="-1.24871">
        <ele>61</ele>
        <time>2015-01-11T11:10:28.000Z</time>
      </trkpt>
      <trkpt lat="47.34087" lon="-1.24863">
        <ele>61</ele>
        <time>2015-01-11T11:10:30.000Z</time>
      </trkpt>
      <trkpt lat="47.34093" lon="-1.24859">
        <ele>60</ele>
        <time>2015-01-11T11:10:32.000Z</time>
      </trkpt>
      <trkpt lat="47.34098" lon="-1.24856">
        <ele>60</ele>
        <time>2015-01-11T11:10:34.000Z</time>
      </trkpt>
      <trkpt lat="47.34103" lon="-1.24851">
        <ele>59</ele>
        <time>2015-01-11T11:10:36.000Z</time>
      </trkpt>
      <trkpt lat="47.34109" lon="-1.24847">
        <ele>59</ele>
        <time>2015-01-11T11:10:38.000Z</time>
      </trkpt>
      <trkpt lat="47.34115" lon="-1.24842">
        <ele>59</ele>
        <time>2015-01-11T11:10:40.000Z</time>
      </trkpt>
      <trkpt lat="47.34121" lon="-1.24838">
        <ele>58</ele>
        <time>2015-01-11T11:10:42.000Z</time>
      </trkpt>
      <trkpt lat="47.34127" lon="-1.24834">
        <ele>59</ele>
        <time>2015-01-11T11:10:44.000Z</time>
      </trkpt>
      <trkpt lat="47.34134" lon="-1.24831">
        <ele>60</ele>
        <time>2015-01-11T11:10:46.000Z</time>
      </trkpt>
      <trkpt lat="47.3414" lon="-1.24826">
        <ele>59</ele>
        <time>2015-01-11T11:10:48.000Z</time>
      </trkpt>
      <trkpt lat="47.34146" lon="-1.24823">
        <ele>59</ele>
        <time>2015-01-11T11:10:50.000Z</time>
      </trkpt>
      <trkpt lat="47.34152" lon="-1.24819">
        <ele>59</ele>
        <time>2015-01-11T11:10:52.000Z</time>
      </trkpt>
      <trkpt lat="47.3417" lon="-1.24829">
        <ele>56</ele>
        <time>2015-01-11T11:10:55.000Z</time>
      </trkpt>
      <trkpt lat="47.34174" lon="-1.24841">
        <ele>60</ele>
        <time>2015-01-11T11:10:59.000Z</time>
      </trkpt>
      <trkpt lat="47.34174" lon="-1.24841">
        <ele>60</ele>
        <time>2015-01-11T11:11:01.000Z</time>
      </trkpt>
      <trkpt lat="47.34179" lon="-1.24849">
        <ele>61</ele>
        <time>2015-01-11T11:11:03.000Z</time>
      </trkpt>
      <trkpt lat="47.34179" lon="-1.24849">
        <ele>61</ele>
        <time>2015-01-11T11:11:05.000Z</time>
      </trkpt>
      <trkpt lat="47.34179" lon="-1.24849">
        <ele>61</ele>
        <time>2015-01-11T11:11:07.000Z</time>
      </trkpt>
      <trkpt lat="47.34179" lon="-1.24849">
        <ele>61</ele>
        <time>2015-01-11T11:11:09.000Z</time>
      </trkpt>
      <trkpt lat="47.34185" lon="-1.24856">
        <ele>62</ele>
        <time>2015-01-11T11:11:11.000Z</time>
      </trkpt>
      <trkpt lat="47.34191" lon="-1.2486">
        <ele>60</ele>
        <time>2015-01-11T11:11:15.000Z</time>
      </trkpt>
      <trkpt lat="47.34191" lon="-1.2486">
        <ele>60</ele>
        <time>2015-01-11T11:11:17.000Z</time>
      </trkpt>
      <trkpt lat="47.34208" lon="-1.24862">
        <ele>61</ele>
        <time>2015-01-11T11:11:31.000Z</time>
      </trkpt>
      <trkpt lat="47.34213" lon="-1.24853">
        <ele>60</ele>
        <time>2015-01-11T11:11:35.000Z</time>
      </trkpt>
      <trkpt lat="47.34217" lon="-1.24835">
        <ele>55</ele>
        <time>2015-01-11T11:11:39.000Z</time>
      </trkpt>
      <trkpt lat="47.34221" lon="-1.24824">
        <ele>57</ele>
        <time>2015-01-11T11:11:41.000Z</time>
      </trkpt>
      <trkpt lat="47.34224" lon="-1.24817">
        <ele>56</ele>
        <time>2015-01-11T11:11:43.000Z</time>
      </trkpt>
      <trkpt lat="47.34224" lon="-1.24817">
        <ele>56</ele>
        <time>2015-01-11T11:11:45.000Z</time>
      </trkpt>
      <trkpt lat="47.34226" lon="-1.24808">
        <ele>57</ele>
        <time>2015-01-11T11:11:47.000Z</time>
      </trkpt>
      <trkpt lat="47.34226" lon="-1.24808">
        <ele>57</ele>
        <time>2015-01-11T11:11:49.000Z</time>
      </trkpt>
      <trkpt lat="47.3423" lon="-1.24796">
        <ele>59</ele>
        <time>2015-01-11T11:11:51.000Z</time>
      </trkpt>
      <trkpt lat="47.34235" lon="-1.24784">
        <ele>60</ele>
        <time>2015-01-11T11:11:55.000Z</time>
      </trkpt>
      <trkpt lat="47.34235" lon="-1.24784">
        <ele>60</ele>
        <time>2015-01-11T11:11:57.000Z</time>
      </trkpt>
      <trkpt lat="47.34239" lon="-1.2477">
        <ele>59</ele>
        <time>2015-01-11T11:11:59.000Z</time>
      </trkpt>
      <trkpt lat="47.34242" lon="-1.24761">
        <ele>63</ele>
        <time>2015-01-11T11:12:01.000Z</time>
      </trkpt>
      <trkpt lat="47.34245" lon="-1.24752">
        <ele>62</ele>
        <time>2015-01-11T11:12:03.000Z</time>
      </trkpt>
      <trkpt lat="47.34249" lon="-1.24736">
        <ele>63</ele>
        <time>2015-01-11T11:12:07.000Z</time>
      </trkpt>
      <trkpt lat="47.34252" lon="-1.24728">
        <ele>65</ele>
        <time>2015-01-11T11:12:09.000Z</time>
      </trkpt>
      <trkpt lat="47.34252" lon="-1.24728">
        <ele>65</ele>
        <time>2015-01-11T11:12:11.000Z</time>
      </trkpt>
      <trkpt lat="47.34256" lon="-1.24717">
        <ele>64</ele>
        <time>2015-01-11T11:12:13.000Z</time>
      </trkpt>
      <trkpt lat="47.34256" lon="-1.24717">
        <ele>64</ele>
        <time>2015-01-11T11:12:15.000Z</time>
      </trkpt>
      <trkpt lat="47.34259" lon="-1.247">
        <ele>64</ele>
        <time>2015-01-11T11:12:17.000Z</time>
      </trkpt>
      <trkpt lat="47.34261" lon="-1.24689">
        <ele>65</ele>
        <time>2015-01-11T11:12:19.000Z</time>
      </trkpt>
      <trkpt lat="47.34262" lon="-1.24677">
        <ele>66</ele>
        <time>2015-01-11T11:12:21.000Z</time>
      </trkpt>
      <trkpt lat="47.34264" lon="-1.24665">
        <ele>67</ele>
        <time>2015-01-11T11:12:23.000Z</time>
      </trkpt>
      <trkpt lat="47.34267" lon="-1.24656">
        <ele>69</ele>
        <time>2015-01-11T11:12:25.000Z</time>
      </trkpt>
      <trkpt lat="47.34267" lon="-1.24656">
        <ele>69</ele>
        <time>2015-01-11T11:12:27.000Z</time>
      </trkpt>
      <trkpt lat="47.34269" lon="-1.24645">
        <ele>73</ele>
        <time>2015-01-11T11:12:29.000Z</time>
      </trkpt>
      <trkpt lat="47.34269" lon="-1.24645">
        <ele>73</ele>
        <time>2015-01-11T11:12:31.000Z</time>
      </trkpt>
      <trkpt lat="47.34269" lon="-1.24645">
        <ele>73</ele>
        <time>2015-01-11T11:12:33.000Z</time>
      </trkpt>
      <trkpt lat="47.34269" lon="-1.24645">
        <ele>73</ele>
        <time>2015-01-11T11:12:35.000Z</time>
      </trkpt>
      <trkpt lat="47.34274" lon="-1.24628">
        <ele>64</ele>
        <time>2015-01-11T11:12:57.000Z</time>
      </trkpt>
      <trkpt lat="47.34278" lon="-1.24615">
        <ele>63</ele>
        <time>2015-01-11T11:12:59.000Z</time>
      </trkpt>
      <trkpt lat="47.34281" lon="-1.24605">
        <ele>62</ele>
        <time>2015-01-11T11:13:01.000Z</time>
      </trkpt>
      <trkpt lat="47.34284" lon="-1.24595">
        <ele>62</ele>
        <time>2015-01-11T11:13:03.000Z</time>
      </trkpt>
      <trkpt lat="47.34286" lon="-1.24585">
        <ele>62</ele>
        <time>2015-01-11T11:13:05.000Z</time>
      </trkpt>
      <trkpt lat="47.3429" lon="-1.24566">
        <ele>61</ele>
        <time>2015-01-11T11:13:07.000Z</time>
      </trkpt>
      <trkpt lat="47.34293" lon="-1.24556">
        <ele>61</ele>
        <time>2015-01-11T11:13:09.000Z</time>
      </trkpt>
      <trkpt lat="47.34295" lon="-1.24547">
        <ele>61</ele>
        <time>2015-01-11T11:13:11.000Z</time>
      </trkpt>
      <trkpt lat="47.34297" lon="-1.24538">
        <ele>60</ele>
        <time>2015-01-11T11:13:13.000Z</time>
      </trkpt>
      <trkpt lat="47.34298" lon="-1.24528">
        <ele>60</ele>
        <time>2015-01-11T11:13:15.000Z</time>
      </trkpt>
      <trkpt lat="47.34299" lon="-1.2452">
        <ele>58</ele>
        <time>2015-01-11T11:13:17.000Z</time>
      </trkpt>
      <trkpt lat="47.34302" lon="-1.24512">
        <ele>58</ele>
        <time>2015-01-11T11:13:19.000Z</time>
      </trkpt>
      <trkpt lat="47.34305" lon="-1.24504">
        <ele>56</ele>
        <time>2015-01-11T11:13:21.000Z</time>
      </trkpt>
      <trkpt lat="47.34307" lon="-1.24496">
        <ele>55</ele>
        <time>2015-01-11T11:13:23.000Z</time>
      </trkpt>
      <trkpt lat="47.3431" lon="-1.24488">
        <ele>56</ele>
        <time>2015-01-11T11:13:25.000Z</time>
      </trkpt>
      <trkpt lat="47.34312" lon="-1.24479">
        <ele>57</ele>
        <time>2015-01-11T11:13:27.000Z</time>
      </trkpt>
      <trkpt lat="47.34315" lon="-1.2447">
        <ele>57</ele>
        <time>2015-01-11T11:13:29.000Z</time>
      </trkpt>
      <trkpt lat="47.34318" lon="-1.2446">
        <ele>58</ele>
        <time>2015-01-11T11:13:31.000Z</time>
      </trkpt>
      <trkpt lat="47.34321" lon="-1.2445">
        <ele>58</ele>
        <time>2015-01-11T11:13:33.000Z</time>
      </trkpt>
      <trkpt lat="47.34325" lon="-1.24439">
        <ele>58</ele>
        <time>2015-01-11T11:13:35.000Z</time>
      </trkpt>
      <trkpt lat="47.34328" lon="-1.24429">
        <ele>57</ele>
        <time>2015-01-11T11:13:37.000Z</time>
      </trkpt>
      <trkpt lat="47.34331" lon="-1.24418">
        <ele>57</ele>
        <time>2015-01-11T11:13:39.000Z</time>
      </trkpt>
      <trkpt lat="47.34335" lon="-1.24407">
        <ele>58</ele>
        <time>2015-01-11T11:13:41.000Z</time>
      </trkpt>
      <trkpt lat="47.34338" lon="-1.24396">
        <ele>59</ele>
        <time>2015-01-11T11:13:43.000Z</time>
      </trkpt>
      <trkpt lat="47.34341" lon="-1.24386">
        <ele>59</ele>
        <time>2015-01-11T11:13:45.000Z</time>
      </trkpt>
      <trkpt lat="47.34344" lon="-1.24375">
        <ele>58</ele>
        <time>2015-01-11T11:13:47.000Z</time>
      </trkpt>
      <trkpt lat="47.34347" lon="-1.24363">
        <ele>58</ele>
        <time>2015-01-11T11:13:49.000Z</time>
      </trkpt>
      <trkpt lat="47.34351" lon="-1.24352">
        <ele>60</ele>
        <time>2015-01-11T11:13:51.000Z</time>
      </trkpt>
      <trkpt lat="47.34354" lon="-1.24342">
        <ele>61</ele>
        <time>2015-01-11T11:13:53.000Z</time>
      </trkpt>
      <trkpt lat="47.34359" lon="-1.24332">
        <ele>64</ele>
        <time>2015-01-11T11:13:55.000Z</time>
      </trkpt>
      <trkpt lat="47.34364" lon="-1.24322">
        <ele>65</ele>
        <time>2015-01-11T11:13:57.000Z</time>
      </trkpt>
      <trkpt lat="47.34367" lon="-1.2431">
        <ele>64</ele>
        <time>2015-01-11T11:13:59.000Z</time>
      </trkpt>
      <trkpt lat="47.3437" lon="-1.24299">
        <ele>63</ele>
        <time>2015-01-11T11:14:01.000Z</time>
      </trkpt>
      <trkpt lat="47.34373" lon="-1.24288">
        <ele>62</ele>
        <time>2015-01-11T11:14:03.000Z</time>
      </trkpt>
      <trkpt lat="47.34375" lon="-1.24277">
        <ele>61</ele>
        <time>2015-01-11T11:14:05.000Z</time>
      </trkpt>
      <trkpt lat="47.34379" lon="-1.24266">
        <ele>61</ele>
        <time>2015-01-11T11:14:07.000Z</time>
      </trkpt>
      <trkpt lat="47.34382" lon="-1.24255">
        <ele>60</ele>
        <time>2015-01-11T11:14:09.000Z</time>
      </trkpt>
      <trkpt lat="47.34385" lon="-1.24244">
        <ele>59</ele>
        <time>2015-01-11T11:14:11.000Z</time>
      </trkpt>
      <trkpt lat="47.34389" lon="-1.24234">
        <ele>59</ele>
        <time>2015-01-11T11:14:13.000Z</time>
      </trkpt>
      <trkpt lat="47.34392" lon="-1.24223">
        <ele>59</ele>
        <time>2015-01-11T11:14:15.000Z</time>
      </trkpt>
      <trkpt lat="47.34395" lon="-1.24212">
        <ele>59</ele>
        <time>2015-01-11T11:14:17.000Z</time>
      </trkpt>
      <trkpt lat="47.34398" lon="-1.24201">
        <ele>60</ele>
        <time>2015-01-11T11:14:19.000Z</time>
      </trkpt>
      <trkpt lat="47.34401" lon="-1.2419">
        <ele>59</ele>
        <time>2015-01-11T11:14:21.000Z</time>
      </trkpt>
      <trkpt lat="47.34405" lon="-1.2418">
        <ele>59</ele>
        <time>2015-01-11T11:14:23.000Z</time>
      </trkpt>
      <trkpt lat="47.34408" lon="-1.2417">
        <ele>58</ele>
        <time>2015-01-11T11:14:25.000Z</time>
      </trkpt>
      <trkpt lat="47.3441" lon="-1.2416">
        <ele>58</ele>
        <time>2015-01-11T11:14:27.000Z</time>
      </trkpt>
      <trkpt lat="47.34413" lon="-1.24149">
        <ele>58</ele>
        <time>2015-01-11T11:14:29.000Z</time>
      </trkpt>
      <trkpt lat="47.34417" lon="-1.24139">
        <ele>56</ele>
        <time>2015-01-11T11:14:31.000Z</time>
      </trkpt>
      <trkpt lat="47.3442" lon="-1.24128">
        <ele>57</ele>
        <time>2015-01-11T11:14:33.000Z</time>
      </trkpt>
      <trkpt lat="47.34422" lon="-1.24118">
        <ele>57</ele>
        <time>2015-01-11T11:14:35.000Z</time>
      </trkpt>
      <trkpt lat="47.34423" lon="-1.24107">
        <ele>57</ele>
        <time>2015-01-11T11:14:37.000Z</time>
      </trkpt>
      <trkpt lat="47.34425" lon="-1.24096">
        <ele>57</ele>
        <time>2015-01-11T11:14:39.000Z</time>
      </trkpt>
      <trkpt lat="47.34426" lon="-1.24085">
        <ele>57</ele>
        <time>2015-01-11T11:14:41.000Z</time>
      </trkpt>
      <trkpt lat="47.34428" lon="-1.24074">
        <ele>57</ele>
        <time>2015-01-11T11:14:43.000Z</time>
      </trkpt>
      <trkpt lat="47.34431" lon="-1.24063">
        <ele>57</ele>
        <time>2015-01-11T11:14:45.000Z</time>
      </trkpt>
      <trkpt lat="47.34433" lon="-1.24052">
        <ele>56</ele>
        <time>2015-01-11T11:14:47.000Z</time>
      </trkpt>
      <trkpt lat="47.34435" lon="-1.2404">
        <ele>56</ele>
        <time>2015-01-11T11:14:49.000Z</time>
      </trkpt>
      <trkpt lat="47.34437" lon="-1.24028">
        <ele>57</ele>
        <time>2015-01-11T11:14:51.000Z</time>
      </trkpt>
      <trkpt lat="47.3444" lon="-1.24017">
        <ele>57</ele>
        <time>2015-01-11T11:14:53.000Z</time>
      </trkpt>
      <trkpt lat="47.34443" lon="-1.24006">
        <ele>57</ele>
        <time>2015-01-11T11:14:55.000Z</time>
      </trkpt>
      <trkpt lat="47.34446" lon="-1.23995">
        <ele>57</ele>
        <time>2015-01-11T11:14:57.000Z</time>
      </trkpt>
      <trkpt lat="47.34448" lon="-1.23984">
        <ele>58</ele>
        <time>2015-01-11T11:14:59.000Z</time>
      </trkpt>
      <trkpt lat="47.34451" lon="-1.23973">
        <ele>58</ele>
        <time>2015-01-11T11:15:01.000Z</time>
      </trkpt>
      <trkpt lat="47.34453" lon="-1.23962">
        <ele>59</ele>
        <time>2015-01-11T11:15:03.000Z</time>
      </trkpt>
      <trkpt lat="47.34455" lon="-1.23951">
        <ele>59</ele>
        <time>2015-01-11T11:15:05.000Z</time>
      </trkpt>
      <trkpt lat="47.34457" lon="-1.23939">
        <ele>60</ele>
        <time>2015-01-11T11:15:07.000Z</time>
      </trkpt>
      <trkpt lat="47.34459" lon="-1.23928">
        <ele>60</ele>
        <time>2015-01-11T11:15:09.000Z</time>
      </trkpt>
      <trkpt lat="47.34462" lon="-1.23916">
        <ele>60</ele>
        <time>2015-01-11T11:15:11.000Z</time>
      </trkpt>
      <trkpt lat="47.34465" lon="-1.23905">
        <ele>61</ele>
        <time>2015-01-11T11:15:13.000Z</time>
      </trkpt>
      <trkpt lat="47.34468" lon="-1.23894">
        <ele>61</ele>
        <time>2015-01-11T11:15:15.000Z</time>
      </trkpt>
      <trkpt lat="47.3447" lon="-1.23883">
        <ele>60</ele>
        <time>2015-01-11T11:15:17.000Z</time>
      </trkpt>
      <trkpt lat="47.34473" lon="-1.23873">
        <ele>61</ele>
        <time>2015-01-11T11:15:19.000Z</time>
      </trkpt>
      <trkpt lat="47.34476" lon="-1.23865">
        <ele>63</ele>
        <time>2015-01-11T11:15:21.000Z</time>
      </trkpt>
      <trkpt lat="47.34479" lon="-1.23853">
        <ele>64</ele>
        <time>2015-01-11T11:15:23.000Z</time>
      </trkpt>
      <trkpt lat="47.34481" lon="-1.23841">
        <ele>64</ele>
        <time>2015-01-11T11:15:25.000Z</time>
      </trkpt>
      <trkpt lat="47.34484" lon="-1.23831">
        <ele>64</ele>
        <time>2015-01-11T11:15:27.000Z</time>
      </trkpt>
      <trkpt lat="47.34487" lon="-1.23821">
        <ele>63</ele>
        <time>2015-01-11T11:15:29.000Z</time>
      </trkpt>
      <trkpt lat="47.34489" lon="-1.2381">
        <ele>63</ele>
        <time>2015-01-11T11:15:31.000Z</time>
      </trkpt>
      <trkpt lat="47.34489" lon="-1.2381">
        <ele>63</ele>
        <time>2015-01-11T11:15:33.000Z</time>
      </trkpt>
      <trkpt lat="47.34491" lon="-1.23801">
        <ele>61</ele>
        <time>2015-01-11T11:15:35.000Z</time>
      </trkpt>
      <trkpt lat="47.34491" lon="-1.23801">
        <ele>61</ele>
        <time>2015-01-11T11:15:37.000Z</time>
      </trkpt>
      <trkpt lat="47.34491" lon="-1.23801">
        <ele>61</ele>
        <time>2015-01-11T11:15:39.000Z</time>
      </trkpt>
      <trkpt lat="47.34491" lon="-1.23801">
        <ele>61</ele>
        <time>2015-01-11T11:15:41.000Z</time>
      </trkpt>
      <trkpt lat="47.34491" lon="-1.23801">
        <ele>61</ele>
        <time>2015-01-11T11:15:43.000Z</time>
      </trkpt>
      <trkpt lat="47.34491" lon="-1.23801">
        <ele>61</ele>
        <time>2015-01-11T11:15:45.000Z</time>
      </trkpt>
      <trkpt lat="47.34491" lon="-1.23801">
        <ele>61</ele>
        <time>2015-01-11T11:15:47.000Z</time>
      </trkpt>
      <trkpt lat="47.34497" lon="-1.23774">
        <ele>63</ele>
        <time>2015-01-11T11:16:07.000Z</time>
      </trkpt>
      <trkpt lat="47.34499" lon="-1.23764">
        <ele>64</ele>
        <time>2015-01-11T11:16:09.000Z</time>
      </trkpt>
      <trkpt lat="47.34502" lon="-1.23755">
        <ele>65</ele>
        <time>2015-01-11T11:16:11.000Z</time>
      </trkpt>
      <trkpt lat="47.34504" lon="-1.23746">
        <ele>64</ele>
        <time>2015-01-11T11:16:13.000Z</time>
      </trkpt>
      <trkpt lat="47.34505" lon="-1.23738">
        <ele>65</ele>
        <time>2015-01-11T11:16:15.000Z</time>
      </trkpt>
      <trkpt lat="47.34505" lon="-1.23738">
        <ele>65</ele>
        <time>2015-01-11T11:16:17.000Z</time>
      </trkpt>
      <trkpt lat="47.34509" lon="-1.23725">
        <ele>64</ele>
        <time>2015-01-11T11:16:19.000Z</time>
      </trkpt>
      <trkpt lat="47.34509" lon="-1.23725">
        <ele>64</ele>
        <time>2015-01-11T11:16:21.000Z</time>
      </trkpt>
      <trkpt lat="47.34507" lon="-1.23711">
        <ele>63</ele>
        <time>2015-01-11T11:16:23.000Z</time>
      </trkpt>
      <trkpt lat="47.34507" lon="-1.23711">
        <ele>63</ele>
        <time>2015-01-11T11:16:25.000Z</time>
      </trkpt>
      <trkpt lat="47.34509" lon="-1.23697">
        <ele>63</ele>
        <time>2015-01-11T11:16:27.000Z</time>
      </trkpt>
      <trkpt lat="47.34513" lon="-1.23682">
        <ele>62</ele>
        <time>2015-01-11T11:16:31.000Z</time>
      </trkpt>
      <trkpt lat="47.34516" lon="-1.23673">
        <ele>62</ele>
        <time>2015-01-11T11:16:33.000Z</time>
      </trkpt>
      <trkpt lat="47.34518" lon="-1.23665">
        <ele>62</ele>
        <time>2015-01-11T11:16:35.000Z</time>
      </trkpt>
      <trkpt lat="47.3452" lon="-1.23657">
        <ele>62</ele>
        <time>2015-01-11T11:16:37.000Z</time>
      </trkpt>
      <trkpt lat="47.34522" lon="-1.23649">
        <ele>62</ele>
        <time>2015-01-11T11:16:39.000Z</time>
      </trkpt>
      <trkpt lat="47.34522" lon="-1.23649">
        <ele>62</ele>
        <time>2015-01-11T11:16:41.000Z</time>
      </trkpt>
      <trkpt lat="47.34526" lon="-1.23635">
        <ele>61</ele>
        <time>2015-01-11T11:16:43.000Z</time>
      </trkpt>
      <trkpt lat="47.34526" lon="-1.23635">
        <ele>61</ele>
        <time>2015-01-11T11:16:45.000Z</time>
      </trkpt>
      <trkpt lat="47.3453" lon="-1.23621">
        <ele>62</ele>
        <time>2015-01-11T11:16:47.000Z</time>
      </trkpt>
      <trkpt lat="47.34533" lon="-1.23605">
        <ele>62</ele>
        <time>2015-01-11T11:16:51.000Z</time>
      </trkpt>
      <trkpt lat="47.34535" lon="-1.23597">
        <ele>61</ele>
        <time>2015-01-11T11:16:53.000Z</time>
      </trkpt>
      <trkpt lat="47.34536" lon="-1.23588">
        <ele>60</ele>
        <time>2015-01-11T11:16:55.000Z</time>
      </trkpt>
      <trkpt lat="47.34538" lon="-1.23579">
        <ele>60</ele>
        <time>2015-01-11T11:16:57.000Z</time>
      </trkpt>
      <trkpt lat="47.34539" lon="-1.23571">
        <ele>60</ele>
        <time>2015-01-11T11:16:59.000Z</time>
      </trkpt>
      <trkpt lat="47.3454" lon="-1.23562">
        <ele>61</ele>
        <time>2015-01-11T11:17:01.000Z</time>
      </trkpt>
      <trkpt lat="47.3454" lon="-1.23562">
        <ele>61</ele>
        <time>2015-01-11T11:17:03.000Z</time>
      </trkpt>
      <trkpt lat="47.34543" lon="-1.23547">
        <ele>60</ele>
        <time>2015-01-11T11:17:05.000Z</time>
      </trkpt>
      <trkpt lat="47.34543" lon="-1.23547">
        <ele>60</ele>
        <time>2015-01-11T11:17:07.000Z</time>
      </trkpt>
      <trkpt lat="47.34547" lon="-1.2353">
        <ele>61</ele>
        <time>2015-01-11T11:17:09.000Z</time>
      </trkpt>
      <trkpt lat="47.34549" lon="-1.23522">
        <ele>61</ele>
        <time>2015-01-11T11:17:11.000Z</time>
      </trkpt>
      <trkpt lat="47.34554" lon="-1.23506">
        <ele>61</ele>
        <time>2015-01-11T11:17:15.000Z</time>
      </trkpt>
      <trkpt lat="47.34555" lon="-1.23498">
        <ele>61</ele>
        <time>2015-01-11T11:17:17.000Z</time>
      </trkpt>
      <trkpt lat="47.34557" lon="-1.23489">
        <ele>60</ele>
        <time>2015-01-11T11:17:19.000Z</time>
      </trkpt>
      <trkpt lat="47.34558" lon="-1.23481">
        <ele>61</ele>
        <time>2015-01-11T11:17:21.000Z</time>
      </trkpt>
      <trkpt lat="47.3456" lon="-1.23472">
        <ele>60</ele>
        <time>2015-01-11T11:17:23.000Z</time>
      </trkpt>
      <trkpt lat="47.3456" lon="-1.23463">
        <ele>60</ele>
        <time>2015-01-11T11:17:25.000Z</time>
      </trkpt>
      <trkpt lat="47.34562" lon="-1.23455">
        <ele>60</ele>
        <time>2015-01-11T11:17:27.000Z</time>
      </trkpt>
      <trkpt lat="47.34562" lon="-1.23455">
        <ele>60</ele>
        <time>2015-01-11T11:17:29.000Z</time>
      </trkpt>
      <trkpt lat="47.34563" lon="-1.23439">
        <ele>61</ele>
        <time>2015-01-11T11:17:31.000Z</time>
      </trkpt>
      <trkpt lat="47.34563" lon="-1.23439">
        <ele>61</ele>
        <time>2015-01-11T11:17:33.000Z</time>
      </trkpt>
      <trkpt lat="47.34563" lon="-1.23422">
        <ele>60</ele>
        <time>2015-01-11T11:17:35.000Z</time>
      </trkpt>
      <trkpt lat="47.34563" lon="-1.23414">
        <ele>60</ele>
        <time>2015-01-11T11:17:37.000Z</time>
      </trkpt>
      <trkpt lat="47.34563" lon="-1.23405">
        <ele>60</ele>
        <time>2015-01-11T11:17:39.000Z</time>
      </trkpt>
      <trkpt lat="47.34563" lon="-1.23396">
        <ele>60</ele>
        <time>2015-01-11T11:17:41.000Z</time>
      </trkpt>
      <trkpt lat="47.34563" lon="-1.23396">
        <ele>60</ele>
        <time>2015-01-11T11:17:43.000Z</time>
      </trkpt>
      <trkpt lat="47.34563" lon="-1.2338">
        <ele>60</ele>
        <time>2015-01-11T11:17:45.000Z</time>
      </trkpt>
      <trkpt lat="47.34563" lon="-1.2338">
        <ele>60</ele>
        <time>2015-01-11T11:17:47.000Z</time>
      </trkpt>
      <trkpt lat="47.34562" lon="-1.23372">
        <ele>59</ele>
        <time>2015-01-11T11:17:49.000Z</time>
      </trkpt>
      <trkpt lat="47.3456" lon="-1.23365">
        <ele>58</ele>
        <time>2015-01-11T11:17:51.000Z</time>
      </trkpt>
      <trkpt lat="47.34557" lon="-1.23357">
        <ele>58</ele>
        <time>2015-01-11T11:17:53.000Z</time>
      </trkpt>
      <trkpt lat="47.34554" lon="-1.23349">
        <ele>58</ele>
        <time>2015-01-11T11:17:55.000Z</time>
      </trkpt>
      <trkpt lat="47.3455" lon="-1.23342">
        <ele>57</ele>
        <time>2015-01-11T11:17:57.000Z</time>
      </trkpt>
      <trkpt lat="47.34544" lon="-1.23328">
        <ele>58</ele>
        <time>2015-01-11T11:17:59.000Z</time>
      </trkpt>
      <trkpt lat="47.34544" lon="-1.23328">
        <ele>58</ele>
        <time>2015-01-11T11:18:01.000Z</time>
      </trkpt>
      <trkpt lat="47.34538" lon="-1.23316">
        <ele>54</ele>
        <time>2015-01-11T11:18:03.000Z</time>
      </trkpt>
      <trkpt lat="47.34538" lon="-1.23316">
        <ele>54</ele>
        <time>2015-01-11T11:18:05.000Z</time>
      </trkpt>
      <trkpt lat="47.34533" lon="-1.23304">
        <ele>57</ele>
        <time>2015-01-11T11:18:07.000Z</time>
      </trkpt>
      <trkpt lat="47.34533" lon="-1.23304">
        <ele>57</ele>
        <time>2015-01-11T11:18:09.000Z</time>
      </trkpt>
      <trkpt lat="47.34533" lon="-1.23291">
        <ele>57</ele>
        <time>2015-01-11T11:18:11.000Z</time>
      </trkpt>
      <trkpt lat="47.34533" lon="-1.23291">
        <ele>57</ele>
        <time>2015-01-11T11:18:13.000Z</time>
      </trkpt>
      <trkpt lat="47.34536" lon="-1.23281">
        <ele>57</ele>
        <time>2015-01-11T11:18:15.000Z</time>
      </trkpt>
      <trkpt lat="47.34536" lon="-1.23281">
        <ele>57</ele>
        <time>2015-01-11T11:18:17.000Z</time>
      </trkpt>
      <trkpt lat="47.34536" lon="-1.23281">
        <ele>57</ele>
        <time>2015-01-11T11:18:19.000Z</time>
      </trkpt>
      <trkpt lat="47.34536" lon="-1.23281">
        <ele>57</ele>
        <time>2015-01-11T11:18:21.000Z</time>
      </trkpt>
      <trkpt lat="47.34536" lon="-1.23281">
        <ele>57</ele>
        <time>2015-01-11T11:18:23.000Z</time>
      </trkpt>
      <trkpt lat="47.34545" lon="-1.2326">
        <ele>59</ele>
        <time>2015-01-11T11:18:55.000Z</time>
      </trkpt>
      <trkpt lat="47.34551" lon="-1.23256">
        <ele>62</ele>
        <time>2015-01-11T11:18:57.000Z</time>
      </trkpt>
      <trkpt lat="47.34556" lon="-1.23251">
        <ele>63</ele>
        <time>2015-01-11T11:18:59.000Z</time>
      </trkpt>
      <trkpt lat="47.34563" lon="-1.23235">
        <ele>63</ele>
        <time>2015-01-11T11:19:03.000Z</time>
      </trkpt>
      <trkpt lat="47.34566" lon="-1.23224">
        <ele>61</ele>
        <time>2015-01-11T11:19:05.000Z</time>
      </trkpt>
      <trkpt lat="47.34569" lon="-1.23214">
        <ele>60</ele>
        <time>2015-01-11T11:19:07.000Z</time>
      </trkpt>
      <trkpt lat="47.34573" lon="-1.23205">
        <ele>61</ele>
        <time>2015-01-11T11:19:09.000Z</time>
      </trkpt>
      <trkpt lat="47.34578" lon="-1.23195">
        <ele>62</ele>
        <time>2015-01-11T11:19:11.000Z</time>
      </trkpt>
      <trkpt lat="47.34583" lon="-1.23184">
        <ele>64</ele>
        <time>2015-01-11T11:19:13.000Z</time>
      </trkpt>
      <trkpt lat="47.34588" lon="-1.23172">
        <ele>64</ele>
        <time>2015-01-11T11:19:15.000Z</time>
      </trkpt>
      <trkpt lat="47.34592" lon="-1.23161">
        <ele>66</ele>
        <time>2015-01-11T11:19:17.000Z</time>
      </trkpt>
      <trkpt lat="47.34596" lon="-1.23151">
        <ele>70</ele>
        <time>2015-01-11T11:19:19.000Z</time>
      </trkpt>
      <trkpt lat="47.346" lon="-1.2314">
        <ele>71</ele>
        <time>2015-01-11T11:19:21.000Z</time>
      </trkpt>
      <trkpt lat="47.34604" lon="-1.23129">
        <ele>70</ele>
        <time>2015-01-11T11:19:23.000Z</time>
      </trkpt>
      <trkpt lat="47.34607" lon="-1.23118">
        <ele>70</ele>
        <time>2015-01-11T11:19:25.000Z</time>
      </trkpt>
      <trkpt lat="47.34611" lon="-1.23107">
        <ele>70</ele>
        <time>2015-01-11T11:19:27.000Z</time>
      </trkpt>
      <trkpt lat="47.34614" lon="-1.23097">
        <ele>72</ele>
        <time>2015-01-11T11:19:29.000Z</time>
      </trkpt>
      <trkpt lat="47.34617" lon="-1.23088">
        <ele>71</ele>
        <time>2015-01-11T11:19:31.000Z</time>
      </trkpt>
      <trkpt lat="47.3462" lon="-1.23078">
        <ele>71</ele>
        <time>2015-01-11T11:19:33.000Z</time>
      </trkpt>
      <trkpt lat="47.34622" lon="-1.23069">
        <ele>72</ele>
        <time>2015-01-11T11:19:35.000Z</time>
      </trkpt>
      <trkpt lat="47.34609" lon="-1.23054">
        <ele>63</ele>
        <time>2015-01-11T11:19:38.000Z</time>
      </trkpt>
      <trkpt lat="47.34609" lon="-1.23044">
        <ele>65</ele>
        <time>2015-01-11T11:19:40.000Z</time>
      </trkpt>
      <trkpt lat="47.34609" lon="-1.23031">
        <ele>68</ele>
        <time>2015-01-11T11:19:42.000Z</time>
      </trkpt>
      <trkpt lat="47.34611" lon="-1.23018">
        <ele>66</ele>
        <time>2015-01-11T11:19:44.000Z</time>
      </trkpt>
      <trkpt lat="47.34611" lon="-1.23007">
        <ele>66</ele>
        <time>2015-01-11T11:19:46.000Z</time>
      </trkpt>
      <trkpt lat="47.34608" lon="-1.22995">
        <ele>66</ele>
        <time>2015-01-11T11:19:48.000Z</time>
      </trkpt>
      <trkpt lat="47.34608" lon="-1.22995">
        <ele>66</ele>
        <time>2015-01-11T11:19:50.000Z</time>
      </trkpt>
      <trkpt lat="47.34609" lon="-1.22981">
        <ele>70</ele>
        <time>2015-01-11T11:19:52.000Z</time>
      </trkpt>
      <trkpt lat="47.34605" lon="-1.22974">
        <ele>68</ele>
        <time>2015-01-11T11:19:54.000Z</time>
      </trkpt>
      <trkpt lat="47.34605" lon="-1.22974">
        <ele>68</ele>
        <time>2015-01-11T11:19:56.000Z</time>
      </trkpt>
      <trkpt lat="47.34598" lon="-1.22965">
        <ele>67</ele>
        <time>2015-01-11T11:19:58.000Z</time>
      </trkpt>
      <trkpt lat="47.34592" lon="-1.22956">
        <ele>66</ele>
        <time>2015-01-11T11:20:00.000Z</time>
      </trkpt>
      <trkpt lat="47.34584" lon="-1.22947">
        <ele>65</ele>
        <time>2015-01-11T11:20:02.000Z</time>
      </trkpt>
      <trkpt lat="47.34575" lon="-1.22937">
        <ele>63</ele>
        <time>2015-01-11T11:20:04.000Z</time>
      </trkpt>
      <trkpt lat="47.34567" lon="-1.22928">
        <ele>61</ele>
        <time>2015-01-11T11:20:06.000Z</time>
      </trkpt>
      <trkpt lat="47.34558" lon="-1.22919">
        <ele>59</ele>
        <time>2015-01-11T11:20:08.000Z</time>
      </trkpt>
      <trkpt lat="47.34551" lon="-1.22911">
        <ele>58</ele>
        <time>2015-01-11T11:20:10.000Z</time>
      </trkpt>
      <trkpt lat="47.34545" lon="-1.22902">
        <ele>55</ele>
        <time>2015-01-11T11:20:12.000Z</time>
      </trkpt>
      <trkpt lat="47.34539" lon="-1.22894">
        <ele>55</ele>
        <time>2015-01-11T11:20:14.000Z</time>
      </trkpt>
      <trkpt lat="47.34533" lon="-1.22888">
        <ele>52</ele>
        <time>2015-01-11T11:20:16.000Z</time>
      </trkpt>
      <trkpt lat="47.34526" lon="-1.22881">
        <ele>53</ele>
        <time>2015-01-11T11:20:18.000Z</time>
      </trkpt>
      <trkpt lat="47.3452" lon="-1.22872">
        <ele>49</ele>
        <time>2015-01-11T11:20:20.000Z</time>
      </trkpt>
      <trkpt lat="47.34512" lon="-1.22863">
        <ele>48</ele>
        <time>2015-01-11T11:20:22.000Z</time>
      </trkpt>
      <trkpt lat="47.34505" lon="-1.22857">
        <ele>49</ele>
        <time>2015-01-11T11:20:24.000Z</time>
      </trkpt>
      <trkpt lat="47.34499" lon="-1.2285">
        <ele>48</ele>
        <time>2015-01-11T11:20:26.000Z</time>
      </trkpt>
      <trkpt lat="47.34492" lon="-1.22844">
        <ele>44</ele>
        <time>2015-01-11T11:20:28.000Z</time>
      </trkpt>
      <trkpt lat="47.34486" lon="-1.22838">
        <ele>46</ele>
        <time>2015-01-11T11:20:30.000Z</time>
      </trkpt>
      <trkpt lat="47.34478" lon="-1.2283">
        <ele>49</ele>
        <time>2015-01-11T11:20:32.000Z</time>
      </trkpt>
      <trkpt lat="47.34469" lon="-1.2282">
        <ele>50</ele>
        <time>2015-01-11T11:20:34.000Z</time>
      </trkpt>
      <trkpt lat="47.34462" lon="-1.22811">
        <ele>53</ele>
        <time>2015-01-11T11:20:36.000Z</time>
      </trkpt>
      <trkpt lat="47.34456" lon="-1.22804">
        <ele>60</ele>
        <time>2015-01-11T11:20:38.000Z</time>
      </trkpt>
      <trkpt lat="47.34451" lon="-1.22798">
        <ele>62</ele>
        <time>2015-01-11T11:20:40.000Z</time>
      </trkpt>
      <trkpt lat="47.34446" lon="-1.22791">
        <ele>64</ele>
        <time>2015-01-11T11:20:42.000Z</time>
      </trkpt>
      <trkpt lat="47.34443" lon="-1.22784">
        <ele>63</ele>
        <time>2015-01-11T11:20:44.000Z</time>
      </trkpt>
      <trkpt lat="47.34438" lon="-1.22775">
        <ele>60</ele>
        <time>2015-01-11T11:20:46.000Z</time>
      </trkpt>
      <trkpt lat="47.34431" lon="-1.22766">
        <ele>58</ele>
        <time>2015-01-11T11:20:48.000Z</time>
      </trkpt>
      <trkpt lat="47.34422" lon="-1.22758">
        <ele>58</ele>
        <time>2015-01-11T11:20:50.000Z</time>
      </trkpt>
      <trkpt lat="47.34413" lon="-1.22749">
        <ele>56</ele>
        <time>2015-01-11T11:20:52.000Z</time>
      </trkpt>
      <trkpt lat="47.34404" lon="-1.22739">
        <ele>57</ele>
        <time>2015-01-11T11:20:54.000Z</time>
      </trkpt>
      <trkpt lat="47.34395" lon="-1.2273">
        <ele>59</ele>
        <time>2015-01-11T11:20:56.000Z</time>
      </trkpt>
      <trkpt lat="47.34387" lon="-1.22721">
        <ele>57</ele>
        <time>2015-01-11T11:20:58.000Z</time>
      </trkpt>
      <trkpt lat="47.3438" lon="-1.22713">
        <ele>54</ele>
        <time>2015-01-11T11:21:00.000Z</time>
      </trkpt>
      <trkpt lat="47.3437" lon="-1.22704">
        <ele>55</ele>
        <time>2015-01-11T11:21:02.000Z</time>
      </trkpt>
      <trkpt lat="47.34357" lon="-1.22692">
        <ele>56</ele>
        <time>2015-01-11T11:21:04.000Z</time>
      </trkpt>
      <trkpt lat="47.34343" lon="-1.22684">
        <ele>56</ele>
        <time>2015-01-11T11:21:07.000Z</time>
      </trkpt>
      <trkpt lat="47.34335" lon="-1.22683">
        <ele>58</ele>
        <time>2015-01-11T11:21:09.000Z</time>
      </trkpt>
      <trkpt lat="47.34327" lon="-1.22678">
        <ele>58</ele>
        <time>2015-01-11T11:21:11.000Z</time>
      </trkpt>
      <trkpt lat="47.34318" lon="-1.2267">
        <ele>63</ele>
        <time>2015-01-11T11:21:13.000Z</time>
      </trkpt>
      <trkpt lat="47.34311" lon="-1.22662">
        <ele>63</ele>
        <time>2015-01-11T11:21:15.000Z</time>
      </trkpt>
      <trkpt lat="47.34304" lon="-1.22648">
        <ele>62</ele>
        <time>2015-01-11T11:21:17.000Z</time>
      </trkpt>
      <trkpt lat="47.34293" lon="-1.22639">
        <ele>60</ele>
        <time>2015-01-11T11:21:19.000Z</time>
      </trkpt>
      <trkpt lat="47.3428" lon="-1.22638">
        <ele>60</ele>
        <time>2015-01-11T11:21:21.000Z</time>
      </trkpt>
      <trkpt lat="47.34268" lon="-1.2264">
        <ele>60</ele>
        <time>2015-01-11T11:21:24.000Z</time>
      </trkpt>
      <trkpt lat="47.3426" lon="-1.22648">
        <ele>60</ele>
        <time>2015-01-11T11:21:26.000Z</time>
      </trkpt>
      <trkpt lat="47.34251" lon="-1.22654">
        <ele>59</ele>
        <time>2015-01-11T11:21:28.000Z</time>
      </trkpt>
      <trkpt lat="47.34243" lon="-1.22659">
        <ele>60</ele>
        <time>2015-01-11T11:21:30.000Z</time>
      </trkpt>
      <trkpt lat="47.34237" lon="-1.22666">
        <ele>60</ele>
        <time>2015-01-11T11:21:32.000Z</time>
      </trkpt>
      <trkpt lat="47.34229" lon="-1.22669">
        <ele>62</ele>
        <time>2015-01-11T11:21:34.000Z</time>
      </trkpt>
      <trkpt lat="47.34221" lon="-1.22668">
        <ele>62</ele>
        <time>2015-01-11T11:21:36.000Z</time>
      </trkpt>
      <trkpt lat="47.34217" lon="-1.22658">
        <ele>62</ele>
        <time>2015-01-11T11:21:38.000Z</time>
      </trkpt>
      <trkpt lat="47.34213" lon="-1.22649">
        <ele>62</ele>
        <time>2015-01-11T11:21:40.000Z</time>
      </trkpt>
      <trkpt lat="47.34211" lon="-1.22638">
        <ele>62</ele>
        <time>2015-01-11T11:21:42.000Z</time>
      </trkpt>
      <trkpt lat="47.34211" lon="-1.22626">
        <ele>62</ele>
        <time>2015-01-11T11:21:44.000Z</time>
      </trkpt>
      <trkpt lat="47.34212" lon="-1.22613">
        <ele>62</ele>
        <time>2015-01-11T11:21:46.000Z</time>
      </trkpt>
      <trkpt lat="47.34214" lon="-1.226">
        <ele>63</ele>
        <time>2015-01-11T11:21:48.000Z</time>
      </trkpt>
      <trkpt lat="47.34216" lon="-1.22588">
        <ele>62</ele>
        <time>2015-01-11T11:21:50.000Z</time>
      </trkpt>
      <trkpt lat="47.34217" lon="-1.22576">
        <ele>62</ele>
        <time>2015-01-11T11:21:52.000Z</time>
      </trkpt>
      <trkpt lat="47.3422" lon="-1.22564">
        <ele>60</ele>
        <time>2015-01-11T11:21:54.000Z</time>
      </trkpt>
      <trkpt lat="47.34221" lon="-1.22552">
        <ele>59</ele>
        <time>2015-01-11T11:21:56.000Z</time>
      </trkpt>
      <trkpt lat="47.34222" lon="-1.2254">
        <ele>57</ele>
        <time>2015-01-11T11:21:58.000Z</time>
      </trkpt>
      <trkpt lat="47.34222" lon="-1.22528">
        <ele>55</ele>
        <time>2015-01-11T11:22:00.000Z</time>
      </trkpt>
      <trkpt lat="47.34222" lon="-1.22516">
        <ele>55</ele>
        <time>2015-01-11T11:22:02.000Z</time>
      </trkpt>
      <trkpt lat="47.34223" lon="-1.22504">
        <ele>55</ele>
        <time>2015-01-11T11:22:04.000Z</time>
      </trkpt>
      <trkpt lat="47.34224" lon="-1.22492">
        <ele>55</ele>
        <time>2015-01-11T11:22:06.000Z</time>
      </trkpt>
      <trkpt lat="47.34224" lon="-1.22479">
        <ele>56</ele>
        <time>2015-01-11T11:22:08.000Z</time>
      </trkpt>
      <trkpt lat="47.34225" lon="-1.22466">
        <ele>56</ele>
        <time>2015-01-11T11:22:10.000Z</time>
      </trkpt>
      <trkpt lat="47.34226" lon="-1.22454">
        <ele>57</ele>
        <time>2015-01-11T11:22:12.000Z</time>
      </trkpt>
      <trkpt lat="47.34227" lon="-1.22441">
        <ele>57</ele>
        <time>2015-01-11T11:22:14.000Z</time>
      </trkpt>
      <trkpt lat="47.34229" lon="-1.22429">
        <ele>57</ele>
        <time>2015-01-11T11:22:16.000Z</time>
      </trkpt>
      <trkpt lat="47.3423" lon="-1.22416">
        <ele>57</ele>
        <time>2015-01-11T11:22:18.000Z</time>
      </trkpt>
      <trkpt lat="47.34231" lon="-1.22404">
        <ele>58</ele>
        <time>2015-01-11T11:22:20.000Z</time>
      </trkpt>
      <trkpt lat="47.34233" lon="-1.22391">
        <ele>57</ele>
        <time>2015-01-11T11:22:22.000Z</time>
      </trkpt>
      <trkpt lat="47.34234" lon="-1.22377">
        <ele>57</ele>
        <time>2015-01-11T11:22:24.000Z</time>
      </trkpt>
      <trkpt lat="47.34236" lon="-1.22364">
        <ele>57</ele>
        <time>2015-01-11T11:22:26.000Z</time>
      </trkpt>
      <trkpt lat="47.34238" lon="-1.2235">
        <ele>56</ele>
        <time>2015-01-11T11:22:28.000Z</time>
      </trkpt>
      <trkpt lat="47.34239" lon="-1.22336">
        <ele>56</ele>
        <time>2015-01-11T11:22:30.000Z</time>
      </trkpt>
      <trkpt lat="47.3424" lon="-1.22323">
        <ele>55</ele>
        <time>2015-01-11T11:22:32.000Z</time>
      </trkpt>
      <trkpt lat="47.34242" lon="-1.22311">
        <ele>56</ele>
        <time>2015-01-11T11:22:34.000Z</time>
      </trkpt>
      <trkpt lat="47.34245" lon="-1.22297">
        <ele>56</ele>
        <time>2015-01-11T11:22:36.000Z</time>
      </trkpt>
      <trkpt lat="47.34247" lon="-1.22285">
        <ele>57</ele>
        <time>2015-01-11T11:22:38.000Z</time>
      </trkpt>
      <trkpt lat="47.34249" lon="-1.22272">
        <ele>57</ele>
        <time>2015-01-11T11:22:40.000Z</time>
      </trkpt>
      <trkpt lat="47.34249" lon="-1.22259">
        <ele>57</ele>
        <time>2015-01-11T11:22:42.000Z</time>
      </trkpt>
      <trkpt lat="47.3425" lon="-1.22246">
        <ele>57</ele>
        <time>2015-01-11T11:22:44.000Z</time>
      </trkpt>
      <trkpt lat="47.34252" lon="-1.22233">
        <ele>57</ele>
        <time>2015-01-11T11:22:46.000Z</time>
      </trkpt>
      <trkpt lat="47.34253" lon="-1.2222">
        <ele>55</ele>
        <time>2015-01-11T11:22:48.000Z</time>
      </trkpt>
      <trkpt lat="47.34255" lon="-1.22207">
        <ele>55</ele>
        <time>2015-01-11T11:22:50.000Z</time>
      </trkpt>
      <trkpt lat="47.34257" lon="-1.22195">
        <ele>55</ele>
        <time>2015-01-11T11:22:52.000Z</time>
      </trkpt>
      <trkpt lat="47.34259" lon="-1.22183">
        <ele>55</ele>
        <time>2015-01-11T11:22:54.000Z</time>
      </trkpt>
      <trkpt lat="47.3426" lon="-1.22171">
        <ele>55</ele>
        <time>2015-01-11T11:22:56.000Z</time>
      </trkpt>
      <trkpt lat="47.34262" lon="-1.22159">
        <ele>54</ele>
        <time>2015-01-11T11:22:58.000Z</time>
      </trkpt>
      <trkpt lat="47.34264" lon="-1.22147">
        <ele>54</ele>
        <time>2015-01-11T11:23:00.000Z</time>
      </trkpt>
      <trkpt lat="47.34265" lon="-1.22134">
        <ele>53</ele>
        <time>2015-01-11T11:23:02.000Z</time>
      </trkpt>
      <trkpt lat="47.34266" lon="-1.22124">
        <ele>57</ele>
        <time>2015-01-11T11:23:04.000Z</time>
      </trkpt>
      <trkpt lat="47.34268" lon="-1.22111">
        <ele>56</ele>
        <time>2015-01-11T11:23:06.000Z</time>
      </trkpt>
      <trkpt lat="47.34269" lon="-1.22098">
        <ele>55</ele>
        <time>2015-01-11T11:23:08.000Z</time>
      </trkpt>
      <trkpt lat="47.3427" lon="-1.22085">
        <ele>56</ele>
        <time>2015-01-11T11:23:10.000Z</time>
      </trkpt>
      <trkpt lat="47.34272" lon="-1.22072">
        <ele>56</ele>
        <time>2015-01-11T11:23:12.000Z</time>
      </trkpt>
      <trkpt lat="47.34275" lon="-1.22059">
        <ele>54</ele>
        <time>2015-01-11T11:23:14.000Z</time>
      </trkpt>
      <trkpt lat="47.34281" lon="-1.2205">
        <ele>55</ele>
        <time>2015-01-11T11:23:16.000Z</time>
      </trkpt>
      <trkpt lat="47.34288" lon="-1.22039">
        <ele>56</ele>
        <time>2015-01-11T11:23:18.000Z</time>
      </trkpt>
      <trkpt lat="47.34292" lon="-1.22025">
        <ele>55</ele>
        <time>2015-01-11T11:23:20.000Z</time>
      </trkpt>
      <trkpt lat="47.34294" lon="-1.22011">
        <ele>55</ele>
        <time>2015-01-11T11:23:22.000Z</time>
      </trkpt>
      <trkpt lat="47.34297" lon="-1.21996">
        <ele>53</ele>
        <time>2015-01-11T11:23:24.000Z</time>
      </trkpt>
      <trkpt lat="47.34298" lon="-1.21984">
        <ele>53</ele>
        <time>2015-01-11T11:23:26.000Z</time>
      </trkpt>
      <trkpt lat="47.34299" lon="-1.21971">
        <ele>54</ele>
        <time>2015-01-11T11:23:28.000Z</time>
      </trkpt>
      <trkpt lat="47.34302" lon="-1.21958">
        <ele>54</ele>
        <time>2015-01-11T11:23:30.000Z</time>
      </trkpt>
      <trkpt lat="47.34302" lon="-1.21946">
        <ele>54</ele>
        <time>2015-01-11T11:23:32.000Z</time>
      </trkpt>
      <trkpt lat="47.34303" lon="-1.21933">
        <ele>55</ele>
        <time>2015-01-11T11:23:34.000Z</time>
      </trkpt>
      <trkpt lat="47.34304" lon="-1.21919">
        <ele>55</ele>
        <time>2015-01-11T11:23:36.000Z</time>
      </trkpt>
      <trkpt lat="47.34305" lon="-1.21907">
        <ele>56</ele>
        <time>2015-01-11T11:23:38.000Z</time>
      </trkpt>
      <trkpt lat="47.34306" lon="-1.21893">
        <ele>55</ele>
        <time>2015-01-11T11:23:40.000Z</time>
      </trkpt>
      <trkpt lat="47.34307" lon="-1.21879">
        <ele>56</ele>
        <time>2015-01-11T11:23:42.000Z</time>
      </trkpt>
      <trkpt lat="47.34308" lon="-1.21866">
        <ele>55</ele>
        <time>2015-01-11T11:23:44.000Z</time>
      </trkpt>
      <trkpt lat="47.34309" lon="-1.21853">
        <ele>54</ele>
        <time>2015-01-11T11:23:46.000Z</time>
      </trkpt>
      <trkpt lat="47.34309" lon="-1.2184">
        <ele>55</ele>
        <time>2015-01-11T11:23:48.000Z</time>
      </trkpt>
      <trkpt lat="47.34309" lon="-1.21828">
        <ele>55</ele>
        <time>2015-01-11T11:23:50.000Z</time>
      </trkpt>
      <trkpt lat="47.34311" lon="-1.21814">
        <ele>53</ele>
        <time>2015-01-11T11:23:52.000Z</time>
      </trkpt>
      <trkpt lat="47.3431" lon="-1.21801">
        <ele>54</ele>
        <time>2015-01-11T11:23:54.000Z</time>
      </trkpt>
      <trkpt lat="47.34311" lon="-1.21787">
        <ele>57</ele>
        <time>2015-01-11T11:23:56.000Z</time>
      </trkpt>
      <trkpt lat="47.34312" lon="-1.21774">
        <ele>58</ele>
        <time>2015-01-11T11:23:58.000Z</time>
      </trkpt>
      <trkpt lat="47.34312" lon="-1.21762">
        <ele>57</ele>
        <time>2015-01-11T11:24:00.000Z</time>
      </trkpt>
      <trkpt lat="47.34313" lon="-1.21749">
        <ele>58</ele>
        <time>2015-01-11T11:24:02.000Z</time>
      </trkpt>
      <trkpt lat="47.34314" lon="-1.21736">
        <ele>58</ele>
        <time>2015-01-11T11:24:04.000Z</time>
      </trkpt>
      <trkpt lat="47.34315" lon="-1.21724">
        <ele>58</ele>
        <time>2015-01-11T11:24:06.000Z</time>
      </trkpt>
      <trkpt lat="47.34315" lon="-1.21711">
        <ele>58</ele>
        <time>2015-01-11T11:24:08.000Z</time>
      </trkpt>
      <trkpt lat="47.34316" lon="-1.21699">
        <ele>58</ele>
        <time>2015-01-11T11:24:10.000Z</time>
      </trkpt>
      <trkpt lat="47.34317" lon="-1.21686">
        <ele>58</ele>
        <time>2015-01-11T11:24:12.000Z</time>
      </trkpt>
      <trkpt lat="47.34319" lon="-1.21673">
        <ele>58</ele>
        <time>2015-01-11T11:24:14.000Z</time>
      </trkpt>
      <trkpt lat="47.34321" lon="-1.2166">
        <ele>58</ele>
        <time>2015-01-11T11:24:16.000Z</time>
      </trkpt>
      <trkpt lat="47.34323" lon="-1.21647">
        <ele>57</ele>
        <time>2015-01-11T11:24:18.000Z</time>
      </trkpt>
      <trkpt lat="47.34324" lon="-1.21634">
        <ele>57</ele>
        <time>2015-01-11T11:24:20.000Z</time>
      </trkpt>
      <trkpt lat="47.34325" lon="-1.2162">
        <ele>57</ele>
        <time>2015-01-11T11:24:22.000Z</time>
      </trkpt>
      <trkpt lat="47.34327" lon="-1.21606">
        <ele>57</ele>
        <time>2015-01-11T11:24:24.000Z</time>
      </trkpt>
      <trkpt lat="47.34329" lon="-1.21593">
        <ele>57</ele>
        <time>2015-01-11T11:24:26.000Z</time>
      </trkpt>
      <trkpt lat="47.3433" lon="-1.2158">
        <ele>57</ele>
        <time>2015-01-11T11:24:28.000Z</time>
      </trkpt>
      <trkpt lat="47.34332" lon="-1.21565">
        <ele>57</ele>
        <time>2015-01-11T11:24:30.000Z</time>
      </trkpt>
      <trkpt lat="47.34334" lon="-1.21553">
        <ele>57</ele>
        <time>2015-01-11T11:24:32.000Z</time>
      </trkpt>
      <trkpt lat="47.34335" lon="-1.21538">
        <ele>57</ele>
        <time>2015-01-11T11:24:34.000Z</time>
      </trkpt>
      <trkpt lat="47.34336" lon="-1.21525">
        <ele>57</ele>
        <time>2015-01-11T11:24:36.000Z</time>
      </trkpt>
      <trkpt lat="47.34337" lon="-1.21513">
        <ele>56</ele>
        <time>2015-01-11T11:24:38.000Z</time>
      </trkpt>
      <trkpt lat="47.34338" lon="-1.21502">
        <ele>57</ele>
        <time>2015-01-11T11:24:40.000Z</time>
      </trkpt>
      <trkpt lat="47.3434" lon="-1.21491">
        <ele>57</ele>
        <time>2015-01-11T11:24:42.000Z</time>
      </trkpt>
      <trkpt lat="47.34341" lon="-1.2148">
        <ele>58</ele>
        <time>2015-01-11T11:24:44.000Z</time>
      </trkpt>
      <trkpt lat="47.34343" lon="-1.21468">
        <ele>57</ele>
        <time>2015-01-11T11:24:46.000Z</time>
      </trkpt>
      <trkpt lat="47.34345" lon="-1.21455">
        <ele>56</ele>
        <time>2015-01-11T11:24:48.000Z</time>
      </trkpt>
      <trkpt lat="47.34347" lon="-1.21443">
        <ele>56</ele>
        <time>2015-01-11T11:24:50.000Z</time>
      </trkpt>
      <trkpt lat="47.34348" lon="-1.2143">
        <ele>56</ele>
        <time>2015-01-11T11:24:52.000Z</time>
      </trkpt>
      <trkpt lat="47.3435" lon="-1.21418">
        <ele>57</ele>
        <time>2015-01-11T11:24:54.000Z</time>
      </trkpt>
      <trkpt lat="47.34352" lon="-1.21406">
        <ele>56</ele>
        <time>2015-01-11T11:24:56.000Z</time>
      </trkpt>
      <trkpt lat="47.34354" lon="-1.21393">
        <ele>57</ele>
        <time>2015-01-11T11:24:58.000Z</time>
      </trkpt>
      <trkpt lat="47.34356" lon="-1.2138">
        <ele>55</ele>
        <time>2015-01-11T11:25:00.000Z</time>
      </trkpt>
      <trkpt lat="47.34358" lon="-1.21368">
        <ele>55</ele>
        <time>2015-01-11T11:25:02.000Z</time>
      </trkpt>
      <trkpt lat="47.3436" lon="-1.21354">
        <ele>53</ele>
        <time>2015-01-11T11:25:04.000Z</time>
      </trkpt>
      <trkpt lat="47.34362" lon="-1.21341">
        <ele>54</ele>
        <time>2015-01-11T11:25:06.000Z</time>
      </trkpt>
      <trkpt lat="47.34364" lon="-1.21328">
        <ele>54</ele>
        <time>2015-01-11T11:25:08.000Z</time>
      </trkpt>
      <trkpt lat="47.34366" lon="-1.21316">
        <ele>54</ele>
        <time>2015-01-11T11:25:10.000Z</time>
      </trkpt>
      <trkpt lat="47.34368" lon="-1.21304">
        <ele>54</ele>
        <time>2015-01-11T11:25:12.000Z</time>
      </trkpt>
      <trkpt lat="47.34369" lon="-1.21291">
        <ele>54</ele>
        <time>2015-01-11T11:25:14.000Z</time>
      </trkpt>
      <trkpt lat="47.34371" lon="-1.21278">
        <ele>54</ele>
        <time>2015-01-11T11:25:16.000Z</time>
      </trkpt>
      <trkpt lat="47.34373" lon="-1.21264">
        <ele>54</ele>
        <time>2015-01-11T11:25:18.000Z</time>
      </trkpt>
      <trkpt lat="47.34375" lon="-1.21251">
        <ele>54</ele>
        <time>2015-01-11T11:25:20.000Z</time>
      </trkpt>
      <trkpt lat="47.34377" lon="-1.21238">
        <ele>54</ele>
        <time>2015-01-11T11:25:22.000Z</time>
      </trkpt>
      <trkpt lat="47.34378" lon="-1.21224">
        <ele>55</ele>
        <time>2015-01-11T11:25:24.000Z</time>
      </trkpt>
      <trkpt lat="47.3438" lon="-1.21209">
        <ele>54</ele>
        <time>2015-01-11T11:25:26.000Z</time>
      </trkpt>
      <trkpt lat="47.34382" lon="-1.21195">
        <ele>54</ele>
        <time>2015-01-11T11:25:28.000Z</time>
      </trkpt>
      <trkpt lat="47.34382" lon="-1.21182">
        <ele>52</ele>
        <time>2015-01-11T11:25:30.000Z</time>
      </trkpt>
      <trkpt lat="47.34386" lon="-1.21168">
        <ele>54</ele>
        <time>2015-01-11T11:25:32.000Z</time>
      </trkpt>
      <trkpt lat="47.34385" lon="-1.21156">
        <ele>54</ele>
        <time>2015-01-11T11:25:34.000Z</time>
      </trkpt>
      <trkpt lat="47.34388" lon="-1.21143">
        <ele>55</ele>
        <time>2015-01-11T11:25:36.000Z</time>
      </trkpt>
      <trkpt lat="47.34389" lon="-1.21129">
        <ele>54</ele>
        <time>2015-01-11T11:25:38.000Z</time>
      </trkpt>
      <trkpt lat="47.3439" lon="-1.21117">
        <ele>54</ele>
        <time>2015-01-11T11:25:40.000Z</time>
      </trkpt>
      <trkpt lat="47.3439" lon="-1.21103">
        <ele>52</ele>
        <time>2015-01-11T11:25:42.000Z</time>
      </trkpt>
      <trkpt lat="47.34391" lon="-1.21093">
        <ele>55</ele>
        <time>2015-01-11T11:25:44.000Z</time>
      </trkpt>
      <trkpt lat="47.34394" lon="-1.21085">
        <ele>60</ele>
        <time>2015-01-11T11:25:46.000Z</time>
      </trkpt>
      <trkpt lat="47.34397" lon="-1.21076">
        <ele>63</ele>
        <time>2015-01-11T11:25:48.000Z</time>
      </trkpt>
      <trkpt lat="47.34399" lon="-1.21068">
        <ele>65</ele>
        <time>2015-01-11T11:25:50.000Z</time>
      </trkpt>
      <trkpt lat="47.34401" lon="-1.2106">
        <ele>64</ele>
        <time>2015-01-11T11:25:52.000Z</time>
      </trkpt>
      <trkpt lat="47.34404" lon="-1.21051">
        <ele>65</ele>
        <time>2015-01-11T11:25:54.000Z</time>
      </trkpt>
      <trkpt lat="47.34407" lon="-1.21039">
        <ele>68</ele>
        <time>2015-01-11T11:25:56.000Z</time>
      </trkpt>
      <trkpt lat="47.34408" lon="-1.21027">
        <ele>74</ele>
        <time>2015-01-11T11:25:58.000Z</time>
      </trkpt>
      <trkpt lat="47.34409" lon="-1.21016">
        <ele>74</ele>
        <time>2015-01-11T11:26:00.000Z</time>
      </trkpt>
      <trkpt lat="47.34411" lon="-1.21006">
        <ele>73</ele>
        <time>2015-01-11T11:26:02.000Z</time>
      </trkpt>
      <trkpt lat="47.34413" lon="-1.20994">
        <ele>72</ele>
        <time>2015-01-11T11:26:04.000Z</time>
      </trkpt>
      <trkpt lat="47.34415" lon="-1.20981">
        <ele>73</ele>
        <time>2015-01-11T11:26:06.000Z</time>
      </trkpt>
      <trkpt lat="47.34417" lon="-1.20968">
        <ele>71</ele>
        <time>2015-01-11T11:26:08.000Z</time>
      </trkpt>
      <trkpt lat="47.3442" lon="-1.20953">
        <ele>71</ele>
        <time>2015-01-11T11:26:10.000Z</time>
      </trkpt>
      <trkpt lat="47.34422" lon="-1.20941">
        <ele>70</ele>
        <time>2015-01-11T11:26:12.000Z</time>
      </trkpt>
      <trkpt lat="47.34423" lon="-1.20929">
        <ele>71</ele>
        <time>2015-01-11T11:26:14.000Z</time>
      </trkpt>
      <trkpt lat="47.34424" lon="-1.20914">
        <ele>73</ele>
        <time>2015-01-11T11:26:16.000Z</time>
      </trkpt>
      <trkpt lat="47.34424" lon="-1.20897">
        <ele>69</ele>
        <time>2015-01-11T11:26:18.000Z</time>
      </trkpt>
      <trkpt lat="47.34424" lon="-1.20879">
        <ele>67</ele>
        <time>2015-01-11T11:26:20.000Z</time>
      </trkpt>
      <trkpt lat="47.34424" lon="-1.20862">
        <ele>68</ele>
        <time>2015-01-11T11:26:22.000Z</time>
      </trkpt>
      <trkpt lat="47.34422" lon="-1.20845">
        <ele>69</ele>
        <time>2015-01-11T11:26:24.000Z</time>
      </trkpt>
      <trkpt lat="47.3442" lon="-1.2083">
        <ele>72</ele>
        <time>2015-01-11T11:26:26.000Z</time>
      </trkpt>
      <trkpt lat="47.3442" lon="-1.20816">
        <ele>72</ele>
        <time>2015-01-11T11:26:28.000Z</time>
      </trkpt>
      <trkpt lat="47.34421" lon="-1.208">
        <ele>71</ele>
        <time>2015-01-11T11:26:30.000Z</time>
      </trkpt>
      <trkpt lat="47.34422" lon="-1.20787">
        <ele>71</ele>
        <time>2015-01-11T11:26:32.000Z</time>
      </trkpt>
      <trkpt lat="47.34424" lon="-1.20773">
        <ele>70</ele>
        <time>2015-01-11T11:26:34.000Z</time>
      </trkpt>
      <trkpt lat="47.34426" lon="-1.2076">
        <ele>70</ele>
        <time>2015-01-11T11:26:36.000Z</time>
      </trkpt>
      <trkpt lat="47.34429" lon="-1.2075">
        <ele>72</ele>
        <time>2015-01-11T11:26:38.000Z</time>
      </trkpt>
      <trkpt lat="47.34429" lon="-1.2075">
        <ele>72</ele>
        <time>2015-01-11T11:26:40.000Z</time>
      </trkpt>
      <trkpt lat="47.34433" lon="-1.20736">
        <ele>79</ele>
        <time>2015-01-11T11:26:42.000Z</time>
      </trkpt>
      <trkpt lat="47.34433" lon="-1.20728">
        <ele>77</ele>
        <time>2015-01-11T11:26:44.000Z</time>
      </trkpt>
      <trkpt lat="47.34432" lon="-1.20719">
        <ele>74</ele>
        <time>2015-01-11T11:26:46.000Z</time>
      </trkpt>
      <trkpt lat="47.34432" lon="-1.2071">
        <ele>75</ele>
        <time>2015-01-11T11:26:48.000Z</time>
      </trkpt>
      <trkpt lat="47.34431" lon="-1.20701">
        <ele>74</ele>
        <time>2015-01-11T11:26:50.000Z</time>
      </trkpt>
      <trkpt lat="47.34431" lon="-1.20701">
        <ele>74</ele>
        <time>2015-01-11T11:26:52.000Z</time>
      </trkpt>
      <trkpt lat="47.3443" lon="-1.20686">
        <ele>77</ele>
        <time>2015-01-11T11:26:54.000Z</time>
      </trkpt>
      <trkpt lat="47.34428" lon="-1.20676">
        <ele>77</ele>
        <time>2015-01-11T11:26:56.000Z</time>
      </trkpt>
      <trkpt lat="47.34429" lon="-1.20667">
        <ele>75</ele>
        <time>2015-01-11T11:26:58.000Z</time>
      </trkpt>
      <trkpt lat="47.3443" lon="-1.20656">
        <ele>74</ele>
        <time>2015-01-11T11:27:00.000Z</time>
      </trkpt>
      <trkpt lat="47.34431" lon="-1.20645">
        <ele>74</ele>
        <time>2015-01-11T11:27:02.000Z</time>
      </trkpt>
      <trkpt lat="47.34434" lon="-1.20634">
        <ele>74</ele>
        <time>2015-01-11T11:27:04.000Z</time>
      </trkpt>
      <trkpt lat="47.34436" lon="-1.20621">
        <ele>70</ele>
        <time>2015-01-11T11:27:06.000Z</time>
      </trkpt>
      <trkpt lat="47.34436" lon="-1.20608">
        <ele>67</ele>
        <time>2015-01-11T11:27:08.000Z</time>
      </trkpt>
      <trkpt lat="47.34437" lon="-1.20595">
        <ele>67</ele>
        <time>2015-01-11T11:27:10.000Z</time>
      </trkpt>
      <trkpt lat="47.34438" lon="-1.20579">
        <ele>67</ele>
        <time>2015-01-11T11:27:12.000Z</time>
      </trkpt>
      <trkpt lat="47.3444" lon="-1.20566">
        <ele>68</ele>
        <time>2015-01-11T11:27:14.000Z</time>
      </trkpt>
      <trkpt lat="47.34441" lon="-1.20552">
        <ele>68</ele>
        <time>2015-01-11T11:27:16.000Z</time>
      </trkpt>
      <trkpt lat="47.34441" lon="-1.20538">
        <ele>67</ele>
        <time>2015-01-11T11:27:18.000Z</time>
      </trkpt>
      <trkpt lat="47.34442" lon="-1.20523">
        <ele>64</ele>
        <time>2015-01-11T11:27:20.000Z</time>
      </trkpt>
      <trkpt lat="47.34442" lon="-1.20511">
        <ele>62</ele>
        <time>2015-01-11T11:27:22.000Z</time>
      </trkpt>
      <trkpt lat="47.34444" lon="-1.20497">
        <ele>62</ele>
        <time>2015-01-11T11:27:24.000Z</time>
      </trkpt>
      <trkpt lat="47.34445" lon="-1.20484">
        <ele>62</ele>
        <time>2015-01-11T11:27:26.000Z</time>
      </trkpt>
      <trkpt lat="47.34446" lon="-1.2047">
        <ele>61</ele>
        <time>2015-01-11T11:27:28.000Z</time>
      </trkpt>
      <trkpt lat="47.34446" lon="-1.20456">
        <ele>62</ele>
        <time>2015-01-11T11:27:30.000Z</time>
      </trkpt>
      <trkpt lat="47.34449" lon="-1.20444">
        <ele>61</ele>
        <time>2015-01-11T11:27:32.000Z</time>
      </trkpt>
      <trkpt lat="47.34452" lon="-1.20435">
        <ele>61</ele>
        <time>2015-01-11T11:27:34.000Z</time>
      </trkpt>
      <trkpt lat="47.34459" lon="-1.20428">
        <ele>60</ele>
        <time>2015-01-11T11:27:36.000Z</time>
      </trkpt>
      <trkpt lat="47.34469" lon="-1.20426">
        <ele>61</ele>
        <time>2015-01-11T11:27:38.000Z</time>
      </trkpt>
      <trkpt lat="47.34477" lon="-1.20427">
        <ele>61</ele>
        <time>2015-01-11T11:27:40.000Z</time>
      </trkpt>
      <trkpt lat="47.34488" lon="-1.20431">
        <ele>61</ele>
        <time>2015-01-11T11:27:42.000Z</time>
      </trkpt>
      <trkpt lat="47.345" lon="-1.20433">
        <ele>61</ele>
        <time>2015-01-11T11:27:44.000Z</time>
      </trkpt>
      <trkpt lat="47.34512" lon="-1.20437">
        <ele>61</ele>
        <time>2015-01-11T11:27:46.000Z</time>
      </trkpt>
      <trkpt lat="47.34522" lon="-1.2044">
        <ele>62</ele>
        <time>2015-01-11T11:27:48.000Z</time>
      </trkpt>
      <trkpt lat="47.34532" lon="-1.20443">
        <ele>60</ele>
        <time>2015-01-11T11:27:50.000Z</time>
      </trkpt>
      <trkpt lat="47.34543" lon="-1.20445">
        <ele>60</ele>
        <time>2015-01-11T11:27:52.000Z</time>
      </trkpt>
      <trkpt lat="47.34556" lon="-1.20442">
        <ele>61</ele>
        <time>2015-01-11T11:27:54.000Z</time>
      </trkpt>
      <trkpt lat="47.34567" lon="-1.20437">
        <ele>60</ele>
        <time>2015-01-11T11:27:56.000Z</time>
      </trkpt>
      <trkpt lat="47.34578" lon="-1.20431">
        <ele>58</ele>
        <time>2015-01-11T11:27:58.000Z</time>
      </trkpt>
      <trkpt lat="47.34587" lon="-1.2042">
        <ele>58</ele>
        <time>2015-01-11T11:28:00.000Z</time>
      </trkpt>
      <trkpt lat="47.34595" lon="-1.20411">
        <ele>58</ele>
        <time>2015-01-11T11:28:02.000Z</time>
      </trkpt>
      <trkpt lat="47.34602" lon="-1.204">
        <ele>57</ele>
        <time>2015-01-11T11:28:04.000Z</time>
      </trkpt>
      <trkpt lat="47.3461" lon="-1.20392">
        <ele>56</ele>
        <time>2015-01-11T11:28:06.000Z</time>
      </trkpt>
      <trkpt lat="47.34616" lon="-1.2038">
        <ele>54</ele>
        <time>2015-01-11T11:28:08.000Z</time>
      </trkpt>
      <trkpt lat="47.34624" lon="-1.20372">
        <ele>52</ele>
        <time>2015-01-11T11:28:10.000Z</time>
      </trkpt>
      <trkpt lat="47.34632" lon="-1.20364">
        <ele>52</ele>
        <time>2015-01-11T11:28:12.000Z</time>
      </trkpt>
      <trkpt lat="47.3464" lon="-1.20359">
        <ele>51</ele>
        <time>2015-01-11T11:28:14.000Z</time>
      </trkpt>
      <trkpt lat="47.34646" lon="-1.20351">
        <ele>52</ele>
        <time>2015-01-11T11:28:16.000Z</time>
      </trkpt>
      <trkpt lat="47.34653" lon="-1.20345">
        <ele>51</ele>
        <time>2015-01-11T11:28:18.000Z</time>
      </trkpt>
      <trkpt lat="47.3466" lon="-1.20341">
        <ele>53</ele>
        <time>2015-01-11T11:28:20.000Z</time>
      </trkpt>
      <trkpt lat="47.3466" lon="-1.20341">
        <ele>53</ele>
        <time>2015-01-11T11:28:22.000Z</time>
      </trkpt>
      <trkpt lat="47.34664" lon="-1.20331">
        <ele>49</ele>
        <time>2015-01-11T11:28:24.000Z</time>
      </trkpt>
      <trkpt lat="47.34664" lon="-1.20331">
        <ele>49</ele>
        <time>2015-01-11T11:28:26.000Z</time>
      </trkpt>
      <trkpt lat="47.34664" lon="-1.20322">
        <ele>45</ele>
        <time>2015-01-11T11:28:30.000Z</time>
      </trkpt>
      <trkpt lat="47.34664" lon="-1.20303">
        <ele>48</ele>
        <time>2015-01-11T11:28:33.000Z</time>
      </trkpt>
      <trkpt lat="47.34666" lon="-1.20287">
        <ele>53</ele>
        <time>2015-01-11T11:28:36.000Z</time>
      </trkpt>
      <trkpt lat="47.34667" lon="-1.20273">
        <ele>57</ele>
        <time>2015-01-11T11:28:38.000Z</time>
      </trkpt>
      <trkpt lat="47.34668" lon="-1.20261">
        <ele>60</ele>
        <time>2015-01-11T11:28:40.000Z</time>
      </trkpt>
      <trkpt lat="47.34673" lon="-1.20239">
        <ele>63</ele>
        <time>2015-01-11T11:28:42.000Z</time>
      </trkpt>
      <trkpt lat="47.34673" lon="-1.20239">
        <ele>63</ele>
        <time>2015-01-11T11:28:44.000Z</time>
      </trkpt>
      <trkpt lat="47.3468" lon="-1.20225">
        <ele>75</ele>
        <time>2015-01-11T11:28:46.000Z</time>
      </trkpt>
      <trkpt lat="47.34681" lon="-1.20212">
        <ele>77</ele>
        <time>2015-01-11T11:28:48.000Z</time>
      </trkpt>
      <trkpt lat="47.34685" lon="-1.20198">
        <ele>79</ele>
        <time>2015-01-11T11:28:50.000Z</time>
      </trkpt>
      <trkpt lat="47.34688" lon="-1.20187">
        <ele>81</ele>
        <time>2015-01-11T11:28:52.000Z</time>
      </trkpt>
      <trkpt lat="47.3469" lon="-1.20169">
        <ele>77</ele>
        <time>2015-01-11T11:28:54.000Z</time>
      </trkpt>
      <trkpt lat="47.34692" lon="-1.20152">
        <ele>73</ele>
        <time>2015-01-11T11:28:56.000Z</time>
      </trkpt>
      <trkpt lat="47.34696" lon="-1.20143">
        <ele>73</ele>
        <time>2015-01-11T11:28:58.000Z</time>
      </trkpt>
      <trkpt lat="47.34702" lon="-1.2013">
        <ele>70</ele>
        <time>2015-01-11T11:29:00.000Z</time>
      </trkpt>
      <trkpt lat="47.34701" lon="-1.20117">
        <ele>76</ele>
        <time>2015-01-11T11:29:02.000Z</time>
      </trkpt>
      <trkpt lat="47.34702" lon="-1.20106">
        <ele>76</ele>
        <time>2015-01-11T11:29:04.000Z</time>
      </trkpt>
      <trkpt lat="47.34701" lon="-1.20093">
        <ele>78</ele>
        <time>2015-01-11T11:29:06.000Z</time>
      </trkpt>
      <trkpt lat="47.34705" lon="-1.20076">
        <ele>73</ele>
        <time>2015-01-11T11:29:08.000Z</time>
      </trkpt>
      <trkpt lat="47.34705" lon="-1.20064">
        <ele>72</ele>
        <time>2015-01-11T11:29:10.000Z</time>
      </trkpt>
      <trkpt lat="47.34705" lon="-1.20052">
        <ele>74</ele>
        <time>2015-01-11T11:29:12.000Z</time>
      </trkpt>
      <trkpt lat="47.3471" lon="-1.20037">
        <ele>74</ele>
        <time>2015-01-11T11:29:14.000Z</time>
      </trkpt>
      <trkpt lat="47.34712" lon="-1.20021">
        <ele>73</ele>
        <time>2015-01-11T11:29:16.000Z</time>
      </trkpt>
      <trkpt lat="47.34714" lon="-1.20012">
        <ele>74</ele>
        <time>2015-01-11T11:29:18.000Z</time>
      </trkpt>
      <trkpt lat="47.34713" lon="-1.19998">
        <ele>80</ele>
        <time>2015-01-11T11:29:20.000Z</time>
      </trkpt>
      <trkpt lat="47.34713" lon="-1.19998">
        <ele>80</ele>
        <time>2015-01-11T11:29:22.000Z</time>
      </trkpt>
      <trkpt lat="47.34712" lon="-1.19981">
        <ele>93</ele>
        <time>2015-01-11T11:29:24.000Z</time>
      </trkpt>
      <trkpt lat="47.34715" lon="-1.19959">
        <ele>87</ele>
        <time>2015-01-11T11:29:27.000Z</time>
      </trkpt>
      <trkpt lat="47.34717" lon="-1.19942">
        <ele>85</ele>
        <time>2015-01-11T11:29:29.000Z</time>
      </trkpt>
      <trkpt lat="47.34719" lon="-1.19926">
        <ele>87</ele>
        <time>2015-01-11T11:29:31.000Z</time>
      </trkpt>
      <trkpt lat="47.34722" lon="-1.19916">
        <ele>89</ele>
        <time>2015-01-11T11:29:33.000Z</time>
      </trkpt>
      <trkpt lat="47.34726" lon="-1.19891">
        <ele>86</ele>
        <time>2015-01-11T11:29:36.000Z</time>
      </trkpt>
      <trkpt lat="47.34731" lon="-1.19871">
        <ele>82</ele>
        <time>2015-01-11T11:29:38.000Z</time>
      </trkpt>
      <trkpt lat="47.34737" lon="-1.19853">
        <ele>81</ele>
        <time>2015-01-11T11:29:42.000Z</time>
      </trkpt>
      <trkpt lat="47.34744" lon="-1.19812">
        <ele>73</ele>
        <time>2015-01-11T11:29:46.000Z</time>
      </trkpt>
      <trkpt lat="47.34748" lon="-1.19796">
        <ele>71</ele>
        <time>2015-01-11T11:29:48.000Z</time>
      </trkpt>
      <trkpt lat="47.3475" lon="-1.19775">
        <ele>68</ele>
        <time>2015-01-11T11:29:51.000Z</time>
      </trkpt>
      <trkpt lat="47.34754" lon="-1.19763">
        <ele>71</ele>
        <time>2015-01-11T11:29:54.000Z</time>
      </trkpt>
      <trkpt lat="47.34754" lon="-1.19763">
        <ele>71</ele>
        <time>2015-01-11T11:29:56.000Z</time>
      </trkpt>
      <trkpt lat="47.34761" lon="-1.19737">
        <ele>75</ele>
        <time>2015-01-11T11:29:59.000Z</time>
      </trkpt>
      <trkpt lat="47.34761" lon="-1.19737">
        <ele>75</ele>
        <time>2015-01-11T11:30:01.000Z</time>
      </trkpt>
      <trkpt lat="47.34763" lon="-1.19721">
        <ele>79</ele>
        <time>2015-01-11T11:30:03.000Z</time>
      </trkpt>
      <trkpt lat="47.34765" lon="-1.19709">
        <ele>79</ele>
        <time>2015-01-11T11:30:05.000Z</time>
      </trkpt>
      <trkpt lat="47.34768" lon="-1.19694">
        <ele>78</ele>
        <time>2015-01-11T11:30:07.000Z</time>
      </trkpt>
      <trkpt lat="47.34771" lon="-1.19676">
        <ele>72</ele>
        <time>2015-01-11T11:30:09.000Z</time>
      </trkpt>
      <trkpt lat="47.34773" lon="-1.19661">
        <ele>69</ele>
        <time>2015-01-11T11:30:11.000Z</time>
      </trkpt>
      <trkpt lat="47.34774" lon="-1.19643">
        <ele>66</ele>
        <time>2015-01-11T11:30:13.000Z</time>
      </trkpt>
      <trkpt lat="47.34776" lon="-1.19627">
        <ele>66</ele>
        <time>2015-01-11T11:30:16.000Z</time>
      </trkpt>
      <trkpt lat="47.34781" lon="-1.19612">
        <ele>63</ele>
        <time>2015-01-11T11:30:18.000Z</time>
      </trkpt>
      <trkpt lat="47.34782" lon="-1.19599">
        <ele>63</ele>
        <time>2015-01-11T11:30:20.000Z</time>
      </trkpt>
      <trkpt lat="47.34785" lon="-1.19589">
        <ele>63</ele>
        <time>2015-01-11T11:30:22.000Z</time>
      </trkpt>
      <trkpt lat="47.34787" lon="-1.1958">
        <ele>65</ele>
        <time>2015-01-11T11:30:24.000Z</time>
      </trkpt>
      <trkpt lat="47.34789" lon="-1.1957">
        <ele>67</ele>
        <time>2015-01-11T11:30:26.000Z</time>
      </trkpt>
      <trkpt lat="47.34792" lon="-1.19557">
        <ele>67</ele>
        <time>2015-01-11T11:30:28.000Z</time>
      </trkpt>
      <trkpt lat="47.34796" lon="-1.19545">
        <ele>72</ele>
        <time>2015-01-11T11:30:30.000Z</time>
      </trkpt>
      <trkpt lat="47.348" lon="-1.19533">
        <ele>72</ele>
        <time>2015-01-11T11:30:32.000Z</time>
      </trkpt>
      <trkpt lat="47.34803" lon="-1.19521">
        <ele>70</ele>
        <time>2015-01-11T11:30:34.000Z</time>
      </trkpt>
      <trkpt lat="47.34804" lon="-1.1951">
        <ele>73</ele>
        <time>2015-01-11T11:30:36.000Z</time>
      </trkpt>
      <trkpt lat="47.34805" lon="-1.195">
        <ele>73</ele>
        <time>2015-01-11T11:30:38.000Z</time>
      </trkpt>
      <trkpt lat="47.34806" lon="-1.19488">
        <ele>71</ele>
        <time>2015-01-11T11:30:40.000Z</time>
      </trkpt>
      <trkpt lat="47.34807" lon="-1.19477">
        <ele>69</ele>
        <time>2015-01-11T11:30:42.000Z</time>
      </trkpt>
      <trkpt lat="47.34807" lon="-1.19466">
        <ele>69</ele>
        <time>2015-01-11T11:30:44.000Z</time>
      </trkpt>
      <trkpt lat="47.34808" lon="-1.19454">
        <ele>69</ele>
        <time>2015-01-11T11:30:46.000Z</time>
      </trkpt>
      <trkpt lat="47.34811" lon="-1.19439">
        <ele>68</ele>
        <time>2015-01-11T11:30:48.000Z</time>
      </trkpt>
      <trkpt lat="47.34816" lon="-1.19427">
        <ele>67</ele>
        <time>2015-01-11T11:30:50.000Z</time>
      </trkpt>
      <trkpt lat="47.34822" lon="-1.1942">
        <ele>66</ele>
        <time>2015-01-11T11:30:52.000Z</time>
      </trkpt>
      <trkpt lat="47.34829" lon="-1.19414">
        <ele>65</ele>
        <time>2015-01-11T11:30:54.000Z</time>
      </trkpt>
      <trkpt lat="47.34835" lon="-1.1941">
        <ele>65</ele>
        <time>2015-01-11T11:30:56.000Z</time>
      </trkpt>
      <trkpt lat="47.34835" lon="-1.1941">
        <ele>65</ele>
        <time>2015-01-11T11:30:58.000Z</time>
      </trkpt>
      <trkpt lat="47.34846" lon="-1.1942">
        <ele>64</ele>
        <time>2015-01-11T11:31:00.000Z</time>
      </trkpt>
      <trkpt lat="47.34857" lon="-1.19433">
        <ele>60</ele>
        <time>2015-01-11T11:31:02.000Z</time>
      </trkpt>
      <trkpt lat="47.34863" lon="-1.19443">
        <ele>62</ele>
        <time>2015-01-11T11:31:04.000Z</time>
      </trkpt>
      <trkpt lat="47.34867" lon="-1.19453">
        <ele>64</ele>
        <time>2015-01-11T11:31:06.000Z</time>
      </trkpt>
      <trkpt lat="47.34871" lon="-1.19461">
        <ele>66</ele>
        <time>2015-01-11T11:31:08.000Z</time>
      </trkpt>
      <trkpt lat="47.34875" lon="-1.1947">
        <ele>63</ele>
        <time>2015-01-11T11:31:10.000Z</time>
      </trkpt>
      <trkpt lat="47.34879" lon="-1.19478">
        <ele>63</ele>
        <time>2015-01-11T11:31:12.000Z</time>
      </trkpt>
      <trkpt lat="47.34883" lon="-1.19487">
        <ele>61</ele>
        <time>2015-01-11T11:31:14.000Z</time>
      </trkpt>
      <trkpt lat="47.34888" lon="-1.19495">
        <ele>60</ele>
        <time>2015-01-11T11:31:16.000Z</time>
      </trkpt>
      <trkpt lat="47.34893" lon="-1.19503">
        <ele>60</ele>
        <time>2015-01-11T11:31:18.000Z</time>
      </trkpt>
      <trkpt lat="47.34893" lon="-1.19503">
        <ele>60</ele>
        <time>2015-01-11T11:31:20.000Z</time>
      </trkpt>
      <trkpt lat="47.34899" lon="-1.19519">
        <ele>61</ele>
        <time>2015-01-11T11:31:22.000Z</time>
      </trkpt>
      <trkpt lat="47.34904" lon="-1.19527">
        <ele>59</ele>
        <time>2015-01-11T11:31:24.000Z</time>
      </trkpt>
      <trkpt lat="47.34909" lon="-1.19537">
        <ele>57</ele>
        <time>2015-01-11T11:31:26.000Z</time>
      </trkpt>
      <trkpt lat="47.34916" lon="-1.19547">
        <ele>56</ele>
        <time>2015-01-11T11:31:28.000Z</time>
      </trkpt>
      <trkpt lat="47.34923" lon="-1.19556">
        <ele>54</ele>
        <time>2015-01-11T11:31:30.000Z</time>
      </trkpt>
      <trkpt lat="47.3493" lon="-1.19564">
        <ele>53</ele>
        <time>2015-01-11T11:31:32.000Z</time>
      </trkpt>
      <trkpt lat="47.34936" lon="-1.19573">
        <ele>55</ele>
        <time>2015-01-11T11:31:34.000Z</time>
      </trkpt>
      <trkpt lat="47.34941" lon="-1.19581">
        <ele>56</ele>
        <time>2015-01-11T11:31:36.000Z</time>
      </trkpt>
      <trkpt lat="47.34946" lon="-1.19589">
        <ele>57</ele>
        <time>2015-01-11T11:31:38.000Z</time>
      </trkpt>
      <trkpt lat="47.34952" lon="-1.19598">
        <ele>56</ele>
        <time>2015-01-11T11:31:40.000Z</time>
      </trkpt>
      <trkpt lat="47.34956" lon="-1.19607">
        <ele>55</ele>
        <time>2015-01-11T11:31:42.000Z</time>
      </trkpt>
      <trkpt lat="47.34961" lon="-1.19616">
        <ele>55</ele>
        <time>2015-01-11T11:31:44.000Z</time>
      </trkpt>
      <trkpt lat="47.34966" lon="-1.19625">
        <ele>56</ele>
        <time>2015-01-11T11:31:46.000Z</time>
      </trkpt>
      <trkpt lat="47.34969" lon="-1.19634">
        <ele>56</ele>
        <time>2015-01-11T11:31:48.000Z</time>
      </trkpt>
      <trkpt lat="47.34972" lon="-1.19643">
        <ele>56</ele>
        <time>2015-01-11T11:31:50.000Z</time>
      </trkpt>
      <trkpt lat="47.34974" lon="-1.19653">
        <ele>58</ele>
        <time>2015-01-11T11:31:52.000Z</time>
      </trkpt>
      <trkpt lat="47.34975" lon="-1.19663">
        <ele>58</ele>
        <time>2015-01-11T11:31:54.000Z</time>
      </trkpt>
      <trkpt lat="47.34975" lon="-1.19675">
        <ele>58</ele>
        <time>2015-01-11T11:31:56.000Z</time>
      </trkpt>
      <trkpt lat="47.34977" lon="-1.19686">
        <ele>60</ele>
        <time>2015-01-11T11:31:58.000Z</time>
      </trkpt>
      <trkpt lat="47.34979" lon="-1.19695">
        <ele>62</ele>
        <time>2015-01-11T11:32:00.000Z</time>
      </trkpt>
      <trkpt lat="47.34985" lon="-1.19703">
        <ele>64</ele>
        <time>2015-01-11T11:32:02.000Z</time>
      </trkpt>
      <trkpt lat="47.34991" lon="-1.19709">
        <ele>65</ele>
        <time>2015-01-11T11:32:04.000Z</time>
      </trkpt>
      <trkpt lat="47.35001" lon="-1.19712">
        <ele>70</ele>
        <time>2015-01-11T11:32:06.000Z</time>
      </trkpt>
      <trkpt lat="47.35006" lon="-1.19713">
        <ele>72</ele>
        <time>2015-01-11T11:32:08.000Z</time>
      </trkpt>
      <trkpt lat="47.35006" lon="-1.19713">
        <ele>72</ele>
        <time>2015-01-11T11:32:10.000Z</time>
      </trkpt>
      <trkpt lat="47.35017" lon="-1.19718">
        <ele>70</ele>
        <time>2015-01-11T11:32:12.000Z</time>
      </trkpt>
      <trkpt lat="47.35017" lon="-1.19718">
        <ele>70</ele>
        <time>2015-01-11T11:32:14.000Z</time>
      </trkpt>
      <trkpt lat="47.35026" lon="-1.19722">
        <ele>68</ele>
        <time>2015-01-11T11:32:16.000Z</time>
      </trkpt>
      <trkpt lat="47.35026" lon="-1.19722">
        <ele>68</ele>
        <time>2015-01-11T11:32:18.000Z</time>
      </trkpt>
      <trkpt lat="47.35054" lon="-1.19718">
        <ele>62</ele>
        <time>2015-01-11T11:32:22.000Z</time>
      </trkpt>
      <trkpt lat="47.35064" lon="-1.19716">
        <ele>60</ele>
        <time>2015-01-11T11:32:24.000Z</time>
      </trkpt>
      <trkpt lat="47.35071" lon="-1.19712">
        <ele>59</ele>
        <time>2015-01-11T11:32:26.000Z</time>
      </trkpt>
      <trkpt lat="47.35078" lon="-1.19704">
        <ele>57</ele>
        <time>2015-01-11T11:32:28.000Z</time>
      </trkpt>
      <trkpt lat="47.35084" lon="-1.19698">
        <ele>57</ele>
        <time>2015-01-11T11:32:30.000Z</time>
      </trkpt>
      <trkpt lat="47.3509" lon="-1.1969">
        <ele>57</ele>
        <time>2015-01-11T11:32:32.000Z</time>
      </trkpt>
      <trkpt lat="47.35096" lon="-1.19682">
        <ele>56</ele>
        <time>2015-01-11T11:32:34.000Z</time>
      </trkpt>
      <trkpt lat="47.35101" lon="-1.19674">
        <ele>57</ele>
        <time>2015-01-11T11:32:36.000Z</time>
      </trkpt>
      <trkpt lat="47.35106" lon="-1.19665">
        <ele>57</ele>
        <time>2015-01-11T11:32:38.000Z</time>
      </trkpt>
      <trkpt lat="47.35106" lon="-1.19665">
        <ele>57</ele>
        <time>2015-01-11T11:32:40.000Z</time>
      </trkpt>
      <trkpt lat="47.35111" lon="-1.19656">
        <ele>57</ele>
        <time>2015-01-11T11:32:42.000Z</time>
      </trkpt>
      <trkpt lat="47.35111" lon="-1.19656">
        <ele>57</ele>
        <time>2015-01-11T11:32:44.000Z</time>
      </trkpt>
      <trkpt lat="47.35111" lon="-1.19656">
        <ele>57</ele>
        <time>2015-01-11T11:32:46.000Z</time>
      </trkpt>
      <trkpt lat="47.35111" lon="-1.19656">
        <ele>57</ele>
        <time>2015-01-11T11:32:48.000Z</time>
      </trkpt>
      <trkpt lat="47.35112" lon="-1.19646">
        <ele>55</ele>
        <time>2015-01-11T11:32:54.000Z</time>
      </trkpt>
      <trkpt lat="47.35112" lon="-1.19646">
        <ele>55</ele>
        <time>2015-01-11T11:32:56.000Z</time>
      </trkpt>
      <trkpt lat="47.35112" lon="-1.19646">
        <ele>55</ele>
        <time>2015-01-11T11:32:58.000Z</time>
      </trkpt>
      <trkpt lat="47.35112" lon="-1.19646">
        <ele>55</ele>
        <time>2015-01-11T11:33:00.000Z</time>
      </trkpt>
      <trkpt lat="47.35117" lon="-1.1964">
        <ele>60</ele>
        <time>2015-01-11T11:33:02.000Z</time>
      </trkpt>
      <trkpt lat="47.35117" lon="-1.1964">
        <ele>60</ele>
        <time>2015-01-11T11:33:08.000Z</time>
      </trkpt>
      <trkpt lat="47.35117" lon="-1.1964">
        <ele>60</ele>
        <time>2015-01-11T11:33:10.000Z</time>
      </trkpt>
      <trkpt lat="47.35123" lon="-1.1963">
        <ele>62</ele>
        <time>2015-01-11T11:33:52.000Z</time>
      </trkpt>
      <trkpt lat="47.35127" lon="-1.19622">
        <ele>61</ele>
        <time>2015-01-11T11:33:54.000Z</time>
      </trkpt>
      <trkpt lat="47.35131" lon="-1.19616">
        <ele>59</ele>
        <time>2015-01-11T11:33:56.000Z</time>
      </trkpt>
      <trkpt lat="47.35136" lon="-1.19611">
        <ele>59</ele>
        <time>2015-01-11T11:33:58.000Z</time>
      </trkpt>
      <trkpt lat="47.3514" lon="-1.19606">
        <ele>59</ele>
        <time>2015-01-11T11:34:00.000Z</time>
      </trkpt>
      <trkpt lat="47.35149" lon="-1.19596">
        <ele>59</ele>
        <time>2015-01-11T11:34:02.000Z</time>
      </trkpt>
      <trkpt lat="47.35154" lon="-1.19589">
        <ele>59</ele>
        <time>2015-01-11T11:34:04.000Z</time>
      </trkpt>
      <trkpt lat="47.35159" lon="-1.19583">
        <ele>59</ele>
        <time>2015-01-11T11:34:06.000Z</time>
      </trkpt>
      <trkpt lat="47.35167" lon="-1.19574">
        <ele>60</ele>
        <time>2015-01-11T11:34:10.000Z</time>
      </trkpt>
      <trkpt lat="47.35167" lon="-1.19574">
        <ele>60</ele>
        <time>2015-01-11T11:34:12.000Z</time>
      </trkpt>
      <trkpt lat="47.35176" lon="-1.19565">
        <ele>58</ele>
        <time>2015-01-11T11:34:14.000Z</time>
      </trkpt>
      <trkpt lat="47.3518" lon="-1.19558">
        <ele>57</ele>
        <time>2015-01-11T11:34:16.000Z</time>
      </trkpt>
      <trkpt lat="47.35184" lon="-1.19552">
        <ele>57</ele>
        <time>2015-01-11T11:34:18.000Z</time>
      </trkpt>
      <trkpt lat="47.35189" lon="-1.19545">
        <ele>56</ele>
        <time>2015-01-11T11:34:20.000Z</time>
      </trkpt>
      <trkpt lat="47.35193" lon="-1.19539">
        <ele>56</ele>
        <time>2015-01-11T11:34:22.000Z</time>
      </trkpt>
      <trkpt lat="47.35193" lon="-1.19539">
        <ele>56</ele>
        <time>2015-01-11T11:34:24.000Z</time>
      </trkpt>
      <trkpt lat="47.35201" lon="-1.19528">
        <ele>56</ele>
        <time>2015-01-11T11:34:26.000Z</time>
      </trkpt>
      <trkpt lat="47.35201" lon="-1.19528">
        <ele>56</ele>
        <time>2015-01-11T11:34:28.000Z</time>
      </trkpt>
      <trkpt lat="47.3521" lon="-1.19518">
        <ele>56</ele>
        <time>2015-01-11T11:34:30.000Z</time>
      </trkpt>
      <trkpt lat="47.35215" lon="-1.19512">
        <ele>56</ele>
        <time>2015-01-11T11:34:32.000Z</time>
      </trkpt>
      <trkpt lat="47.35219" lon="-1.19505">
        <ele>56</ele>
        <time>2015-01-11T11:34:34.000Z</time>
      </trkpt>
      <trkpt lat="47.35223" lon="-1.19498">
        <ele>56</ele>
        <time>2015-01-11T11:34:36.000Z</time>
      </trkpt>
      <trkpt lat="47.35227" lon="-1.19491">
        <ele>57</ele>
        <time>2015-01-11T11:34:38.000Z</time>
      </trkpt>
      <trkpt lat="47.35231" lon="-1.19484">
        <ele>56</ele>
        <time>2015-01-11T11:34:40.000Z</time>
      </trkpt>
      <trkpt lat="47.35234" lon="-1.19477">
        <ele>57</ele>
        <time>2015-01-11T11:34:42.000Z</time>
      </trkpt>
      <trkpt lat="47.35238" lon="-1.19471">
        <ele>56</ele>
        <time>2015-01-11T11:34:44.000Z</time>
      </trkpt>
      <trkpt lat="47.35241" lon="-1.19464">
        <ele>56</ele>
        <time>2015-01-11T11:34:46.000Z</time>
      </trkpt>
      <trkpt lat="47.35244" lon="-1.19456">
        <ele>56</ele>
        <time>2015-01-11T11:34:48.000Z</time>
      </trkpt>
      <trkpt lat="47.35247" lon="-1.19449">
        <ele>56</ele>
        <time>2015-01-11T11:34:50.000Z</time>
      </trkpt>
      <trkpt lat="47.35251" lon="-1.19443">
        <ele>56</ele>
        <time>2015-01-11T11:34:52.000Z</time>
      </trkpt>
      <trkpt lat="47.35255" lon="-1.19436">
        <ele>56</ele>
        <time>2015-01-11T11:34:54.000Z</time>
      </trkpt>
      <trkpt lat="47.35258" lon="-1.19428">
        <ele>57</ele>
        <time>2015-01-11T11:34:56.000Z</time>
      </trkpt>
      <trkpt lat="47.35262" lon="-1.19421">
        <ele>56</ele>
        <time>2015-01-11T11:34:58.000Z</time>
      </trkpt>
      <trkpt lat="47.35265" lon="-1.19413">
        <ele>57</ele>
        <time>2015-01-11T11:35:00.000Z</time>
      </trkpt>
      <trkpt lat="47.35267" lon="-1.19404">
        <ele>53</ele>
        <time>2015-01-11T11:35:02.000Z</time>
      </trkpt>
      <trkpt lat="47.3527" lon="-1.19396">
        <ele>53</ele>
        <time>2015-01-11T11:35:04.000Z</time>
      </trkpt>
      <trkpt lat="47.35273" lon="-1.19389">
        <ele>53</ele>
        <time>2015-01-11T11:35:06.000Z</time>
      </trkpt>
      <trkpt lat="47.35273" lon="-1.19389">
        <ele>53</ele>
        <time>2015-01-11T11:35:08.000Z</time>
      </trkpt>
      <trkpt lat="47.35281" lon="-1.19376">
        <ele>54</ele>
        <time>2015-01-11T11:35:10.000Z</time>
      </trkpt>
      <trkpt lat="47.35285" lon="-1.1937">
        <ele>54</ele>
        <time>2015-01-11T11:35:12.000Z</time>
      </trkpt>
      <trkpt lat="47.35285" lon="-1.1937">
        <ele>54</ele>
        <time>2015-01-11T11:35:14.000Z</time>
      </trkpt>
      <trkpt lat="47.35293" lon="-1.19361">
        <ele>55</ele>
        <time>2015-01-11T11:35:16.000Z</time>
      </trkpt>
      <trkpt lat="47.35293" lon="-1.19361">
        <ele>55</ele>
        <time>2015-01-11T11:35:18.000Z</time>
      </trkpt>
      <trkpt lat="47.353" lon="-1.19349">
        <ele>55</ele>
        <time>2015-01-11T11:35:20.000Z</time>
      </trkpt>
      <trkpt lat="47.35305" lon="-1.19342">
        <ele>54</ele>
        <time>2015-01-11T11:35:22.000Z</time>
      </trkpt>
      <trkpt lat="47.35309" lon="-1.19335">
        <ele>54</ele>
        <time>2015-01-11T11:35:24.000Z</time>
      </trkpt>
      <trkpt lat="47.35313" lon="-1.19328">
        <ele>55</ele>
        <time>2015-01-11T11:35:26.000Z</time>
      </trkpt>
      <trkpt lat="47.35316" lon="-1.19321">
        <ele>55</ele>
        <time>2015-01-11T11:35:28.000Z</time>
      </trkpt>
      <trkpt lat="47.3532" lon="-1.19314">
        <ele>54</ele>
        <time>2015-01-11T11:35:30.000Z</time>
      </trkpt>
      <trkpt lat="47.35324" lon="-1.19306">
        <ele>54</ele>
        <time>2015-01-11T11:35:32.000Z</time>
      </trkpt>
      <trkpt lat="47.35328" lon="-1.19299">
        <ele>54</ele>
        <time>2015-01-11T11:35:34.000Z</time>
      </trkpt>
      <trkpt lat="47.35333" lon="-1.19292">
        <ele>54</ele>
        <time>2015-01-11T11:35:36.000Z</time>
      </trkpt>
      <trkpt lat="47.35337" lon="-1.19284">
        <ele>55</ele>
        <time>2015-01-11T11:35:38.000Z</time>
      </trkpt>
      <trkpt lat="47.35342" lon="-1.19276">
        <ele>54</ele>
        <time>2015-01-11T11:35:40.000Z</time>
      </trkpt>
      <trkpt lat="47.35346" lon="-1.19269">
        <ele>55</ele>
        <time>2015-01-11T11:35:42.000Z</time>
      </trkpt>
      <trkpt lat="47.3535" lon="-1.19262">
        <ele>55</ele>
        <time>2015-01-11T11:35:44.000Z</time>
      </trkpt>
      <trkpt lat="47.35353" lon="-1.19254">
        <ele>55</ele>
        <time>2015-01-11T11:35:46.000Z</time>
      </trkpt>
      <trkpt lat="47.35357" lon="-1.19247">
        <ele>55</ele>
        <time>2015-01-11T11:35:48.000Z</time>
      </trkpt>
      <trkpt lat="47.35361" lon="-1.1924">
        <ele>55</ele>
        <time>2015-01-11T11:35:50.000Z</time>
      </trkpt>
      <trkpt lat="47.35365" lon="-1.19234">
        <ele>55</ele>
        <time>2015-01-11T11:35:52.000Z</time>
      </trkpt>
      <trkpt lat="47.35365" lon="-1.19234">
        <ele>55</ele>
        <time>2015-01-11T11:35:54.000Z</time>
      </trkpt>
      <trkpt lat="47.35373" lon="-1.19223">
        <ele>55</ele>
        <time>2015-01-11T11:35:56.000Z</time>
      </trkpt>
      <trkpt lat="47.35373" lon="-1.19223">
        <ele>55</ele>
        <time>2015-01-11T11:35:58.000Z</time>
      </trkpt>
      <trkpt lat="47.3538" lon="-1.19211">
        <ele>56</ele>
        <time>2015-01-11T11:36:00.000Z</time>
      </trkpt>
      <trkpt lat="47.35384" lon="-1.19204">
        <ele>56</ele>
        <time>2015-01-11T11:36:02.000Z</time>
      </trkpt>
      <trkpt lat="47.35384" lon="-1.19204">
        <ele>56</ele>
        <time>2015-01-11T11:36:04.000Z</time>
      </trkpt>
      <trkpt lat="47.35384" lon="-1.19204">
        <ele>56</ele>
        <time>2015-01-11T11:36:06.000Z</time>
      </trkpt>
      <trkpt lat="47.35387" lon="-1.19196">
        <ele>55</ele>
        <time>2015-01-11T11:36:08.000Z</time>
      </trkpt>
      <trkpt lat="47.35387" lon="-1.19196">
        <ele>55</ele>
        <time>2015-01-11T11:36:10.000Z</time>
      </trkpt>
      <trkpt lat="47.35387" lon="-1.19196">
        <ele>55</ele>
        <time>2015-01-11T11:36:12.000Z</time>
      </trkpt>
      <trkpt lat="47.35387" lon="-1.19196">
        <ele>55</ele>
        <time>2015-01-11T11:36:14.000Z</time>
      </trkpt>
      <trkpt lat="47.35387" lon="-1.19196">
        <ele>55</ele>
        <time>2015-01-11T11:36:20.000Z</time>
      </trkpt>
      <trkpt lat="47.35391" lon="-1.19185">
        <ele>58</ele>
        <time>2015-01-11T11:36:58.000Z</time>
      </trkpt>
      <trkpt lat="47.35395" lon="-1.19175">
        <ele>57</ele>
        <time>2015-01-11T11:37:00.000Z</time>
      </trkpt>
      <trkpt lat="47.35399" lon="-1.19166">
        <ele>57</ele>
        <time>2015-01-11T11:37:02.000Z</time>
      </trkpt>
      <trkpt lat="47.35403" lon="-1.19157">
        <ele>58</ele>
        <time>2015-01-11T11:37:04.000Z</time>
      </trkpt>
      <trkpt lat="47.35408" lon="-1.19149">
        <ele>57</ele>
        <time>2015-01-11T11:37:06.000Z</time>
      </trkpt>
      <trkpt lat="47.35418" lon="-1.19132">
        <ele>58</ele>
        <time>2015-01-11T11:37:08.000Z</time>
      </trkpt>
      <trkpt lat="47.35422" lon="-1.19124">
        <ele>58</ele>
        <time>2015-01-11T11:37:10.000Z</time>
      </trkpt>
      <trkpt lat="47.35427" lon="-1.19116">
        <ele>57</ele>
        <time>2015-01-11T11:37:12.000Z</time>
      </trkpt>
      <trkpt lat="47.35431" lon="-1.19108">
        <ele>56</ele>
        <time>2015-01-11T11:37:14.000Z</time>
      </trkpt>
      <trkpt lat="47.35436" lon="-1.191">
        <ele>56</ele>
        <time>2015-01-11T11:37:16.000Z</time>
      </trkpt>
      <trkpt lat="47.35441" lon="-1.19092">
        <ele>58</ele>
        <time>2015-01-11T11:37:18.000Z</time>
      </trkpt>
      <trkpt lat="47.35446" lon="-1.19085">
        <ele>56</ele>
        <time>2015-01-11T11:37:20.000Z</time>
      </trkpt>
      <trkpt lat="47.35451" lon="-1.19079">
        <ele>55</ele>
        <time>2015-01-11T11:37:22.000Z</time>
      </trkpt>
      <trkpt lat="47.35455" lon="-1.19072">
        <ele>56</ele>
        <time>2015-01-11T11:37:24.000Z</time>
      </trkpt>
      <trkpt lat="47.35459" lon="-1.19064">
        <ele>59</ele>
        <time>2015-01-11T11:37:26.000Z</time>
      </trkpt>
      <trkpt lat="47.35462" lon="-1.19057">
        <ele>58</ele>
        <time>2015-01-11T11:37:28.000Z</time>
      </trkpt>
      <trkpt lat="47.35465" lon="-1.1905">
        <ele>61</ele>
        <time>2015-01-11T11:37:30.000Z</time>
      </trkpt>
      <trkpt lat="47.35469" lon="-1.19041">
        <ele>59</ele>
        <time>2015-01-11T11:37:32.000Z</time>
      </trkpt>
      <trkpt lat="47.35473" lon="-1.19033">
        <ele>59</ele>
        <time>2015-01-11T11:37:34.000Z</time>
      </trkpt>
      <trkpt lat="47.35477" lon="-1.19025">
        <ele>61</ele>
        <time>2015-01-11T11:37:36.000Z</time>
      </trkpt>
      <trkpt lat="47.35482" lon="-1.19019">
        <ele>66</ele>
        <time>2015-01-11T11:37:38.000Z</time>
      </trkpt>
      <trkpt lat="47.35488" lon="-1.19011">
        <ele>66</ele>
        <time>2015-01-11T11:37:40.000Z</time>
      </trkpt>
      <trkpt lat="47.35493" lon="-1.19001">
        <ele>65</ele>
        <time>2015-01-11T11:37:42.000Z</time>
      </trkpt>
      <trkpt lat="47.35498" lon="-1.18992">
        <ele>66</ele>
        <time>2015-01-11T11:37:44.000Z</time>
      </trkpt>
      <trkpt lat="47.35504" lon="-1.18984">
        <ele>67</ele>
        <time>2015-01-11T11:37:46.000Z</time>
      </trkpt>
      <trkpt lat="47.35509" lon="-1.18977">
        <ele>67</ele>
        <time>2015-01-11T11:37:48.000Z</time>
      </trkpt>
      <trkpt lat="47.35514" lon="-1.18968">
        <ele>65</ele>
        <time>2015-01-11T11:37:50.000Z</time>
      </trkpt>
      <trkpt lat="47.35519" lon="-1.18958">
        <ele>64</ele>
        <time>2015-01-11T11:37:52.000Z</time>
      </trkpt>
      <trkpt lat="47.35523" lon="-1.18947">
        <ele>64</ele>
        <time>2015-01-11T11:37:54.000Z</time>
      </trkpt>
      <trkpt lat="47.35527" lon="-1.18936">
        <ele>62</ele>
        <time>2015-01-11T11:37:56.000Z</time>
      </trkpt>
      <trkpt lat="47.3553" lon="-1.18924">
        <ele>62</ele>
        <time>2015-01-11T11:37:58.000Z</time>
      </trkpt>
      <trkpt lat="47.35535" lon="-1.18914">
        <ele>62</ele>
        <time>2015-01-11T11:38:00.000Z</time>
      </trkpt>
      <trkpt lat="47.35539" lon="-1.18904">
        <ele>61</ele>
        <time>2015-01-11T11:38:02.000Z</time>
      </trkpt>
      <trkpt lat="47.35543" lon="-1.18895">
        <ele>61</ele>
        <time>2015-01-11T11:38:04.000Z</time>
      </trkpt>
      <trkpt lat="47.35547" lon="-1.18887">
        <ele>60</ele>
        <time>2015-01-11T11:38:06.000Z</time>
      </trkpt>
      <trkpt lat="47.35551" lon="-1.18881">
        <ele>58</ele>
        <time>2015-01-11T11:38:08.000Z</time>
      </trkpt>
      <trkpt lat="47.35551" lon="-1.18881">
        <ele>58</ele>
        <time>2015-01-11T11:38:10.000Z</time>
      </trkpt>
      <trkpt lat="47.35551" lon="-1.18881">
        <ele>58</ele>
        <time>2015-01-11T11:38:12.000Z</time>
      </trkpt>
      <trkpt lat="47.35551" lon="-1.18881">
        <ele>58</ele>
        <time>2015-01-11T11:38:14.000Z</time>
      </trkpt>
      <trkpt lat="47.35551" lon="-1.18881">
        <ele>58</ele>
        <time>2015-01-11T11:38:16.000Z</time>
      </trkpt>
      <trkpt lat="47.35551" lon="-1.18881">
        <ele>58</ele>
        <time>2015-01-11T11:38:28.000Z</time>
      </trkpt>
      <trkpt lat="47.35551" lon="-1.18881">
        <ele>58</ele>
        <time>2015-01-11T11:38:30.000Z</time>
      </trkpt>
      <trkpt lat="47.35557" lon="-1.18853">
        <ele>56</ele>
        <time>2015-01-11T11:38:48.000Z</time>
      </trkpt>
      <trkpt lat="47.35561" lon="-1.18845">
        <ele>56</ele>
        <time>2015-01-11T11:38:50.000Z</time>
      </trkpt>
      <trkpt lat="47.35566" lon="-1.18835">
        <ele>56</ele>
        <time>2015-01-11T11:38:52.000Z</time>
      </trkpt>
      <trkpt lat="47.35571" lon="-1.18826">
        <ele>56</ele>
        <time>2015-01-11T11:38:54.000Z</time>
      </trkpt>
      <trkpt lat="47.35574" lon="-1.18818">
        <ele>55</ele>
        <time>2015-01-11T11:38:56.000Z</time>
      </trkpt>
      <trkpt lat="47.35579" lon="-1.1881">
        <ele>55</ele>
        <time>2015-01-11T11:38:58.000Z</time>
      </trkpt>
      <trkpt lat="47.35583" lon="-1.18802">
        <ele>55</ele>
        <time>2015-01-11T11:39:00.000Z</time>
      </trkpt>
      <trkpt lat="47.35587" lon="-1.18793">
        <ele>54</ele>
        <time>2015-01-11T11:39:02.000Z</time>
      </trkpt>
      <trkpt lat="47.35591" lon="-1.18785">
        <ele>54</ele>
        <time>2015-01-11T11:39:04.000Z</time>
      </trkpt>
      <trkpt lat="47.35595" lon="-1.18777">
        <ele>54</ele>
        <time>2015-01-11T11:39:06.000Z</time>
      </trkpt>
      <trkpt lat="47.35599" lon="-1.1877">
        <ele>55</ele>
        <time>2015-01-11T11:39:08.000Z</time>
      </trkpt>
      <trkpt lat="47.35599" lon="-1.1877">
        <ele>55</ele>
        <time>2015-01-11T11:39:10.000Z</time>
      </trkpt>
      <trkpt lat="47.35604" lon="-1.18765">
        <ele>57</ele>
        <time>2015-01-11T11:39:12.000Z</time>
      </trkpt>
      <trkpt lat="47.35604" lon="-1.18765">
        <ele>57</ele>
        <time>2015-01-11T11:39:14.000Z</time>
      </trkpt>
      <trkpt lat="47.35604" lon="-1.18765">
        <ele>57</ele>
        <time>2015-01-11T11:39:16.000Z</time>
      </trkpt>
      <trkpt lat="47.35604" lon="-1.18765">
        <ele>57</ele>
        <time>2015-01-11T11:39:18.000Z</time>
      </trkpt>
      <trkpt lat="47.35604" lon="-1.18765">
        <ele>57</ele>
        <time>2015-01-11T11:39:20.000Z</time>
      </trkpt>
      <trkpt lat="47.35604" lon="-1.18765">
        <ele>57</ele>
        <time>2015-01-11T11:39:22.000Z</time>
      </trkpt>
      <trkpt lat="47.35604" lon="-1.18765">
        <ele>57</ele>
        <time>2015-01-11T11:39:28.000Z</time>
      </trkpt>
      <trkpt lat="47.35604" lon="-1.18765">
        <ele>57</ele>
        <time>2015-01-11T11:39:30.000Z</time>
      </trkpt>
      <trkpt lat="47.35609" lon="-1.18752">
        <ele>56</ele>
        <time>2015-01-11T11:39:52.000Z</time>
      </trkpt>
      <trkpt lat="47.35613" lon="-1.18742">
        <ele>55</ele>
        <time>2015-01-11T11:39:54.000Z</time>
      </trkpt>
      <trkpt lat="47.35617" lon="-1.18732">
        <ele>55</ele>
        <time>2015-01-11T11:39:56.000Z</time>
      </trkpt>
      <trkpt lat="47.3562" lon="-1.18722">
        <ele>56</ele>
        <time>2015-01-11T11:39:58.000Z</time>
      </trkpt>
      <trkpt lat="47.35624" lon="-1.18712">
        <ele>56</ele>
        <time>2015-01-11T11:40:00.000Z</time>
      </trkpt>
      <trkpt lat="47.3563" lon="-1.18692">
        <ele>57</ele>
        <time>2015-01-11T11:40:02.000Z</time>
      </trkpt>
      <trkpt lat="47.35633" lon="-1.18682">
        <ele>57</ele>
        <time>2015-01-11T11:40:04.000Z</time>
      </trkpt>
      <trkpt lat="47.35637" lon="-1.18672">
        <ele>57</ele>
        <time>2015-01-11T11:40:06.000Z</time>
      </trkpt>
      <trkpt lat="47.3564" lon="-1.18662">
        <ele>58</ele>
        <time>2015-01-11T11:40:08.000Z</time>
      </trkpt>
      <trkpt lat="47.35643" lon="-1.18652">
        <ele>58</ele>
        <time>2015-01-11T11:40:10.000Z</time>
      </trkpt>
      <trkpt lat="47.35646" lon="-1.18642">
        <ele>56</ele>
        <time>2015-01-11T11:40:12.000Z</time>
      </trkpt>
      <trkpt lat="47.35649" lon="-1.18631">
        <ele>57</ele>
        <time>2015-01-11T11:40:14.000Z</time>
      </trkpt>
      <trkpt lat="47.35653" lon="-1.18622">
        <ele>58</ele>
        <time>2015-01-11T11:40:16.000Z</time>
      </trkpt>
      <trkpt lat="47.35657" lon="-1.18611">
        <ele>59</ele>
        <time>2015-01-11T11:40:18.000Z</time>
      </trkpt>
      <trkpt lat="47.3566" lon="-1.18601">
        <ele>59</ele>
        <time>2015-01-11T11:40:20.000Z</time>
      </trkpt>
      <trkpt lat="47.35662" lon="-1.18591">
        <ele>59</ele>
        <time>2015-01-11T11:40:22.000Z</time>
      </trkpt>
      <trkpt lat="47.35665" lon="-1.18582">
        <ele>60</ele>
        <time>2015-01-11T11:40:24.000Z</time>
      </trkpt>
      <trkpt lat="47.35668" lon="-1.18574">
        <ele>59</ele>
        <time>2015-01-11T11:40:26.000Z</time>
      </trkpt>
      <trkpt lat="47.35672" lon="-1.18568">
        <ele>59</ele>
        <time>2015-01-11T11:40:28.000Z</time>
      </trkpt>
      <trkpt lat="47.35676" lon="-1.18562">
        <ele>59</ele>
        <time>2015-01-11T11:40:30.000Z</time>
      </trkpt>
      <trkpt lat="47.35676" lon="-1.18562">
        <ele>59</ele>
        <time>2015-01-11T11:40:32.000Z</time>
      </trkpt>
      <trkpt lat="47.35683" lon="-1.18554">
        <ele>57</ele>
        <time>2015-01-11T11:40:34.000Z</time>
      </trkpt>
      <trkpt lat="47.35683" lon="-1.18554">
        <ele>57</ele>
        <time>2015-01-11T11:40:36.000Z</time>
      </trkpt>
      <trkpt lat="47.35683" lon="-1.18554">
        <ele>57</ele>
        <time>2015-01-11T11:40:38.000Z</time>
      </trkpt>
      <trkpt lat="47.35683" lon="-1.18554">
        <ele>57</ele>
        <time>2015-01-11T11:40:40.000Z</time>
      </trkpt>
      <trkpt lat="47.35683" lon="-1.18554">
        <ele>57</ele>
        <time>2015-01-11T11:40:42.000Z</time>
      </trkpt>
      <trkpt lat="47.35692" lon="-1.18533">
        <ele>59</ele>
        <time>2015-01-11T11:41:12.000Z</time>
      </trkpt>
      <trkpt lat="47.35697" lon="-1.1852">
        <ele>58</ele>
        <time>2015-01-11T11:41:16.000Z</time>
      </trkpt>
      <trkpt lat="47.35701" lon="-1.18511">
        <ele>57</ele>
        <time>2015-01-11T11:41:18.000Z</time>
      </trkpt>
      <trkpt lat="47.35704" lon="-1.18502">
        <ele>56</ele>
        <time>2015-01-11T11:41:20.000Z</time>
      </trkpt>
      <trkpt lat="47.35707" lon="-1.18492">
        <ele>57</ele>
        <time>2015-01-11T11:41:22.000Z</time>
      </trkpt>
      <trkpt lat="47.35711" lon="-1.18483">
        <ele>57</ele>
        <time>2015-01-11T11:41:24.000Z</time>
      </trkpt>
      <trkpt lat="47.35715" lon="-1.18474">
        <ele>56</ele>
        <time>2015-01-11T11:41:26.000Z</time>
      </trkpt>
      <trkpt lat="47.3572" lon="-1.18466">
        <ele>55</ele>
        <time>2015-01-11T11:41:28.000Z</time>
      </trkpt>
      <trkpt lat="47.35725" lon="-1.18459">
        <ele>55</ele>
        <time>2015-01-11T11:41:30.000Z</time>
      </trkpt>
      <trkpt lat="47.35725" lon="-1.18459">
        <ele>55</ele>
        <time>2015-01-11T11:41:32.000Z</time>
      </trkpt>
      <trkpt lat="47.35731" lon="-1.18446">
        <ele>57</ele>
        <time>2015-01-11T11:41:34.000Z</time>
      </trkpt>
      <trkpt lat="47.35734" lon="-1.18433">
        <ele>59</ele>
        <time>2015-01-11T11:41:36.000Z</time>
      </trkpt>
      <trkpt lat="47.35738" lon="-1.18421">
        <ele>61</ele>
        <time>2015-01-11T11:41:38.000Z</time>
      </trkpt>
      <trkpt lat="47.35743" lon="-1.18409">
        <ele>61</ele>
        <time>2015-01-11T11:41:40.000Z</time>
      </trkpt>
      <trkpt lat="47.35749" lon="-1.18393">
        <ele>62</ele>
        <time>2015-01-11T11:41:42.000Z</time>
      </trkpt>
      <trkpt lat="47.35753" lon="-1.1838">
        <ele>62</ele>
        <time>2015-01-11T11:41:44.000Z</time>
      </trkpt>
      <trkpt lat="47.35755" lon="-1.18368">
        <ele>61</ele>
        <time>2015-01-11T11:41:46.000Z</time>
      </trkpt>
      <trkpt lat="47.35755" lon="-1.18351">
        <ele>61</ele>
        <time>2015-01-11T11:41:48.000Z</time>
      </trkpt>
      <trkpt lat="47.35751" lon="-1.18338">
        <ele>61</ele>
        <time>2015-01-11T11:41:50.000Z</time>
      </trkpt>
      <trkpt lat="47.35746" lon="-1.18325">
        <ele>61</ele>
        <time>2015-01-11T11:41:52.000Z</time>
      </trkpt>
      <trkpt lat="47.35741" lon="-1.18312">
        <ele>62</ele>
        <time>2015-01-11T11:41:54.000Z</time>
      </trkpt>
      <trkpt lat="47.35739" lon="-1.18298">
        <ele>63</ele>
        <time>2015-01-11T11:41:56.000Z</time>
      </trkpt>
      <trkpt lat="47.35741" lon="-1.18284">
        <ele>62</ele>
        <time>2015-01-11T11:41:58.000Z</time>
      </trkpt>
      <trkpt lat="47.35746" lon="-1.1827">
        <ele>62</ele>
        <time>2015-01-11T11:42:00.000Z</time>
      </trkpt>
      <trkpt lat="47.35752" lon="-1.18257">
        <ele>61</ele>
        <time>2015-01-11T11:42:02.000Z</time>
      </trkpt>
      <trkpt lat="47.35757" lon="-1.18242">
        <ele>61</ele>
        <time>2015-01-11T11:42:04.000Z</time>
      </trkpt>
      <trkpt lat="47.35762" lon="-1.18227">
        <ele>61</ele>
        <time>2015-01-11T11:42:06.000Z</time>
      </trkpt>
      <trkpt lat="47.35768" lon="-1.18212">
        <ele>60</ele>
        <time>2015-01-11T11:42:08.000Z</time>
      </trkpt>
      <trkpt lat="47.35773" lon="-1.18198">
        <ele>60</ele>
        <time>2015-01-11T11:42:10.000Z</time>
      </trkpt>
      <trkpt lat="47.35778" lon="-1.18184">
        <ele>60</ele>
        <time>2015-01-11T11:42:12.000Z</time>
      </trkpt>
      <trkpt lat="47.35783" lon="-1.1817">
        <ele>60</ele>
        <time>2015-01-11T11:42:14.000Z</time>
      </trkpt>
      <trkpt lat="47.35788" lon="-1.18155">
        <ele>60</ele>
        <time>2015-01-11T11:42:16.000Z</time>
      </trkpt>
      <trkpt lat="47.35793" lon="-1.18139">
        <ele>61</ele>
        <time>2015-01-11T11:42:18.000Z</time>
      </trkpt>
      <trkpt lat="47.35799" lon="-1.18124">
        <ele>62</ele>
        <time>2015-01-11T11:42:20.000Z</time>
      </trkpt>
      <trkpt lat="47.35804" lon="-1.1811">
        <ele>62</ele>
        <time>2015-01-11T11:42:22.000Z</time>
      </trkpt>
      <trkpt lat="47.35809" lon="-1.18097">
        <ele>62</ele>
        <time>2015-01-11T11:42:24.000Z</time>
      </trkpt>
      <trkpt lat="47.35814" lon="-1.18084">
        <ele>62</ele>
        <time>2015-01-11T11:42:26.000Z</time>
      </trkpt>
      <trkpt lat="47.35818" lon="-1.18071">
        <ele>63</ele>
        <time>2015-01-11T11:42:28.000Z</time>
      </trkpt>
      <trkpt lat="47.35822" lon="-1.18056">
        <ele>61</ele>
        <time>2015-01-11T11:42:30.000Z</time>
      </trkpt>
      <trkpt lat="47.35827" lon="-1.18044">
        <ele>60</ele>
        <time>2015-01-11T11:42:32.000Z</time>
      </trkpt>
      <trkpt lat="47.35833" lon="-1.18029">
        <ele>60</ele>
        <time>2015-01-11T11:42:34.000Z</time>
      </trkpt>
      <trkpt lat="47.3584" lon="-1.18018">
        <ele>60</ele>
        <time>2015-01-11T11:42:36.000Z</time>
      </trkpt>
      <trkpt lat="47.35847" lon="-1.18011">
        <ele>61</ele>
        <time>2015-01-11T11:42:38.000Z</time>
      </trkpt>
      <trkpt lat="47.35854" lon="-1.18001">
        <ele>62</ele>
        <time>2015-01-11T11:42:40.000Z</time>
      </trkpt>
      <trkpt lat="47.35859" lon="-1.17989">
        <ele>63</ele>
        <time>2015-01-11T11:42:42.000Z</time>
      </trkpt>
      <trkpt lat="47.35861" lon="-1.1798">
        <ele>63</ele>
        <time>2015-01-11T11:42:44.000Z</time>
      </trkpt>
      <trkpt lat="47.35863" lon="-1.17966">
        <ele>65</ele>
        <time>2015-01-11T11:42:46.000Z</time>
      </trkpt>
      <trkpt lat="47.35866" lon="-1.17953">
        <ele>64</ele>
        <time>2015-01-11T11:42:48.000Z</time>
      </trkpt>
      <trkpt lat="47.35874" lon="-1.17939">
        <ele>63</ele>
        <time>2015-01-11T11:42:50.000Z</time>
      </trkpt>
      <trkpt lat="47.35883" lon="-1.17924">
        <ele>61</ele>
        <time>2015-01-11T11:42:52.000Z</time>
      </trkpt>
      <trkpt lat="47.3589" lon="-1.17915">
        <ele>60</ele>
        <time>2015-01-11T11:42:54.000Z</time>
      </trkpt>
      <trkpt lat="47.35896" lon="-1.17903">
        <ele>60</ele>
        <time>2015-01-11T11:42:56.000Z</time>
      </trkpt>
      <trkpt lat="47.359" lon="-1.17888">
        <ele>59</ele>
        <time>2015-01-11T11:42:58.000Z</time>
      </trkpt>
      <trkpt lat="47.35906" lon="-1.17877">
        <ele>59</ele>
        <time>2015-01-11T11:43:00.000Z</time>
      </trkpt>
      <trkpt lat="47.3591" lon="-1.17865">
        <ele>59</ele>
        <time>2015-01-11T11:43:02.000Z</time>
      </trkpt>
      <trkpt lat="47.35915" lon="-1.17852">
        <ele>59</ele>
        <time>2015-01-11T11:43:04.000Z</time>
      </trkpt>
      <trkpt lat="47.35919" lon="-1.1784">
        <ele>59</ele>
        <time>2015-01-11T11:43:06.000Z</time>
      </trkpt>
      <trkpt lat="47.35925" lon="-1.17828">
        <ele>60</ele>
        <time>2015-01-11T11:43:08.000Z</time>
      </trkpt>
      <trkpt lat="47.3593" lon="-1.17815">
        <ele>59</ele>
        <time>2015-01-11T11:43:10.000Z</time>
      </trkpt>
      <trkpt lat="47.35937" lon="-1.17804">
        <ele>58</ele>
        <time>2015-01-11T11:43:12.000Z</time>
      </trkpt>
      <trkpt lat="47.35942" lon="-1.17792">
        <ele>59</ele>
        <time>2015-01-11T11:43:14.000Z</time>
      </trkpt>
      <trkpt lat="47.35947" lon="-1.17778">
        <ele>59</ele>
        <time>2015-01-11T11:43:16.000Z</time>
      </trkpt>
      <trkpt lat="47.35953" lon="-1.17765">
        <ele>58</ele>
        <time>2015-01-11T11:43:18.000Z</time>
      </trkpt>
      <trkpt lat="47.35957" lon="-1.17752">
        <ele>59</ele>
        <time>2015-01-11T11:43:20.000Z</time>
      </trkpt>
      <trkpt lat="47.3596" lon="-1.17739">
        <ele>59</ele>
        <time>2015-01-11T11:43:22.000Z</time>
      </trkpt>
      <trkpt lat="47.35964" lon="-1.17727">
        <ele>59</ele>
        <time>2015-01-11T11:43:24.000Z</time>
      </trkpt>
      <trkpt lat="47.35968" lon="-1.17714">
        <ele>60</ele>
        <time>2015-01-11T11:43:26.000Z</time>
      </trkpt>
      <trkpt lat="47.35971" lon="-1.17702">
        <ele>60</ele>
        <time>2015-01-11T11:43:28.000Z</time>
      </trkpt>
      <trkpt lat="47.35972" lon="-1.17688">
        <ele>59</ele>
        <time>2015-01-11T11:43:30.000Z</time>
      </trkpt>
      <trkpt lat="47.35975" lon="-1.17675">
        <ele>59</ele>
        <time>2015-01-11T11:43:32.000Z</time>
      </trkpt>
      <trkpt lat="47.35977" lon="-1.17662">
        <ele>59</ele>
        <time>2015-01-11T11:43:34.000Z</time>
      </trkpt>
      <trkpt lat="47.35978" lon="-1.17648">
        <ele>58</ele>
        <time>2015-01-11T11:43:36.000Z</time>
      </trkpt>
      <trkpt lat="47.35979" lon="-1.17633">
        <ele>58</ele>
        <time>2015-01-11T11:43:38.000Z</time>
      </trkpt>
      <trkpt lat="47.3598" lon="-1.17618">
        <ele>57</ele>
        <time>2015-01-11T11:43:40.000Z</time>
      </trkpt>
      <trkpt lat="47.35981" lon="-1.17604">
        <ele>58</ele>
        <time>2015-01-11T11:43:42.000Z</time>
      </trkpt>
      <trkpt lat="47.35982" lon="-1.17591">
        <ele>58</ele>
        <time>2015-01-11T11:43:44.000Z</time>
      </trkpt>
      <trkpt lat="47.35981" lon="-1.17579">
        <ele>60</ele>
        <time>2015-01-11T11:43:46.000Z</time>
      </trkpt>
      <trkpt lat="47.35979" lon="-1.1757">
        <ele>61</ele>
        <time>2015-01-11T11:43:48.000Z</time>
      </trkpt>
      <trkpt lat="47.35976" lon="-1.17561">
        <ele>63</ele>
        <time>2015-01-11T11:43:50.000Z</time>
      </trkpt>
      <trkpt lat="47.35972" lon="-1.17553">
        <ele>63</ele>
        <time>2015-01-11T11:43:52.000Z</time>
      </trkpt>
      <trkpt lat="47.35966" lon="-1.17545">
        <ele>63</ele>
        <time>2015-01-11T11:43:54.000Z</time>
      </trkpt>
      <trkpt lat="47.35961" lon="-1.17536">
        <ele>63</ele>
        <time>2015-01-11T11:43:56.000Z</time>
      </trkpt>
      <trkpt lat="47.35955" lon="-1.17526">
        <ele>64</ele>
        <time>2015-01-11T11:43:58.000Z</time>
      </trkpt>
      <trkpt lat="47.35948" lon="-1.1752">
        <ele>62</ele>
        <time>2015-01-11T11:44:00.000Z</time>
      </trkpt>
      <trkpt lat="47.35939" lon="-1.17517">
        <ele>62</ele>
        <time>2015-01-11T11:44:02.000Z</time>
      </trkpt>
      <trkpt lat="47.35933" lon="-1.17515">
        <ele>60</ele>
        <time>2015-01-11T11:44:04.000Z</time>
      </trkpt>
      <trkpt lat="47.35933" lon="-1.17515">
        <ele>60</ele>
        <time>2015-01-11T11:44:06.000Z</time>
      </trkpt>
      <trkpt lat="47.35933" lon="-1.17515">
        <ele>60</ele>
        <time>2015-01-11T11:44:08.000Z</time>
      </trkpt>
      <trkpt lat="47.35933" lon="-1.17515">
        <ele>60</ele>
        <time>2015-01-11T11:44:10.000Z</time>
      </trkpt>
      <trkpt lat="47.35933" lon="-1.17515">
        <ele>60</ele>
        <time>2015-01-11T11:44:12.000Z</time>
      </trkpt>
      <trkpt lat="47.35933" lon="-1.17515">
        <ele>60</ele>
        <time>2015-01-11T11:44:14.000Z</time>
      </trkpt>
      <trkpt lat="47.35927" lon="-1.17511">
        <ele>62</ele>
        <time>2015-01-11T11:44:16.000Z</time>
      </trkpt>
      <trkpt lat="47.35932" lon="-1.17498">
        <ele>63</ele>
        <time>2015-01-11T11:44:20.000Z</time>
      </trkpt>
      <trkpt lat="47.35938" lon="-1.17497">
        <ele>64</ele>
        <time>2015-01-11T11:44:22.000Z</time>
      </trkpt>
      <trkpt lat="47.35946" lon="-1.175">
        <ele>63</ele>
        <time>2015-01-11T11:44:24.000Z</time>
      </trkpt>
      <trkpt lat="47.35954" lon="-1.17507">
        <ele>63</ele>
        <time>2015-01-11T11:44:26.000Z</time>
      </trkpt>
      <trkpt lat="47.35961" lon="-1.17514">
        <ele>68</ele>
        <time>2015-01-11T11:44:28.000Z</time>
      </trkpt>
      <trkpt lat="47.35969" lon="-1.1752">
        <ele>70</ele>
        <time>2015-01-11T11:44:30.000Z</time>
      </trkpt>
      <trkpt lat="47.35977" lon="-1.17524">
        <ele>71</ele>
        <time>2015-01-11T11:44:32.000Z</time>
      </trkpt>
      <trkpt lat="47.35988" lon="-1.17528">
        <ele>69</ele>
        <time>2015-01-11T11:44:34.000Z</time>
      </trkpt>
      <trkpt lat="47.35998" lon="-1.1753">
        <ele>69</ele>
        <time>2015-01-11T11:44:36.000Z</time>
      </trkpt>
      <trkpt lat="47.36007" lon="-1.17535">
        <ele>70</ele>
        <time>2015-01-11T11:44:38.000Z</time>
      </trkpt>
      <trkpt lat="47.36016" lon="-1.1754">
        <ele>69</ele>
        <time>2015-01-11T11:44:40.000Z</time>
      </trkpt>
      <trkpt lat="47.36027" lon="-1.17546">
        <ele>68</ele>
        <time>2015-01-11T11:44:42.000Z</time>
      </trkpt>
      <trkpt lat="47.3604" lon="-1.17552">
        <ele>67</ele>
        <time>2015-01-11T11:44:44.000Z</time>
      </trkpt>
      <trkpt lat="47.36054" lon="-1.1756">
        <ele>67</ele>
        <time>2015-01-11T11:44:46.000Z</time>
      </trkpt>
      <trkpt lat="47.3607" lon="-1.17568">
        <ele>68</ele>
        <time>2015-01-11T11:44:48.000Z</time>
      </trkpt>
      <trkpt lat="47.36088" lon="-1.17577">
        <ele>69</ele>
        <time>2015-01-11T11:44:50.000Z</time>
      </trkpt>
      <trkpt lat="47.36105" lon="-1.17585">
        <ele>68</ele>
        <time>2015-01-11T11:44:52.000Z</time>
      </trkpt>
      <trkpt lat="47.36122" lon="-1.17594">
        <ele>69</ele>
        <time>2015-01-11T11:44:54.000Z</time>
      </trkpt>
      <trkpt lat="47.36139" lon="-1.17602">
        <ele>70</ele>
        <time>2015-01-11T11:44:56.000Z</time>
      </trkpt>
      <trkpt lat="47.36157" lon="-1.1761">
        <ele>71</ele>
        <time>2015-01-11T11:44:58.000Z</time>
      </trkpt>
      <trkpt lat="47.36172" lon="-1.1762">
        <ele>71</ele>
        <time>2015-01-11T11:45:00.000Z</time>
      </trkpt>
      <trkpt lat="47.36189" lon="-1.17628">
        <ele>71</ele>
        <time>2015-01-11T11:45:02.000Z</time>
      </trkpt>
      <trkpt lat="47.36208" lon="-1.17636">
        <ele>70</ele>
        <time>2015-01-11T11:45:04.000Z</time>
      </trkpt>
      <trkpt lat="47.36226" lon="-1.17644">
        <ele>70</ele>
        <time>2015-01-11T11:45:06.000Z</time>
      </trkpt>
      <trkpt lat="47.36242" lon="-1.17659">
        <ele>69</ele>
        <time>2015-01-11T11:45:08.000Z</time>
      </trkpt>
      <trkpt lat="47.36257" lon="-1.17669">
        <ele>67</ele>
        <time>2015-01-11T11:45:10.000Z</time>
      </trkpt>
      <trkpt lat="47.36272" lon="-1.17677">
        <ele>69</ele>
        <time>2015-01-11T11:45:12.000Z</time>
      </trkpt>
      <trkpt lat="47.36287" lon="-1.17684">
        <ele>67</ele>
        <time>2015-01-11T11:45:14.000Z</time>
      </trkpt>
      <trkpt lat="47.36299" lon="-1.1769">
        <ele>67</ele>
        <time>2015-01-11T11:45:16.000Z</time>
      </trkpt>
      <trkpt lat="47.36311" lon="-1.17698">
        <ele>68</ele>
        <time>2015-01-11T11:45:18.000Z</time>
      </trkpt>
      <trkpt lat="47.36323" lon="-1.17701">
        <ele>69</ele>
        <time>2015-01-11T11:45:20.000Z</time>
      </trkpt>
      <trkpt lat="47.36333" lon="-1.17706">
        <ele>69</ele>
        <time>2015-01-11T11:45:22.000Z</time>
      </trkpt>
      <trkpt lat="47.36343" lon="-1.17709">
        <ele>69</ele>
        <time>2015-01-11T11:45:24.000Z</time>
      </trkpt>
      <trkpt lat="47.36351" lon="-1.17712">
        <ele>68</ele>
        <time>2015-01-11T11:45:26.000Z</time>
      </trkpt>
      <trkpt lat="47.36351" lon="-1.17712">
        <ele>68</ele>
        <time>2015-01-11T11:45:28.000Z</time>
      </trkpt>
      <trkpt lat="47.36351" lon="-1.17712">
        <ele>68</ele>
        <time>2015-01-11T11:45:30.000Z</time>
      </trkpt>
      <trkpt lat="47.36359" lon="-1.17705">
        <ele>65</ele>
        <time>2015-01-11T11:45:32.000Z</time>
      </trkpt>
      <trkpt lat="47.36359" lon="-1.17705">
        <ele>65</ele>
        <time>2015-01-11T11:45:34.000Z</time>
      </trkpt>
      <trkpt lat="47.36359" lon="-1.17705">
        <ele>65</ele>
        <time>2015-01-11T11:45:36.000Z</time>
      </trkpt>
      <trkpt lat="47.36359" lon="-1.17705">
        <ele>65</ele>
        <time>2015-01-11T11:45:38.000Z</time>
      </trkpt>
      <trkpt lat="47.36359" lon="-1.17705">
        <ele>65</ele>
        <time>2015-01-11T11:45:40.000Z</time>
      </trkpt>
      <trkpt lat="47.36367" lon="-1.1771">
        <ele>67</ele>
        <time>2015-01-11T11:46:28.000Z</time>
      </trkpt>
      <trkpt lat="47.36372" lon="-1.17718">
        <ele>68</ele>
        <time>2015-01-11T11:46:30.000Z</time>
      </trkpt>
      <trkpt lat="47.36373" lon="-1.17729">
        <ele>68</ele>
        <time>2015-01-11T11:46:32.000Z</time>
      </trkpt>
      <trkpt lat="47.36371" lon="-1.17739">
        <ele>69</ele>
        <time>2015-01-11T11:46:34.000Z</time>
      </trkpt>
      <trkpt lat="47.36366" lon="-1.17746">
        <ele>70</ele>
        <time>2015-01-11T11:46:36.000Z</time>
      </trkpt>
      <trkpt lat="47.36352" lon="-1.17758">
        <ele>68</ele>
        <time>2015-01-11T11:46:38.000Z</time>
      </trkpt>
      <trkpt lat="47.36341" lon="-1.17764">
        <ele>65</ele>
        <time>2015-01-11T11:46:40.000Z</time>
      </trkpt>
      <trkpt lat="47.3633" lon="-1.17776">
        <ele>63</ele>
        <time>2015-01-11T11:46:42.000Z</time>
      </trkpt>
      <trkpt lat="47.36319" lon="-1.17789">
        <ele>63</ele>
        <time>2015-01-11T11:46:44.000Z</time>
      </trkpt>
      <trkpt lat="47.36309" lon="-1.178">
        <ele>62</ele>
        <time>2015-01-11T11:46:46.000Z</time>
      </trkpt>
      <trkpt lat="47.363" lon="-1.17816">
        <ele>61</ele>
        <time>2015-01-11T11:46:48.000Z</time>
      </trkpt>
      <trkpt lat="47.36295" lon="-1.1783">
        <ele>62</ele>
        <time>2015-01-11T11:46:50.000Z</time>
      </trkpt>
      <trkpt lat="47.36291" lon="-1.17845">
        <ele>62</ele>
        <time>2015-01-11T11:46:52.000Z</time>
      </trkpt>
      <trkpt lat="47.36288" lon="-1.17858">
        <ele>61</ele>
        <time>2015-01-11T11:46:54.000Z</time>
      </trkpt>
      <trkpt lat="47.36285" lon="-1.17871">
        <ele>60</ele>
        <time>2015-01-11T11:46:56.000Z</time>
      </trkpt>
      <trkpt lat="47.36284" lon="-1.17882">
        <ele>60</ele>
        <time>2015-01-11T11:46:58.000Z</time>
      </trkpt>
      <trkpt lat="47.36281" lon="-1.17894">
        <ele>60</ele>
        <time>2015-01-11T11:47:00.000Z</time>
      </trkpt>
      <trkpt lat="47.36279" lon="-1.17906">
        <ele>60</ele>
        <time>2015-01-11T11:47:02.000Z</time>
      </trkpt>
      <trkpt lat="47.36275" lon="-1.17918">
        <ele>60</ele>
        <time>2015-01-11T11:47:04.000Z</time>
      </trkpt>
      <trkpt lat="47.36272" lon="-1.1793">
        <ele>60</ele>
        <time>2015-01-11T11:47:06.000Z</time>
      </trkpt>
      <trkpt lat="47.36275" lon="-1.17944">
        <ele>60</ele>
        <time>2015-01-11T11:47:08.000Z</time>
      </trkpt>
      <trkpt lat="47.36275" lon="-1.17944">
        <ele>60</ele>
        <time>2015-01-11T11:47:10.000Z</time>
      </trkpt>
      <trkpt lat="47.36275" lon="-1.1796">
        <ele>61</ele>
        <time>2015-01-11T11:47:12.000Z</time>
      </trkpt>
      <trkpt lat="47.36275" lon="-1.17968">
        <ele>61</ele>
        <time>2015-01-11T11:47:14.000Z</time>
      </trkpt>
      <trkpt lat="47.36274" lon="-1.17978">
        <ele>61</ele>
        <time>2015-01-11T11:47:16.000Z</time>
      </trkpt>
      <trkpt lat="47.36274" lon="-1.17987">
        <ele>61</ele>
        <time>2015-01-11T11:47:18.000Z</time>
      </trkpt>
      <trkpt lat="47.36272" lon="-1.17996">
        <ele>62</ele>
        <time>2015-01-11T11:47:20.000Z</time>
      </trkpt>
      <trkpt lat="47.36271" lon="-1.18007">
        <ele>61</ele>
        <time>2015-01-11T11:47:22.000Z</time>
      </trkpt>
      <trkpt lat="47.36269" lon="-1.18021">
        <ele>61</ele>
        <time>2015-01-11T11:47:24.000Z</time>
      </trkpt>
      <trkpt lat="47.36264" lon="-1.18034">
        <ele>61</ele>
        <time>2015-01-11T11:47:26.000Z</time>
      </trkpt>
      <trkpt lat="47.36259" lon="-1.1805">
        <ele>60</ele>
        <time>2015-01-11T11:47:28.000Z</time>
      </trkpt>
      <trkpt lat="47.36258" lon="-1.18066">
        <ele>60</ele>
        <time>2015-01-11T11:47:30.000Z</time>
      </trkpt>
      <trkpt lat="47.36256" lon="-1.1808">
        <ele>60</ele>
        <time>2015-01-11T11:47:32.000Z</time>
      </trkpt>
      <trkpt lat="47.36254" lon="-1.18096">
        <ele>61</ele>
        <time>2015-01-11T11:47:34.000Z</time>
      </trkpt>
      <trkpt lat="47.36252" lon="-1.18111">
        <ele>61</ele>
        <time>2015-01-11T11:47:36.000Z</time>
      </trkpt>
      <trkpt lat="47.3625" lon="-1.18126">
        <ele>61</ele>
        <time>2015-01-11T11:47:38.000Z</time>
      </trkpt>
      <trkpt lat="47.36248" lon="-1.1814">
        <ele>61</ele>
        <time>2015-01-11T11:47:40.000Z</time>
      </trkpt>
      <trkpt lat="47.36246" lon="-1.18155">
        <ele>61</ele>
        <time>2015-01-11T11:47:42.000Z</time>
      </trkpt>
      <trkpt lat="47.36245" lon="-1.18171">
        <ele>60</ele>
        <time>2015-01-11T11:47:44.000Z</time>
      </trkpt>
      <trkpt lat="47.36241" lon="-1.18185">
        <ele>61</ele>
        <time>2015-01-11T11:47:46.000Z</time>
      </trkpt>
      <trkpt lat="47.3624" lon="-1.18201">
        <ele>61</ele>
        <time>2015-01-11T11:47:48.000Z</time>
      </trkpt>
      <trkpt lat="47.36236" lon="-1.18214">
        <ele>62</ele>
        <time>2015-01-11T11:47:50.000Z</time>
      </trkpt>
      <trkpt lat="47.36233" lon="-1.18229">
        <ele>62</ele>
        <time>2015-01-11T11:47:52.000Z</time>
      </trkpt>
      <trkpt lat="47.36229" lon="-1.18241">
        <ele>62</ele>
        <time>2015-01-11T11:47:54.000Z</time>
      </trkpt>
      <trkpt lat="47.36227" lon="-1.18252">
        <ele>63</ele>
        <time>2015-01-11T11:47:56.000Z</time>
      </trkpt>
      <trkpt lat="47.36227" lon="-1.18252">
        <ele>63</ele>
        <time>2015-01-11T11:47:58.000Z</time>
      </trkpt>
      <trkpt lat="47.36222" lon="-1.18258">
        <ele>62</ele>
        <time>2015-01-11T11:48:00.000Z</time>
      </trkpt>
      <trkpt lat="47.36216" lon="-1.18271">
        <ele>62</ele>
        <time>2015-01-11T11:48:04.000Z</time>
      </trkpt>
      <trkpt lat="47.36211" lon="-1.18278">
        <ele>61</ele>
        <time>2015-01-11T11:48:06.000Z</time>
      </trkpt>
      <trkpt lat="47.36205" lon="-1.18287">
        <ele>60</ele>
        <time>2015-01-11T11:48:08.000Z</time>
      </trkpt>
      <trkpt lat="47.362" lon="-1.18301">
        <ele>59</ele>
        <time>2015-01-11T11:48:10.000Z</time>
      </trkpt>
      <trkpt lat="47.36196" lon="-1.18312">
        <ele>61</ele>
        <time>2015-01-11T11:48:12.000Z</time>
      </trkpt>
      <trkpt lat="47.36192" lon="-1.18323">
        <ele>59</ele>
        <time>2015-01-11T11:48:14.000Z</time>
      </trkpt>
      <trkpt lat="47.36187" lon="-1.18334">
        <ele>59</ele>
        <time>2015-01-11T11:48:16.000Z</time>
      </trkpt>
      <trkpt lat="47.36182" lon="-1.18345">
        <ele>59</ele>
        <time>2015-01-11T11:48:18.000Z</time>
      </trkpt>
      <trkpt lat="47.36175" lon="-1.18354">
        <ele>60</ele>
        <time>2015-01-11T11:48:20.000Z</time>
      </trkpt>
      <trkpt lat="47.3617" lon="-1.18365">
        <ele>61</ele>
        <time>2015-01-11T11:48:22.000Z</time>
      </trkpt>
      <trkpt lat="47.36164" lon="-1.18378">
        <ele>60</ele>
        <time>2015-01-11T11:48:24.000Z</time>
      </trkpt>
      <trkpt lat="47.36158" lon="-1.18391">
        <ele>60</ele>
        <time>2015-01-11T11:48:26.000Z</time>
      </trkpt>
      <trkpt lat="47.36157" lon="-1.18404">
        <ele>61</ele>
        <time>2015-01-11T11:48:28.000Z</time>
      </trkpt>
      <trkpt lat="47.36157" lon="-1.18404">
        <ele>61</ele>
        <time>2015-01-11T11:48:30.000Z</time>
      </trkpt>
      <trkpt lat="47.36152" lon="-1.18417">
        <ele>62</ele>
        <time>2015-01-11T11:48:32.000Z</time>
      </trkpt>
      <trkpt lat="47.36152" lon="-1.18417">
        <ele>62</ele>
        <time>2015-01-11T11:48:34.000Z</time>
      </trkpt>
      <trkpt lat="47.36147" lon="-1.18432">
        <ele>62</ele>
        <time>2015-01-11T11:48:36.000Z</time>
      </trkpt>
      <trkpt lat="47.36145" lon="-1.1844">
        <ele>61</ele>
        <time>2015-01-11T11:48:38.000Z</time>
      </trkpt>
      <trkpt lat="47.36142" lon="-1.18448">
        <ele>60</ele>
        <time>2015-01-11T11:48:40.000Z</time>
      </trkpt>
      <trkpt lat="47.36138" lon="-1.18455">
        <ele>60</ele>
        <time>2015-01-11T11:48:42.000Z</time>
      </trkpt>
      <trkpt lat="47.36133" lon="-1.18464">
        <ele>62</ele>
        <time>2015-01-11T11:48:44.000Z</time>
      </trkpt>
      <trkpt lat="47.36129" lon="-1.18472">
        <ele>63</ele>
        <time>2015-01-11T11:48:46.000Z</time>
      </trkpt>
      <trkpt lat="47.36126" lon="-1.18481">
        <ele>66</ele>
        <time>2015-01-11T11:48:48.000Z</time>
      </trkpt>
      <trkpt lat="47.36125" lon="-1.18489">
        <ele>67</ele>
        <time>2015-01-11T11:48:50.000Z</time>
      </trkpt>
      <trkpt lat="47.36125" lon="-1.185">
        <ele>67</ele>
        <time>2015-01-11T11:48:52.000Z</time>
      </trkpt>
      <trkpt lat="47.36125" lon="-1.18511">
        <ele>67</ele>
        <time>2015-01-11T11:48:54.000Z</time>
      </trkpt>
      <trkpt lat="47.36125" lon="-1.18522">
        <ele>67</ele>
        <time>2015-01-11T11:48:56.000Z</time>
      </trkpt>
      <trkpt lat="47.36124" lon="-1.18535">
        <ele>66</ele>
        <time>2015-01-11T11:48:58.000Z</time>
      </trkpt>
      <trkpt lat="47.36124" lon="-1.18547">
        <ele>65</ele>
        <time>2015-01-11T11:49:00.000Z</time>
      </trkpt>
      <trkpt lat="47.36122" lon="-1.18557">
        <ele>64</ele>
        <time>2015-01-11T11:49:02.000Z</time>
      </trkpt>
      <trkpt lat="47.36122" lon="-1.18567">
        <ele>65</ele>
        <time>2015-01-11T11:49:04.000Z</time>
      </trkpt>
      <trkpt lat="47.36123" lon="-1.18576">
        <ele>65</ele>
        <time>2015-01-11T11:49:06.000Z</time>
      </trkpt>
      <trkpt lat="47.36123" lon="-1.18576">
        <ele>65</ele>
        <time>2015-01-11T11:49:08.000Z</time>
      </trkpt>
      <trkpt lat="47.36132" lon="-1.18582">
        <ele>67</ele>
        <time>2015-01-11T11:49:10.000Z</time>
      </trkpt>
      <trkpt lat="47.36132" lon="-1.18582">
        <ele>67</ele>
        <time>2015-01-11T11:49:12.000Z</time>
      </trkpt>
      <trkpt lat="47.36141" lon="-1.1858">
        <ele>66</ele>
        <time>2015-01-11T11:49:14.000Z</time>
      </trkpt>
      <trkpt lat="47.36141" lon="-1.1858">
        <ele>66</ele>
        <time>2015-01-11T11:49:16.000Z</time>
      </trkpt>
      <trkpt lat="47.36144" lon="-1.1859">
        <ele>67</ele>
        <time>2015-01-11T11:49:18.000Z</time>
      </trkpt>
      <trkpt lat="47.36144" lon="-1.1859">
        <ele>67</ele>
        <time>2015-01-11T11:49:20.000Z</time>
      </trkpt>
      <trkpt lat="47.3614" lon="-1.18599">
        <ele>64</ele>
        <time>2015-01-11T11:49:22.000Z</time>
      </trkpt>
      <trkpt lat="47.36132" lon="-1.18599">
        <ele>62</ele>
        <time>2015-01-11T11:49:26.000Z</time>
      </trkpt>
      <trkpt lat="47.36125" lon="-1.186">
        <ele>60</ele>
        <time>2015-01-11T11:49:30.000Z</time>
      </trkpt>
      <trkpt lat="47.36125" lon="-1.186">
        <ele>60</ele>
        <time>2015-01-11T11:49:32.000Z</time>
      </trkpt>
      <trkpt lat="47.36121" lon="-1.18612">
        <ele>60</ele>
        <time>2015-01-11T11:49:34.000Z</time>
      </trkpt>
      <trkpt lat="47.3612" lon="-1.18621">
        <ele>60</ele>
        <time>2015-01-11T11:49:36.000Z</time>
      </trkpt>
      <trkpt lat="47.36118" lon="-1.18633">
        <ele>60</ele>
        <time>2015-01-11T11:49:38.000Z</time>
      </trkpt>
      <trkpt lat="47.36113" lon="-1.18647">
        <ele>59</ele>
        <time>2015-01-11T11:49:40.000Z</time>
      </trkpt>
      <trkpt lat="47.36108" lon="-1.18658">
        <ele>60</ele>
        <time>2015-01-11T11:49:42.000Z</time>
      </trkpt>
      <trkpt lat="47.361" lon="-1.18664">
        <ele>57</ele>
        <time>2015-01-11T11:49:44.000Z</time>
      </trkpt>
      <trkpt lat="47.36094" lon="-1.18674">
        <ele>56</ele>
        <time>2015-01-11T11:49:46.000Z</time>
      </trkpt>
      <trkpt lat="47.36091" lon="-1.18684">
        <ele>56</ele>
        <time>2015-01-11T11:49:48.000Z</time>
      </trkpt>
      <trkpt lat="47.36085" lon="-1.18694">
        <ele>57</ele>
        <time>2015-01-11T11:49:50.000Z</time>
      </trkpt>
      <trkpt lat="47.3608" lon="-1.18703">
        <ele>58</ele>
        <time>2015-01-11T11:49:52.000Z</time>
      </trkpt>
      <trkpt lat="47.36074" lon="-1.18718">
        <ele>60</ele>
        <time>2015-01-11T11:49:54.000Z</time>
      </trkpt>
      <trkpt lat="47.36065" lon="-1.18735">
        <ele>59</ele>
        <time>2015-01-11T11:49:56.000Z</time>
      </trkpt>
      <trkpt lat="47.36058" lon="-1.18746">
        <ele>59</ele>
        <time>2015-01-11T11:49:58.000Z</time>
      </trkpt>
      <trkpt lat="47.36051" lon="-1.18762">
        <ele>59</ele>
        <time>2015-01-11T11:50:00.000Z</time>
      </trkpt>
      <trkpt lat="47.36044" lon="-1.18778">
        <ele>60</ele>
        <time>2015-01-11T11:50:02.000Z</time>
      </trkpt>
      <trkpt lat="47.36042" lon="-1.18791">
        <ele>60</ele>
        <time>2015-01-11T11:50:04.000Z</time>
      </trkpt>
      <trkpt lat="47.36037" lon="-1.18803">
        <ele>60</ele>
        <time>2015-01-11T11:50:06.000Z</time>
      </trkpt>
      <trkpt lat="47.36031" lon="-1.18811">
        <ele>61</ele>
        <time>2015-01-11T11:50:08.000Z</time>
      </trkpt>
      <trkpt lat="47.36024" lon="-1.18822">
        <ele>60</ele>
        <time>2015-01-11T11:50:10.000Z</time>
      </trkpt>
      <trkpt lat="47.36019" lon="-1.18833">
        <ele>61</ele>
        <time>2015-01-11T11:50:12.000Z</time>
      </trkpt>
      <trkpt lat="47.36015" lon="-1.18843">
        <ele>61</ele>
        <time>2015-01-11T11:50:14.000Z</time>
      </trkpt>
      <trkpt lat="47.36011" lon="-1.18855">
        <ele>60</ele>
        <time>2015-01-11T11:50:16.000Z</time>
      </trkpt>
      <trkpt lat="47.36005" lon="-1.18869">
        <ele>59</ele>
        <time>2015-01-11T11:50:18.000Z</time>
      </trkpt>
      <trkpt lat="47.35999" lon="-1.18881">
        <ele>59</ele>
        <time>2015-01-11T11:50:20.000Z</time>
      </trkpt>
      <trkpt lat="47.35991" lon="-1.18889">
        <ele>60</ele>
        <time>2015-01-11T11:50:22.000Z</time>
      </trkpt>
      <trkpt lat="47.35986" lon="-1.18902">
        <ele>61</ele>
        <time>2015-01-11T11:50:24.000Z</time>
      </trkpt>
      <trkpt lat="47.3598" lon="-1.18913">
        <ele>62</ele>
        <time>2015-01-11T11:50:26.000Z</time>
      </trkpt>
      <trkpt lat="47.35976" lon="-1.18923">
        <ele>64</ele>
        <time>2015-01-11T11:50:28.000Z</time>
      </trkpt>
      <trkpt lat="47.35971" lon="-1.18938">
        <ele>65</ele>
        <time>2015-01-11T11:50:30.000Z</time>
      </trkpt>
      <trkpt lat="47.35963" lon="-1.18949">
        <ele>63</ele>
        <time>2015-01-11T11:50:32.000Z</time>
      </trkpt>
      <trkpt lat="47.35956" lon="-1.1896">
        <ele>61</ele>
        <time>2015-01-11T11:50:34.000Z</time>
      </trkpt>
      <trkpt lat="47.3595" lon="-1.18974">
        <ele>62</ele>
        <time>2015-01-11T11:50:36.000Z</time>
      </trkpt>
      <trkpt lat="47.35947" lon="-1.18982">
        <ele>63</ele>
        <time>2015-01-11T11:50:38.000Z</time>
      </trkpt>
      <trkpt lat="47.35941" lon="-1.18988">
        <ele>64</ele>
        <time>2015-01-11T11:50:40.000Z</time>
      </trkpt>
      <trkpt lat="47.35934" lon="-1.18998">
        <ele>64</ele>
        <time>2015-01-11T11:50:42.000Z</time>
      </trkpt>
      <trkpt lat="47.35929" lon="-1.19008">
        <ele>63</ele>
        <time>2015-01-11T11:50:45.000Z</time>
      </trkpt>
      <trkpt lat="47.35924" lon="-1.19016">
        <ele>62</ele>
        <time>2015-01-11T11:50:47.000Z</time>
      </trkpt>
      <trkpt lat="47.3592" lon="-1.19023">
        <ele>62</ele>
        <time>2015-01-11T11:50:49.000Z</time>
      </trkpt>
      <trkpt lat="47.3592" lon="-1.19023">
        <ele>62</ele>
        <time>2015-01-11T11:50:51.000Z</time>
      </trkpt>
      <trkpt lat="47.35919" lon="-1.19036">
        <ele>60</ele>
        <time>2015-01-11T11:50:53.000Z</time>
      </trkpt>
      <trkpt lat="47.35919" lon="-1.19036">
        <ele>60</ele>
        <time>2015-01-11T11:50:55.000Z</time>
      </trkpt>
      <trkpt lat="47.35927" lon="-1.19038">
        <ele>63</ele>
        <time>2015-01-11T11:50:57.000Z</time>
      </trkpt>
      <trkpt lat="47.35927" lon="-1.19038">
        <ele>63</ele>
        <time>2015-01-11T11:50:59.000Z</time>
      </trkpt>
      <trkpt lat="47.35939" lon="-1.1904">
        <ele>64</ele>
        <time>2015-01-11T11:51:01.000Z</time>
      </trkpt>
      <trkpt lat="47.35946" lon="-1.19044">
        <ele>65</ele>
        <time>2015-01-11T11:51:03.000Z</time>
      </trkpt>
      <trkpt lat="47.35954" lon="-1.19048">
        <ele>64</ele>
        <time>2015-01-11T11:51:05.000Z</time>
      </trkpt>
      <trkpt lat="47.3596" lon="-1.19053">
        <ele>66</ele>
        <time>2015-01-11T11:51:07.000Z</time>
      </trkpt>
      <trkpt lat="47.3596" lon="-1.19053">
        <ele>66</ele>
        <time>2015-01-11T11:51:09.000Z</time>
      </trkpt>
      <trkpt lat="47.35971" lon="-1.19059">
        <ele>69</ele>
        <time>2015-01-11T11:51:11.000Z</time>
      </trkpt>
      <trkpt lat="47.35979" lon="-1.19062">
        <ele>70</ele>
        <time>2015-01-11T11:51:13.000Z</time>
      </trkpt>
      <trkpt lat="47.35988" lon="-1.19065">
        <ele>70</ele>
        <time>2015-01-11T11:51:15.000Z</time>
      </trkpt>
      <trkpt lat="47.36" lon="-1.19069">
        <ele>67</ele>
        <time>2015-01-11T11:51:17.000Z</time>
      </trkpt>
      <trkpt lat="47.36007" lon="-1.1907">
        <ele>67</ele>
        <time>2015-01-11T11:51:19.000Z</time>
      </trkpt>
      <trkpt lat="47.36014" lon="-1.1907">
        <ele>67</ele>
        <time>2015-01-11T11:51:21.000Z</time>
      </trkpt>
      <trkpt lat="47.36021" lon="-1.1907">
        <ele>66</ele>
        <time>2015-01-11T11:51:23.000Z</time>
      </trkpt>
      <trkpt lat="47.36028" lon="-1.19067">
        <ele>65</ele>
        <time>2015-01-11T11:51:25.000Z</time>
      </trkpt>
      <trkpt lat="47.36031" lon="-1.19059">
        <ele>65</ele>
        <time>2015-01-11T11:51:27.000Z</time>
      </trkpt>
      <trkpt lat="47.36034" lon="-1.19049">
        <ele>64</ele>
        <time>2015-01-11T11:51:29.000Z</time>
      </trkpt>
      <trkpt lat="47.36036" lon="-1.19039">
        <ele>63</ele>
        <time>2015-01-11T11:51:31.000Z</time>
      </trkpt>
      <trkpt lat="47.36037" lon="-1.19029">
        <ele>63</ele>
        <time>2015-01-11T11:51:33.000Z</time>
      </trkpt>
      <trkpt lat="47.3604" lon="-1.1902">
        <ele>61</ele>
        <time>2015-01-11T11:51:35.000Z</time>
      </trkpt>
      <trkpt lat="47.36045" lon="-1.19015">
        <ele>62</ele>
        <time>2015-01-11T11:51:37.000Z</time>
      </trkpt>
      <trkpt lat="47.36051" lon="-1.19015">
        <ele>64</ele>
        <time>2015-01-11T11:51:39.000Z</time>
      </trkpt>
      <trkpt lat="47.36057" lon="-1.19016">
        <ele>65</ele>
        <time>2015-01-11T11:51:41.000Z</time>
      </trkpt>
      <trkpt lat="47.36063" lon="-1.19018">
        <ele>65</ele>
        <time>2015-01-11T11:51:43.000Z</time>
      </trkpt>
      <trkpt lat="47.3607" lon="-1.19018">
        <ele>65</ele>
        <time>2015-01-11T11:51:45.000Z</time>
      </trkpt>
      <trkpt lat="47.36076" lon="-1.19019">
        <ele>67</ele>
        <time>2015-01-11T11:51:47.000Z</time>
      </trkpt>
      <trkpt lat="47.36083" lon="-1.19022">
        <ele>66</ele>
        <time>2015-01-11T11:51:49.000Z</time>
      </trkpt>
      <trkpt lat="47.36091" lon="-1.19023">
        <ele>65</ele>
        <time>2015-01-11T11:51:51.000Z</time>
      </trkpt>
      <trkpt lat="47.3611" lon="-1.19017">
        <ele>60</ele>
        <time>2015-01-11T11:51:54.000Z</time>
      </trkpt>
      <trkpt lat="47.36119" lon="-1.19019">
        <ele>59</ele>
        <time>2015-01-11T11:51:56.000Z</time>
      </trkpt>
      <trkpt lat="47.36129" lon="-1.19022">
        <ele>57</ele>
        <time>2015-01-11T11:51:58.000Z</time>
      </trkpt>
      <trkpt lat="47.36138" lon="-1.19022">
        <ele>57</ele>
        <time>2015-01-11T11:52:00.000Z</time>
      </trkpt>
      <trkpt lat="47.36147" lon="-1.19025">
        <ele>56</ele>
        <time>2015-01-11T11:52:02.000Z</time>
      </trkpt>
      <trkpt lat="47.36158" lon="-1.19024">
        <ele>56</ele>
        <time>2015-01-11T11:52:04.000Z</time>
      </trkpt>
      <trkpt lat="47.36166" lon="-1.19024">
        <ele>56</ele>
        <time>2015-01-11T11:52:06.000Z</time>
      </trkpt>
      <trkpt lat="47.36175" lon="-1.19024">
        <ele>57</ele>
        <time>2015-01-11T11:52:08.000Z</time>
      </trkpt>
      <trkpt lat="47.36186" lon="-1.19027">
        <ele>53</ele>
        <time>2015-01-11T11:52:10.000Z</time>
      </trkpt>
      <trkpt lat="47.36193" lon="-1.19029">
        <ele>54</ele>
        <time>2015-01-11T11:52:12.000Z</time>
      </trkpt>
      <trkpt lat="47.362" lon="-1.19034">
        <ele>55</ele>
        <time>2015-01-11T11:52:14.000Z</time>
      </trkpt>
      <trkpt lat="47.36202" lon="-1.19046">
        <ele>56</ele>
        <time>2015-01-11T11:52:16.000Z</time>
      </trkpt>
      <trkpt lat="47.36203" lon="-1.19058">
        <ele>57</ele>
        <time>2015-01-11T11:52:18.000Z</time>
      </trkpt>
      <trkpt lat="47.36202" lon="-1.19071">
        <ele>58</ele>
        <time>2015-01-11T11:52:20.000Z</time>
      </trkpt>
      <trkpt lat="47.36203" lon="-1.19082">
        <ele>57</ele>
        <time>2015-01-11T11:52:22.000Z</time>
      </trkpt>
      <trkpt lat="47.36205" lon="-1.19095">
        <ele>57</ele>
        <time>2015-01-11T11:52:24.000Z</time>
      </trkpt>
      <trkpt lat="47.36204" lon="-1.19108">
        <ele>57</ele>
        <time>2015-01-11T11:52:26.000Z</time>
      </trkpt>
      <trkpt lat="47.36203" lon="-1.1912">
        <ele>57</ele>
        <time>2015-01-11T11:52:28.000Z</time>
      </trkpt>
      <trkpt lat="47.36202" lon="-1.19138">
        <ele>56</ele>
        <time>2015-01-11T11:52:30.000Z</time>
      </trkpt>
      <trkpt lat="47.36197" lon="-1.19152">
        <ele>53</ele>
        <time>2015-01-11T11:52:33.000Z</time>
      </trkpt>
      <trkpt lat="47.36192" lon="-1.19162">
        <ele>52</ele>
        <time>2015-01-11T11:52:35.000Z</time>
      </trkpt>
      <trkpt lat="47.36192" lon="-1.19177">
        <ele>55</ele>
        <time>2015-01-11T11:52:37.000Z</time>
      </trkpt>
      <trkpt lat="47.36195" lon="-1.19189">
        <ele>52</ele>
        <time>2015-01-11T11:52:39.000Z</time>
      </trkpt>
      <trkpt lat="47.36192" lon="-1.19202">
        <ele>50</ele>
        <time>2015-01-11T11:52:41.000Z</time>
      </trkpt>
      <trkpt lat="47.36192" lon="-1.19212">
        <ele>53</ele>
        <time>2015-01-11T11:52:43.000Z</time>
      </trkpt>
      <trkpt lat="47.36192" lon="-1.19224">
        <ele>54</ele>
        <time>2015-01-11T11:52:45.000Z</time>
      </trkpt>
      <trkpt lat="47.36193" lon="-1.19236">
        <ele>52</ele>
        <time>2015-01-11T11:52:47.000Z</time>
      </trkpt>
      <trkpt lat="47.36194" lon="-1.19247">
        <ele>50</ele>
        <time>2015-01-11T11:52:49.000Z</time>
      </trkpt>
      <trkpt lat="47.36193" lon="-1.19262">
        <ele>47</ele>
        <time>2015-01-11T11:52:51.000Z</time>
      </trkpt>
      <trkpt lat="47.36195" lon="-1.19283">
        <ele>48</ele>
        <time>2015-01-11T11:52:53.000Z</time>
      </trkpt>
      <trkpt lat="47.36193" lon="-1.19302">
        <ele>50</ele>
        <time>2015-01-11T11:52:57.000Z</time>
      </trkpt>
      <trkpt lat="47.36193" lon="-1.19313">
        <ele>52</ele>
        <time>2015-01-11T11:52:59.000Z</time>
      </trkpt>
      <trkpt lat="47.36192" lon="-1.19324">
        <ele>53</ele>
        <time>2015-01-11T11:53:01.000Z</time>
      </trkpt>
      <trkpt lat="47.36189" lon="-1.1934">
        <ele>55</ele>
        <time>2015-01-11T11:53:03.000Z</time>
      </trkpt>
      <trkpt lat="47.36188" lon="-1.19352">
        <ele>57</ele>
        <time>2015-01-11T11:53:05.000Z</time>
      </trkpt>
      <trkpt lat="47.36187" lon="-1.19363">
        <ele>58</ele>
        <time>2015-01-11T11:53:07.000Z</time>
      </trkpt>
      <trkpt lat="47.36186" lon="-1.19374">
        <ele>57</ele>
        <time>2015-01-11T11:53:09.000Z</time>
      </trkpt>
      <trkpt lat="47.36185" lon="-1.19385">
        <ele>57</ele>
        <time>2015-01-11T11:53:11.000Z</time>
      </trkpt>
      <trkpt lat="47.36184" lon="-1.19396">
        <ele>57</ele>
        <time>2015-01-11T11:53:13.000Z</time>
      </trkpt>
      <trkpt lat="47.36183" lon="-1.19408">
        <ele>57</ele>
        <time>2015-01-11T11:53:15.000Z</time>
      </trkpt>
      <trkpt lat="47.36182" lon="-1.1942">
        <ele>59</ele>
        <time>2015-01-11T11:53:17.000Z</time>
      </trkpt>
      <trkpt lat="47.3618" lon="-1.19431">
        <ele>58</ele>
        <time>2015-01-11T11:53:19.000Z</time>
      </trkpt>
      <trkpt lat="47.36179" lon="-1.19443">
        <ele>58</ele>
        <time>2015-01-11T11:53:21.000Z</time>
      </trkpt>
      <trkpt lat="47.36177" lon="-1.19455">
        <ele>56</ele>
        <time>2015-01-11T11:53:23.000Z</time>
      </trkpt>
      <trkpt lat="47.36175" lon="-1.19463">
        <ele>55</ele>
        <time>2015-01-11T11:53:25.000Z</time>
      </trkpt>
      <trkpt lat="47.36175" lon="-1.19463">
        <ele>55</ele>
        <time>2015-01-11T11:53:27.000Z</time>
      </trkpt>
      <trkpt lat="47.36171" lon="-1.19481">
        <ele>56</ele>
        <time>2015-01-11T11:53:29.000Z</time>
      </trkpt>
      <trkpt lat="47.36171" lon="-1.19493">
        <ele>56</ele>
        <time>2015-01-11T11:53:31.000Z</time>
      </trkpt>
      <trkpt lat="47.36172" lon="-1.19523">
        <ele>55</ele>
        <time>2015-01-11T11:53:34.000Z</time>
      </trkpt>
      <trkpt lat="47.36169" lon="-1.1954">
        <ele>54</ele>
        <time>2015-01-11T11:53:37.000Z</time>
      </trkpt>
      <trkpt lat="47.36169" lon="-1.1954">
        <ele>54</ele>
        <time>2015-01-11T11:53:39.000Z</time>
      </trkpt>
      <trkpt lat="47.36168" lon="-1.19559">
        <ele>57</ele>
        <time>2015-01-11T11:53:41.000Z</time>
      </trkpt>
      <trkpt lat="47.36164" lon="-1.19568">
        <ele>57</ele>
        <time>2015-01-11T11:53:43.000Z</time>
      </trkpt>
      <trkpt lat="47.36163" lon="-1.1958">
        <ele>61</ele>
        <time>2015-01-11T11:53:45.000Z</time>
      </trkpt>
      <trkpt lat="47.36168" lon="-1.19589">
        <ele>57</ele>
        <time>2015-01-11T11:53:47.000Z</time>
      </trkpt>
      <trkpt lat="47.36177" lon="-1.19595">
        <ele>56</ele>
        <time>2015-01-11T11:53:49.000Z</time>
      </trkpt>
      <trkpt lat="47.36187" lon="-1.19599">
        <ele>56</ele>
        <time>2015-01-11T11:53:51.000Z</time>
      </trkpt>
      <trkpt lat="47.36195" lon="-1.19603">
        <ele>55</ele>
        <time>2015-01-11T11:53:53.000Z</time>
      </trkpt>
      <trkpt lat="47.36203" lon="-1.19607">
        <ele>58</ele>
        <time>2015-01-11T11:53:55.000Z</time>
      </trkpt>
      <trkpt lat="47.36211" lon="-1.19611">
        <ele>58</ele>
        <time>2015-01-11T11:53:57.000Z</time>
      </trkpt>
      <trkpt lat="47.36217" lon="-1.19616">
        <ele>57</ele>
        <time>2015-01-11T11:53:59.000Z</time>
      </trkpt>
      <trkpt lat="47.36224" lon="-1.19623">
        <ele>57</ele>
        <time>2015-01-11T11:54:01.000Z</time>
      </trkpt>
      <trkpt lat="47.3623" lon="-1.19631">
        <ele>57</ele>
        <time>2015-01-11T11:54:03.000Z</time>
      </trkpt>
      <trkpt lat="47.36235" lon="-1.19639">
        <ele>57</ele>
        <time>2015-01-11T11:54:05.000Z</time>
      </trkpt>
      <trkpt lat="47.3624" lon="-1.19648">
        <ele>57</ele>
        <time>2015-01-11T11:54:07.000Z</time>
      </trkpt>
      <trkpt lat="47.36245" lon="-1.19657">
        <ele>58</ele>
        <time>2015-01-11T11:54:09.000Z</time>
      </trkpt>
      <trkpt lat="47.3625" lon="-1.19667">
        <ele>58</ele>
        <time>2015-01-11T11:54:11.000Z</time>
      </trkpt>
      <trkpt lat="47.36256" lon="-1.19676">
        <ele>57</ele>
        <time>2015-01-11T11:54:13.000Z</time>
      </trkpt>
      <trkpt lat="47.36263" lon="-1.19684">
        <ele>56</ele>
        <time>2015-01-11T11:54:15.000Z</time>
      </trkpt>
      <trkpt lat="47.36268" lon="-1.19691">
        <ele>57</ele>
        <time>2015-01-11T11:54:17.000Z</time>
      </trkpt>
      <trkpt lat="47.36274" lon="-1.19698">
        <ele>58</ele>
        <time>2015-01-11T11:54:19.000Z</time>
      </trkpt>
      <trkpt lat="47.36278" lon="-1.19707">
        <ele>58</ele>
        <time>2015-01-11T11:54:21.000Z</time>
      </trkpt>
      <trkpt lat="47.36283" lon="-1.19713">
        <ele>58</ele>
        <time>2015-01-11T11:54:23.000Z</time>
      </trkpt>
      <trkpt lat="47.36288" lon="-1.19719">
        <ele>58</ele>
        <time>2015-01-11T11:54:25.000Z</time>
      </trkpt>
      <trkpt lat="47.36288" lon="-1.19719">
        <ele>58</ele>
        <time>2015-01-11T11:54:27.000Z</time>
      </trkpt>
      <trkpt lat="47.36295" lon="-1.19724">
        <ele>60</ele>
        <time>2015-01-11T11:54:29.000Z</time>
      </trkpt>
      <trkpt lat="47.36295" lon="-1.19724">
        <ele>60</ele>
        <time>2015-01-11T11:54:31.000Z</time>
      </trkpt>
      <trkpt lat="47.36295" lon="-1.19724">
        <ele>60</ele>
        <time>2015-01-11T11:54:33.000Z</time>
      </trkpt>
      <trkpt lat="47.36295" lon="-1.19736">
        <ele>62</ele>
        <time>2015-01-11T11:54:35.000Z</time>
      </trkpt>
      <trkpt lat="47.36293" lon="-1.1975">
        <ele>64</ele>
        <time>2015-01-11T11:54:39.000Z</time>
      </trkpt>
      <trkpt lat="47.36293" lon="-1.19759">
        <ele>64</ele>
        <time>2015-01-11T11:54:41.000Z</time>
      </trkpt>
      <trkpt lat="47.363" lon="-1.19759">
        <ele>64</ele>
        <time>2015-01-11T11:54:45.000Z</time>
      </trkpt>
      <trkpt lat="47.36302" lon="-1.1975">
        <ele>64</ele>
        <time>2015-01-11T11:54:47.000Z</time>
      </trkpt>
      <trkpt lat="47.36303" lon="-1.1974">
        <ele>65</ele>
        <time>2015-01-11T11:54:49.000Z</time>
      </trkpt>
      <trkpt lat="47.36305" lon="-1.1973">
        <ele>66</ele>
        <time>2015-01-11T11:54:51.000Z</time>
      </trkpt>
      <trkpt lat="47.36305" lon="-1.1973">
        <ele>66</ele>
        <time>2015-01-11T11:54:53.000Z</time>
      </trkpt>
      <trkpt lat="47.36305" lon="-1.1973">
        <ele>66</ele>
        <time>2015-01-11T11:54:55.000Z</time>
      </trkpt>
      <trkpt lat="47.36305" lon="-1.1973">
        <ele>66</ele>
        <time>2015-01-11T11:54:57.000Z</time>
      </trkpt>
      <trkpt lat="47.36304" lon="-1.1974">
        <ele>67</ele>
        <time>2015-01-11T11:54:59.000Z</time>
      </trkpt>
      <trkpt lat="47.36301" lon="-1.1975">
        <ele>67</ele>
        <time>2015-01-11T11:55:01.000Z</time>
      </trkpt>
      <trkpt lat="47.36299" lon="-1.19759">
        <ele>68</ele>
        <time>2015-01-11T11:55:03.000Z</time>
      </trkpt>
      <trkpt lat="47.36299" lon="-1.19759">
        <ele>68</ele>
        <time>2015-01-11T11:55:05.000Z</time>
      </trkpt>
      <trkpt lat="47.36303" lon="-1.19766">
        <ele>67</ele>
        <time>2015-01-11T11:55:07.000Z</time>
      </trkpt>
      <trkpt lat="47.36303" lon="-1.19766">
        <ele>67</ele>
        <time>2015-01-11T11:55:09.000Z</time>
      </trkpt>
      <trkpt lat="47.36303" lon="-1.19766">
        <ele>67</ele>
        <time>2015-01-11T11:55:11.000Z</time>
      </trkpt>
      <trkpt lat="47.36311" lon="-1.19768">
        <ele>66</ele>
        <time>2015-01-11T11:55:13.000Z</time>
      </trkpt>
      <trkpt lat="47.36311" lon="-1.19768">
        <ele>66</ele>
        <time>2015-01-11T11:55:15.000Z</time>
      </trkpt>
      <trkpt lat="47.36311" lon="-1.19768">
        <ele>66</ele>
        <time>2015-01-11T11:55:17.000Z</time>
      </trkpt>
      <trkpt lat="47.36311" lon="-1.19768">
        <ele>66</ele>
        <time>2015-01-11T11:55:19.000Z</time>
      </trkpt>
      <trkpt lat="47.36311" lon="-1.19764">
        <ele>65</ele>
        <time>2015-01-11T11:55:21.000Z</time>
      </trkpt>
      <trkpt lat="47.36311" lon="-1.19764">
        <ele>65</ele>
        <time>2015-01-11T11:55:23.000Z</time>
      </trkpt>
      <trkpt lat="47.36312" lon="-1.19757">
        <ele>65</ele>
        <time>2015-01-11T11:55:27.000Z</time>
      </trkpt>
      <trkpt lat="47.36315" lon="-1.1975">
        <ele>64</ele>
        <time>2015-01-11T11:55:29.000Z</time>
      </trkpt>
      <trkpt lat="47.3633" lon="-1.19748">
        <ele>61</ele>
        <time>2015-01-11T11:55:33.000Z</time>
      </trkpt>
      <trkpt lat="47.36342" lon="-1.19746">
        <ele>61</ele>
        <time>2015-01-11T11:55:35.000Z</time>
      </trkpt>
      <trkpt lat="47.36351" lon="-1.19748">
        <ele>62</ele>
        <time>2015-01-11T11:55:37.000Z</time>
      </trkpt>
      <trkpt lat="47.36351" lon="-1.19748">
        <ele>62</ele>
        <time>2015-01-11T11:55:39.000Z</time>
      </trkpt>
      <trkpt lat="47.36351" lon="-1.19748">
        <ele>62</ele>
        <time>2015-01-11T11:55:41.000Z</time>
      </trkpt>
      <trkpt lat="47.36335" lon="-1.1975">
        <ele>61</ele>
        <time>2015-01-11T11:55:43.000Z</time>
      </trkpt>
      <trkpt lat="47.36325" lon="-1.19753">
        <ele>60</ele>
        <time>2015-01-11T11:55:45.000Z</time>
      </trkpt>
      <trkpt lat="47.36316" lon="-1.19762">
        <ele>62</ele>
        <time>2015-01-11T11:55:47.000Z</time>
      </trkpt>
      <trkpt lat="47.3631" lon="-1.19774">
        <ele>61</ele>
        <time>2015-01-11T11:55:49.000Z</time>
      </trkpt>
      <trkpt lat="47.36308" lon="-1.19788">
        <ele>63</ele>
        <time>2015-01-11T11:55:51.000Z</time>
      </trkpt>
      <trkpt lat="47.36305" lon="-1.198">
        <ele>64</ele>
        <time>2015-01-11T11:55:53.000Z</time>
      </trkpt>
      <trkpt lat="47.36302" lon="-1.19814">
        <ele>63</ele>
        <time>2015-01-11T11:55:55.000Z</time>
      </trkpt>
      <trkpt lat="47.363" lon="-1.19828">
        <ele>63</ele>
        <time>2015-01-11T11:55:57.000Z</time>
      </trkpt>
      <trkpt lat="47.36299" lon="-1.19842">
        <ele>63</ele>
        <time>2015-01-11T11:55:59.000Z</time>
      </trkpt>
      <trkpt lat="47.36297" lon="-1.19854">
        <ele>63</ele>
        <time>2015-01-11T11:56:01.000Z</time>
      </trkpt>
      <trkpt lat="47.36295" lon="-1.19867">
        <ele>64</ele>
        <time>2015-01-11T11:56:03.000Z</time>
      </trkpt>
      <trkpt lat="47.36292" lon="-1.1988">
        <ele>64</ele>
        <time>2015-01-11T11:56:05.000Z</time>
      </trkpt>
      <trkpt lat="47.3629" lon="-1.19891">
        <ele>64</ele>
        <time>2015-01-11T11:56:07.000Z</time>
      </trkpt>
      <trkpt lat="47.36287" lon="-1.19903">
        <ele>64</ele>
        <time>2015-01-11T11:56:09.000Z</time>
      </trkpt>
      <trkpt lat="47.36285" lon="-1.19916">
        <ele>64</ele>
        <time>2015-01-11T11:56:11.000Z</time>
      </trkpt>
      <trkpt lat="47.36282" lon="-1.19928">
        <ele>64</ele>
        <time>2015-01-11T11:56:13.000Z</time>
      </trkpt>
      <trkpt lat="47.36279" lon="-1.19941">
        <ele>66</ele>
        <time>2015-01-11T11:56:15.000Z</time>
      </trkpt>
      <trkpt lat="47.36277" lon="-1.19952">
        <ele>65</ele>
        <time>2015-01-11T11:56:17.000Z</time>
      </trkpt>
      <trkpt lat="47.36276" lon="-1.19964">
        <ele>66</ele>
        <time>2015-01-11T11:56:19.000Z</time>
      </trkpt>
      <trkpt lat="47.36278" lon="-1.19975">
        <ele>67</ele>
        <time>2015-01-11T11:56:21.000Z</time>
      </trkpt>
      <trkpt lat="47.36285" lon="-1.19981">
        <ele>68</ele>
        <time>2015-01-11T11:56:23.000Z</time>
      </trkpt>
      <trkpt lat="47.36293" lon="-1.19982">
        <ele>67</ele>
        <time>2015-01-11T11:56:25.000Z</time>
      </trkpt>
      <trkpt lat="47.36302" lon="-1.1998">
        <ele>67</ele>
        <time>2015-01-11T11:56:27.000Z</time>
      </trkpt>
      <trkpt lat="47.36311" lon="-1.19979">
        <ele>67</ele>
        <time>2015-01-11T11:56:29.000Z</time>
      </trkpt>
      <trkpt lat="47.36319" lon="-1.19977">
        <ele>67</ele>
        <time>2015-01-11T11:56:31.000Z</time>
      </trkpt>
      <trkpt lat="47.36328" lon="-1.19974">
        <ele>67</ele>
        <time>2015-01-11T11:56:33.000Z</time>
      </trkpt>
      <trkpt lat="47.36337" lon="-1.19972">
        <ele>68</ele>
        <time>2015-01-11T11:56:35.000Z</time>
      </trkpt>
      <trkpt lat="47.36345" lon="-1.19971">
        <ele>68</ele>
        <time>2015-01-11T11:56:37.000Z</time>
      </trkpt>
      <trkpt lat="47.36353" lon="-1.19971">
        <ele>68</ele>
        <time>2015-01-11T11:56:39.000Z</time>
      </trkpt>
      <trkpt lat="47.36361" lon="-1.19972">
        <ele>68</ele>
        <time>2015-01-11T11:56:41.000Z</time>
      </trkpt>
      <trkpt lat="47.3637" lon="-1.19972">
        <ele>69</ele>
        <time>2015-01-11T11:56:43.000Z</time>
      </trkpt>
      <trkpt lat="47.36378" lon="-1.19973">
        <ele>69</ele>
        <time>2015-01-11T11:56:45.000Z</time>
      </trkpt>
      <trkpt lat="47.36387" lon="-1.19975">
        <ele>70</ele>
        <time>2015-01-11T11:56:47.000Z</time>
      </trkpt>
      <trkpt lat="47.36395" lon="-1.19978">
        <ele>70</ele>
        <time>2015-01-11T11:56:49.000Z</time>
      </trkpt>
      <trkpt lat="47.36403" lon="-1.1998">
        <ele>71</ele>
        <time>2015-01-11T11:56:51.000Z</time>
      </trkpt>
      <trkpt lat="47.36411" lon="-1.1998">
        <ele>72</ele>
        <time>2015-01-11T11:56:53.000Z</time>
      </trkpt>
      <trkpt lat="47.36418" lon="-1.1998">
        <ele>72</ele>
        <time>2015-01-11T11:56:55.000Z</time>
      </trkpt>
      <trkpt lat="47.36425" lon="-1.1998">
        <ele>72</ele>
        <time>2015-01-11T11:56:57.000Z</time>
      </trkpt>
      <trkpt lat="47.36431" lon="-1.19979">
        <ele>72</ele>
        <time>2015-01-11T11:56:59.000Z</time>
      </trkpt>
      <trkpt lat="47.36431" lon="-1.19979">
        <ele>72</ele>
        <time>2015-01-11T11:57:01.000Z</time>
      </trkpt>
      <trkpt lat="47.36435" lon="-1.19964">
        <ele>71</ele>
        <time>2015-01-11T11:57:03.000Z</time>
      </trkpt>
      <trkpt lat="47.36433" lon="-1.19952">
        <ele>71</ele>
        <time>2015-01-11T11:57:05.000Z</time>
      </trkpt>
      <trkpt lat="47.36432" lon="-1.19941">
        <ele>71</ele>
        <time>2015-01-11T11:57:07.000Z</time>
      </trkpt>
      <trkpt lat="47.36428" lon="-1.19924">
        <ele>70</ele>
        <time>2015-01-11T11:57:09.000Z</time>
      </trkpt>
      <trkpt lat="47.36429" lon="-1.19914">
        <ele>71</ele>
        <time>2015-01-11T11:57:11.000Z</time>
      </trkpt>
      <trkpt lat="47.36429" lon="-1.19914">
        <ele>71</ele>
        <time>2015-01-11T11:57:13.000Z</time>
      </trkpt>
      <trkpt lat="47.36429" lon="-1.19914">
        <ele>71</ele>
        <time>2015-01-11T11:57:15.000Z</time>
      </trkpt>
      <trkpt lat="47.36436" lon="-1.19916">
        <ele>72</ele>
        <time>2015-01-11T11:57:17.000Z</time>
      </trkpt>
      <trkpt lat="47.36436" lon="-1.19916">
        <ele>72</ele>
        <time>2015-01-11T11:57:19.000Z</time>
      </trkpt>
      <trkpt lat="47.36436" lon="-1.19916">
        <ele>72</ele>
        <time>2015-01-11T11:57:21.000Z</time>
      </trkpt>
      <trkpt lat="47.36436" lon="-1.19916">
        <ele>72</ele>
        <time>2015-01-11T11:57:23.000Z</time>
      </trkpt>
      <trkpt lat="47.36436" lon="-1.19916">
        <ele>72</ele>
        <time>2015-01-11T11:57:25.000Z</time>
      </trkpt>
      <trkpt lat="47.36436" lon="-1.19916">
        <ele>72</ele>
        <time>2015-01-11T11:59:22.000Z</time>
      </trkpt>
    </trkseg>
  </trk>
</gpx>